<?xml version="1.0" encoding="UTF-8" standalone="no" ?>
<gpx xmlns="http://www.topografix.com/GPX/1/1" xmlns:xsi="http://www.w3.org/2001/XMLSchema-instance" xsi:schemaLocation="http://www.topografix.com/GPX/1/1 http://www.topografix.com/GPX/1/1/gpx.xsd" version="1.1" creator="VisuGPX - https://www.visugpx.com">
  <metadata>
    <name>Monplaisir Montcuq Le Boulve Monplaisir</name>
  </metadata>
  <trk>
    <name><![CDATA[Monplaisir Montcuq Le Boulve Monplaisir]]></name>
    <trkseg>
      <trkpt lat="44.40468" lon="1.11327">
        <ele>298.606071</ele>
        <time>2022-05-12T10:56:02.656Z</time>
      </trkpt>
      <trkpt lat="44.40472" lon="1.11313">
        <ele>298.606071</ele>
        <time>2022-05-12T10:56:11.044Z</time>
      </trkpt>
      <trkpt lat="44.40466" lon="1.11325">
        <ele>298.606071</ele>
        <time>2022-05-12T10:56:18.044Z</time>
      </trkpt>
      <trkpt lat="44.40458" lon="1.11335">
        <ele>298.606071</ele>
        <time>2022-05-12T10:56:21.064Z</time>
      </trkpt>
      <trkpt lat="44.40448" lon="1.11353">
        <ele>298.606071</ele>
        <time>2022-05-12T10:56:24.034Z</time>
      </trkpt>
      <trkpt lat="44.40442" lon="1.11365">
        <ele>298.606071</ele>
        <time>2022-05-12T10:56:26.055Z</time>
      </trkpt>
      <trkpt lat="44.40434" lon="1.11376">
        <ele>298.606071</ele>
        <time>2022-05-12T10:56:28.062Z</time>
      </trkpt>
      <trkpt lat="44.40426" lon="1.11388">
        <ele>298.606071</ele>
        <time>2022-05-12T10:56:30.059Z</time>
      </trkpt>
      <trkpt lat="44.40418" lon="1.11402">
        <ele>298.01396</ele>
        <time>2022-05-12T10:56:32.057Z</time>
      </trkpt>
      <trkpt lat="44.40408" lon="1.11414">
        <ele>295.859051</ele>
        <time>2022-05-12T10:56:34.034Z</time>
      </trkpt>
      <trkpt lat="44.40398" lon="1.11427">
        <ele>293.770937</ele>
        <time>2022-05-12T10:56:36.079Z</time>
      </trkpt>
      <trkpt lat="44.40388" lon="1.11439">
        <ele>291.596778</ele>
        <time>2022-05-12T10:56:38.074Z</time>
      </trkpt>
      <trkpt lat="44.40377" lon="1.11452">
        <ele>289.41043</ele>
        <time>2022-05-12T10:56:40.083Z</time>
      </trkpt>
      <trkpt lat="44.40366" lon="1.11463">
        <ele>287.268153</ele>
        <time>2022-05-12T10:56:42.073Z</time>
      </trkpt>
      <trkpt lat="44.40356" lon="1.11475">
        <ele>285.114209</ele>
        <time>2022-05-12T10:56:44.044Z</time>
      </trkpt>
      <trkpt lat="44.40346" lon="1.1149">
        <ele>282.719689</ele>
        <time>2022-05-12T10:56:46.064Z</time>
      </trkpt>
      <trkpt lat="44.40335" lon="1.11503">
        <ele>280.572231</ele>
        <time>2022-05-12T10:56:48.070Z</time>
      </trkpt>
      <trkpt lat="44.40325" lon="1.11515">
        <ele>278.373335</ele>
        <time>2022-05-12T10:56:50.073Z</time>
      </trkpt>
      <trkpt lat="44.40314" lon="1.11529">
        <ele>276.029602</ele>
        <time>2022-05-12T10:56:52.068Z</time>
      </trkpt>
      <trkpt lat="44.40303" lon="1.11542">
        <ele>273.697364</ele>
        <time>2022-05-12T10:56:54.040Z</time>
      </trkpt>
      <trkpt lat="44.40291" lon="1.11553">
        <ele>271.463947</ele>
        <time>2022-05-12T10:56:56.054Z</time>
      </trkpt>
      <trkpt lat="44.40281" lon="1.11566">
        <ele>270.453959</ele>
        <time>2022-05-12T10:56:58.074Z</time>
      </trkpt>
      <trkpt lat="44.40271" lon="1.1158">
        <ele>271.864407</ele>
        <time>2022-05-12T10:57:00.073Z</time>
      </trkpt>
      <trkpt lat="44.40261" lon="1.11592">
        <ele>273.08948</ele>
        <time>2022-05-12T10:57:02.054Z</time>
      </trkpt>
      <trkpt lat="44.40252" lon="1.11603">
        <ele>274.284627</ele>
        <time>2022-05-12T10:57:04.044Z</time>
      </trkpt>
      <trkpt lat="44.40244" lon="1.11615">
        <ele>275.364143</ele>
        <time>2022-05-12T10:57:06.105Z</time>
      </trkpt>
      <trkpt lat="44.40236" lon="1.11624">
        <ele>276.390841</ele>
        <time>2022-05-12T10:57:08.063Z</time>
      </trkpt>
      <trkpt lat="44.40227" lon="1.11632">
        <ele>277.378802</ele>
        <time>2022-05-12T10:57:10.077Z</time>
      </trkpt>
      <trkpt lat="44.40219" lon="1.11644">
        <ele>278.505258</ele>
        <time>2022-05-12T10:57:12.102Z</time>
      </trkpt>
      <trkpt lat="44.4021" lon="1.11653">
        <ele>279.569553</ele>
        <time>2022-05-12T10:57:14.038Z</time>
      </trkpt>
      <trkpt lat="44.40202" lon="1.11666">
        <ele>280.755508</ele>
        <time>2022-05-12T10:57:16.060Z</time>
      </trkpt>
      <trkpt lat="44.40194" lon="1.11677">
        <ele>281.811812</ele>
        <time>2022-05-12T10:57:18.112Z</time>
      </trkpt>
      <trkpt lat="44.40185" lon="1.11686">
        <ele>282.878677</ele>
        <time>2022-05-12T10:57:20.078Z</time>
      </trkpt>
      <trkpt lat="44.40176" lon="1.11698">
        <ele>284.096128</ele>
        <time>2022-05-12T10:57:22.066Z</time>
      </trkpt>
      <trkpt lat="44.40169" lon="1.1171">
        <ele>285.125724</ele>
        <time>2022-05-12T10:57:24.095Z</time>
      </trkpt>
      <trkpt lat="44.40163" lon="1.11722">
        <ele>286.169307</ele>
        <time>2022-05-12T10:57:26.057Z</time>
      </trkpt>
      <trkpt lat="44.40157" lon="1.11733">
        <ele>287.128164</ele>
        <time>2022-05-12T10:57:28.079Z</time>
      </trkpt>
      <trkpt lat="44.40151" lon="1.11746">
        <ele>287.02362</ele>
        <time>2022-05-12T10:57:30.117Z</time>
      </trkpt>
      <trkpt lat="44.40147" lon="1.11758">
        <ele>286.637351</ele>
        <time>2022-05-12T10:57:32.067Z</time>
      </trkpt>
      <trkpt lat="44.40141" lon="1.1177">
        <ele>286.229244</ele>
        <time>2022-05-12T10:57:34.061Z</time>
      </trkpt>
      <trkpt lat="44.40135" lon="1.11782">
        <ele>285.817392</ele>
        <time>2022-05-12T10:57:36.067Z</time>
      </trkpt>
      <trkpt lat="44.40128" lon="1.11799">
        <ele>285.279215</ele>
        <time>2022-05-12T10:57:39.112Z</time>
      </trkpt>
      <trkpt lat="44.40121" lon="1.11813">
        <ele>284.785395</ele>
        <time>2022-05-12T10:57:42.059Z</time>
      </trkpt>
      <trkpt lat="44.40116" lon="1.11824">
        <ele>284.404896</ele>
        <time>2022-05-12T10:57:44.081Z</time>
      </trkpt>
      <trkpt lat="44.4011" lon="1.11835">
        <ele>284.015271</ele>
        <time>2022-05-12T10:57:46.058Z</time>
      </trkpt>
      <trkpt lat="44.40105" lon="1.11848">
        <ele>283.59806</ele>
        <time>2022-05-12T10:57:48.052Z</time>
      </trkpt>
      <trkpt lat="44.40099" lon="1.1186">
        <ele>283.176027</ele>
        <time>2022-05-12T10:57:50.026Z</time>
      </trkpt>
      <trkpt lat="44.40092" lon="1.11874">
        <ele>282.70691</ele>
        <time>2022-05-12T10:57:52.046Z</time>
      </trkpt>
      <trkpt lat="44.40086" lon="1.11887">
        <ele>282.278091</ele>
        <time>2022-05-12T10:57:54.055Z</time>
      </trkpt>
      <trkpt lat="44.40082" lon="1.11902">
        <ele>281.810772</ele>
        <time>2022-05-12T10:57:56.063Z</time>
      </trkpt>
      <trkpt lat="44.40075" lon="1.11913">
        <ele>281.387001</ele>
        <time>2022-05-12T10:57:58.065Z</time>
      </trkpt>
      <trkpt lat="44.4007" lon="1.11926">
        <ele>280.959899</ele>
        <time>2022-05-12T10:58:00.081Z</time>
      </trkpt>
      <trkpt lat="44.40064" lon="1.1194">
        <ele>280.503799</ele>
        <time>2022-05-12T10:58:02.051Z</time>
      </trkpt>
      <trkpt lat="44.40057" lon="1.11954">
        <ele>280.029858</ele>
        <time>2022-05-12T10:58:04.044Z</time>
      </trkpt>
      <trkpt lat="44.40052" lon="1.11964">
        <ele>279.639031</ele>
        <time>2022-05-12T10:58:06.076Z</time>
      </trkpt>
      <trkpt lat="44.40047" lon="1.11979">
        <ele>279.141076</ele>
        <time>2022-05-12T10:58:09.062Z</time>
      </trkpt>
      <trkpt lat="44.40041" lon="1.11993">
        <ele>278.618799</ele>
        <time>2022-05-12T10:58:12.064Z</time>
      </trkpt>
      <trkpt lat="44.40036" lon="1.12005">
        <ele>278.181484</ele>
        <time>2022-05-12T10:58:14.050Z</time>
      </trkpt>
      <trkpt lat="44.40033" lon="1.1202">
        <ele>277.700042</ele>
        <time>2022-05-12T10:58:16.072Z</time>
      </trkpt>
      <trkpt lat="44.40028" lon="1.12035">
        <ele>277.181572</ele>
        <time>2022-05-12T10:58:18.070Z</time>
      </trkpt>
      <trkpt lat="44.40022" lon="1.1205">
        <ele>276.655612</ele>
        <time>2022-05-12T10:58:20.082Z</time>
      </trkpt>
      <trkpt lat="44.40019" lon="1.12067">
        <ele>276.106239</ele>
        <time>2022-05-12T10:58:22.069Z</time>
      </trkpt>
      <trkpt lat="44.40012" lon="1.12084">
        <ele>275.506775</ele>
        <time>2022-05-12T10:58:24.036Z</time>
      </trkpt>
      <trkpt lat="44.40002" lon="1.12096">
        <ele>274.936832</ele>
        <time>2022-05-12T10:58:26.059Z</time>
      </trkpt>
      <trkpt lat="44.3999" lon="1.12106">
        <ele>274.350076</ele>
        <time>2022-05-12T10:58:28.063Z</time>
      </trkpt>
      <trkpt lat="44.3998" lon="1.12117">
        <ele>273.790454</ele>
        <time>2022-05-12T10:58:30.063Z</time>
      </trkpt>
      <trkpt lat="44.39969" lon="1.12128">
        <ele>273.216547</ele>
        <time>2022-05-12T10:58:32.050Z</time>
      </trkpt>
      <trkpt lat="44.3996" lon="1.12138">
        <ele>272.684355</ele>
        <time>2022-05-12T10:58:34.039Z</time>
      </trkpt>
      <trkpt lat="44.39949" lon="1.12148">
        <ele>272.362807</ele>
        <time>2022-05-12T10:58:36.065Z</time>
      </trkpt>
      <trkpt lat="44.39939" lon="1.12161">
        <ele>272.216065</ele>
        <time>2022-05-12T10:58:38.068Z</time>
      </trkpt>
      <trkpt lat="44.39928" lon="1.12171">
        <ele>272.088993</ele>
        <time>2022-05-12T10:58:40.049Z</time>
      </trkpt>
      <trkpt lat="44.39919" lon="1.12183">
        <ele>271.95465</ele>
        <time>2022-05-12T10:58:42.072Z</time>
      </trkpt>
      <trkpt lat="44.39908" lon="1.12193">
        <ele>271.823403</ele>
        <time>2022-05-12T10:58:44.036Z</time>
      </trkpt>
      <trkpt lat="44.39897" lon="1.12203">
        <ele>271.690452</ele>
        <time>2022-05-12T10:58:46.057Z</time>
      </trkpt>
      <trkpt lat="44.39888" lon="1.12216">
        <ele>271.557625</ele>
        <time>2022-05-12T10:58:48.072Z</time>
      </trkpt>
      <trkpt lat="44.39878" lon="1.12226">
        <ele>271.425114</ele>
        <time>2022-05-12T10:58:50.067Z</time>
      </trkpt>
      <trkpt lat="44.39867" lon="1.12237">
        <ele>271.293013</ele>
        <time>2022-05-12T10:58:52.056Z</time>
      </trkpt>
      <trkpt lat="44.39857" lon="1.12247">
        <ele>271.162178</ele>
        <time>2022-05-12T10:58:54.068Z</time>
      </trkpt>
      <trkpt lat="44.39847" lon="1.12261">
        <ele>271.016307</ele>
        <time>2022-05-12T10:58:56.062Z</time>
      </trkpt>
      <trkpt lat="44.39836" lon="1.1227">
        <ele>270.884029</ele>
        <time>2022-05-12T10:58:58.048Z</time>
      </trkpt>
      <trkpt lat="44.39825" lon="1.1228">
        <ele>270.7531</ele>
        <time>2022-05-12T10:59:00.082Z</time>
      </trkpt>
      <trkpt lat="44.39816" lon="1.12291">
        <ele>270.627779</ele>
        <time>2022-05-12T10:59:02.062Z</time>
      </trkpt>
      <trkpt lat="44.39805" lon="1.12302">
        <ele>271.774575</ele>
        <time>2022-05-12T10:59:04.055Z</time>
      </trkpt>
      <trkpt lat="44.39795" lon="1.12312">
        <ele>273.521569</ele>
        <time>2022-05-12T10:59:06.056Z</time>
      </trkpt>
      <trkpt lat="44.39786" lon="1.12324">
        <ele>275.26376</ele>
        <time>2022-05-12T10:59:08.058Z</time>
      </trkpt>
      <trkpt lat="44.39776" lon="1.12334">
        <ele>277.051163</ele>
        <time>2022-05-12T10:59:10.035Z</time>
      </trkpt>
      <trkpt lat="44.39766" lon="1.12343">
        <ele>278.727878</ele>
        <time>2022-05-12T10:59:12.036Z</time>
      </trkpt>
      <trkpt lat="44.39757" lon="1.12352">
        <ele>280.369607</ele>
        <time>2022-05-12T10:59:14.045Z</time>
      </trkpt>
      <trkpt lat="44.39748" lon="1.12361">
        <ele>281.930027</ele>
        <time>2022-05-12T10:59:16.079Z</time>
      </trkpt>
      <trkpt lat="44.39739" lon="1.12371">
        <ele>283.49817</ele>
        <time>2022-05-12T10:59:18.062Z</time>
      </trkpt>
      <trkpt lat="44.3973" lon="1.12378">
        <ele>284.939702</ele>
        <time>2022-05-12T10:59:20.058Z</time>
      </trkpt>
      <trkpt lat="44.39721" lon="1.12387">
        <ele>286.546992</ele>
        <time>2022-05-12T10:59:22.066Z</time>
      </trkpt>
      <trkpt lat="44.39712" lon="1.12394">
        <ele>287.990923</ele>
        <time>2022-05-12T10:59:24.044Z</time>
      </trkpt>
      <trkpt lat="44.39703" lon="1.12402">
        <ele>289.519521</ele>
        <time>2022-05-12T10:59:26.035Z</time>
      </trkpt>
      <trkpt lat="44.39694" lon="1.12412">
        <ele>291.195553</ele>
        <time>2022-05-12T10:59:28.044Z</time>
      </trkpt>
      <trkpt lat="44.39686" lon="1.1242">
        <ele>292.592822</ele>
        <time>2022-05-12T10:59:30.076Z</time>
      </trkpt>
      <trkpt lat="44.39677" lon="1.12429">
        <ele>294.129819</ele>
        <time>2022-05-12T10:59:32.074Z</time>
      </trkpt>
      <trkpt lat="44.3967" lon="1.12438">
        <ele>295.456444</ele>
        <time>2022-05-12T10:59:34.034Z</time>
      </trkpt>
      <trkpt lat="44.39663" lon="1.12446">
        <ele>296.340141</ele>
        <time>2022-05-12T10:59:36.072Z</time>
      </trkpt>
      <trkpt lat="44.39652" lon="1.12457">
        <ele>296.959793</ele>
        <time>2022-05-12T10:59:39.076Z</time>
      </trkpt>
      <trkpt lat="44.39644" lon="1.12465">
        <ele>297.43575</ele>
        <time>2022-05-12T10:59:41.068Z</time>
      </trkpt>
      <trkpt lat="44.39636" lon="1.12473">
        <ele>297.862117</ele>
        <time>2022-05-12T10:59:43.084Z</time>
      </trkpt>
      <trkpt lat="44.39625" lon="1.12482">
        <ele>298.483712</ele>
        <time>2022-05-12T10:59:46.067Z</time>
      </trkpt>
      <trkpt lat="44.39613" lon="1.1249">
        <ele>299.088958</ele>
        <time>2022-05-12T10:59:49.039Z</time>
      </trkpt>
      <trkpt lat="44.39602" lon="1.12497">
        <ele>299.638099</ele>
        <time>2022-05-12T10:59:52.075Z</time>
      </trkpt>
      <trkpt lat="44.3959" lon="1.12504">
        <ele>300.22963</ele>
        <time>2022-05-12T10:59:55.055Z</time>
      </trkpt>
      <trkpt lat="44.39579" lon="1.1251">
        <ele>300.773345</ele>
        <time>2022-05-12T10:59:58.075Z</time>
      </trkpt>
      <trkpt lat="44.39569" lon="1.12514">
        <ele>301.283826</ele>
        <time>2022-05-12T11:00:01.057Z</time>
      </trkpt>
      <trkpt lat="44.39557" lon="1.12517">
        <ele>301.851108</ele>
        <time>2022-05-12T11:00:04.055Z</time>
      </trkpt>
      <trkpt lat="44.39545" lon="1.1252">
        <ele>302.417426</ele>
        <time>2022-05-12T11:00:07.076Z</time>
      </trkpt>
      <trkpt lat="44.39533" lon="1.12523">
        <ele>302.988278</ele>
        <time>2022-05-12T11:00:10.051Z</time>
      </trkpt>
      <trkpt lat="44.39521" lon="1.12526">
        <ele>303.552122</ele>
        <time>2022-05-12T11:00:13.073Z</time>
      </trkpt>
      <trkpt lat="44.39508" lon="1.12528">
        <ele>304.117822</ele>
        <time>2022-05-12T11:00:16.078Z</time>
      </trkpt>
      <trkpt lat="44.39496" lon="1.12529">
        <ele>304.14544</ele>
        <time>2022-05-12T11:00:19.076Z</time>
      </trkpt>
      <trkpt lat="44.39484" lon="1.12531">
        <ele>303.336235</ele>
        <time>2022-05-12T11:00:22.064Z</time>
      </trkpt>
      <trkpt lat="44.39471" lon="1.12535">
        <ele>302.484184</ele>
        <time>2022-05-12T11:00:25.081Z</time>
      </trkpt>
      <trkpt lat="44.39461" lon="1.12538">
        <ele>301.804025</ele>
        <time>2022-05-12T11:00:27.071Z</time>
      </trkpt>
      <trkpt lat="44.39451" lon="1.12541">
        <ele>301.138699</ele>
        <time>2022-05-12T11:00:29.091Z</time>
      </trkpt>
      <trkpt lat="44.39442" lon="1.12544">
        <ele>300.511243</ele>
        <time>2022-05-12T11:00:31.055Z</time>
      </trkpt>
      <trkpt lat="44.39432" lon="1.12547">
        <ele>299.830258</ele>
        <time>2022-05-12T11:00:33.080Z</time>
      </trkpt>
      <trkpt lat="44.39423" lon="1.1255">
        <ele>299.221756</ele>
        <time>2022-05-12T11:00:35.098Z</time>
      </trkpt>
      <trkpt lat="44.39413" lon="1.12554">
        <ele>298.545825</ele>
        <time>2022-05-12T11:00:37.068Z</time>
      </trkpt>
      <trkpt lat="44.39404" lon="1.12559">
        <ele>297.911524</ele>
        <time>2022-05-12T11:00:39.066Z</time>
      </trkpt>
      <trkpt lat="44.39395" lon="1.12565">
        <ele>297.277549</ele>
        <time>2022-05-12T11:00:41.052Z</time>
      </trkpt>
      <trkpt lat="44.39387" lon="1.12571">
        <ele>296.67461</ele>
        <time>2022-05-12T11:00:43.069Z</time>
      </trkpt>
      <trkpt lat="44.39379" lon="1.1258">
        <ele>295.985686</ele>
        <time>2022-05-12T11:00:45.056Z</time>
      </trkpt>
      <trkpt lat="44.3937" lon="1.12589">
        <ele>295.291221</ele>
        <time>2022-05-12T11:00:47.058Z</time>
      </trkpt>
      <trkpt lat="44.39361" lon="1.12598">
        <ele>294.545512</ele>
        <time>2022-05-12T11:00:49.064Z</time>
      </trkpt>
      <trkpt lat="44.39351" lon="1.12608">
        <ele>293.745753</ele>
        <time>2022-05-12T11:00:51.052Z</time>
      </trkpt>
      <trkpt lat="44.3934" lon="1.12616">
        <ele>292.927137</ele>
        <time>2022-05-12T11:00:53.073Z</time>
      </trkpt>
      <trkpt lat="44.3933" lon="1.12626">
        <ele>292.090189</ele>
        <time>2022-05-12T11:00:55.064Z</time>
      </trkpt>
      <trkpt lat="44.39319" lon="1.12637">
        <ele>291.224707</ele>
        <time>2022-05-12T11:00:57.083Z</time>
      </trkpt>
      <trkpt lat="44.3931" lon="1.1265">
        <ele>290.361749</ele>
        <time>2022-05-12T11:00:59.055Z</time>
      </trkpt>
      <trkpt lat="44.39299" lon="1.12659">
        <ele>289.529655</ele>
        <time>2022-05-12T11:01:01.045Z</time>
      </trkpt>
      <trkpt lat="44.39289" lon="1.1267">
        <ele>288.669195</ele>
        <time>2022-05-12T11:01:03.038Z</time>
      </trkpt>
      <trkpt lat="44.3928" lon="1.12683">
        <ele>287.807491</ele>
        <time>2022-05-12T11:01:05.065Z</time>
      </trkpt>
      <trkpt lat="44.39271" lon="1.12698">
        <ele>286.923842</ele>
        <time>2022-05-12T11:01:07.061Z</time>
      </trkpt>
      <trkpt lat="44.39266" lon="1.12713">
        <ele>286.089046</ele>
        <time>2022-05-12T11:01:09.067Z</time>
      </trkpt>
      <trkpt lat="44.39263" lon="1.12732">
        <ele>285.210292</ele>
        <time>2022-05-12T11:01:11.065Z</time>
      </trkpt>
      <trkpt lat="44.39263" lon="1.12749">
        <ele>284.37995</ele>
        <time>2022-05-12T11:01:13.078Z</time>
      </trkpt>
      <trkpt lat="44.39265" lon="1.12767">
        <ele>283.512433</ele>
        <time>2022-05-12T11:01:15.072Z</time>
      </trkpt>
      <trkpt lat="44.39268" lon="1.12786">
        <ele>282.606674</ele>
        <time>2022-05-12T11:01:17.056Z</time>
      </trkpt>
      <trkpt lat="44.3927" lon="1.12806">
        <ele>281.673412</ele>
        <time>2022-05-12T11:01:19.042Z</time>
      </trkpt>
      <trkpt lat="44.39273" lon="1.12823">
        <ele>280.838222</ele>
        <time>2022-05-12T11:01:21.064Z</time>
      </trkpt>
      <trkpt lat="44.39277" lon="1.12843">
        <ele>281.015754</ele>
        <time>2022-05-12T11:01:23.059Z</time>
      </trkpt>
      <trkpt lat="44.39282" lon="1.1286">
        <ele>281.242585</ele>
        <time>2022-05-12T11:01:25.056Z</time>
      </trkpt>
      <trkpt lat="44.39283" lon="1.1288">
        <ele>281.485991</ele>
        <time>2022-05-12T11:01:27.066Z</time>
      </trkpt>
      <trkpt lat="44.39281" lon="1.12902">
        <ele>281.770279</ele>
        <time>2022-05-12T11:01:29.068Z</time>
      </trkpt>
      <trkpt lat="44.39275" lon="1.12923">
        <ele>282.046249</ele>
        <time>2022-05-12T11:01:31.081Z</time>
      </trkpt>
      <trkpt lat="44.39265" lon="1.12939">
        <ele>282.317014</ele>
        <time>2022-05-12T11:01:33.062Z</time>
      </trkpt>
      <trkpt lat="44.39253" lon="1.12951">
        <ele>282.56734</ele>
        <time>2022-05-12T11:01:35.045Z</time>
      </trkpt>
      <trkpt lat="44.39243" lon="1.12962">
        <ele>282.80191</ele>
        <time>2022-05-12T11:01:37.067Z</time>
      </trkpt>
      <trkpt lat="44.39231" lon="1.12974">
        <ele>283.046357</ele>
        <time>2022-05-12T11:01:39.079Z</time>
      </trkpt>
      <trkpt lat="44.39221" lon="1.12986">
        <ele>283.271577</ele>
        <time>2022-05-12T11:01:41.044Z</time>
      </trkpt>
      <trkpt lat="44.39212" lon="1.12995">
        <ele>283.480989</ele>
        <time>2022-05-12T11:01:43.060Z</time>
      </trkpt>
      <trkpt lat="44.39203" lon="1.13004">
        <ele>283.671785</ele>
        <time>2022-05-12T11:01:45.067Z</time>
      </trkpt>
      <trkpt lat="44.39194" lon="1.13013">
        <ele>283.863319</ele>
        <time>2022-05-12T11:01:47.051Z</time>
      </trkpt>
      <trkpt lat="44.39183" lon="1.1302">
        <ele>284.397882</ele>
        <time>2022-05-12T11:01:49.043Z</time>
      </trkpt>
      <trkpt lat="44.39173" lon="1.13027">
        <ele>284.985265</ele>
        <time>2022-05-12T11:01:51.067Z</time>
      </trkpt>
      <trkpt lat="44.39163" lon="1.13033">
        <ele>285.558385</ele>
        <time>2022-05-12T11:01:53.057Z</time>
      </trkpt>
      <trkpt lat="44.39154" lon="1.13039">
        <ele>286.089287</ele>
        <time>2022-05-12T11:01:55.071Z</time>
      </trkpt>
      <trkpt lat="44.39144" lon="1.13043">
        <ele>286.672482</ele>
        <time>2022-05-12T11:01:57.075Z</time>
      </trkpt>
      <trkpt lat="44.39134" lon="1.13047">
        <ele>287.204835</ele>
        <time>2022-05-12T11:01:59.071Z</time>
      </trkpt>
      <trkpt lat="44.39125" lon="1.13052">
        <ele>287.717566</ele>
        <time>2022-05-12T11:02:01.051Z</time>
      </trkpt>
      <trkpt lat="44.39116" lon="1.13057">
        <ele>288.234165</ele>
        <time>2022-05-12T11:02:03.072Z</time>
      </trkpt>
      <trkpt lat="44.39107" lon="1.13066">
        <ele>288.821257</ele>
        <time>2022-05-12T11:02:05.070Z</time>
      </trkpt>
      <trkpt lat="44.39099" lon="1.13073">
        <ele>289.327413</ele>
        <time>2022-05-12T11:02:07.076Z</time>
      </trkpt>
      <trkpt lat="44.39091" lon="1.13083">
        <ele>289.891124</ele>
        <time>2022-05-12T11:02:09.054Z</time>
      </trkpt>
      <trkpt lat="44.39085" lon="1.13093">
        <ele>290.396829</ele>
        <time>2022-05-12T11:02:11.077Z</time>
      </trkpt>
      <trkpt lat="44.39081" lon="1.13105">
        <ele>290.895782</ele>
        <time>2022-05-12T11:02:13.078Z</time>
      </trkpt>
      <trkpt lat="44.39075" lon="1.13118">
        <ele>291.485293</ele>
        <time>2022-05-12T11:02:15.107Z</time>
      </trkpt>
      <trkpt lat="44.39071" lon="1.13131">
        <ele>292.032944</ele>
        <time>2022-05-12T11:02:17.057Z</time>
      </trkpt>
      <trkpt lat="44.39068" lon="1.13146">
        <ele>292.611889</ele>
        <time>2022-05-12T11:02:19.072Z</time>
      </trkpt>
      <trkpt lat="44.39064" lon="1.13158">
        <ele>293.139829</ele>
        <time>2022-05-12T11:02:21.086Z</time>
      </trkpt>
      <trkpt lat="44.3906" lon="1.13172">
        <ele>293.967984</ele>
        <time>2022-05-12T11:02:23.055Z</time>
      </trkpt>
      <trkpt lat="44.39055" lon="1.13185">
        <ele>295.270103</ele>
        <time>2022-05-12T11:02:25.072Z</time>
      </trkpt>
      <trkpt lat="44.39049" lon="1.13195">
        <ele>296.54583</ele>
        <time>2022-05-12T11:02:27.119Z</time>
      </trkpt>
      <trkpt lat="44.39038" lon="1.13207">
        <ele>298.319834</ele>
        <time>2022-05-12T11:02:30.055Z</time>
      </trkpt>
      <trkpt lat="44.39029" lon="1.13213">
        <ele>299.576679</ele>
        <time>2022-05-12T11:02:32.078Z</time>
      </trkpt>
      <trkpt lat="44.39017" lon="1.13219">
        <ele>301.199611</ele>
        <time>2022-05-12T11:02:35.071Z</time>
      </trkpt>
      <trkpt lat="44.39006" lon="1.13226">
        <ele>302.835345</ele>
        <time>2022-05-12T11:02:38.062Z</time>
      </trkpt>
      <trkpt lat="44.38997" lon="1.13238">
        <ele>304.367631</ele>
        <time>2022-05-12T11:02:41.046Z</time>
      </trkpt>
      <trkpt lat="44.38988" lon="1.13251">
        <ele>305.990432</ele>
        <time>2022-05-12T11:02:44.030Z</time>
      </trkpt>
      <trkpt lat="44.3898" lon="1.13264">
        <ele>307.622241</ele>
        <time>2022-05-12T11:02:47.037Z</time>
      </trkpt>
      <trkpt lat="44.38972" lon="1.13278">
        <ele>309.259732</ele>
        <time>2022-05-12T11:02:50.075Z</time>
      </trkpt>
      <trkpt lat="44.38964" lon="1.13294">
        <ele>310.949006</ele>
        <time>2022-05-12T11:02:53.053Z</time>
      </trkpt>
      <trkpt lat="44.38957" lon="1.13309">
        <ele>312.668138</ele>
        <time>2022-05-12T11:02:56.084Z</time>
      </trkpt>
      <trkpt lat="44.38948" lon="1.13323">
        <ele>314.388645</ele>
        <time>2022-05-12T11:02:59.047Z</time>
      </trkpt>
      <trkpt lat="44.38942" lon="1.13333">
        <ele>315.551346</ele>
        <time>2022-05-12T11:03:01.069Z</time>
      </trkpt>
      <trkpt lat="44.38936" lon="1.13343">
        <ele>316.547499</ele>
        <time>2022-05-12T11:03:03.044Z</time>
      </trkpt>
      <trkpt lat="44.38927" lon="1.13356">
        <ele>316.866675</ele>
        <time>2022-05-12T11:03:06.067Z</time>
      </trkpt>
      <trkpt lat="44.38918" lon="1.13368">
        <ele>317.174264</ele>
        <time>2022-05-12T11:03:09.038Z</time>
      </trkpt>
      <trkpt lat="44.38908" lon="1.13379">
        <ele>317.466646</ele>
        <time>2022-05-12T11:03:12.066Z</time>
      </trkpt>
      <trkpt lat="44.38899" lon="1.13391">
        <ele>317.768357</ele>
        <time>2022-05-12T11:03:15.069Z</time>
      </trkpt>
      <trkpt lat="44.38891" lon="1.13405">
        <ele>318.080487</ele>
        <time>2022-05-12T11:03:18.062Z</time>
      </trkpt>
      <trkpt lat="44.38884" lon="1.1342">
        <ele>318.386519</ele>
        <time>2022-05-12T11:03:21.058Z</time>
      </trkpt>
      <trkpt lat="44.38878" lon="1.13436">
        <ele>318.69809</ele>
        <time>2022-05-12T11:03:24.063Z</time>
      </trkpt>
      <trkpt lat="44.38872" lon="1.13451">
        <ele>318.998258</ele>
        <time>2022-05-12T11:03:27.057Z</time>
      </trkpt>
      <trkpt lat="44.38867" lon="1.13468">
        <ele>319.313655</ele>
        <time>2022-05-12T11:03:30.071Z</time>
      </trkpt>
      <trkpt lat="44.38863" lon="1.13485">
        <ele>319.625445</ele>
        <time>2022-05-12T11:03:33.054Z</time>
      </trkpt>
      <trkpt lat="44.38858" lon="1.13502">
        <ele>319.944727</ele>
        <time>2022-05-12T11:03:36.059Z</time>
      </trkpt>
      <trkpt lat="44.38853" lon="1.13519">
        <ele>320.266761</ele>
        <time>2022-05-12T11:03:39.056Z</time>
      </trkpt>
      <trkpt lat="44.38847" lon="1.13535">
        <ele>320.572913</ele>
        <time>2022-05-12T11:03:42.056Z</time>
      </trkpt>
      <trkpt lat="44.3884" lon="1.1355">
        <ele>320.865796</ele>
        <time>2022-05-12T11:03:45.072Z</time>
      </trkpt>
      <trkpt lat="44.38832" lon="1.13562">
        <ele>321.058142</ele>
        <time>2022-05-12T11:03:48.051Z</time>
      </trkpt>
      <trkpt lat="44.38822" lon="1.13574">
        <ele>321.255619</ele>
        <time>2022-05-12T11:03:51.077Z</time>
      </trkpt>
      <trkpt lat="44.38812" lon="1.13586">
        <ele>321.450395</ele>
        <time>2022-05-12T11:03:54.035Z</time>
      </trkpt>
      <trkpt lat="44.38802" lon="1.13595">
        <ele>321.645263</ele>
        <time>2022-05-12T11:03:57.051Z</time>
      </trkpt>
      <trkpt lat="44.38792" lon="1.13607">
        <ele>321.840745</ele>
        <time>2022-05-12T11:04:00.057Z</time>
      </trkpt>
      <trkpt lat="44.38783" lon="1.13619">
        <ele>322.035746</ele>
        <time>2022-05-12T11:04:03.063Z</time>
      </trkpt>
      <trkpt lat="44.38776" lon="1.13633">
        <ele>322.222162</ele>
        <time>2022-05-12T11:04:06.071Z</time>
      </trkpt>
      <trkpt lat="44.38771" lon="1.13648">
        <ele>322.409749</ele>
        <time>2022-05-12T11:04:09.070Z</time>
      </trkpt>
      <trkpt lat="44.38767" lon="1.13665">
        <ele>322.602597</ele>
        <time>2022-05-12T11:04:12.057Z</time>
      </trkpt>
      <trkpt lat="44.38765" lon="1.13683">
        <ele>322.806351</ele>
        <time>2022-05-12T11:04:15.072Z</time>
      </trkpt>
      <trkpt lat="44.38763" lon="1.137">
        <ele>323.003455</ele>
        <time>2022-05-12T11:04:18.068Z</time>
      </trkpt>
      <trkpt lat="44.38762" lon="1.13718">
        <ele>323.199294</ele>
        <time>2022-05-12T11:04:21.047Z</time>
      </trkpt>
      <trkpt lat="44.38761" lon="1.13731">
        <ele>323.348125</ele>
        <time>2022-05-12T11:04:23.055Z</time>
      </trkpt>
      <trkpt lat="44.3876" lon="1.13745">
        <ele>323.498514</ele>
        <time>2022-05-12T11:04:25.111Z</time>
      </trkpt>
      <trkpt lat="44.38759" lon="1.13758">
        <ele>323.628997</ele>
        <time>2022-05-12T11:04:27.053Z</time>
      </trkpt>
      <trkpt lat="44.38757" lon="1.13776">
        <ele>323.498328</ele>
        <time>2022-05-12T11:04:30.061Z</time>
      </trkpt>
      <trkpt lat="44.38756" lon="1.13793">
        <ele>323.369803</ele>
        <time>2022-05-12T11:04:33.067Z</time>
      </trkpt>
      <trkpt lat="44.38755" lon="1.13811">
        <ele>323.243966</ele>
        <time>2022-05-12T11:04:36.065Z</time>
      </trkpt>
      <trkpt lat="44.38754" lon="1.13828">
        <ele>323.115543</ele>
        <time>2022-05-12T11:04:39.080Z</time>
      </trkpt>
      <trkpt lat="44.38753" lon="1.13846">
        <ele>322.990423</ele>
        <time>2022-05-12T11:04:42.080Z</time>
      </trkpt>
      <trkpt lat="44.38751" lon="1.13863">
        <ele>322.865965</ele>
        <time>2022-05-12T11:04:45.056Z</time>
      </trkpt>
      <trkpt lat="44.38747" lon="1.1388">
        <ele>322.739616</ele>
        <time>2022-05-12T11:04:48.099Z</time>
      </trkpt>
      <trkpt lat="44.3874" lon="1.13893">
        <ele>322.618833</ele>
        <time>2022-05-12T11:04:51.061Z</time>
      </trkpt>
      <trkpt lat="44.38728" lon="1.13902">
        <ele>322.483574</ele>
        <time>2022-05-12T11:04:54.104Z</time>
      </trkpt>
      <trkpt lat="44.3872" lon="1.1391">
        <ele>322.381549</ele>
        <time>2022-05-12T11:04:56.047Z</time>
      </trkpt>
      <trkpt lat="44.38712" lon="1.13915">
        <ele>322.288661</ele>
        <time>2022-05-12T11:04:58.068Z</time>
      </trkpt>
      <trkpt lat="44.38702" lon="1.1392">
        <ele>322.18823</ele>
        <time>2022-05-12T11:05:00.091Z</time>
      </trkpt>
      <trkpt lat="44.38693" lon="1.13926">
        <ele>322.085603</ele>
        <time>2022-05-12T11:05:02.069Z</time>
      </trkpt>
      <trkpt lat="44.38682" lon="1.13931">
        <ele>321.968904</ele>
        <time>2022-05-12T11:05:04.042Z</time>
      </trkpt>
      <trkpt lat="44.38673" lon="1.13936">
        <ele>321.870749</ele>
        <time>2022-05-12T11:05:06.099Z</time>
      </trkpt>
      <trkpt lat="44.38662" lon="1.13943">
        <ele>321.831314</ele>
        <time>2022-05-12T11:05:08.082Z</time>
      </trkpt>
      <trkpt lat="44.38651" lon="1.1395">
        <ele>321.851485</ele>
        <time>2022-05-12T11:05:10.068Z</time>
      </trkpt>
      <trkpt lat="44.38643" lon="1.13956">
        <ele>321.867267</ele>
        <time>2022-05-12T11:05:12.094Z</time>
      </trkpt>
      <trkpt lat="44.38633" lon="1.13963">
        <ele>321.885871</ele>
        <time>2022-05-12T11:05:14.032Z</time>
      </trkpt>
      <trkpt lat="44.38621" lon="1.13972">
        <ele>321.908507</ele>
        <time>2022-05-12T11:05:16.073Z</time>
      </trkpt>
      <trkpt lat="44.38611" lon="1.13981">
        <ele>321.928418</ele>
        <time>2022-05-12T11:05:18.066Z</time>
      </trkpt>
      <trkpt lat="44.38601" lon="1.13991">
        <ele>321.948577</ele>
        <time>2022-05-12T11:05:20.071Z</time>
      </trkpt>
      <trkpt lat="44.38592" lon="1.14002">
        <ele>321.968244</ele>
        <time>2022-05-12T11:05:22.078Z</time>
      </trkpt>
      <trkpt lat="44.38582" lon="1.14011">
        <ele>321.988543</ele>
        <time>2022-05-12T11:05:24.059Z</time>
      </trkpt>
      <trkpt lat="44.38573" lon="1.14022">
        <ele>322.008573</ele>
        <time>2022-05-12T11:05:26.055Z</time>
      </trkpt>
      <trkpt lat="44.38564" lon="1.14034">
        <ele>322.029799</ele>
        <time>2022-05-12T11:05:28.071Z</time>
      </trkpt>
      <trkpt lat="44.38555" lon="1.14045">
        <ele>322.050238</ele>
        <time>2022-05-12T11:05:30.060Z</time>
      </trkpt>
      <trkpt lat="44.38545" lon="1.1406">
        <ele>322.073539</ele>
        <time>2022-05-12T11:05:32.086Z</time>
      </trkpt>
      <trkpt lat="44.38537" lon="1.14073">
        <ele>322.094896</ele>
        <time>2022-05-12T11:05:34.035Z</time>
      </trkpt>
      <trkpt lat="44.38529" lon="1.14087">
        <ele>322.116483</ele>
        <time>2022-05-12T11:05:36.061Z</time>
      </trkpt>
      <trkpt lat="44.3852" lon="1.141">
        <ele>321.474</ele>
        <time>2022-05-12T11:05:38.068Z</time>
      </trkpt>
      <trkpt lat="44.38511" lon="1.14114">
        <ele>320.662383</ele>
        <time>2022-05-12T11:05:40.061Z</time>
      </trkpt>
      <trkpt lat="44.38501" lon="1.14127">
        <ele>319.865119</ele>
        <time>2022-05-12T11:05:42.069Z</time>
      </trkpt>
      <trkpt lat="44.38492" lon="1.14141">
        <ele>319.016507</ele>
        <time>2022-05-12T11:05:44.066Z</time>
      </trkpt>
      <trkpt lat="44.38483" lon="1.14155">
        <ele>318.179931</ele>
        <time>2022-05-12T11:05:46.051Z</time>
      </trkpt>
      <trkpt lat="44.38474" lon="1.14168">
        <ele>317.347577</ele>
        <time>2022-05-12T11:05:48.054Z</time>
      </trkpt>
      <trkpt lat="44.38465" lon="1.14184">
        <ele>316.492863</ele>
        <time>2022-05-12T11:05:50.063Z</time>
      </trkpt>
      <trkpt lat="44.38457" lon="1.14197">
        <ele>315.714791</ele>
        <time>2022-05-12T11:05:52.076Z</time>
      </trkpt>
      <trkpt lat="44.38446" lon="1.14208">
        <ele>314.888473</ele>
        <time>2022-05-12T11:05:54.062Z</time>
      </trkpt>
      <trkpt lat="44.38436" lon="1.14221">
        <ele>314.044535</ele>
        <time>2022-05-12T11:05:56.048Z</time>
      </trkpt>
      <trkpt lat="44.38427" lon="1.14233">
        <ele>313.276851</ele>
        <time>2022-05-12T11:05:58.055Z</time>
      </trkpt>
      <trkpt lat="44.38416" lon="1.14244">
        <ele>312.456661</ele>
        <time>2022-05-12T11:06:00.073Z</time>
      </trkpt>
      <trkpt lat="44.38405" lon="1.14255">
        <ele>311.632401</ele>
        <time>2022-05-12T11:06:02.069Z</time>
      </trkpt>
      <trkpt lat="44.38396" lon="1.14266">
        <ele>311.138589</ele>
        <time>2022-05-12T11:06:04.047Z</time>
      </trkpt>
      <trkpt lat="44.38387" lon="1.14277">
        <ele>311.724192</ele>
        <time>2022-05-12T11:06:06.073Z</time>
      </trkpt>
      <trkpt lat="44.38375" lon="1.14288">
        <ele>312.395679</ele>
        <time>2022-05-12T11:06:08.074Z</time>
      </trkpt>
      <trkpt lat="44.38365" lon="1.14299">
        <ele>313.010004</ele>
        <time>2022-05-12T11:06:10.074Z</time>
      </trkpt>
      <trkpt lat="44.38355" lon="1.1431">
        <ele>313.632545</ele>
        <time>2022-05-12T11:06:12.053Z</time>
      </trkpt>
      <trkpt lat="44.38345" lon="1.14322">
        <ele>314.270543</ele>
        <time>2022-05-12T11:06:14.042Z</time>
      </trkpt>
      <trkpt lat="44.38335" lon="1.14333">
        <ele>314.876794</ele>
        <time>2022-05-12T11:06:16.069Z</time>
      </trkpt>
      <trkpt lat="44.38323" lon="1.14342">
        <ele>315.51538</ele>
        <time>2022-05-12T11:06:18.081Z</time>
      </trkpt>
      <trkpt lat="44.38311" lon="1.14351">
        <ele>316.185628</ele>
        <time>2022-05-12T11:06:20.057Z</time>
      </trkpt>
      <trkpt lat="44.383" lon="1.14361">
        <ele>316.802112</ele>
        <time>2022-05-12T11:06:22.049Z</time>
      </trkpt>
      <trkpt lat="44.38288" lon="1.14367">
        <ele>317.449399</ele>
        <time>2022-05-12T11:06:24.090Z</time>
      </trkpt>
      <trkpt lat="44.38275" lon="1.14372">
        <ele>318.086705</ele>
        <time>2022-05-12T11:06:26.062Z</time>
      </trkpt>
      <trkpt lat="44.38262" lon="1.14379">
        <ele>318.743459</ele>
        <time>2022-05-12T11:06:28.043Z</time>
      </trkpt>
      <trkpt lat="44.3825" lon="1.14388">
        <ele>319.406094</ele>
        <time>2022-05-12T11:06:30.108Z</time>
      </trkpt>
      <trkpt lat="44.38237" lon="1.14397">
        <ele>319.98471</ele>
        <time>2022-05-12T11:06:32.049Z</time>
      </trkpt>
      <trkpt lat="44.38226" lon="1.14406">
        <ele>320.454316</ele>
        <time>2022-05-12T11:06:34.056Z</time>
      </trkpt>
      <trkpt lat="44.38213" lon="1.14415">
        <ele>320.948703</ele>
        <time>2022-05-12T11:06:36.094Z</time>
      </trkpt>
      <trkpt lat="44.38202" lon="1.14425">
        <ele>321.425834</ele>
        <time>2022-05-12T11:06:38.049Z</time>
      </trkpt>
      <trkpt lat="44.38189" lon="1.14434">
        <ele>321.934964</ele>
        <time>2022-05-12T11:06:40.067Z</time>
      </trkpt>
      <trkpt lat="44.38178" lon="1.14444">
        <ele>322.409055</ele>
        <time>2022-05-12T11:06:42.121Z</time>
      </trkpt>
      <trkpt lat="44.38166" lon="1.14455">
        <ele>322.917998</ele>
        <time>2022-05-12T11:06:44.038Z</time>
      </trkpt>
      <trkpt lat="44.38153" lon="1.14463">
        <ele>323.411831</ele>
        <time>2022-05-12T11:06:46.074Z</time>
      </trkpt>
      <trkpt lat="44.3814" lon="1.1447">
        <ele>323.905326</ele>
        <time>2022-05-12T11:06:48.111Z</time>
      </trkpt>
      <trkpt lat="44.38129" lon="1.1448">
        <ele>324.380414</ele>
        <time>2022-05-12T11:06:50.069Z</time>
      </trkpt>
      <trkpt lat="44.38117" lon="1.14488">
        <ele>324.856156</ele>
        <time>2022-05-12T11:06:52.050Z</time>
      </trkpt>
      <trkpt lat="44.38105" lon="1.14497">
        <ele>325.345481</ele>
        <time>2022-05-12T11:06:54.087Z</time>
      </trkpt>
      <trkpt lat="44.38093" lon="1.14506">
        <ele>325.815219</ele>
        <time>2022-05-12T11:06:56.069Z</time>
      </trkpt>
      <trkpt lat="44.38083" lon="1.14518">
        <ele>326.25094</ele>
        <time>2022-05-12T11:06:58.061Z</time>
      </trkpt>
      <trkpt lat="44.38073" lon="1.1453">
        <ele>326.648143</ele>
        <time>2022-05-12T11:07:00.067Z</time>
      </trkpt>
      <trkpt lat="44.38065" lon="1.14545">
        <ele>327.05137</ele>
        <time>2022-05-12T11:07:02.065Z</time>
      </trkpt>
      <trkpt lat="44.38057" lon="1.1456">
        <ele>327.467436</ele>
        <time>2022-05-12T11:07:04.044Z</time>
      </trkpt>
      <trkpt lat="44.38049" lon="1.14578">
        <ele>327.918198</ele>
        <time>2022-05-12T11:07:06.052Z</time>
      </trkpt>
      <trkpt lat="44.38042" lon="1.14603">
        <ele>328.479469</ele>
        <time>2022-05-12T11:07:08.066Z</time>
      </trkpt>
      <trkpt lat="44.38032" lon="1.14622">
        <ele>328.995184</ele>
        <time>2022-05-12T11:07:10.058Z</time>
      </trkpt>
      <trkpt lat="44.38021" lon="1.14642">
        <ele>329.523579</ele>
        <time>2022-05-12T11:07:12.053Z</time>
      </trkpt>
      <trkpt lat="44.38008" lon="1.14659">
        <ele>330.074738</ele>
        <time>2022-05-12T11:07:14.053Z</time>
      </trkpt>
      <trkpt lat="44.38" lon="1.14666">
        <ele>330.348302</ele>
        <time>2022-05-12T11:07:15.055Z</time>
      </trkpt>
      <trkpt lat="44.37993" lon="1.14674">
        <ele>330.623153</ele>
        <time>2022-05-12T11:07:16.097Z</time>
      </trkpt>
      <trkpt lat="44.37985" lon="1.14681">
        <ele>330.896709</ele>
        <time>2022-05-12T11:07:17.059Z</time>
      </trkpt>
      <trkpt lat="44.37976" lon="1.14686">
        <ele>331.192558</ele>
        <time>2022-05-12T11:07:18.052Z</time>
      </trkpt>
      <trkpt lat="44.37966" lon="1.1469">
        <ele>331.458678</ele>
        <time>2022-05-12T11:07:19.057Z</time>
      </trkpt>
      <trkpt lat="44.37956" lon="1.14693">
        <ele>330.963656</ele>
        <time>2022-05-12T11:07:20.057Z</time>
      </trkpt>
      <trkpt lat="44.37947" lon="1.14697">
        <ele>330.45395</ele>
        <time>2022-05-12T11:07:21.057Z</time>
      </trkpt>
      <trkpt lat="44.37937" lon="1.147">
        <ele>329.927069</ele>
        <time>2022-05-12T11:07:22.091Z</time>
      </trkpt>
      <trkpt lat="44.37927" lon="1.14703">
        <ele>329.416506</ele>
        <time>2022-05-12T11:07:23.072Z</time>
      </trkpt>
      <trkpt lat="44.37918" lon="1.14709">
        <ele>328.9323</ele>
        <time>2022-05-12T11:07:24.044Z</time>
      </trkpt>
      <trkpt lat="44.37909" lon="1.14715">
        <ele>328.413017</ele>
        <time>2022-05-12T11:07:25.063Z</time>
      </trkpt>
      <trkpt lat="44.37899" lon="1.14722">
        <ele>327.879642</ele>
        <time>2022-05-12T11:07:26.096Z</time>
      </trkpt>
      <trkpt lat="44.37891" lon="1.1473">
        <ele>327.377329</ele>
        <time>2022-05-12T11:07:27.037Z</time>
      </trkpt>
      <trkpt lat="44.37884" lon="1.14741">
        <ele>326.849432</ele>
        <time>2022-05-12T11:07:28.184Z</time>
      </trkpt>
      <trkpt lat="44.37877" lon="1.14751">
        <ele>326.332981</ele>
        <time>2022-05-12T11:07:29.096Z</time>
      </trkpt>
      <trkpt lat="44.37868" lon="1.14758">
        <ele>325.817431</ele>
        <time>2022-05-12T11:07:30.058Z</time>
      </trkpt>
      <trkpt lat="44.3786" lon="1.14767">
        <ele>325.320831</ele>
        <time>2022-05-12T11:07:31.051Z</time>
      </trkpt>
      <trkpt lat="44.37852" lon="1.14775">
        <ele>324.785923</ele>
        <time>2022-05-12T11:07:32.074Z</time>
      </trkpt>
      <trkpt lat="44.37843" lon="1.14784">
        <ele>324.242813</ele>
        <time>2022-05-12T11:07:33.064Z</time>
      </trkpt>
      <trkpt lat="44.37835" lon="1.14793">
        <ele>323.725914</ele>
        <time>2022-05-12T11:07:34.100Z</time>
      </trkpt>
      <trkpt lat="44.37825" lon="1.148">
        <ele>323.190874</ele>
        <time>2022-05-12T11:07:35.066Z</time>
      </trkpt>
      <trkpt lat="44.37817" lon="1.14808">
        <ele>322.687004</ele>
        <time>2022-05-12T11:07:36.076Z</time>
      </trkpt>
      <trkpt lat="44.37809" lon="1.14817">
        <ele>322.41424</ele>
        <time>2022-05-12T11:07:37.056Z</time>
      </trkpt>
      <trkpt lat="44.378" lon="1.14825">
        <ele>322.394834</ele>
        <time>2022-05-12T11:07:38.077Z</time>
      </trkpt>
      <trkpt lat="44.37792" lon="1.14834">
        <ele>322.375717</ele>
        <time>2022-05-12T11:07:39.064Z</time>
      </trkpt>
      <trkpt lat="44.37785" lon="1.14843">
        <ele>322.357335</ele>
        <time>2022-05-12T11:07:40.107Z</time>
      </trkpt>
      <trkpt lat="44.37777" lon="1.14852">
        <ele>322.338696</ele>
        <time>2022-05-12T11:07:41.061Z</time>
      </trkpt>
      <trkpt lat="44.37767" lon="1.14858">
        <ele>322.318335</ele>
        <time>2022-05-12T11:07:42.064Z</time>
      </trkpt>
      <trkpt lat="44.37757" lon="1.14863">
        <ele>322.297657</ele>
        <time>2022-05-12T11:07:43.068Z</time>
      </trkpt>
      <trkpt lat="44.37748" lon="1.14868">
        <ele>322.280515</ele>
        <time>2022-05-12T11:07:44.034Z</time>
      </trkpt>
      <trkpt lat="44.37737" lon="1.14871">
        <ele>322.259561</ele>
        <time>2022-05-12T11:07:45.071Z</time>
      </trkpt>
      <trkpt lat="44.37727" lon="1.14875">
        <ele>322.239259</ele>
        <time>2022-05-12T11:07:46.092Z</time>
      </trkpt>
      <trkpt lat="44.37717" lon="1.1488">
        <ele>322.219675</ele>
        <time>2022-05-12T11:07:47.039Z</time>
      </trkpt>
      <trkpt lat="44.37706" lon="1.14884">
        <ele>322.198475</ele>
        <time>2022-05-12T11:07:48.065Z</time>
      </trkpt>
      <trkpt lat="44.37696" lon="1.14888">
        <ele>322.178464</ele>
        <time>2022-05-12T11:07:49.062Z</time>
      </trkpt>
      <trkpt lat="44.37685" lon="1.14893">
        <ele>322.157688</ele>
        <time>2022-05-12T11:07:50.072Z</time>
      </trkpt>
      <trkpt lat="44.37676" lon="1.14898">
        <ele>322.139511</ele>
        <time>2022-05-12T11:07:51.076Z</time>
      </trkpt>
      <trkpt lat="44.37666" lon="1.14901">
        <ele>322.119335</ele>
        <time>2022-05-12T11:07:52.065Z</time>
      </trkpt>
      <trkpt lat="44.37655" lon="1.14905">
        <ele>322.099505</ele>
        <time>2022-05-12T11:07:53.061Z</time>
      </trkpt>
      <trkpt lat="44.37645" lon="1.14911">
        <ele>321.902632</ele>
        <time>2022-05-12T11:07:54.053Z</time>
      </trkpt>
      <trkpt lat="44.37635" lon="1.14916">
        <ele>321.465981</ele>
        <time>2022-05-12T11:07:55.060Z</time>
      </trkpt>
      <trkpt lat="44.37624" lon="1.14918">
        <ele>321.0012</ele>
        <time>2022-05-12T11:07:56.053Z</time>
      </trkpt>
      <trkpt lat="44.37613" lon="1.14921">
        <ele>320.538015</ele>
        <time>2022-05-12T11:07:57.095Z</time>
      </trkpt>
      <trkpt lat="44.37601" lon="1.14922">
        <ele>320.069923</ele>
        <time>2022-05-12T11:07:58.070Z</time>
      </trkpt>
      <trkpt lat="44.3759" lon="1.14922">
        <ele>319.626634</ele>
        <time>2022-05-12T11:07:59.049Z</time>
      </trkpt>
      <trkpt lat="44.37579" lon="1.14921">
        <ele>319.183231</ele>
        <time>2022-05-12T11:08:00.069Z</time>
      </trkpt>
      <trkpt lat="44.37569" lon="1.14919">
        <ele>318.746572</ele>
        <time>2022-05-12T11:08:01.068Z</time>
      </trkpt>
      <trkpt lat="44.37558" lon="1.14914">
        <ele>318.27919</ele>
        <time>2022-05-12T11:08:02.068Z</time>
      </trkpt>
      <trkpt lat="44.37549" lon="1.14905">
        <ele>317.829196</ele>
        <time>2022-05-12T11:08:03.117Z</time>
      </trkpt>
      <trkpt lat="44.37541" lon="1.14894">
        <ele>317.364219</ele>
        <time>2022-05-12T11:08:04.041Z</time>
      </trkpt>
      <trkpt lat="44.37532" lon="1.14887">
        <ele>316.971607</ele>
        <time>2022-05-12T11:08:05.046Z</time>
      </trkpt>
      <trkpt lat="44.37522" lon="1.14881">
        <ele>316.524957</ele>
        <time>2022-05-12T11:08:06.073Z</time>
      </trkpt>
      <trkpt lat="44.37511" lon="1.14879">
        <ele>316.076251</ele>
        <time>2022-05-12T11:08:07.051Z</time>
      </trkpt>
      <trkpt lat="44.375" lon="1.14879">
        <ele>315.628896</ele>
        <time>2022-05-12T11:08:08.065Z</time>
      </trkpt>
      <trkpt lat="44.3749" lon="1.14882">
        <ele>315.200263</ele>
        <time>2022-05-12T11:08:09.102Z</time>
      </trkpt>
      <trkpt lat="44.3748" lon="1.14887">
        <ele>314.767365</ele>
        <time>2022-05-12T11:08:10.040Z</time>
      </trkpt>
      <trkpt lat="44.37471" lon="1.14896">
        <ele>314.636018</ele>
        <time>2022-05-12T11:08:11.066Z</time>
      </trkpt>
      <trkpt lat="44.37461" lon="1.14905">
        <ele>314.487143</ele>
        <time>2022-05-12T11:08:12.069Z</time>
      </trkpt>
      <trkpt lat="44.37451" lon="1.14914">
        <ele>314.342046</ele>
        <time>2022-05-12T11:08:13.073Z</time>
      </trkpt>
      <trkpt lat="44.37442" lon="1.1492">
        <ele>314.203787</ele>
        <time>2022-05-12T11:08:14.052Z</time>
      </trkpt>
      <trkpt lat="44.37431" lon="1.14925">
        <ele>314.065536</ele>
        <time>2022-05-12T11:08:15.095Z</time>
      </trkpt>
      <trkpt lat="44.3742" lon="1.14925">
        <ele>313.920916</ele>
        <time>2022-05-12T11:08:16.054Z</time>
      </trkpt>
      <trkpt lat="44.37407" lon="1.14917">
        <ele>313.743086</ele>
        <time>2022-05-12T11:08:17.070Z</time>
      </trkpt>
      <trkpt lat="44.37396" lon="1.14912">
        <ele>313.598593</ele>
        <time>2022-05-12T11:08:18.073Z</time>
      </trkpt>
      <trkpt lat="44.37385" lon="1.14909">
        <ele>313.45999</ele>
        <time>2022-05-12T11:08:19.063Z</time>
      </trkpt>
      <trkpt lat="44.37373" lon="1.14906">
        <ele>313.306739</ele>
        <time>2022-05-12T11:08:20.055Z</time>
      </trkpt>
      <trkpt lat="44.37363" lon="1.14906">
        <ele>313.181008</ele>
        <time>2022-05-12T11:08:21.120Z</time>
      </trkpt>
      <trkpt lat="44.37352" lon="1.14906">
        <ele>313.037664</ele>
        <time>2022-05-12T11:08:22.059Z</time>
      </trkpt>
      <trkpt lat="44.3734" lon="1.14911">
        <ele>312.88875</ele>
        <time>2022-05-12T11:08:23.063Z</time>
      </trkpt>
      <trkpt lat="44.3733" lon="1.14917">
        <ele>312.743962</ele>
        <time>2022-05-12T11:08:24.055Z</time>
      </trkpt>
      <trkpt lat="44.3732" lon="1.14925">
        <ele>312.606103</ele>
        <time>2022-05-12T11:08:25.068Z</time>
      </trkpt>
      <trkpt lat="44.37311" lon="1.14935">
        <ele>312.201605</ele>
        <time>2022-05-12T11:08:26.062Z</time>
      </trkpt>
      <trkpt lat="44.37303" lon="1.14946">
        <ele>311.325148</ele>
        <time>2022-05-12T11:08:27.117Z</time>
      </trkpt>
      <trkpt lat="44.37293" lon="1.14952">
        <ele>310.494628</ele>
        <time>2022-05-12T11:08:28.057Z</time>
      </trkpt>
      <trkpt lat="44.37283" lon="1.14955">
        <ele>309.630394</ele>
        <time>2022-05-12T11:08:29.058Z</time>
      </trkpt>
      <trkpt lat="44.37273" lon="1.14955">
        <ele>308.854993</ele>
        <time>2022-05-12T11:08:30.067Z</time>
      </trkpt>
      <trkpt lat="44.37263" lon="1.14951">
        <ele>308.083319</ele>
        <time>2022-05-12T11:08:31.048Z</time>
      </trkpt>
      <trkpt lat="44.37253" lon="1.14948">
        <ele>307.301896</ele>
        <time>2022-05-12T11:08:32.086Z</time>
      </trkpt>
      <trkpt lat="44.37244" lon="1.14943">
        <ele>306.503221</ele>
        <time>2022-05-12T11:08:33.112Z</time>
      </trkpt>
      <trkpt lat="44.37233" lon="1.14938">
        <ele>305.62309</ele>
        <time>2022-05-12T11:08:34.069Z</time>
      </trkpt>
      <trkpt lat="44.37223" lon="1.14932">
        <ele>304.776221</ele>
        <time>2022-05-12T11:08:35.053Z</time>
      </trkpt>
      <trkpt lat="44.37213" lon="1.14925">
        <ele>303.921359</ele>
        <time>2022-05-12T11:08:36.068Z</time>
      </trkpt>
      <trkpt lat="44.37204" lon="1.1492">
        <ele>303.115061</ele>
        <time>2022-05-12T11:08:37.080Z</time>
      </trkpt>
      <trkpt lat="44.37194" lon="1.14913">
        <ele>302.248758</ele>
        <time>2022-05-12T11:08:38.067Z</time>
      </trkpt>
      <trkpt lat="44.37184" lon="1.14906">
        <ele>301.375437</ele>
        <time>2022-05-12T11:08:39.103Z</time>
      </trkpt>
      <trkpt lat="44.37174" lon="1.14899">
        <ele>300.485589</ele>
        <time>2022-05-12T11:08:40.070Z</time>
      </trkpt>
      <trkpt lat="44.37164" lon="1.14893">
        <ele>299.612291</ele>
        <time>2022-05-12T11:08:41.081Z</time>
      </trkpt>
      <trkpt lat="44.37152" lon="1.1489">
        <ele>298.721173</ele>
        <time>2022-05-12T11:08:42.057Z</time>
      </trkpt>
      <trkpt lat="44.37142" lon="1.14891">
        <ele>298.464627</ele>
        <time>2022-05-12T11:08:43.073Z</time>
      </trkpt>
      <trkpt lat="44.37131" lon="1.14896">
        <ele>298.529766</ele>
        <time>2022-05-12T11:08:44.041Z</time>
      </trkpt>
      <trkpt lat="44.37122" lon="1.14906">
        <ele>298.599525</ele>
        <time>2022-05-12T11:08:45.105Z</time>
      </trkpt>
      <trkpt lat="44.37114" lon="1.14917">
        <ele>298.664877</ele>
        <time>2022-05-12T11:08:46.065Z</time>
      </trkpt>
      <trkpt lat="44.37107" lon="1.14929">
        <ele>298.731776</ele>
        <time>2022-05-12T11:08:47.059Z</time>
      </trkpt>
      <trkpt lat="44.37099" lon="1.14941">
        <ele>298.797711</ele>
        <time>2022-05-12T11:08:48.060Z</time>
      </trkpt>
      <trkpt lat="44.37091" lon="1.14952">
        <ele>298.866886</ele>
        <time>2022-05-12T11:08:49.055Z</time>
      </trkpt>
      <trkpt lat="44.37082" lon="1.14962">
        <ele>298.932716</ele>
        <time>2022-05-12T11:08:50.063Z</time>
      </trkpt>
      <trkpt lat="44.37072" lon="1.14971">
        <ele>299.00468</ele>
        <time>2022-05-12T11:08:51.114Z</time>
      </trkpt>
      <trkpt lat="44.37062" lon="1.14979">
        <ele>299.071548</ele>
        <time>2022-05-12T11:08:52.046Z</time>
      </trkpt>
      <trkpt lat="44.37051" lon="1.14984">
        <ele>299.144219</ele>
        <time>2022-05-12T11:08:53.070Z</time>
      </trkpt>
      <trkpt lat="44.3704" lon="1.1499">
        <ele>299.212904</ele>
        <time>2022-05-12T11:08:54.045Z</time>
      </trkpt>
      <trkpt lat="44.37028" lon="1.14995">
        <ele>299.286337</ele>
        <time>2022-05-12T11:08:55.064Z</time>
      </trkpt>
      <trkpt lat="44.37016" lon="1.14999">
        <ele>299.359881</ele>
        <time>2022-05-12T11:08:56.067Z</time>
      </trkpt>
      <trkpt lat="44.37004" lon="1.15003">
        <ele>299.430513</ele>
        <time>2022-05-12T11:08:57.106Z</time>
      </trkpt>
      <trkpt lat="44.36994" lon="1.15008">
        <ele>299.536821</ele>
        <time>2022-05-12T11:08:58.072Z</time>
      </trkpt>
      <trkpt lat="44.36982" lon="1.15012">
        <ele>299.95654</ele>
        <time>2022-05-12T11:08:59.053Z</time>
      </trkpt>
      <trkpt lat="44.3697" lon="1.15017">
        <ele>300.37745</ele>
        <time>2022-05-12T11:09:00.078Z</time>
      </trkpt>
      <trkpt lat="44.36958" lon="1.15022">
        <ele>300.797054</ele>
        <time>2022-05-12T11:09:01.080Z</time>
      </trkpt>
      <trkpt lat="44.36947" lon="1.15027">
        <ele>301.202505</ele>
        <time>2022-05-12T11:09:02.052Z</time>
      </trkpt>
      <trkpt lat="44.36936" lon="1.15034">
        <ele>301.631745</ele>
        <time>2022-05-12T11:09:03.099Z</time>
      </trkpt>
      <trkpt lat="44.36925" lon="1.15041">
        <ele>302.055749</ele>
        <time>2022-05-12T11:09:04.041Z</time>
      </trkpt>
      <trkpt lat="44.36913" lon="1.15047">
        <ele>302.490624</ele>
        <time>2022-05-12T11:09:05.055Z</time>
      </trkpt>
      <trkpt lat="44.36901" lon="1.15052">
        <ele>302.911427</ele>
        <time>2022-05-12T11:09:06.060Z</time>
      </trkpt>
      <trkpt lat="44.36891" lon="1.15059">
        <ele>303.316888</ele>
        <time>2022-05-12T11:09:07.071Z</time>
      </trkpt>
      <trkpt lat="44.36879" lon="1.15065">
        <ele>303.739944</ele>
        <time>2022-05-12T11:09:08.071Z</time>
      </trkpt>
      <trkpt lat="44.36868" lon="1.15072">
        <ele>304.162765</ele>
        <time>2022-05-12T11:09:09.115Z</time>
      </trkpt>
      <trkpt lat="44.36857" lon="1.15079">
        <ele>304.595333</ele>
        <time>2022-05-12T11:09:10.053Z</time>
      </trkpt>
      <trkpt lat="44.36845" lon="1.15084">
        <ele>305.013835</ele>
        <time>2022-05-12T11:09:11.050Z</time>
      </trkpt>
      <trkpt lat="44.36834" lon="1.1509">
        <ele>305.434776</ele>
        <time>2022-05-12T11:09:12.056Z</time>
      </trkpt>
      <trkpt lat="44.36823" lon="1.15096">
        <ele>305.470728</ele>
        <time>2022-05-12T11:09:13.068Z</time>
      </trkpt>
      <trkpt lat="44.36812" lon="1.15102">
        <ele>304.743387</ele>
        <time>2022-05-12T11:09:14.044Z</time>
      </trkpt>
      <trkpt lat="44.368" lon="1.15108">
        <ele>303.982435</ele>
        <time>2022-05-12T11:09:15.105Z</time>
      </trkpt>
      <trkpt lat="44.36789" lon="1.15114">
        <ele>303.270823</ele>
        <time>2022-05-12T11:09:16.041Z</time>
      </trkpt>
      <trkpt lat="44.36778" lon="1.15118">
        <ele>302.536974</ele>
        <time>2022-05-12T11:09:17.060Z</time>
      </trkpt>
      <trkpt lat="44.36767" lon="1.15123">
        <ele>301.829678</ele>
        <time>2022-05-12T11:09:18.058Z</time>
      </trkpt>
      <trkpt lat="44.36756" lon="1.15127">
        <ele>301.130043</ele>
        <time>2022-05-12T11:09:19.076Z</time>
      </trkpt>
      <trkpt lat="44.36744" lon="1.15133">
        <ele>300.4128</ele>
        <time>2022-05-12T11:09:20.053Z</time>
      </trkpt>
      <trkpt lat="44.36734" lon="1.15138">
        <ele>299.722929</ele>
        <time>2022-05-12T11:09:21.115Z</time>
      </trkpt>
      <trkpt lat="44.36723" lon="1.15142">
        <ele>299.012445</ele>
        <time>2022-05-12T11:09:22.047Z</time>
      </trkpt>
      <trkpt lat="44.36712" lon="1.15149">
        <ele>298.289967</ele>
        <time>2022-05-12T11:09:23.068Z</time>
      </trkpt>
      <trkpt lat="44.36701" lon="1.15156">
        <ele>297.565705</ele>
        <time>2022-05-12T11:09:24.034Z</time>
      </trkpt>
      <trkpt lat="44.36691" lon="1.15164">
        <ele>296.870352</ele>
        <time>2022-05-12T11:09:25.070Z</time>
      </trkpt>
      <trkpt lat="44.36682" lon="1.15173">
        <ele>296.172709</ele>
        <time>2022-05-12T11:09:26.070Z</time>
      </trkpt>
      <trkpt lat="44.36673" lon="1.15182">
        <ele>295.484858</ele>
        <time>2022-05-12T11:09:27.096Z</time>
      </trkpt>
      <trkpt lat="44.36664" lon="1.15193">
        <ele>294.772239</ele>
        <time>2022-05-12T11:09:28.048Z</time>
      </trkpt>
      <trkpt lat="44.36655" lon="1.15204">
        <ele>292.470691</ele>
        <time>2022-05-12T11:09:29.053Z</time>
      </trkpt>
      <trkpt lat="44.36646" lon="1.15215">
        <ele>289.923955</ele>
        <time>2022-05-12T11:09:30.065Z</time>
      </trkpt>
      <trkpt lat="44.36637" lon="1.15227">
        <ele>287.359409</ele>
        <time>2022-05-12T11:09:31.064Z</time>
      </trkpt>
      <trkpt lat="44.36628" lon="1.15237">
        <ele>284.90561</ele>
        <time>2022-05-12T11:09:32.063Z</time>
      </trkpt>
      <trkpt lat="44.3662" lon="1.15249">
        <ele>282.288471</ele>
        <time>2022-05-12T11:09:33.085Z</time>
      </trkpt>
      <trkpt lat="44.36611" lon="1.15259">
        <ele>279.841703</ele>
        <time>2022-05-12T11:09:34.057Z</time>
      </trkpt>
      <trkpt lat="44.36602" lon="1.1527">
        <ele>277.426525</ele>
        <time>2022-05-12T11:09:35.050Z</time>
      </trkpt>
      <trkpt lat="44.36594" lon="1.15281">
        <ele>274.999311</ele>
        <time>2022-05-12T11:09:36.058Z</time>
      </trkpt>
      <trkpt lat="44.36585" lon="1.15291">
        <ele>272.655575</ele>
        <time>2022-05-12T11:09:37.056Z</time>
      </trkpt>
      <trkpt lat="44.36577" lon="1.15302">
        <ele>270.188942</ele>
        <time>2022-05-12T11:09:38.057Z</time>
      </trkpt>
      <trkpt lat="44.36569" lon="1.15313">
        <ele>267.850893</ele>
        <time>2022-05-12T11:09:39.111Z</time>
      </trkpt>
      <trkpt lat="44.36561" lon="1.15324">
        <ele>265.528064</ele>
        <time>2022-05-12T11:09:40.053Z</time>
      </trkpt>
      <trkpt lat="44.36553" lon="1.15334">
        <ele>263.205233</ele>
        <time>2022-05-12T11:09:41.052Z</time>
      </trkpt>
      <trkpt lat="44.36545" lon="1.15344">
        <ele>260.960038</ele>
        <time>2022-05-12T11:09:42.053Z</time>
      </trkpt>
      <trkpt lat="44.36538" lon="1.15355">
        <ele>258.707844</ele>
        <time>2022-05-12T11:09:43.062Z</time>
      </trkpt>
      <trkpt lat="44.3653" lon="1.15365">
        <ele>256.674998</ele>
        <time>2022-05-12T11:09:44.040Z</time>
      </trkpt>
      <trkpt lat="44.36522" lon="1.15375">
        <ele>256.294715</ele>
        <time>2022-05-12T11:09:45.086Z</time>
      </trkpt>
      <trkpt lat="44.36514" lon="1.15383">
        <ele>255.947341</ele>
        <time>2022-05-12T11:09:46.066Z</time>
      </trkpt>
      <trkpt lat="44.36505" lon="1.1539">
        <ele>255.584051</ele>
        <time>2022-05-12T11:09:47.053Z</time>
      </trkpt>
      <trkpt lat="44.36495" lon="1.15393">
        <ele>255.220106</ele>
        <time>2022-05-12T11:09:48.053Z</time>
      </trkpt>
      <trkpt lat="44.36486" lon="1.15396">
        <ele>254.862917</ele>
        <time>2022-05-12T11:09:49.060Z</time>
      </trkpt>
      <trkpt lat="44.36475" lon="1.15397">
        <ele>254.487003</ele>
        <time>2022-05-12T11:09:50.051Z</time>
      </trkpt>
      <trkpt lat="44.36466" lon="1.15398">
        <ele>254.156063</ele>
        <time>2022-05-12T11:09:51.099Z</time>
      </trkpt>
      <trkpt lat="44.36456" lon="1.154">
        <ele>253.811711</ele>
        <time>2022-05-12T11:09:52.062Z</time>
      </trkpt>
      <trkpt lat="44.36447" lon="1.15403">
        <ele>253.479569</ele>
        <time>2022-05-12T11:09:53.063Z</time>
      </trkpt>
      <trkpt lat="44.36438" lon="1.15406">
        <ele>253.127595</ele>
        <time>2022-05-12T11:09:54.042Z</time>
      </trkpt>
      <trkpt lat="44.36429" lon="1.15413">
        <ele>252.786749</ele>
        <time>2022-05-12T11:09:55.062Z</time>
      </trkpt>
      <trkpt lat="44.36413" lon="1.15422">
        <ele>252.146703</ele>
        <time>2022-05-12T11:09:57.095Z</time>
      </trkpt>
      <trkpt lat="44.36405" lon="1.15428">
        <ele>251.820381</ele>
        <time>2022-05-12T11:09:58.065Z</time>
      </trkpt>
      <trkpt lat="44.36397" lon="1.15434">
        <ele>251.489445</ele>
        <time>2022-05-12T11:09:59.050Z</time>
      </trkpt>
      <trkpt lat="44.36388" lon="1.15438">
        <ele>251.165331</ele>
        <time>2022-05-12T11:10:00.071Z</time>
      </trkpt>
      <trkpt lat="44.3638" lon="1.15444">
        <ele>250.836838</ele>
        <time>2022-05-12T11:10:01.053Z</time>
      </trkpt>
      <trkpt lat="44.36371" lon="1.15448">
        <ele>250.510914</ele>
        <time>2022-05-12T11:10:02.067Z</time>
      </trkpt>
      <trkpt lat="44.36363" lon="1.15455">
        <ele>250.198168</ele>
        <time>2022-05-12T11:10:03.097Z</time>
      </trkpt>
      <trkpt lat="44.36355" lon="1.15462">
        <ele>249.943384</ele>
        <time>2022-05-12T11:10:04.051Z</time>
      </trkpt>
      <trkpt lat="44.36346" lon="1.15466">
        <ele>249.68751</ele>
        <time>2022-05-12T11:10:05.058Z</time>
      </trkpt>
      <trkpt lat="44.36338" lon="1.15473">
        <ele>249.425824</ele>
        <time>2022-05-12T11:10:06.061Z</time>
      </trkpt>
      <trkpt lat="44.36329" lon="1.15479">
        <ele>249.155625</ele>
        <time>2022-05-12T11:10:07.065Z</time>
      </trkpt>
      <trkpt lat="44.3632" lon="1.15486">
        <ele>248.886535</ele>
        <time>2022-05-12T11:10:08.063Z</time>
      </trkpt>
      <trkpt lat="44.36312" lon="1.15493">
        <ele>248.619868</ele>
        <time>2022-05-12T11:10:09.106Z</time>
      </trkpt>
      <trkpt lat="44.36303" lon="1.15501">
        <ele>248.343936</ele>
        <time>2022-05-12T11:10:10.076Z</time>
      </trkpt>
      <trkpt lat="44.36296" lon="1.15508">
        <ele>248.101557</ele>
        <time>2022-05-12T11:10:11.043Z</time>
      </trkpt>
      <trkpt lat="44.36288" lon="1.15517">
        <ele>247.842612</ele>
        <time>2022-05-12T11:10:12.049Z</time>
      </trkpt>
      <trkpt lat="44.36274" lon="1.15532">
        <ele>247.35668</ele>
        <time>2022-05-12T11:10:14.033Z</time>
      </trkpt>
      <trkpt lat="44.36262" lon="1.1555">
        <ele>246.87449</ele>
        <time>2022-05-12T11:10:16.049Z</time>
      </trkpt>
      <trkpt lat="44.36255" lon="1.15575">
        <ele>246.366982</ele>
        <time>2022-05-12T11:10:18.074Z</time>
      </trkpt>
      <trkpt lat="44.36253" lon="1.15587">
        <ele>246.115165</ele>
        <time>2022-05-12T11:10:19.056Z</time>
      </trkpt>
      <trkpt lat="44.36251" lon="1.15611">
        <ele>245.664697</ele>
        <time>2022-05-12T11:10:21.098Z</time>
      </trkpt>
      <trkpt lat="44.36255" lon="1.15633">
        <ele>245.346697</ele>
        <time>2022-05-12T11:10:23.078Z</time>
      </trkpt>
      <trkpt lat="44.36265" lon="1.15648">
        <ele>245.193773</ele>
        <time>2022-05-12T11:10:25.053Z</time>
      </trkpt>
      <trkpt lat="44.36278" lon="1.15663">
        <ele>245.015992</ele>
        <time>2022-05-12T11:10:27.094Z</time>
      </trkpt>
      <trkpt lat="44.36291" lon="1.15678">
        <ele>244.844862</ele>
        <time>2022-05-12T11:10:29.059Z</time>
      </trkpt>
      <trkpt lat="44.36303" lon="1.15693">
        <ele>244.673843</ele>
        <time>2022-05-12T11:10:31.068Z</time>
      </trkpt>
      <trkpt lat="44.36315" lon="1.1571">
        <ele>244.504304</ele>
        <time>2022-05-12T11:10:33.105Z</time>
      </trkpt>
      <trkpt lat="44.36326" lon="1.15726">
        <ele>244.335695</ele>
        <time>2022-05-12T11:10:35.063Z</time>
      </trkpt>
      <trkpt lat="44.3633" lon="1.15737">
        <ele>244.242492</ele>
        <time>2022-05-12T11:10:36.074Z</time>
      </trkpt>
      <trkpt lat="44.36333" lon="1.15749">
        <ele>244.148764</ele>
        <time>2022-05-12T11:10:37.068Z</time>
      </trkpt>
      <trkpt lat="44.36335" lon="1.15773">
        <ele>243.973037</ele>
        <time>2022-05-12T11:10:39.096Z</time>
      </trkpt>
      <trkpt lat="44.3633" lon="1.15798">
        <ele>243.778771</ele>
        <time>2022-05-12T11:10:41.064Z</time>
      </trkpt>
      <trkpt lat="44.36328" lon="1.15811">
        <ele>243.684928</ele>
        <time>2022-05-12T11:10:42.068Z</time>
      </trkpt>
      <trkpt lat="44.36324" lon="1.15833">
        <ele>243.57987</ele>
        <time>2022-05-12T11:10:44.044Z</time>
      </trkpt>
      <trkpt lat="44.36325" lon="1.15862">
        <ele>243.642916</ele>
        <time>2022-05-12T11:10:46.070Z</time>
      </trkpt>
      <trkpt lat="44.36323" lon="1.15885">
        <ele>243.694917</ele>
        <time>2022-05-12T11:10:48.070Z</time>
      </trkpt>
      <trkpt lat="44.36322" lon="1.15908">
        <ele>243.745322</ele>
        <time>2022-05-12T11:10:50.066Z</time>
      </trkpt>
      <trkpt lat="44.36322" lon="1.15931">
        <ele>243.797204</ele>
        <time>2022-05-12T11:10:52.073Z</time>
      </trkpt>
      <trkpt lat="44.36324" lon="1.1595">
        <ele>243.840089</ele>
        <time>2022-05-12T11:10:54.033Z</time>
      </trkpt>
      <trkpt lat="44.36326" lon="1.15968">
        <ele>243.88103</ele>
        <time>2022-05-12T11:10:56.095Z</time>
      </trkpt>
      <trkpt lat="44.36331" lon="1.15985">
        <ele>243.922429</ele>
        <time>2022-05-12T11:10:58.046Z</time>
      </trkpt>
      <trkpt lat="44.36336" lon="1.16">
        <ele>243.957797</ele>
        <time>2022-05-12T11:11:00.072Z</time>
      </trkpt>
      <trkpt lat="44.36343" lon="1.16014">
        <ele>243.995473</ele>
        <time>2022-05-12T11:11:02.102Z</time>
      </trkpt>
      <trkpt lat="44.36347" lon="1.16027">
        <ele>244.026696</ele>
        <time>2022-05-12T11:11:04.061Z</time>
      </trkpt>
      <trkpt lat="44.3635" lon="1.16038">
        <ele>244.054789</ele>
        <time>2022-05-12T11:11:06.058Z</time>
      </trkpt>
      <trkpt lat="44.36356" lon="1.16056">
        <ele>244.098266</ele>
        <time>2022-05-12T11:11:09.052Z</time>
      </trkpt>
      <trkpt lat="44.36359" lon="1.16068">
        <ele>244.160152</ele>
        <time>2022-05-12T11:11:11.067Z</time>
      </trkpt>
      <trkpt lat="44.36362" lon="1.1608">
        <ele>244.480342</ele>
        <time>2022-05-12T11:11:13.066Z</time>
      </trkpt>
      <trkpt lat="44.36363" lon="1.16099">
        <ele>244.964671</ele>
        <time>2022-05-12T11:11:16.065Z</time>
      </trkpt>
      <trkpt lat="44.36363" lon="1.16112">
        <ele>245.300604</ele>
        <time>2022-05-12T11:11:18.052Z</time>
      </trkpt>
      <trkpt lat="44.36361" lon="1.16131">
        <ele>245.767823</ele>
        <time>2022-05-12T11:11:21.069Z</time>
      </trkpt>
      <trkpt lat="44.3636" lon="1.16144">
        <ele>246.116542</ele>
        <time>2022-05-12T11:11:23.051Z</time>
      </trkpt>
      <trkpt lat="44.36359" lon="1.16157">
        <ele>246.457686</ele>
        <time>2022-05-12T11:11:25.071Z</time>
      </trkpt>
      <trkpt lat="44.36355" lon="1.16175">
        <ele>246.918965</ele>
        <time>2022-05-12T11:11:28.096Z</time>
      </trkpt>
      <trkpt lat="44.36355" lon="1.1619">
        <ele>247.295613</ele>
        <time>2022-05-12T11:11:30.053Z</time>
      </trkpt>
      <trkpt lat="44.36355" lon="1.16209">
        <ele>247.779598</ele>
        <time>2022-05-12T11:11:33.074Z</time>
      </trkpt>
      <trkpt lat="44.36356" lon="1.16223">
        <ele>248.135896</ele>
        <time>2022-05-12T11:11:35.055Z</time>
      </trkpt>
      <trkpt lat="44.36358" lon="1.16242">
        <ele>248.624622</ele>
        <time>2022-05-12T11:11:38.062Z</time>
      </trkpt>
      <trkpt lat="44.3636" lon="1.16255">
        <ele>248.969544</ele>
        <time>2022-05-12T11:11:40.066Z</time>
      </trkpt>
      <trkpt lat="44.36363" lon="1.16267">
        <ele>249.297408</ele>
        <time>2022-05-12T11:11:42.068Z</time>
      </trkpt>
      <trkpt lat="44.36366" lon="1.16285">
        <ele>249.765366</ele>
        <time>2022-05-12T11:11:45.099Z</time>
      </trkpt>
      <trkpt lat="44.36369" lon="1.16302">
        <ele>250.206027</ele>
        <time>2022-05-12T11:11:48.058Z</time>
      </trkpt>
      <trkpt lat="44.36371" lon="1.16315">
        <ele>250.530088</ele>
        <time>2022-05-12T11:11:51.094Z</time>
      </trkpt>
      <trkpt lat="44.36373" lon="1.16328">
        <ele>250.58467</ele>
        <time>2022-05-12T11:11:53.060Z</time>
      </trkpt>
      <trkpt lat="44.36373" lon="1.16343">
        <ele>250.647206</ele>
        <time>2022-05-12T11:11:56.085Z</time>
      </trkpt>
      <trkpt lat="44.36372" lon="1.16359">
        <ele>250.71225</ele>
        <time>2022-05-12T11:11:59.059Z</time>
      </trkpt>
      <trkpt lat="44.3637" lon="1.16374">
        <ele>250.777094</ele>
        <time>2022-05-12T11:12:02.051Z</time>
      </trkpt>
      <trkpt lat="44.36365" lon="1.16389">
        <ele>250.843488</ele>
        <time>2022-05-12T11:12:05.052Z</time>
      </trkpt>
      <trkpt lat="44.3636" lon="1.16404">
        <ele>250.914372</ele>
        <time>2022-05-12T11:12:08.070Z</time>
      </trkpt>
      <trkpt lat="44.36351" lon="1.1642">
        <ele>250.995049</ele>
        <time>2022-05-12T11:12:11.069Z</time>
      </trkpt>
      <trkpt lat="44.36346" lon="1.16431">
        <ele>251.047673</ele>
        <time>2022-05-12T11:12:13.065Z</time>
      </trkpt>
      <trkpt lat="44.36339" lon="1.16447">
        <ele>251.126027</ele>
        <time>2022-05-12T11:12:16.043Z</time>
      </trkpt>
      <trkpt lat="44.36334" lon="1.16459">
        <ele>251.182608</ele>
        <time>2022-05-12T11:12:18.061Z</time>
      </trkpt>
      <trkpt lat="44.36324" lon="1.16472">
        <ele>251.259915</ele>
        <time>2022-05-12T11:12:21.111Z</time>
      </trkpt>
      <trkpt lat="44.36318" lon="1.16482">
        <ele>251.315539</ele>
        <time>2022-05-12T11:12:23.045Z</time>
      </trkpt>
      <trkpt lat="44.36312" lon="1.16496">
        <ele>251.383846</ele>
        <time>2022-05-12T11:12:25.082Z</time>
      </trkpt>
      <trkpt lat="44.36304" lon="1.1651">
        <ele>251.455133</ele>
        <time>2022-05-12T11:12:27.103Z</time>
      </trkpt>
      <trkpt lat="44.36297" lon="1.16524">
        <ele>251.528156</ele>
        <time>2022-05-12T11:12:29.060Z</time>
      </trkpt>
      <trkpt lat="44.36288" lon="1.16538">
        <ele>251.635331</ele>
        <time>2022-05-12T11:12:31.071Z</time>
      </trkpt>
      <trkpt lat="44.3628" lon="1.16552">
        <ele>251.760059</ele>
        <time>2022-05-12T11:12:33.102Z</time>
      </trkpt>
      <trkpt lat="44.36273" lon="1.16569">
        <ele>251.893893</ele>
        <time>2022-05-12T11:12:35.066Z</time>
      </trkpt>
      <trkpt lat="44.36266" lon="1.16586">
        <ele>252.033654</ele>
        <time>2022-05-12T11:12:37.061Z</time>
      </trkpt>
      <trkpt lat="44.36258" lon="1.16603">
        <ele>252.175265</ele>
        <time>2022-05-12T11:12:39.097Z</time>
      </trkpt>
      <trkpt lat="44.36251" lon="1.1662">
        <ele>252.311656</ele>
        <time>2022-05-12T11:12:41.061Z</time>
      </trkpt>
      <trkpt lat="44.36245" lon="1.16636">
        <ele>252.44043</ele>
        <time>2022-05-12T11:12:43.043Z</time>
      </trkpt>
      <trkpt lat="44.36239" lon="1.16652">
        <ele>252.573544</ele>
        <time>2022-05-12T11:12:45.103Z</time>
      </trkpt>
      <trkpt lat="44.36233" lon="1.16669">
        <ele>252.703926</ele>
        <time>2022-05-12T11:12:47.054Z</time>
      </trkpt>
      <trkpt lat="44.36227" lon="1.16685">
        <ele>252.82689</ele>
        <time>2022-05-12T11:12:49.054Z</time>
      </trkpt>
      <trkpt lat="44.36222" lon="1.16702">
        <ele>252.957328</ele>
        <time>2022-05-12T11:12:51.097Z</time>
      </trkpt>
      <trkpt lat="44.36216" lon="1.16717">
        <ele>253.081767</ele>
        <time>2022-05-12T11:12:53.060Z</time>
      </trkpt>
      <trkpt lat="44.3621" lon="1.16732">
        <ele>253.200513</ele>
        <time>2022-05-12T11:12:55.058Z</time>
      </trkpt>
      <trkpt lat="44.36205" lon="1.16745">
        <ele>253.306512</ele>
        <time>2022-05-12T11:12:57.100Z</time>
      </trkpt>
      <trkpt lat="44.36201" lon="1.16757">
        <ele>253.511609</ele>
        <time>2022-05-12T11:12:59.060Z</time>
      </trkpt>
      <trkpt lat="44.36197" lon="1.16769">
        <ele>253.749575</ele>
        <time>2022-05-12T11:13:01.075Z</time>
      </trkpt>
      <trkpt lat="44.36192" lon="1.16781">
        <ele>254.002262</ele>
        <time>2022-05-12T11:13:03.101Z</time>
      </trkpt>
      <trkpt lat="44.36187" lon="1.16797">
        <ele>254.336319</ele>
        <time>2022-05-12T11:13:06.061Z</time>
      </trkpt>
      <trkpt lat="44.3618" lon="1.16813">
        <ele>254.683493</ele>
        <time>2022-05-12T11:13:09.096Z</time>
      </trkpt>
      <trkpt lat="44.36174" lon="1.16829">
        <ele>255.024688</ele>
        <time>2022-05-12T11:13:12.063Z</time>
      </trkpt>
      <trkpt lat="44.36168" lon="1.16845">
        <ele>255.349736</ele>
        <time>2022-05-12T11:13:15.081Z</time>
      </trkpt>
      <trkpt lat="44.36162" lon="1.1686">
        <ele>255.683794</ele>
        <time>2022-05-12T11:13:18.028Z</time>
      </trkpt>
      <trkpt lat="44.36157" lon="1.16876">
        <ele>256.004321</ele>
        <time>2022-05-12T11:13:21.087Z</time>
      </trkpt>
      <trkpt lat="44.36152" lon="1.16891">
        <ele>256.315743</ele>
        <time>2022-05-12T11:13:24.052Z</time>
      </trkpt>
      <trkpt lat="44.36147" lon="1.16906">
        <ele>256.621145</ele>
        <time>2022-05-12T11:13:27.065Z</time>
      </trkpt>
      <trkpt lat="44.36142" lon="1.1692">
        <ele>256.911859</ele>
        <time>2022-05-12T11:13:30.075Z</time>
      </trkpt>
      <trkpt lat="44.36137" lon="1.16934">
        <ele>257.211531</ele>
        <time>2022-05-12T11:13:33.070Z</time>
      </trkpt>
      <trkpt lat="44.36131" lon="1.16947">
        <ele>257.495233</ele>
        <time>2022-05-12T11:13:36.050Z</time>
      </trkpt>
      <trkpt lat="44.36125" lon="1.1696">
        <ele>257.795745</ele>
        <time>2022-05-12T11:13:39.058Z</time>
      </trkpt>
      <trkpt lat="44.36118" lon="1.16974">
        <ele>257.951649</ele>
        <time>2022-05-12T11:13:42.056Z</time>
      </trkpt>
      <trkpt lat="44.36111" lon="1.16987">
        <ele>257.700504</ele>
        <time>2022-05-12T11:13:45.047Z</time>
      </trkpt>
      <trkpt lat="44.36103" lon="1.16998">
        <ele>257.46117</ele>
        <time>2022-05-12T11:13:48.058Z</time>
      </trkpt>
      <trkpt lat="44.36095" lon="1.17007">
        <ele>257.236263</ele>
        <time>2022-05-12T11:13:51.045Z</time>
      </trkpt>
      <trkpt lat="44.36086" lon="1.17015">
        <ele>257.008031</ele>
        <time>2022-05-12T11:13:54.053Z</time>
      </trkpt>
      <trkpt lat="44.36077" lon="1.17022">
        <ele>256.77716</ele>
        <time>2022-05-12T11:13:57.053Z</time>
      </trkpt>
      <trkpt lat="44.36068" lon="1.17029">
        <ele>256.559037</ele>
        <time>2022-05-12T11:14:00.047Z</time>
      </trkpt>
      <trkpt lat="44.36059" lon="1.17036">
        <ele>256.351896</ele>
        <time>2022-05-12T11:14:03.053Z</time>
      </trkpt>
      <trkpt lat="44.36052" lon="1.17044">
        <ele>256.143191</ele>
        <time>2022-05-12T11:14:06.060Z</time>
      </trkpt>
      <trkpt lat="44.36044" lon="1.17054">
        <ele>255.92425</ele>
        <time>2022-05-12T11:14:09.059Z</time>
      </trkpt>
      <trkpt lat="44.36038" lon="1.17065">
        <ele>255.700342</ele>
        <time>2022-05-12T11:14:12.068Z</time>
      </trkpt>
      <trkpt lat="44.36032" lon="1.17077">
        <ele>255.468076</ele>
        <time>2022-05-12T11:14:15.058Z</time>
      </trkpt>
      <trkpt lat="44.36026" lon="1.17093">
        <ele>255.204849</ele>
        <time>2022-05-12T11:14:18.052Z</time>
      </trkpt>
      <trkpt lat="44.36021" lon="1.17107">
        <ele>254.955554</ele>
        <time>2022-05-12T11:14:21.062Z</time>
      </trkpt>
      <trkpt lat="44.36016" lon="1.17122">
        <ele>254.705299</ele>
        <time>2022-05-12T11:14:24.062Z</time>
      </trkpt>
      <trkpt lat="44.36013" lon="1.17138">
        <ele>254.448181</ele>
        <time>2022-05-12T11:14:27.059Z</time>
      </trkpt>
      <trkpt lat="44.36009" lon="1.17154">
        <ele>254.187397</ele>
        <time>2022-05-12T11:14:30.060Z</time>
      </trkpt>
      <trkpt lat="44.36005" lon="1.17169">
        <ele>254.556691</ele>
        <time>2022-05-12T11:14:33.055Z</time>
      </trkpt>
      <trkpt lat="44.36" lon="1.17184">
        <ele>255.051213</ele>
        <time>2022-05-12T11:14:36.073Z</time>
      </trkpt>
      <trkpt lat="44.35996" lon="1.17199">
        <ele>255.537983</ele>
        <time>2022-05-12T11:14:39.060Z</time>
      </trkpt>
      <trkpt lat="44.35992" lon="1.17213">
        <ele>256.007436</ele>
        <time>2022-05-12T11:14:42.072Z</time>
      </trkpt>
      <trkpt lat="44.35987" lon="1.17227">
        <ele>256.472368</ele>
        <time>2022-05-12T11:14:45.057Z</time>
      </trkpt>
      <trkpt lat="44.35981" lon="1.1724">
        <ele>256.960669</ele>
        <time>2022-05-12T11:14:48.077Z</time>
      </trkpt>
      <trkpt lat="44.35973" lon="1.17252">
        <ele>257.456527</ele>
        <time>2022-05-12T11:14:51.065Z</time>
      </trkpt>
      <trkpt lat="44.35966" lon="1.17266">
        <ele>257.964703</ele>
        <time>2022-05-12T11:14:54.040Z</time>
      </trkpt>
      <trkpt lat="44.35962" lon="1.17282">
        <ele>258.479994</ele>
        <time>2022-05-12T11:14:57.054Z</time>
      </trkpt>
      <trkpt lat="44.35961" lon="1.17299">
        <ele>259.003973</ele>
        <time>2022-05-12T11:15:00.062Z</time>
      </trkpt>
      <trkpt lat="44.35961" lon="1.17315">
        <ele>259.497665</ele>
        <time>2022-05-12T11:15:03.066Z</time>
      </trkpt>
      <trkpt lat="44.3596" lon="1.17332">
        <ele>259.99854</ele>
        <time>2022-05-12T11:15:06.053Z</time>
      </trkpt>
      <trkpt lat="44.35958" lon="1.17349">
        <ele>260.518206</ele>
        <time>2022-05-12T11:15:09.056Z</time>
      </trkpt>
      <trkpt lat="44.35956" lon="1.17364">
        <ele>260.995127</ele>
        <time>2022-05-12T11:15:12.059Z</time>
      </trkpt>
      <trkpt lat="44.35955" lon="1.1738">
        <ele>261.480241</ele>
        <time>2022-05-12T11:15:15.052Z</time>
      </trkpt>
      <trkpt lat="44.35956" lon="1.17397">
        <ele>261.880876</ele>
        <time>2022-05-12T11:15:18.071Z</time>
      </trkpt>
      <trkpt lat="44.35957" lon="1.17414">
        <ele>262.082361</ele>
        <time>2022-05-12T11:15:21.050Z</time>
      </trkpt>
      <trkpt lat="44.35955" lon="1.17431">
        <ele>262.27664</ele>
        <time>2022-05-12T11:15:24.037Z</time>
      </trkpt>
      <trkpt lat="44.3595" lon="1.17446">
        <ele>262.471491</ele>
        <time>2022-05-12T11:15:27.070Z</time>
      </trkpt>
      <trkpt lat="44.35943" lon="1.17459">
        <ele>262.664184</ele>
        <time>2022-05-12T11:15:30.055Z</time>
      </trkpt>
      <trkpt lat="44.35935" lon="1.17471">
        <ele>262.859296</ele>
        <time>2022-05-12T11:15:33.055Z</time>
      </trkpt>
      <trkpt lat="44.35928" lon="1.17484">
        <ele>263.049323</ele>
        <time>2022-05-12T11:15:36.063Z</time>
      </trkpt>
      <trkpt lat="44.35922" lon="1.17497">
        <ele>263.22825</ele>
        <time>2022-05-12T11:15:39.068Z</time>
      </trkpt>
      <trkpt lat="44.35918" lon="1.17511">
        <ele>263.400298</ele>
        <time>2022-05-12T11:15:42.052Z</time>
      </trkpt>
      <trkpt lat="44.35915" lon="1.17525">
        <ele>263.581359</ele>
        <time>2022-05-12T11:15:45.058Z</time>
      </trkpt>
      <trkpt lat="44.35913" lon="1.17541">
        <ele>263.765239</ele>
        <time>2022-05-12T11:15:48.072Z</time>
      </trkpt>
      <trkpt lat="44.35912" lon="1.17557">
        <ele>263.951108</ele>
        <time>2022-05-12T11:15:51.054Z</time>
      </trkpt>
      <trkpt lat="44.35912" lon="1.17573">
        <ele>264.134553</ele>
        <time>2022-05-12T11:15:54.053Z</time>
      </trkpt>
      <trkpt lat="44.3591" lon="1.17589">
        <ele>264.321472</ele>
        <time>2022-05-12T11:15:57.057Z</time>
      </trkpt>
      <trkpt lat="44.35908" lon="1.17604">
        <ele>264.509506</ele>
        <time>2022-05-12T11:16:00.071Z</time>
      </trkpt>
      <trkpt lat="44.35904" lon="1.17619">
        <ele>264.693542</ele>
        <time>2022-05-12T11:16:03.067Z</time>
      </trkpt>
      <trkpt lat="44.35899" lon="1.17634">
        <ele>265.130585</ele>
        <time>2022-05-12T11:16:06.073Z</time>
      </trkpt>
      <trkpt lat="44.35894" lon="1.1765">
        <ele>265.681443</ele>
        <time>2022-05-12T11:16:09.071Z</time>
      </trkpt>
      <trkpt lat="44.35887" lon="1.17664">
        <ele>266.227987</ele>
        <time>2022-05-12T11:16:12.055Z</time>
      </trkpt>
      <trkpt lat="44.35879" lon="1.17678">
        <ele>266.787381</ele>
        <time>2022-05-12T11:16:15.065Z</time>
      </trkpt>
      <trkpt lat="44.35871" lon="1.17692">
        <ele>267.373513</ele>
        <time>2022-05-12T11:16:18.024Z</time>
      </trkpt>
      <trkpt lat="44.35861" lon="1.17706">
        <ele>267.96445</ele>
        <time>2022-05-12T11:16:21.063Z</time>
      </trkpt>
      <trkpt lat="44.35852" lon="1.17717">
        <ele>268.513119</ele>
        <time>2022-05-12T11:16:24.037Z</time>
      </trkpt>
      <trkpt lat="44.35843" lon="1.17727">
        <ele>269.020304</ele>
        <time>2022-05-12T11:16:27.057Z</time>
      </trkpt>
      <trkpt lat="44.35836" lon="1.17736">
        <ele>269.459835</ele>
        <time>2022-05-12T11:16:30.051Z</time>
      </trkpt>
      <trkpt lat="44.3583" lon="1.17746">
        <ele>269.864226</ele>
        <time>2022-05-12T11:16:33.069Z</time>
      </trkpt>
      <trkpt lat="44.35822" lon="1.17755">
        <ele>270.306146</ele>
        <time>2022-05-12T11:16:36.059Z</time>
      </trkpt>
      <trkpt lat="44.35815" lon="1.17764">
        <ele>270.730608</ele>
        <time>2022-05-12T11:16:39.059Z</time>
      </trkpt>
      <trkpt lat="44.35808" lon="1.17772">
        <ele>271.147961</ele>
        <time>2022-05-12T11:16:42.056Z</time>
      </trkpt>
      <trkpt lat="44.358" lon="1.1778">
        <ele>271.560325</ele>
        <time>2022-05-12T11:16:45.069Z</time>
      </trkpt>
      <trkpt lat="44.35792" lon="1.17788">
        <ele>271.992377</ele>
        <time>2022-05-12T11:16:48.067Z</time>
      </trkpt>
      <trkpt lat="44.35785" lon="1.17797">
        <ele>272.408423</ele>
        <time>2022-05-12T11:16:51.071Z</time>
      </trkpt>
      <trkpt lat="44.35778" lon="1.17805">
        <ele>272.700371</ele>
        <time>2022-05-12T11:16:54.050Z</time>
      </trkpt>
      <trkpt lat="44.3577" lon="1.17812">
        <ele>272.668604</ele>
        <time>2022-05-12T11:16:57.067Z</time>
      </trkpt>
      <trkpt lat="44.35762" lon="1.17819">
        <ele>272.63601</ele>
        <time>2022-05-12T11:17:00.058Z</time>
      </trkpt>
      <trkpt lat="44.35753" lon="1.17826">
        <ele>272.602819</ele>
        <time>2022-05-12T11:17:03.067Z</time>
      </trkpt>
      <trkpt lat="44.35745" lon="1.17834">
        <ele>272.568701</ele>
        <time>2022-05-12T11:17:06.065Z</time>
      </trkpt>
      <trkpt lat="44.35736" lon="1.17843">
        <ele>272.532948</ele>
        <time>2022-05-12T11:17:09.070Z</time>
      </trkpt>
      <trkpt lat="44.35727" lon="1.17851">
        <ele>272.495651</ele>
        <time>2022-05-12T11:17:12.055Z</time>
      </trkpt>
      <trkpt lat="44.35715" lon="1.17859">
        <ele>272.453</ele>
        <time>2022-05-12T11:17:15.053Z</time>
      </trkpt>
      <trkpt lat="44.35705" lon="1.17864">
        <ele>272.417058</ele>
        <time>2022-05-12T11:17:17.055Z</time>
      </trkpt>
      <trkpt lat="44.35696" lon="1.1787">
        <ele>272.381301</ele>
        <time>2022-05-12T11:17:19.094Z</time>
      </trkpt>
      <trkpt lat="44.35684" lon="1.17874">
        <ele>272.341837</ele>
        <time>2022-05-12T11:17:21.048Z</time>
      </trkpt>
      <trkpt lat="44.35672" lon="1.1788">
        <ele>272.299368</ele>
        <time>2022-05-12T11:17:23.053Z</time>
      </trkpt>
      <trkpt lat="44.3566" lon="1.17886">
        <ele>272.254038</ele>
        <time>2022-05-12T11:17:25.091Z</time>
      </trkpt>
      <trkpt lat="44.35645" lon="1.1789">
        <ele>272.204482</ele>
        <time>2022-05-12T11:17:27.065Z</time>
      </trkpt>
      <trkpt lat="44.35632" lon="1.17893">
        <ele>272.158181</ele>
        <time>2022-05-12T11:17:29.050Z</time>
      </trkpt>
      <trkpt lat="44.35617" lon="1.17894">
        <ele>272.109647</ele>
        <time>2022-05-12T11:17:31.095Z</time>
      </trkpt>
      <trkpt lat="44.35605" lon="1.17895">
        <ele>272.155894</ele>
        <time>2022-05-12T11:17:33.073Z</time>
      </trkpt>
      <trkpt lat="44.35593" lon="1.17896">
        <ele>272.218257</ele>
        <time>2022-05-12T11:17:35.063Z</time>
      </trkpt>
      <trkpt lat="44.35581" lon="1.17898">
        <ele>272.274133</ele>
        <time>2022-05-12T11:17:37.104Z</time>
      </trkpt>
      <trkpt lat="44.3557" lon="1.17899">
        <ele>272.333888</ele>
        <time>2022-05-12T11:17:39.054Z</time>
      </trkpt>
      <trkpt lat="44.35559" lon="1.17899">
        <ele>272.388561</ele>
        <time>2022-05-12T11:17:41.069Z</time>
      </trkpt>
      <trkpt lat="44.35548" lon="1.17901">
        <ele>272.44161</ele>
        <time>2022-05-12T11:17:43.096Z</time>
      </trkpt>
      <trkpt lat="44.35537" lon="1.17904">
        <ele>272.499322</ele>
        <time>2022-05-12T11:17:45.070Z</time>
      </trkpt>
      <trkpt lat="44.35526" lon="1.17907">
        <ele>272.555127</ele>
        <time>2022-05-12T11:17:47.049Z</time>
      </trkpt>
      <trkpt lat="44.35516" lon="1.17913">
        <ele>272.610251</ele>
        <time>2022-05-12T11:17:49.076Z</time>
      </trkpt>
      <trkpt lat="44.35505" lon="1.17917">
        <ele>272.668352</ele>
        <time>2022-05-12T11:17:51.063Z</time>
      </trkpt>
      <trkpt lat="44.35494" lon="1.17924">
        <ele>272.726339</ele>
        <time>2022-05-12T11:17:53.058Z</time>
      </trkpt>
      <trkpt lat="44.35483" lon="1.1793">
        <ele>272.786762</ele>
        <time>2022-05-12T11:17:55.102Z</time>
      </trkpt>
      <trkpt lat="44.35471" lon="1.17935">
        <ele>272.846831</ele>
        <time>2022-05-12T11:17:57.074Z</time>
      </trkpt>
      <trkpt lat="44.3546" lon="1.17938">
        <ele>272.905695</ele>
        <time>2022-05-12T11:17:59.070Z</time>
      </trkpt>
      <trkpt lat="44.35449" lon="1.17942">
        <ele>272.95995</ele>
        <time>2022-05-12T11:18:01.088Z</time>
      </trkpt>
      <trkpt lat="44.35438" lon="1.17945">
        <ele>273.030489</ele>
        <time>2022-05-12T11:18:03.045Z</time>
      </trkpt>
      <trkpt lat="44.35426" lon="1.1795">
        <ele>273.138468</ele>
        <time>2022-05-12T11:18:05.061Z</time>
      </trkpt>
      <trkpt lat="44.35414" lon="1.17956">
        <ele>273.242236</ele>
        <time>2022-05-12T11:18:07.101Z</time>
      </trkpt>
      <trkpt lat="44.35402" lon="1.17963">
        <ele>273.353508</ele>
        <time>2022-05-12T11:18:09.067Z</time>
      </trkpt>
      <trkpt lat="44.3539" lon="1.17967">
        <ele>273.464998</ele>
        <time>2022-05-12T11:18:11.054Z</time>
      </trkpt>
      <trkpt lat="44.35378" lon="1.17973">
        <ele>273.574262</ele>
        <time>2022-05-12T11:18:13.086Z</time>
      </trkpt>
      <trkpt lat="44.35366" lon="1.17981">
        <ele>273.687094</ele>
        <time>2022-05-12T11:18:15.064Z</time>
      </trkpt>
      <trkpt lat="44.35355" lon="1.17989">
        <ele>273.793567</ele>
        <time>2022-05-12T11:18:17.064Z</time>
      </trkpt>
      <trkpt lat="44.35344" lon="1.17995">
        <ele>273.89922</ele>
        <time>2022-05-12T11:18:19.076Z</time>
      </trkpt>
      <trkpt lat="44.35333" lon="1.18001">
        <ele>274.002926</ele>
        <time>2022-05-12T11:18:21.038Z</time>
      </trkpt>
      <trkpt lat="44.35321" lon="1.18008">
        <ele>274.1095</ele>
        <time>2022-05-12T11:18:23.063Z</time>
      </trkpt>
      <trkpt lat="44.3531" lon="1.18014">
        <ele>274.216073</ele>
        <time>2022-05-12T11:18:25.101Z</time>
      </trkpt>
      <trkpt lat="44.35299" lon="1.18022">
        <ele>274.316813</ele>
        <time>2022-05-12T11:18:27.075Z</time>
      </trkpt>
      <trkpt lat="44.35288" lon="1.1803">
        <ele>274.425246</ele>
        <time>2022-05-12T11:18:29.055Z</time>
      </trkpt>
      <trkpt lat="44.35278" lon="1.18037">
        <ele>274.524986</ele>
        <time>2022-05-12T11:18:31.087Z</time>
      </trkpt>
      <trkpt lat="44.35267" lon="1.18044">
        <ele>274.077717</ele>
        <time>2022-05-12T11:18:33.065Z</time>
      </trkpt>
      <trkpt lat="44.35255" lon="1.18051">
        <ele>273.355069</ele>
        <time>2022-05-12T11:18:35.063Z</time>
      </trkpt>
      <trkpt lat="44.35244" lon="1.18058">
        <ele>272.685682</ele>
        <time>2022-05-12T11:18:37.093Z</time>
      </trkpt>
      <trkpt lat="44.35233" lon="1.18066">
        <ele>271.990903</ele>
        <time>2022-05-12T11:18:39.041Z</time>
      </trkpt>
      <trkpt lat="44.35222" lon="1.18074">
        <ele>271.290694</ele>
        <time>2022-05-12T11:18:41.066Z</time>
      </trkpt>
      <trkpt lat="44.35212" lon="1.18081">
        <ele>270.643653</ele>
        <time>2022-05-12T11:18:43.108Z</time>
      </trkpt>
      <trkpt lat="44.35201" lon="1.18086">
        <ele>269.971512</ele>
        <time>2022-05-12T11:18:45.050Z</time>
      </trkpt>
      <trkpt lat="44.3519" lon="1.18092">
        <ele>269.305855</ele>
        <time>2022-05-12T11:18:47.065Z</time>
      </trkpt>
      <trkpt lat="44.35178" lon="1.18098">
        <ele>268.621811</ele>
        <time>2022-05-12T11:18:49.055Z</time>
      </trkpt>
      <trkpt lat="44.35166" lon="1.18102">
        <ele>267.922846</ele>
        <time>2022-05-12T11:18:51.055Z</time>
      </trkpt>
      <trkpt lat="44.35153" lon="1.18102">
        <ele>267.17633</ele>
        <time>2022-05-12T11:18:53.060Z</time>
      </trkpt>
      <trkpt lat="44.3514" lon="1.18103">
        <ele>266.407393</ele>
        <time>2022-05-12T11:18:55.038Z</time>
      </trkpt>
      <trkpt lat="44.35127" lon="1.18101">
        <ele>265.688904</ele>
        <time>2022-05-12T11:18:57.051Z</time>
      </trkpt>
      <trkpt lat="44.35111" lon="1.18095">
        <ele>264.779118</ele>
        <time>2022-05-12T11:18:59.056Z</time>
      </trkpt>
      <trkpt lat="44.35096" lon="1.18089">
        <ele>264.440819</ele>
        <time>2022-05-12T11:19:01.098Z</time>
      </trkpt>
      <trkpt lat="44.35081" lon="1.18077">
        <ele>264.525686</ele>
        <time>2022-05-12T11:19:03.059Z</time>
      </trkpt>
      <trkpt lat="44.35068" lon="1.18066">
        <ele>264.597943</ele>
        <time>2022-05-12T11:19:05.056Z</time>
      </trkpt>
      <trkpt lat="44.35061" lon="1.18057">
        <ele>264.645806</ele>
        <time>2022-05-12T11:19:06.053Z</time>
      </trkpt>
      <trkpt lat="44.35054" lon="1.18047">
        <ele>264.694742</ele>
        <time>2022-05-12T11:19:07.094Z</time>
      </trkpt>
      <trkpt lat="44.35047" lon="1.18036">
        <ele>264.744486</ele>
        <time>2022-05-12T11:19:08.067Z</time>
      </trkpt>
      <trkpt lat="44.3504" lon="1.18027">
        <ele>264.790087</ele>
        <time>2022-05-12T11:19:09.052Z</time>
      </trkpt>
      <trkpt lat="44.35033" lon="1.18016">
        <ele>264.842271</ele>
        <time>2022-05-12T11:19:10.068Z</time>
      </trkpt>
      <trkpt lat="44.35024" lon="1.18007">
        <ele>264.896384</ele>
        <time>2022-05-12T11:19:11.075Z</time>
      </trkpt>
      <trkpt lat="44.35012" lon="1.18">
        <ele>264.958365</ele>
        <time>2022-05-12T11:19:12.063Z</time>
      </trkpt>
      <trkpt lat="44.35003" lon="1.17994">
        <ele>265.007235</ele>
        <time>2022-05-12T11:19:13.102Z</time>
      </trkpt>
      <trkpt lat="44.34993" lon="1.17991">
        <ele>265.058002</ele>
        <time>2022-05-12T11:19:14.061Z</time>
      </trkpt>
      <trkpt lat="44.34983" lon="1.17995">
        <ele>265.10538</ele>
        <time>2022-05-12T11:19:15.054Z</time>
      </trkpt>
      <trkpt lat="44.34973" lon="1.17998">
        <ele>265.158464</ele>
        <time>2022-05-12T11:19:16.056Z</time>
      </trkpt>
      <trkpt lat="44.34961" lon="1.18">
        <ele>265.214515</ele>
        <time>2022-05-12T11:19:17.070Z</time>
      </trkpt>
      <trkpt lat="44.34949" lon="1.18002">
        <ele>265.345158</ele>
        <time>2022-05-12T11:19:18.071Z</time>
      </trkpt>
      <trkpt lat="44.34938" lon="1.18007">
        <ele>266.025603</ele>
        <time>2022-05-12T11:19:19.090Z</time>
      </trkpt>
      <trkpt lat="44.34929" lon="1.18014">
        <ele>266.729261</ele>
        <time>2022-05-12T11:19:20.054Z</time>
      </trkpt>
      <trkpt lat="44.3492" lon="1.18022">
        <ele>267.415953</ele>
        <time>2022-05-12T11:19:21.055Z</time>
      </trkpt>
      <trkpt lat="44.34915" lon="1.18033">
        <ele>268.009638</ele>
        <time>2022-05-12T11:19:22.065Z</time>
      </trkpt>
      <trkpt lat="44.34904" lon="1.1804">
        <ele>268.748555</ele>
        <time>2022-05-12T11:19:23.066Z</time>
      </trkpt>
      <trkpt lat="44.34895" lon="1.18048">
        <ele>269.449441</ele>
        <time>2022-05-12T11:19:24.052Z</time>
      </trkpt>
      <trkpt lat="44.34885" lon="1.18057">
        <ele>270.20439</ele>
        <time>2022-05-12T11:19:25.103Z</time>
      </trkpt>
      <trkpt lat="44.34876" lon="1.18065">
        <ele>270.886497</ele>
        <time>2022-05-12T11:19:26.074Z</time>
      </trkpt>
      <trkpt lat="44.34867" lon="1.18072">
        <ele>271.563757</ele>
        <time>2022-05-12T11:19:27.061Z</time>
      </trkpt>
      <trkpt lat="44.34857" lon="1.18077">
        <ele>272.263862</ele>
        <time>2022-05-12T11:19:28.074Z</time>
      </trkpt>
      <trkpt lat="44.34845" lon="1.18077">
        <ele>272.99566</ele>
        <time>2022-05-12T11:19:29.067Z</time>
      </trkpt>
      <trkpt lat="44.34833" lon="1.18076">
        <ele>273.787136</ele>
        <time>2022-05-12T11:19:30.066Z</time>
      </trkpt>
      <trkpt lat="44.34814" lon="1.18064">
        <ele>275.088463</ele>
        <time>2022-05-12T11:19:32.062Z</time>
      </trkpt>
      <trkpt lat="44.34804" lon="1.1806">
        <ele>275.764887</ele>
        <time>2022-05-12T11:19:33.048Z</time>
      </trkpt>
      <trkpt lat="44.34793" lon="1.18059">
        <ele>276.488566</ele>
        <time>2022-05-12T11:19:34.034Z</time>
      </trkpt>
      <trkpt lat="44.34783" lon="1.18059">
        <ele>276.5878</ele>
        <time>2022-05-12T11:19:35.077Z</time>
      </trkpt>
      <trkpt lat="44.34772" lon="1.18063">
        <ele>276.072837</ele>
        <time>2022-05-12T11:19:36.099Z</time>
      </trkpt>
      <trkpt lat="44.34763" lon="1.18069">
        <ele>275.592938</ele>
        <time>2022-05-12T11:19:37.067Z</time>
      </trkpt>
      <trkpt lat="44.34752" lon="1.18074">
        <ele>275.076438</ele>
        <time>2022-05-12T11:19:38.080Z</time>
      </trkpt>
      <trkpt lat="44.34742" lon="1.18078">
        <ele>274.56689</ele>
        <time>2022-05-12T11:19:39.070Z</time>
      </trkpt>
      <trkpt lat="44.3473" lon="1.18084">
        <ele>273.98493</ele>
        <time>2022-05-12T11:19:40.077Z</time>
      </trkpt>
      <trkpt lat="44.34718" lon="1.18089">
        <ele>273.438056</ele>
        <time>2022-05-12T11:19:41.057Z</time>
      </trkpt>
      <trkpt lat="44.34708" lon="1.18094">
        <ele>272.933603</ele>
        <time>2022-05-12T11:19:42.124Z</time>
      </trkpt>
      <trkpt lat="44.34697" lon="1.18102">
        <ele>272.366241</ele>
        <time>2022-05-12T11:19:43.056Z</time>
      </trkpt>
      <trkpt lat="44.34687" lon="1.1811">
        <ele>271.819273</ele>
        <time>2022-05-12T11:19:44.076Z</time>
      </trkpt>
      <trkpt lat="44.34677" lon="1.18117">
        <ele>271.302687</ele>
        <time>2022-05-12T11:19:45.077Z</time>
      </trkpt>
      <trkpt lat="44.34669" lon="1.1813">
        <ele>270.746963</ele>
        <time>2022-05-12T11:19:46.058Z</time>
      </trkpt>
      <trkpt lat="44.34661" lon="1.18139">
        <ele>270.271377</ele>
        <time>2022-05-12T11:19:47.052Z</time>
      </trkpt>
      <trkpt lat="44.34653" lon="1.1815">
        <ele>269.751324</ele>
        <time>2022-05-12T11:19:48.084Z</time>
      </trkpt>
      <trkpt lat="44.34644" lon="1.18159">
        <ele>269.259098</ele>
        <time>2022-05-12T11:19:49.054Z</time>
      </trkpt>
      <trkpt lat="44.34636" lon="1.18168">
        <ele>268.753526</ele>
        <time>2022-05-12T11:19:50.067Z</time>
      </trkpt>
      <trkpt lat="44.34627" lon="1.18179">
        <ele>268.396349</ele>
        <time>2022-05-12T11:19:51.050Z</time>
      </trkpt>
      <trkpt lat="44.34619" lon="1.18187">
        <ele>268.208901</ele>
        <time>2022-05-12T11:19:52.067Z</time>
      </trkpt>
      <trkpt lat="44.34609" lon="1.18198">
        <ele>267.987714</ele>
        <time>2022-05-12T11:19:53.067Z</time>
      </trkpt>
      <trkpt lat="44.346" lon="1.18204">
        <ele>267.789547</ele>
        <time>2022-05-12T11:19:54.094Z</time>
      </trkpt>
      <trkpt lat="44.34589" lon="1.18211">
        <ele>267.58033</ele>
        <time>2022-05-12T11:19:55.066Z</time>
      </trkpt>
      <trkpt lat="44.34579" lon="1.18216">
        <ele>267.380296</ele>
        <time>2022-05-12T11:19:56.067Z</time>
      </trkpt>
      <trkpt lat="44.34568" lon="1.18222">
        <ele>267.167914</ele>
        <time>2022-05-12T11:19:57.074Z</time>
      </trkpt>
      <trkpt lat="44.34557" lon="1.18229">
        <ele>266.945404</ele>
        <time>2022-05-12T11:19:58.054Z</time>
      </trkpt>
      <trkpt lat="44.34547" lon="1.18234">
        <ele>266.745556</ele>
        <time>2022-05-12T11:19:59.052Z</time>
      </trkpt>
      <trkpt lat="44.34537" lon="1.1824">
        <ele>266.543817</ele>
        <time>2022-05-12T11:20:00.083Z</time>
      </trkpt>
      <trkpt lat="44.34525" lon="1.18245">
        <ele>266.326139</ele>
        <time>2022-05-12T11:20:01.050Z</time>
      </trkpt>
      <trkpt lat="44.34516" lon="1.18252">
        <ele>266.125663</ele>
        <time>2022-05-12T11:20:02.074Z</time>
      </trkpt>
      <trkpt lat="44.34506" lon="1.18259">
        <ele>265.920483</ele>
        <time>2022-05-12T11:20:03.065Z</time>
      </trkpt>
      <trkpt lat="44.34496" lon="1.18267">
        <ele>265.712984</ele>
        <time>2022-05-12T11:20:04.050Z</time>
      </trkpt>
      <trkpt lat="44.34487" lon="1.18277">
        <ele>265.499243</ele>
        <time>2022-05-12T11:20:05.059Z</time>
      </trkpt>
      <trkpt lat="44.34477" lon="1.18286">
        <ele>265.275719</ele>
        <time>2022-05-12T11:20:06.094Z</time>
      </trkpt>
      <trkpt lat="44.34469" lon="1.18298">
        <ele>264.767737</ele>
        <time>2022-05-12T11:20:07.062Z</time>
      </trkpt>
      <trkpt lat="44.34463" lon="1.1831">
        <ele>264.137333</ele>
        <time>2022-05-12T11:20:08.072Z</time>
      </trkpt>
      <trkpt lat="44.34455" lon="1.18323">
        <ele>263.418949</ele>
        <time>2022-05-12T11:20:09.056Z</time>
      </trkpt>
      <trkpt lat="44.34448" lon="1.18335">
        <ele>262.77129</ele>
        <time>2022-05-12T11:20:10.059Z</time>
      </trkpt>
      <trkpt lat="44.34441" lon="1.18348">
        <ele>262.130726</ele>
        <time>2022-05-12T11:20:11.062Z</time>
      </trkpt>
      <trkpt lat="44.34436" lon="1.18362">
        <ele>261.44778</ele>
        <time>2022-05-12T11:20:12.111Z</time>
      </trkpt>
      <trkpt lat="44.34429" lon="1.18374">
        <ele>260.81373</ele>
        <time>2022-05-12T11:20:13.057Z</time>
      </trkpt>
      <trkpt lat="44.34421" lon="1.18387">
        <ele>260.116231</ele>
        <time>2022-05-12T11:20:14.051Z</time>
      </trkpt>
      <trkpt lat="44.34412" lon="1.18397">
        <ele>259.431509</ele>
        <time>2022-05-12T11:20:15.066Z</time>
      </trkpt>
      <trkpt lat="44.34404" lon="1.18407">
        <ele>258.806343</ele>
        <time>2022-05-12T11:20:16.072Z</time>
      </trkpt>
      <trkpt lat="44.34396" lon="1.18417">
        <ele>258.172379</ele>
        <time>2022-05-12T11:20:17.071Z</time>
      </trkpt>
      <trkpt lat="44.34387" lon="1.18427">
        <ele>257.482352</ele>
        <time>2022-05-12T11:20:18.110Z</time>
      </trkpt>
      <trkpt lat="44.34377" lon="1.18436">
        <ele>256.844477</ele>
        <time>2022-05-12T11:20:19.064Z</time>
      </trkpt>
      <trkpt lat="44.34368" lon="1.18445">
        <ele>256.16855</ele>
        <time>2022-05-12T11:20:20.030Z</time>
      </trkpt>
      <trkpt lat="44.34358" lon="1.18453">
        <ele>255.495254</ele>
        <time>2022-05-12T11:20:21.053Z</time>
      </trkpt>
      <trkpt lat="44.34348" lon="1.1846">
        <ele>254.859656</ele>
        <time>2022-05-12T11:20:22.076Z</time>
      </trkpt>
      <trkpt lat="44.34338" lon="1.18468">
        <ele>254.307605</ele>
        <time>2022-05-12T11:20:23.062Z</time>
      </trkpt>
      <trkpt lat="44.34329" lon="1.18476">
        <ele>253.816553</ele>
        <time>2022-05-12T11:20:24.085Z</time>
      </trkpt>
      <trkpt lat="44.3432" lon="1.18484">
        <ele>253.290488</ele>
        <time>2022-05-12T11:20:25.066Z</time>
      </trkpt>
      <trkpt lat="44.34311" lon="1.18494">
        <ele>252.78039</ele>
        <time>2022-05-12T11:20:26.046Z</time>
      </trkpt>
      <trkpt lat="44.34301" lon="1.18502">
        <ele>252.26098</ele>
        <time>2022-05-12T11:20:27.055Z</time>
      </trkpt>
      <trkpt lat="44.34291" lon="1.1851">
        <ele>251.737097</ele>
        <time>2022-05-12T11:20:28.090Z</time>
      </trkpt>
      <trkpt lat="44.34281" lon="1.18516">
        <ele>251.227395</ele>
        <time>2022-05-12T11:20:29.068Z</time>
      </trkpt>
      <trkpt lat="44.34272" lon="1.18526">
        <ele>250.678089</ele>
        <time>2022-05-12T11:20:30.097Z</time>
      </trkpt>
      <trkpt lat="44.34261" lon="1.18534">
        <ele>250.123719</ele>
        <time>2022-05-12T11:20:31.058Z</time>
      </trkpt>
      <trkpt lat="44.3425" lon="1.1854">
        <ele>249.5891</ele>
        <time>2022-05-12T11:20:32.090Z</time>
      </trkpt>
      <trkpt lat="44.3424" lon="1.18546">
        <ele>249.067398</ele>
        <time>2022-05-12T11:20:33.046Z</time>
      </trkpt>
      <trkpt lat="44.34228" lon="1.18551">
        <ele>248.486852</ele>
        <time>2022-05-12T11:20:34.037Z</time>
      </trkpt>
      <trkpt lat="44.34217" lon="1.18556">
        <ele>247.959017</ele>
        <time>2022-05-12T11:20:35.071Z</time>
      </trkpt>
      <trkpt lat="44.34206" lon="1.1856">
        <ele>247.433916</ele>
        <time>2022-05-12T11:20:36.060Z</time>
      </trkpt>
      <trkpt lat="44.34194" lon="1.18562">
        <ele>246.886975</ele>
        <time>2022-05-12T11:20:37.074Z</time>
      </trkpt>
      <trkpt lat="44.34183" lon="1.18564">
        <ele>246.377222</ele>
        <time>2022-05-12T11:20:38.078Z</time>
      </trkpt>
      <trkpt lat="44.34172" lon="1.18566">
        <ele>245.929698</ele>
        <time>2022-05-12T11:20:39.072Z</time>
      </trkpt>
      <trkpt lat="44.34161" lon="1.1857">
        <ele>245.515746</ele>
        <time>2022-05-12T11:20:40.071Z</time>
      </trkpt>
      <trkpt lat="44.3415" lon="1.18573">
        <ele>245.081791</ele>
        <time>2022-05-12T11:20:41.102Z</time>
      </trkpt>
      <trkpt lat="44.34139" lon="1.18577">
        <ele>244.639848</ele>
        <time>2022-05-12T11:20:42.053Z</time>
      </trkpt>
      <trkpt lat="44.34128" lon="1.18582">
        <ele>244.208808</ele>
        <time>2022-05-12T11:20:43.068Z</time>
      </trkpt>
      <trkpt lat="44.34117" lon="1.18586">
        <ele>243.760073</ele>
        <time>2022-05-12T11:20:44.036Z</time>
      </trkpt>
      <trkpt lat="44.34106" lon="1.1859">
        <ele>243.323465</ele>
        <time>2022-05-12T11:20:45.079Z</time>
      </trkpt>
      <trkpt lat="44.34095" lon="1.18595">
        <ele>242.875765</ele>
        <time>2022-05-12T11:20:46.065Z</time>
      </trkpt>
      <trkpt lat="44.34084" lon="1.186">
        <ele>242.432027</ele>
        <time>2022-05-12T11:20:47.091Z</time>
      </trkpt>
      <trkpt lat="44.34072" lon="1.18604">
        <ele>241.976163</ele>
        <time>2022-05-12T11:20:48.023Z</time>
      </trkpt>
      <trkpt lat="44.34062" lon="1.18614">
        <ele>241.501704</ele>
        <time>2022-05-12T11:20:49.066Z</time>
      </trkpt>
      <trkpt lat="44.34051" lon="1.18623">
        <ele>241.011347</ele>
        <time>2022-05-12T11:20:50.062Z</time>
      </trkpt>
      <trkpt lat="44.3404" lon="1.18634">
        <ele>240.502825</ele>
        <time>2022-05-12T11:20:51.061Z</time>
      </trkpt>
      <trkpt lat="44.3403" lon="1.18646">
        <ele>239.987717</ele>
        <time>2022-05-12T11:20:52.052Z</time>
      </trkpt>
      <trkpt lat="44.34021" lon="1.18658">
        <ele>239.524113</ele>
        <time>2022-05-12T11:20:53.069Z</time>
      </trkpt>
      <trkpt lat="44.34011" lon="1.18669">
        <ele>239.203286</ele>
        <time>2022-05-12T11:20:54.074Z</time>
      </trkpt>
      <trkpt lat="44.34005" lon="1.18682">
        <ele>238.904653</ele>
        <time>2022-05-12T11:20:55.082Z</time>
      </trkpt>
      <trkpt lat="44.33998" lon="1.18698">
        <ele>238.572883</ele>
        <time>2022-05-12T11:20:56.075Z</time>
      </trkpt>
      <trkpt lat="44.33992" lon="1.18713">
        <ele>238.243827</ele>
        <time>2022-05-12T11:20:57.075Z</time>
      </trkpt>
      <trkpt lat="44.33986" lon="1.18728">
        <ele>237.930903</ele>
        <time>2022-05-12T11:20:58.102Z</time>
      </trkpt>
      <trkpt lat="44.33984" lon="1.18747">
        <ele>237.571075</ele>
        <time>2022-05-12T11:20:59.067Z</time>
      </trkpt>
      <trkpt lat="44.33981" lon="1.18763">
        <ele>237.266108</ele>
        <time>2022-05-12T11:21:00.070Z</time>
      </trkpt>
      <trkpt lat="44.33982" lon="1.18782">
        <ele>236.921127</ele>
        <time>2022-05-12T11:21:01.072Z</time>
      </trkpt>
      <trkpt lat="44.33983" lon="1.188">
        <ele>236.580152</ele>
        <time>2022-05-12T11:21:02.074Z</time>
      </trkpt>
      <trkpt lat="44.33983" lon="1.18817">
        <ele>236.272957</ele>
        <time>2022-05-12T11:21:03.085Z</time>
      </trkpt>
      <trkpt lat="44.33983" lon="1.18834">
        <ele>235.943476</ele>
        <time>2022-05-12T11:21:04.098Z</time>
      </trkpt>
      <trkpt lat="44.33983" lon="1.18851">
        <ele>235.630697</ele>
        <time>2022-05-12T11:21:05.050Z</time>
      </trkpt>
      <trkpt lat="44.33984" lon="1.18867">
        <ele>235.340861</ele>
        <time>2022-05-12T11:21:06.070Z</time>
      </trkpt>
      <trkpt lat="44.33986" lon="1.18884">
        <ele>235.018878</ele>
        <time>2022-05-12T11:21:07.061Z</time>
      </trkpt>
      <trkpt lat="44.33989" lon="1.189">
        <ele>234.550635</ele>
        <time>2022-05-12T11:21:08.058Z</time>
      </trkpt>
      <trkpt lat="44.33992" lon="1.18916">
        <ele>233.924532</ele>
        <time>2022-05-12T11:21:09.077Z</time>
      </trkpt>
      <trkpt lat="44.33995" lon="1.18932">
        <ele>233.293331</ele>
        <time>2022-05-12T11:21:10.104Z</time>
      </trkpt>
      <trkpt lat="44.33999" lon="1.18948">
        <ele>232.659787</ele>
        <time>2022-05-12T11:21:11.060Z</time>
      </trkpt>
      <trkpt lat="44.34004" lon="1.18963">
        <ele>232.015444</ele>
        <time>2022-05-12T11:21:12.078Z</time>
      </trkpt>
      <trkpt lat="44.34009" lon="1.18978">
        <ele>231.384659</ele>
        <time>2022-05-12T11:21:13.086Z</time>
      </trkpt>
      <trkpt lat="44.34015" lon="1.18994">
        <ele>230.719098</ele>
        <time>2022-05-12T11:21:14.054Z</time>
      </trkpt>
      <trkpt lat="44.34024" lon="1.19009">
        <ele>229.941884</ele>
        <time>2022-05-12T11:21:15.064Z</time>
      </trkpt>
      <trkpt lat="44.34032" lon="1.19023">
        <ele>229.269197</ele>
        <time>2022-05-12T11:21:16.096Z</time>
      </trkpt>
      <trkpt lat="44.3404" lon="1.19037">
        <ele>228.586207</ele>
        <time>2022-05-12T11:21:17.055Z</time>
      </trkpt>
      <trkpt lat="44.34048" lon="1.1905">
        <ele>227.943875</ele>
        <time>2022-05-12T11:21:18.058Z</time>
      </trkpt>
      <trkpt lat="44.34056" lon="1.19064">
        <ele>227.295266</ele>
        <time>2022-05-12T11:21:19.068Z</time>
      </trkpt>
      <trkpt lat="44.34064" lon="1.19078">
        <ele>226.595117</ele>
        <time>2022-05-12T11:21:20.067Z</time>
      </trkpt>
      <trkpt lat="44.34073" lon="1.1909">
        <ele>225.944968</ele>
        <time>2022-05-12T11:21:21.057Z</time>
      </trkpt>
      <trkpt lat="44.34082" lon="1.19103">
        <ele>225.263908</ele>
        <time>2022-05-12T11:21:22.097Z</time>
      </trkpt>
      <trkpt lat="44.3409" lon="1.19116">
        <ele>224.652218</ele>
        <time>2022-05-12T11:21:23.083Z</time>
      </trkpt>
      <trkpt lat="44.34098" lon="1.19129">
        <ele>224.024587</ele>
        <time>2022-05-12T11:21:24.046Z</time>
      </trkpt>
      <trkpt lat="44.34107" lon="1.19142">
        <ele>223.407582</ele>
        <time>2022-05-12T11:21:25.074Z</time>
      </trkpt>
      <trkpt lat="44.34114" lon="1.19156">
        <ele>222.786613</ele>
        <time>2022-05-12T11:21:26.051Z</time>
      </trkpt>
      <trkpt lat="44.34122" lon="1.1917">
        <ele>222.169062</ele>
        <time>2022-05-12T11:21:27.056Z</time>
      </trkpt>
      <trkpt lat="44.34129" lon="1.19186">
        <ele>221.504303</ele>
        <time>2022-05-12T11:21:28.091Z</time>
      </trkpt>
      <trkpt lat="44.34135" lon="1.19202">
        <ele>220.855427</ele>
        <time>2022-05-12T11:21:29.071Z</time>
      </trkpt>
      <trkpt lat="44.3414" lon="1.19218">
        <ele>220.252675</ele>
        <time>2022-05-12T11:21:30.069Z</time>
      </trkpt>
      <trkpt lat="44.34144" lon="1.19233">
        <ele>219.680232</ele>
        <time>2022-05-12T11:21:31.062Z</time>
      </trkpt>
      <trkpt lat="44.34147" lon="1.1925">
        <ele>219.038983</ele>
        <time>2022-05-12T11:21:32.062Z</time>
      </trkpt>
      <trkpt lat="44.34151" lon="1.19266">
        <ele>218.443237</ele>
        <time>2022-05-12T11:21:33.062Z</time>
      </trkpt>
      <trkpt lat="44.34154" lon="1.19284">
        <ele>217.78819</ele>
        <time>2022-05-12T11:21:34.094Z</time>
      </trkpt>
      <trkpt lat="44.34156" lon="1.19302">
        <ele>217.146212</ele>
        <time>2022-05-12T11:21:35.077Z</time>
      </trkpt>
      <trkpt lat="44.34159" lon="1.19319">
        <ele>216.517554</ele>
        <time>2022-05-12T11:21:36.071Z</time>
      </trkpt>
      <trkpt lat="44.34163" lon="1.19337">
        <ele>216.279457</ele>
        <time>2022-05-12T11:21:37.078Z</time>
      </trkpt>
      <trkpt lat="44.34166" lon="1.19354">
        <ele>216.105051</ele>
        <time>2022-05-12T11:21:38.074Z</time>
      </trkpt>
      <trkpt lat="44.34169" lon="1.19372">
        <ele>215.916455</ele>
        <time>2022-05-12T11:21:39.074Z</time>
      </trkpt>
      <trkpt lat="44.34172" lon="1.19389">
        <ele>215.74205</ele>
        <time>2022-05-12T11:21:40.093Z</time>
      </trkpt>
      <trkpt lat="44.34175" lon="1.19406">
        <ele>215.56572</ele>
        <time>2022-05-12T11:21:41.064Z</time>
      </trkpt>
      <trkpt lat="44.34177" lon="1.19424">
        <ele>215.390693</ele>
        <time>2022-05-12T11:21:42.064Z</time>
      </trkpt>
      <trkpt lat="44.3418" lon="1.19442">
        <ele>215.212244</ele>
        <time>2022-05-12T11:21:43.038Z</time>
      </trkpt>
      <trkpt lat="44.34182" lon="1.19459">
        <ele>215.038192</ele>
        <time>2022-05-12T11:21:44.055Z</time>
      </trkpt>
      <trkpt lat="44.34183" lon="1.19477">
        <ele>214.859245</ele>
        <time>2022-05-12T11:21:45.066Z</time>
      </trkpt>
      <trkpt lat="44.34182" lon="1.19493">
        <ele>214.698484</ele>
        <time>2022-05-12T11:21:46.112Z</time>
      </trkpt>
      <trkpt lat="44.3418" lon="1.1951">
        <ele>214.528257</ele>
        <time>2022-05-12T11:21:47.057Z</time>
      </trkpt>
      <trkpt lat="44.34176" lon="1.19525">
        <ele>214.372022</ele>
        <time>2022-05-12T11:21:48.063Z</time>
      </trkpt>
      <trkpt lat="44.34171" lon="1.1954">
        <ele>214.204816</ele>
        <time>2022-05-12T11:21:49.063Z</time>
      </trkpt>
      <trkpt lat="44.34163" lon="1.19553">
        <ele>214.036186</ele>
        <time>2022-05-12T11:21:50.067Z</time>
      </trkpt>
      <trkpt lat="44.34158" lon="1.19565">
        <ele>213.928656</ele>
        <time>2022-05-12T11:21:51.066Z</time>
      </trkpt>
      <trkpt lat="44.34151" lon="1.19577">
        <ele>213.885237</ele>
        <time>2022-05-12T11:21:52.092Z</time>
      </trkpt>
      <trkpt lat="44.34145" lon="1.19588">
        <ele>213.842279</ele>
        <time>2022-05-12T11:21:53.058Z</time>
      </trkpt>
      <trkpt lat="44.34139" lon="1.19599">
        <ele>213.801529</ele>
        <time>2022-05-12T11:21:54.047Z</time>
      </trkpt>
      <trkpt lat="44.34133" lon="1.1961">
        <ele>213.759298</ele>
        <time>2022-05-12T11:21:55.068Z</time>
      </trkpt>
      <trkpt lat="44.34127" lon="1.19621">
        <ele>213.718309</ele>
        <time>2022-05-12T11:21:56.079Z</time>
      </trkpt>
      <trkpt lat="44.34122" lon="1.19633">
        <ele>213.677563</ele>
        <time>2022-05-12T11:21:57.070Z</time>
      </trkpt>
      <trkpt lat="44.34116" lon="1.19643">
        <ele>213.637767</ele>
        <time>2022-05-12T11:21:58.089Z</time>
      </trkpt>
      <trkpt lat="44.34111" lon="1.19654">
        <ele>213.598957</ele>
        <time>2022-05-12T11:21:59.066Z</time>
      </trkpt>
      <trkpt lat="44.341" lon="1.19674">
        <ele>213.524433</ele>
        <time>2022-05-12T11:22:01.074Z</time>
      </trkpt>
      <trkpt lat="44.34089" lon="1.19693">
        <ele>213.452396</ele>
        <time>2022-05-12T11:22:03.067Z</time>
      </trkpt>
      <trkpt lat="44.3408" lon="1.19712">
        <ele>213.383758</ele>
        <time>2022-05-12T11:22:05.086Z</time>
      </trkpt>
      <trkpt lat="44.3407" lon="1.19729">
        <ele>213.317757</ele>
        <time>2022-05-12T11:22:07.076Z</time>
      </trkpt>
      <trkpt lat="44.3406" lon="1.19747">
        <ele>213.249746</ele>
        <time>2022-05-12T11:22:09.076Z</time>
      </trkpt>
      <trkpt lat="44.34048" lon="1.19761">
        <ele>213.183663</ele>
        <time>2022-05-12T11:22:11.058Z</time>
      </trkpt>
      <trkpt lat="44.34038" lon="1.19778">
        <ele>213.093478</ele>
        <time>2022-05-12T11:22:13.063Z</time>
      </trkpt>
      <trkpt lat="44.34029" lon="1.19796">
        <ele>213.005623</ele>
        <time>2022-05-12T11:22:15.053Z</time>
      </trkpt>
      <trkpt lat="44.3402" lon="1.19814">
        <ele>212.921012</ele>
        <time>2022-05-12T11:22:17.081Z</time>
      </trkpt>
      <trkpt lat="44.34013" lon="1.19833">
        <ele>212.834352</ele>
        <time>2022-05-12T11:22:19.072Z</time>
      </trkpt>
      <trkpt lat="44.34003" lon="1.19849">
        <ele>212.750813</ele>
        <time>2022-05-12T11:22:21.081Z</time>
      </trkpt>
      <trkpt lat="44.33995" lon="1.19865">
        <ele>212.672689</ele>
        <time>2022-05-12T11:22:23.072Z</time>
      </trkpt>
      <trkpt lat="44.33987" lon="1.1988">
        <ele>212.594847</ele>
        <time>2022-05-12T11:22:25.053Z</time>
      </trkpt>
      <trkpt lat="44.33981" lon="1.199">
        <ele>212.511629</ele>
        <time>2022-05-12T11:22:27.057Z</time>
      </trkpt>
      <trkpt lat="44.33972" lon="1.19915">
        <ele>212.434442</ele>
        <time>2022-05-12T11:22:29.058Z</time>
      </trkpt>
      <trkpt lat="44.33964" lon="1.1993">
        <ele>212.359317</ele>
        <time>2022-05-12T11:22:31.064Z</time>
      </trkpt>
      <trkpt lat="44.33955" lon="1.19945">
        <ele>212.28242</ele>
        <time>2022-05-12T11:22:33.066Z</time>
      </trkpt>
      <trkpt lat="44.33953" lon="1.19964">
        <ele>212.203909</ele>
        <time>2022-05-12T11:22:35.055Z</time>
      </trkpt>
      <trkpt lat="44.33959" lon="1.19981">
        <ele>212.391103</ele>
        <time>2022-05-12T11:22:37.076Z</time>
      </trkpt>
      <trkpt lat="44.33968" lon="1.20001">
        <ele>212.701293</ele>
        <time>2022-05-12T11:22:39.045Z</time>
      </trkpt>
      <trkpt lat="44.33979" lon="1.20016">
        <ele>212.976832</ele>
        <time>2022-05-12T11:22:41.082Z</time>
      </trkpt>
      <trkpt lat="44.33988" lon="1.2003">
        <ele>213.234855</ele>
        <time>2022-05-12T11:22:43.055Z</time>
      </trkpt>
      <trkpt lat="44.33998" lon="1.20043">
        <ele>213.487992</ele>
        <time>2022-05-12T11:22:45.054Z</time>
      </trkpt>
      <trkpt lat="44.34007" lon="1.20057">
        <ele>213.741166</ele>
        <time>2022-05-12T11:22:47.045Z</time>
      </trkpt>
      <trkpt lat="44.34016" lon="1.2007">
        <ele>213.978057</ele>
        <time>2022-05-12T11:22:49.056Z</time>
      </trkpt>
      <trkpt lat="44.34025" lon="1.20083">
        <ele>214.212798</ele>
        <time>2022-05-12T11:22:51.072Z</time>
      </trkpt>
      <trkpt lat="44.34034" lon="1.20097">
        <ele>214.454831</ele>
        <time>2022-05-12T11:22:53.066Z</time>
      </trkpt>
      <trkpt lat="44.34042" lon="1.2011">
        <ele>214.69657</ele>
        <time>2022-05-12T11:22:55.091Z</time>
      </trkpt>
      <trkpt lat="44.34051" lon="1.20124">
        <ele>214.938811</ele>
        <time>2022-05-12T11:22:57.054Z</time>
      </trkpt>
      <trkpt lat="44.34059" lon="1.20138">
        <ele>215.172476</ele>
        <time>2022-05-12T11:22:59.054Z</time>
      </trkpt>
      <trkpt lat="44.34064" lon="1.20154">
        <ele>215.405423</ele>
        <time>2022-05-12T11:23:01.069Z</time>
      </trkpt>
      <trkpt lat="44.34066" lon="1.20172">
        <ele>215.625136</ele>
        <time>2022-05-12T11:23:03.044Z</time>
      </trkpt>
      <trkpt lat="44.34059" lon="1.20186">
        <ele>215.811766</ele>
        <time>2022-05-12T11:23:05.066Z</time>
      </trkpt>
      <trkpt lat="44.34052" lon="1.20197">
        <ele>215.975152</ele>
        <time>2022-05-12T11:23:07.067Z</time>
      </trkpt>
      <trkpt lat="44.34041" lon="1.20203">
        <ele>216.153993</ele>
        <time>2022-05-12T11:23:09.081Z</time>
      </trkpt>
      <trkpt lat="44.34031" lon="1.20201">
        <ele>216.315793</ele>
        <time>2022-05-12T11:23:11.069Z</time>
      </trkpt>
      <trkpt lat="44.3402" lon="1.20193">
        <ele>216.508432</ele>
        <time>2022-05-12T11:23:13.060Z</time>
      </trkpt>
      <trkpt lat="44.3401" lon="1.20186">
        <ele>216.681225</ele>
        <time>2022-05-12T11:23:15.069Z</time>
      </trkpt>
      <trkpt lat="44.34" lon="1.20178">
        <ele>216.859523</ele>
        <time>2022-05-12T11:23:17.071Z</time>
      </trkpt>
      <trkpt lat="44.3399" lon="1.2017">
        <ele>217.042094</ele>
        <time>2022-05-12T11:23:19.066Z</time>
      </trkpt>
      <trkpt lat="44.33979" lon="1.20163">
        <ele>217.229364</ele>
        <time>2022-05-12T11:23:21.058Z</time>
      </trkpt>
      <trkpt lat="44.3397" lon="1.20156">
        <ele>217.389977</ele>
        <time>2022-05-12T11:23:23.075Z</time>
      </trkpt>
      <trkpt lat="44.3396" lon="1.2015">
        <ele>217.554783</ele>
        <time>2022-05-12T11:23:25.074Z</time>
      </trkpt>
      <trkpt lat="44.3395" lon="1.20145">
        <ele>217.716429</ele>
        <time>2022-05-12T11:23:27.072Z</time>
      </trkpt>
      <trkpt lat="44.3394" lon="1.20141">
        <ele>217.881724</ele>
        <time>2022-05-12T11:23:29.063Z</time>
      </trkpt>
      <trkpt lat="44.33929" lon="1.20149">
        <ele>218.075114</ele>
        <time>2022-05-12T11:23:32.069Z</time>
      </trkpt>
      <trkpt lat="44.33925" lon="1.20161">
        <ele>218.221609</ele>
        <time>2022-05-12T11:23:34.087Z</time>
      </trkpt>
      <trkpt lat="44.33925" lon="1.20179">
        <ele>218.452419</ele>
        <time>2022-05-12T11:23:37.047Z</time>
      </trkpt>
      <trkpt lat="44.33929" lon="1.20195">
        <ele>218.680866</ele>
        <time>2022-05-12T11:23:40.086Z</time>
      </trkpt>
      <trkpt lat="44.33937" lon="1.20208">
        <ele>218.903637</ele>
        <time>2022-05-12T11:23:43.051Z</time>
      </trkpt>
      <trkpt lat="44.33943" lon="1.20223">
        <ele>219.149104</ele>
        <time>2022-05-12T11:23:46.084Z</time>
      </trkpt>
      <trkpt lat="44.33949" lon="1.20233">
        <ele>219.32915</ele>
        <time>2022-05-12T11:23:48.056Z</time>
      </trkpt>
      <trkpt lat="44.33955" lon="1.20245">
        <ele>219.520036</ele>
        <time>2022-05-12T11:23:50.073Z</time>
      </trkpt>
      <trkpt lat="44.3396" lon="1.20256">
        <ele>219.701464</ele>
        <time>2022-05-12T11:23:52.089Z</time>
      </trkpt>
      <trkpt lat="44.33967" lon="1.2027">
        <ele>219.937446</ele>
        <time>2022-05-12T11:23:55.054Z</time>
      </trkpt>
      <trkpt lat="44.33974" lon="1.20285">
        <ele>220.174625</ele>
        <time>2022-05-12T11:23:58.098Z</time>
      </trkpt>
      <trkpt lat="44.3398" lon="1.20299">
        <ele>220.393697</ele>
        <time>2022-05-12T11:24:01.071Z</time>
      </trkpt>
      <trkpt lat="44.33985" lon="1.2031">
        <ele>220.570176</ele>
        <time>2022-05-12T11:24:03.074Z</time>
      </trkpt>
      <trkpt lat="44.33991" lon="1.20323">
        <ele>220.780906</ele>
        <time>2022-05-12T11:24:06.069Z</time>
      </trkpt>
      <trkpt lat="44.33996" lon="1.20338">
        <ele>221.004393</ele>
        <time>2022-05-12T11:24:09.062Z</time>
      </trkpt>
      <trkpt lat="44.34003" lon="1.20348">
        <ele>221.196967</ele>
        <time>2022-05-12T11:24:11.074Z</time>
      </trkpt>
      <trkpt lat="44.3401" lon="1.20362">
        <ele>221.428515</ele>
        <time>2022-05-12T11:24:14.045Z</time>
      </trkpt>
      <trkpt lat="44.34016" lon="1.20377">
        <ele>221.659345</ele>
        <time>2022-05-12T11:24:17.054Z</time>
      </trkpt>
      <trkpt lat="44.34024" lon="1.2039">
        <ele>221.873707</ele>
        <time>2022-05-12T11:24:20.061Z</time>
      </trkpt>
      <trkpt lat="44.34031" lon="1.20403">
        <ele>222.0651</ele>
        <time>2022-05-12T11:24:23.074Z</time>
      </trkpt>
      <trkpt lat="44.34037" lon="1.20417">
        <ele>222.270726</ele>
        <time>2022-05-12T11:24:26.065Z</time>
      </trkpt>
      <trkpt lat="44.34044" lon="1.2043">
        <ele>222.47091</ele>
        <time>2022-05-12T11:24:29.061Z</time>
      </trkpt>
      <trkpt lat="44.3405" lon="1.20443">
        <ele>222.667117</ele>
        <time>2022-05-12T11:24:32.065Z</time>
      </trkpt>
      <trkpt lat="44.34056" lon="1.20456">
        <ele>222.859854</ele>
        <time>2022-05-12T11:24:35.067Z</time>
      </trkpt>
      <trkpt lat="44.34061" lon="1.2047">
        <ele>223.051651</ele>
        <time>2022-05-12T11:24:38.101Z</time>
      </trkpt>
      <trkpt lat="44.34063" lon="1.20486">
        <ele>223.243357</ele>
        <time>2022-05-12T11:24:41.053Z</time>
      </trkpt>
      <trkpt lat="44.34061" lon="1.205">
        <ele>223.424103</ele>
        <time>2022-05-12T11:24:44.093Z</time>
      </trkpt>
      <trkpt lat="44.34054" lon="1.20511">
        <ele>223.606434</ele>
        <time>2022-05-12T11:24:47.074Z</time>
      </trkpt>
      <trkpt lat="44.34044" lon="1.20518">
        <ele>223.790843</ele>
        <time>2022-05-12T11:24:50.119Z</time>
      </trkpt>
      <trkpt lat="44.34034" lon="1.20523">
        <ele>223.970336</ele>
        <time>2022-05-12T11:24:53.063Z</time>
      </trkpt>
      <trkpt lat="44.34024" lon="1.20525">
        <ele>224.150417</ele>
        <time>2022-05-12T11:24:56.111Z</time>
      </trkpt>
      <trkpt lat="44.34013" lon="1.20529">
        <ele>224.337532</ele>
        <time>2022-05-12T11:24:59.067Z</time>
      </trkpt>
      <trkpt lat="44.34003" lon="1.20533">
        <ele>224.52119</ele>
        <time>2022-05-12T11:25:02.104Z</time>
      </trkpt>
      <trkpt lat="44.33993" lon="1.20537">
        <ele>224.706773</ele>
        <time>2022-05-12T11:25:05.046Z</time>
      </trkpt>
      <trkpt lat="44.33983" lon="1.20541">
        <ele>225.007665</ele>
        <time>2022-05-12T11:25:08.095Z</time>
      </trkpt>
      <trkpt lat="44.33973" lon="1.20545">
        <ele>225.451871</ele>
        <time>2022-05-12T11:25:11.073Z</time>
      </trkpt>
      <trkpt lat="44.33963" lon="1.20549">
        <ele>225.905313</ele>
        <time>2022-05-12T11:25:14.077Z</time>
      </trkpt>
      <trkpt lat="44.33953" lon="1.20552">
        <ele>226.370178</ele>
        <time>2022-05-12T11:25:17.078Z</time>
      </trkpt>
      <trkpt lat="44.33943" lon="1.20555">
        <ele>226.809939</ele>
        <time>2022-05-12T11:25:20.108Z</time>
      </trkpt>
      <trkpt lat="44.33933" lon="1.20558">
        <ele>227.235555</ele>
        <time>2022-05-12T11:25:23.068Z</time>
      </trkpt>
      <trkpt lat="44.33923" lon="1.20562">
        <ele>227.699092</ele>
        <time>2022-05-12T11:25:26.087Z</time>
      </trkpt>
      <trkpt lat="44.33914" lon="1.20565">
        <ele>228.122096</ele>
        <time>2022-05-12T11:25:29.072Z</time>
      </trkpt>
      <trkpt lat="44.33905" lon="1.2057">
        <ele>228.536161</ele>
        <time>2022-05-12T11:25:32.054Z</time>
      </trkpt>
      <trkpt lat="44.33896" lon="1.20574">
        <ele>228.954311</ele>
        <time>2022-05-12T11:25:35.051Z</time>
      </trkpt>
      <trkpt lat="44.33886" lon="1.20577">
        <ele>229.385513</ele>
        <time>2022-05-12T11:25:38.070Z</time>
      </trkpt>
      <trkpt lat="44.33876" lon="1.20582">
        <ele>229.844128</ele>
        <time>2022-05-12T11:25:41.051Z</time>
      </trkpt>
      <trkpt lat="44.33866" lon="1.20586">
        <ele>230.322864</ele>
        <time>2022-05-12T11:25:44.034Z</time>
      </trkpt>
      <trkpt lat="44.33856" lon="1.20589">
        <ele>230.791047</ele>
        <time>2022-05-12T11:25:47.054Z</time>
      </trkpt>
      <trkpt lat="44.33845" lon="1.20593">
        <ele>231.26893</ele>
        <time>2022-05-12T11:25:50.041Z</time>
      </trkpt>
      <trkpt lat="44.33835" lon="1.20598">
        <ele>231.73266</ele>
        <time>2022-05-12T11:25:53.049Z</time>
      </trkpt>
      <trkpt lat="44.33825" lon="1.20602">
        <ele>232.192816</ele>
        <time>2022-05-12T11:25:56.073Z</time>
      </trkpt>
      <trkpt lat="44.33815" lon="1.20606">
        <ele>232.634702</ele>
        <time>2022-05-12T11:25:59.061Z</time>
      </trkpt>
      <trkpt lat="44.33805" lon="1.2061">
        <ele>232.874237</ele>
        <time>2022-05-12T11:26:02.081Z</time>
      </trkpt>
      <trkpt lat="44.33795" lon="1.20614">
        <ele>233.061476</ele>
        <time>2022-05-12T11:26:05.085Z</time>
      </trkpt>
      <trkpt lat="44.33786" lon="1.20619">
        <ele>233.243691</ele>
        <time>2022-05-12T11:26:08.064Z</time>
      </trkpt>
      <trkpt lat="44.33778" lon="1.20628">
        <ele>233.434816</ele>
        <time>2022-05-12T11:26:11.065Z</time>
      </trkpt>
      <trkpt lat="44.33772" lon="1.20638">
        <ele>233.614133</ele>
        <time>2022-05-12T11:26:14.042Z</time>
      </trkpt>
      <trkpt lat="44.33764" lon="1.20649">
        <ele>233.813194</ele>
        <time>2022-05-12T11:26:17.061Z</time>
      </trkpt>
      <trkpt lat="44.33757" lon="1.20659">
        <ele>234.007736</ele>
        <time>2022-05-12T11:26:20.054Z</time>
      </trkpt>
      <trkpt lat="44.33752" lon="1.20671">
        <ele>234.197035</ele>
        <time>2022-05-12T11:26:23.053Z</time>
      </trkpt>
      <trkpt lat="44.33747" lon="1.20684">
        <ele>234.392659</ele>
        <time>2022-05-12T11:26:26.053Z</time>
      </trkpt>
      <trkpt lat="44.33741" lon="1.20697">
        <ele>234.591949</ele>
        <time>2022-05-12T11:26:29.048Z</time>
      </trkpt>
      <trkpt lat="44.33738" lon="1.2071">
        <ele>234.780537</ele>
        <time>2022-05-12T11:26:32.055Z</time>
      </trkpt>
      <trkpt lat="44.33737" lon="1.20725">
        <ele>234.988268</ele>
        <time>2022-05-12T11:26:35.081Z</time>
      </trkpt>
      <trkpt lat="44.33737" lon="1.20743">
        <ele>235.221366</ele>
        <time>2022-05-12T11:26:38.053Z</time>
      </trkpt>
      <trkpt lat="44.33737" lon="1.2076">
        <ele>235.450508</ele>
        <time>2022-05-12T11:26:41.070Z</time>
      </trkpt>
      <trkpt lat="44.33738" lon="1.20776">
        <ele>235.671828</ele>
        <time>2022-05-12T11:26:44.036Z</time>
      </trkpt>
      <trkpt lat="44.33739" lon="1.20793">
        <ele>235.900183</ele>
        <time>2022-05-12T11:26:47.069Z</time>
      </trkpt>
      <trkpt lat="44.3374" lon="1.20811">
        <ele>236.127823</ele>
        <time>2022-05-12T11:26:50.055Z</time>
      </trkpt>
      <trkpt lat="44.33741" lon="1.20829">
        <ele>236.324559</ele>
        <time>2022-05-12T11:26:53.073Z</time>
      </trkpt>
      <trkpt lat="44.33741" lon="1.20847">
        <ele>236.514835</ele>
        <time>2022-05-12T11:26:56.068Z</time>
      </trkpt>
      <trkpt lat="44.33742" lon="1.20864">
        <ele>236.704462</ele>
        <time>2022-05-12T11:26:59.045Z</time>
      </trkpt>
      <trkpt lat="44.33745" lon="1.20876">
        <ele>236.845709</ele>
        <time>2022-05-12T11:27:01.093Z</time>
      </trkpt>
      <trkpt lat="44.3375" lon="1.20889">
        <ele>237.011407</ele>
        <time>2022-05-12T11:27:03.067Z</time>
      </trkpt>
      <trkpt lat="44.33754" lon="1.20904">
        <ele>237.189245</ele>
        <time>2022-05-12T11:27:05.057Z</time>
      </trkpt>
      <trkpt lat="44.33759" lon="1.20923">
        <ele>237.401525</ele>
        <time>2022-05-12T11:27:08.077Z</time>
      </trkpt>
      <trkpt lat="44.33765" lon="1.20935">
        <ele>237.570646</ele>
        <time>2022-05-12T11:27:10.064Z</time>
      </trkpt>
      <trkpt lat="44.33769" lon="1.20949">
        <ele>237.739186</ele>
        <time>2022-05-12T11:27:13.076Z</time>
      </trkpt>
      <trkpt lat="44.33773" lon="1.20962">
        <ele>237.888059</ele>
        <time>2022-05-12T11:27:15.073Z</time>
      </trkpt>
      <trkpt lat="44.33778" lon="1.20973">
        <ele>238.035097</ele>
        <time>2022-05-12T11:27:17.073Z</time>
      </trkpt>
      <trkpt lat="44.33784" lon="1.20989">
        <ele>238.233028</ele>
        <time>2022-05-12T11:27:20.059Z</time>
      </trkpt>
      <trkpt lat="44.33792" lon="1.21005">
        <ele>238.440773</ele>
        <time>2022-05-12T11:27:23.082Z</time>
      </trkpt>
      <trkpt lat="44.33801" lon="1.21018">
        <ele>238.64209</ele>
        <time>2022-05-12T11:27:26.066Z</time>
      </trkpt>
      <trkpt lat="44.33809" lon="1.21026">
        <ele>238.800281</ele>
        <time>2022-05-12T11:27:28.066Z</time>
      </trkpt>
      <trkpt lat="44.33819" lon="1.21033">
        <ele>239.200682</ele>
        <time>2022-05-12T11:27:30.084Z</time>
      </trkpt>
      <trkpt lat="44.33828" lon="1.21036">
        <ele>239.634632</ele>
        <time>2022-05-12T11:27:32.075Z</time>
      </trkpt>
      <trkpt lat="44.33839" lon="1.21035">
        <ele>240.068198</ele>
        <time>2022-05-12T11:27:34.046Z</time>
      </trkpt>
      <trkpt lat="44.33848" lon="1.21031">
        <ele>240.483737</ele>
        <time>2022-05-12T11:27:36.081Z</time>
      </trkpt>
      <trkpt lat="44.33858" lon="1.21026">
        <ele>240.951439</ele>
        <time>2022-05-12T11:27:39.075Z</time>
      </trkpt>
      <trkpt lat="44.33869" lon="1.21024">
        <ele>241.403283</ele>
        <time>2022-05-12T11:27:43.092Z</time>
      </trkpt>
      <trkpt lat="44.33878" lon="1.21019">
        <ele>241.811916</ele>
        <time>2022-05-12T11:27:47.065Z</time>
      </trkpt>
      <trkpt lat="44.33888" lon="1.21017">
        <ele>242.257259</ele>
        <time>2022-05-12T11:27:51.026Z</time>
      </trkpt>
      <trkpt lat="44.33897" lon="1.21011">
        <ele>242.675719</ele>
        <time>2022-05-12T11:27:55.110Z</time>
      </trkpt>
      <trkpt lat="44.33905" lon="1.21003">
        <ele>243.091693</ele>
        <time>2022-05-12T11:27:59.080Z</time>
      </trkpt>
      <trkpt lat="44.33914" lon="1.20995">
        <ele>243.524584</ele>
        <time>2022-05-12T11:28:03.059Z</time>
      </trkpt>
      <trkpt lat="44.3392" lon="1.20987">
        <ele>243.911529</ele>
        <time>2022-05-12T11:28:07.041Z</time>
      </trkpt>
      <trkpt lat="44.33927" lon="1.20975">
        <ele>244.35844</ele>
        <time>2022-05-12T11:28:12.106Z</time>
      </trkpt>
      <trkpt lat="44.33932" lon="1.20963">
        <ele>244.798274</ele>
        <time>2022-05-12T11:28:17.061Z</time>
      </trkpt>
      <trkpt lat="44.33939" lon="1.20951">
        <ele>245.240924</ele>
        <time>2022-05-12T11:28:22.052Z</time>
      </trkpt>
      <trkpt lat="44.33945" lon="1.20939">
        <ele>245.699944</ele>
        <time>2022-05-12T11:28:27.056Z</time>
      </trkpt>
      <trkpt lat="44.33952" lon="1.20929">
        <ele>246.120135</ele>
        <time>2022-05-12T11:28:31.057Z</time>
      </trkpt>
      <trkpt lat="44.33959" lon="1.20918">
        <ele>246.476054</ele>
        <time>2022-05-12T11:28:35.094Z</time>
      </trkpt>
      <trkpt lat="44.33966" lon="1.20907">
        <ele>246.565805</ele>
        <time>2022-05-12T11:28:39.061Z</time>
      </trkpt>
      <trkpt lat="44.33972" lon="1.20896">
        <ele>246.657053</ele>
        <time>2022-05-12T11:28:43.068Z</time>
      </trkpt>
      <trkpt lat="44.33981" lon="1.20887">
        <ele>246.749789</ele>
        <time>2022-05-12T11:28:47.098Z</time>
      </trkpt>
      <trkpt lat="44.33989" lon="1.20876">
        <ele>246.844626</ele>
        <time>2022-05-12T11:28:51.041Z</time>
      </trkpt>
      <trkpt lat="44.33994" lon="1.20863">
        <ele>246.934651</ele>
        <time>2022-05-12T11:28:55.076Z</time>
      </trkpt>
      <trkpt lat="44.33995" lon="1.20847">
        <ele>247.032601</ele>
        <time>2022-05-12T11:28:59.111Z</time>
      </trkpt>
      <trkpt lat="44.33988" lon="1.20837">
        <ele>247.112988</ele>
        <time>2022-05-12T11:29:03.078Z</time>
      </trkpt>
      <trkpt lat="44.33982" lon="1.20849">
        <ele>247.205142</ele>
        <time>2022-05-12T11:29:07.070Z</time>
      </trkpt>
      <trkpt lat="44.33978" lon="1.20863">
        <ele>247.294803</ele>
        <time>2022-05-12T11:29:10.078Z</time>
      </trkpt>
      <trkpt lat="44.33972" lon="1.20875">
        <ele>247.384198</ele>
        <time>2022-05-12T11:29:13.078Z</time>
      </trkpt>
      <trkpt lat="44.33967" lon="1.20888">
        <ele>247.474878</ele>
        <time>2022-05-12T11:29:16.051Z</time>
      </trkpt>
      <trkpt lat="44.33961" lon="1.20898">
        <ele>247.553954</ele>
        <time>2022-05-12T11:29:18.060Z</time>
      </trkpt>
      <trkpt lat="44.33957" lon="1.20909">
        <ele>247.631488</ele>
        <time>2022-05-12T11:29:20.060Z</time>
      </trkpt>
      <trkpt lat="44.33951" lon="1.20922">
        <ele>247.727583</ele>
        <time>2022-05-12T11:29:22.062Z</time>
      </trkpt>
      <trkpt lat="44.33943" lon="1.20936">
        <ele>247.836666</ele>
        <time>2022-05-12T11:29:24.040Z</time>
      </trkpt>
      <trkpt lat="44.33937" lon="1.20952">
        <ele>247.949026</ele>
        <time>2022-05-12T11:29:26.041Z</time>
      </trkpt>
      <trkpt lat="44.33931" lon="1.20969">
        <ele>247.771421</ele>
        <time>2022-05-12T11:29:28.060Z</time>
      </trkpt>
      <trkpt lat="44.3392" lon="1.20982">
        <ele>247.291026</ele>
        <time>2022-05-12T11:29:30.048Z</time>
      </trkpt>
      <trkpt lat="44.3391" lon="1.20995">
        <ele>246.837009</ele>
        <time>2022-05-12T11:29:32.043Z</time>
      </trkpt>
      <trkpt lat="44.33901" lon="1.21005">
        <ele>246.433439</ele>
        <time>2022-05-12T11:29:34.042Z</time>
      </trkpt>
      <trkpt lat="44.33889" lon="1.21012">
        <ele>245.992172</ele>
        <time>2022-05-12T11:29:36.033Z</time>
      </trkpt>
      <trkpt lat="44.33876" lon="1.21018">
        <ele>245.524041</ele>
        <time>2022-05-12T11:29:38.060Z</time>
      </trkpt>
      <trkpt lat="44.33866" lon="1.21024">
        <ele>245.163506</ele>
        <time>2022-05-12T11:29:40.062Z</time>
      </trkpt>
      <trkpt lat="44.33855" lon="1.21028">
        <ele>244.781281</ele>
        <time>2022-05-12T11:29:42.082Z</time>
      </trkpt>
      <trkpt lat="44.3384" lon="1.21032">
        <ele>244.259064</ele>
        <time>2022-05-12T11:29:44.042Z</time>
      </trkpt>
      <trkpt lat="44.33825" lon="1.21031">
        <ele>243.761169</ele>
        <time>2022-05-12T11:29:46.070Z</time>
      </trkpt>
      <trkpt lat="44.33817" lon="1.21025">
        <ele>243.454739</ele>
        <time>2022-05-12T11:29:48.062Z</time>
      </trkpt>
      <trkpt lat="44.3381" lon="1.21012">
        <ele>243.071377</ele>
        <time>2022-05-12T11:29:50.060Z</time>
      </trkpt>
      <trkpt lat="44.33807" lon="1.20998">
        <ele>242.695842</ele>
        <time>2022-05-12T11:29:52.091Z</time>
      </trkpt>
      <trkpt lat="44.33802" lon="1.20985">
        <ele>242.354308</ele>
        <time>2022-05-12T11:29:54.039Z</time>
      </trkpt>
      <trkpt lat="44.33795" lon="1.20973">
        <ele>241.966916</ele>
        <time>2022-05-12T11:29:56.078Z</time>
      </trkpt>
      <trkpt lat="44.3379" lon="1.2096">
        <ele>241.762064</ele>
        <time>2022-05-12T11:29:58.067Z</time>
      </trkpt>
      <trkpt lat="44.33785" lon="1.20949">
        <ele>241.593612</ele>
        <time>2022-05-12T11:30:00.056Z</time>
      </trkpt>
      <trkpt lat="44.33778" lon="1.20937">
        <ele>241.392848</ele>
        <time>2022-05-12T11:30:02.059Z</time>
      </trkpt>
      <trkpt lat="44.33774" lon="1.20919">
        <ele>241.15866</ele>
        <time>2022-05-12T11:30:05.097Z</time>
      </trkpt>
      <trkpt lat="44.3377" lon="1.20906">
        <ele>240.970589</ele>
        <time>2022-05-12T11:30:07.056Z</time>
      </trkpt>
      <trkpt lat="44.33768" lon="1.20892">
        <ele>240.788385</ele>
        <time>2022-05-12T11:30:09.077Z</time>
      </trkpt>
      <trkpt lat="44.33766" lon="1.20879">
        <ele>240.609165</ele>
        <time>2022-05-12T11:30:11.098Z</time>
      </trkpt>
      <trkpt lat="44.33764" lon="1.20865">
        <ele>240.426409</ele>
        <time>2022-05-12T11:30:13.067Z</time>
      </trkpt>
      <trkpt lat="44.33761" lon="1.20851">
        <ele>240.239153</ele>
        <time>2022-05-12T11:30:15.056Z</time>
      </trkpt>
      <trkpt lat="44.33758" lon="1.20837">
        <ele>240.052465</ele>
        <time>2022-05-12T11:30:17.108Z</time>
      </trkpt>
      <trkpt lat="44.33757" lon="1.20823">
        <ele>239.868011</ele>
        <time>2022-05-12T11:30:19.058Z</time>
      </trkpt>
      <trkpt lat="44.3376" lon="1.20804">
        <ele>239.615472</ele>
        <time>2022-05-12T11:30:22.067Z</time>
      </trkpt>
      <trkpt lat="44.33756" lon="1.20787">
        <ele>239.385991</ele>
        <time>2022-05-12T11:30:24.040Z</time>
      </trkpt>
      <trkpt lat="44.33756" lon="1.20773">
        <ele>239.201176</ele>
        <time>2022-05-12T11:30:26.071Z</time>
      </trkpt>
      <trkpt lat="44.33756" lon="1.20757">
        <ele>239.001774</ele>
        <time>2022-05-12T11:30:28.112Z</time>
      </trkpt>
      <trkpt lat="44.33754" lon="1.20742">
        <ele>238.806919</ele>
        <time>2022-05-12T11:30:30.054Z</time>
      </trkpt>
      <trkpt lat="44.33752" lon="1.20728">
        <ele>238.557861</ele>
        <time>2022-05-12T11:30:32.081Z</time>
      </trkpt>
      <trkpt lat="44.33753" lon="1.20711">
        <ele>238.109482</ele>
        <time>2022-05-12T11:30:34.076Z</time>
      </trkpt>
      <trkpt lat="44.33756" lon="1.20693">
        <ele>237.595738</ele>
        <time>2022-05-12T11:30:36.076Z</time>
      </trkpt>
      <trkpt lat="44.33762" lon="1.20673">
        <ele>237.015837</ele>
        <time>2022-05-12T11:30:38.065Z</time>
      </trkpt>
      <trkpt lat="44.33773" lon="1.20659">
        <ele>236.44541</ele>
        <time>2022-05-12T11:30:40.090Z</time>
      </trkpt>
      <trkpt lat="44.33779" lon="1.2064">
        <ele>235.88091</ele>
        <time>2022-05-12T11:30:42.065Z</time>
      </trkpt>
      <trkpt lat="44.33787" lon="1.20632">
        <ele>235.534463</ele>
        <time>2022-05-12T11:30:43.074Z</time>
      </trkpt>
      <trkpt lat="44.33799" lon="1.20619">
        <ele>234.955923</ele>
        <time>2022-05-12T11:30:45.071Z</time>
      </trkpt>
      <trkpt lat="44.33815" lon="1.2061">
        <ele>234.303676</ele>
        <time>2022-05-12T11:30:47.070Z</time>
      </trkpt>
      <trkpt lat="44.33832" lon="1.20602">
        <ele>233.615213</ele>
        <time>2022-05-12T11:30:49.073Z</time>
      </trkpt>
      <trkpt lat="44.33843" lon="1.20597">
        <ele>233.203138</ele>
        <time>2022-05-12T11:30:50.044Z</time>
      </trkpt>
      <trkpt lat="44.33853" lon="1.20594">
        <ele>232.821486</ele>
        <time>2022-05-12T11:30:51.074Z</time>
      </trkpt>
      <trkpt lat="44.33862" lon="1.20591">
        <ele>232.439168</ele>
        <time>2022-05-12T11:30:52.096Z</time>
      </trkpt>
      <trkpt lat="44.33873" lon="1.20588">
        <ele>232.040537</ele>
        <time>2022-05-12T11:30:53.065Z</time>
      </trkpt>
      <trkpt lat="44.33891" lon="1.2058">
        <ele>231.411658</ele>
        <time>2022-05-12T11:30:55.074Z</time>
      </trkpt>
      <trkpt lat="44.339" lon="1.20576">
        <ele>231.102604</ele>
        <time>2022-05-12T11:30:56.055Z</time>
      </trkpt>
      <trkpt lat="44.33911" lon="1.20572">
        <ele>230.762448</ele>
        <time>2022-05-12T11:30:57.076Z</time>
      </trkpt>
      <trkpt lat="44.3392" lon="1.20568">
        <ele>230.447964</ele>
        <time>2022-05-12T11:30:58.111Z</time>
      </trkpt>
      <trkpt lat="44.3393" lon="1.20564">
        <ele>230.113913</ele>
        <time>2022-05-12T11:30:59.073Z</time>
      </trkpt>
      <trkpt lat="44.3394" lon="1.20561">
        <ele>229.783403</ele>
        <time>2022-05-12T11:31:00.060Z</time>
      </trkpt>
      <trkpt lat="44.33952" lon="1.20557">
        <ele>229.414774</ele>
        <time>2022-05-12T11:31:01.068Z</time>
      </trkpt>
      <trkpt lat="44.33962" lon="1.20552">
        <ele>229.064713</ele>
        <time>2022-05-12T11:31:02.044Z</time>
      </trkpt>
      <trkpt lat="44.33973" lon="1.20547">
        <ele>228.696987</ele>
        <time>2022-05-12T11:31:03.073Z</time>
      </trkpt>
      <trkpt lat="44.33984" lon="1.20543">
        <ele>228.350716</ele>
        <time>2022-05-12T11:31:04.078Z</time>
      </trkpt>
      <trkpt lat="44.33995" lon="1.2054">
        <ele>227.989789</ele>
        <time>2022-05-12T11:31:05.056Z</time>
      </trkpt>
      <trkpt lat="44.34006" lon="1.20536">
        <ele>227.618982</ele>
        <time>2022-05-12T11:31:06.065Z</time>
      </trkpt>
      <trkpt lat="44.34017" lon="1.20532">
        <ele>227.247767</ele>
        <time>2022-05-12T11:31:07.051Z</time>
      </trkpt>
      <trkpt lat="44.34028" lon="1.20529">
        <ele>226.890425</ele>
        <time>2022-05-12T11:31:08.071Z</time>
      </trkpt>
      <trkpt lat="44.34038" lon="1.20525">
        <ele>226.566158</ele>
        <time>2022-05-12T11:31:09.072Z</time>
      </trkpt>
      <trkpt lat="44.34047" lon="1.20521">
        <ele>226.256429</ele>
        <time>2022-05-12T11:31:10.095Z</time>
      </trkpt>
      <trkpt lat="44.34057" lon="1.20517">
        <ele>226.315192</ele>
        <time>2022-05-12T11:31:11.073Z</time>
      </trkpt>
      <trkpt lat="44.34074" lon="1.20518">
        <ele>226.646246</ele>
        <time>2022-05-12T11:31:13.078Z</time>
      </trkpt>
      <trkpt lat="44.34083" lon="1.20521">
        <ele>226.822959</ele>
        <time>2022-05-12T11:31:14.033Z</time>
      </trkpt>
      <trkpt lat="44.34092" lon="1.20528">
        <ele>227.022671</ele>
        <time>2022-05-12T11:31:15.051Z</time>
      </trkpt>
      <trkpt lat="44.34102" lon="1.20544">
        <ele>227.321551</ele>
        <time>2022-05-12T11:31:17.067Z</time>
      </trkpt>
      <trkpt lat="44.34113" lon="1.20562">
        <ele>227.649835</ele>
        <time>2022-05-12T11:31:19.065Z</time>
      </trkpt>
      <trkpt lat="44.3412" lon="1.20582">
        <ele>227.957638</ele>
        <time>2022-05-12T11:31:21.067Z</time>
      </trkpt>
      <trkpt lat="44.34128" lon="1.20602">
        <ele>228.273761</ele>
        <time>2022-05-12T11:31:23.056Z</time>
      </trkpt>
      <trkpt lat="44.34138" lon="1.20621">
        <ele>228.595855</ele>
        <time>2022-05-12T11:31:25.075Z</time>
      </trkpt>
      <trkpt lat="44.34145" lon="1.20641">
        <ele>228.905113</ele>
        <time>2022-05-12T11:31:27.066Z</time>
      </trkpt>
      <trkpt lat="44.34153" lon="1.2066">
        <ele>229.207942</ele>
        <time>2022-05-12T11:31:29.083Z</time>
      </trkpt>
      <trkpt lat="44.34161" lon="1.20679">
        <ele>229.511718</ele>
        <time>2022-05-12T11:31:31.054Z</time>
      </trkpt>
      <trkpt lat="44.3417" lon="1.20698">
        <ele>229.356983</ele>
        <time>2022-05-12T11:31:33.074Z</time>
      </trkpt>
      <trkpt lat="44.34183" lon="1.20713">
        <ele>228.785508</ele>
        <time>2022-05-12T11:31:35.063Z</time>
      </trkpt>
      <trkpt lat="44.34194" lon="1.20732">
        <ele>228.188482</ele>
        <time>2022-05-12T11:31:37.047Z</time>
      </trkpt>
      <trkpt lat="44.34206" lon="1.20749">
        <ele>227.609039</ele>
        <time>2022-05-12T11:31:39.075Z</time>
      </trkpt>
      <trkpt lat="44.34218" lon="1.20765">
        <ele>227.034268</ele>
        <time>2022-05-12T11:31:41.067Z</time>
      </trkpt>
      <trkpt lat="44.34232" lon="1.20779">
        <ele>226.446024</ele>
        <time>2022-05-12T11:31:43.069Z</time>
      </trkpt>
      <trkpt lat="44.34244" lon="1.20795">
        <ele>225.891095</ele>
        <time>2022-05-12T11:31:45.070Z</time>
      </trkpt>
      <trkpt lat="44.34254" lon="1.20813">
        <ele>225.334866</ele>
        <time>2022-05-12T11:31:47.071Z</time>
      </trkpt>
      <trkpt lat="44.34263" lon="1.20831">
        <ele>224.778209</ele>
        <time>2022-05-12T11:31:49.057Z</time>
      </trkpt>
      <trkpt lat="44.34273" lon="1.2085">
        <ele>224.217797</ele>
        <time>2022-05-12T11:31:51.067Z</time>
      </trkpt>
      <trkpt lat="44.34282" lon="1.20869">
        <ele>223.667205</ele>
        <time>2022-05-12T11:31:53.066Z</time>
      </trkpt>
      <trkpt lat="44.34287" lon="1.20879">
        <ele>222.906023</ele>
        <time>2022-05-12T11:31:54.059Z</time>
      </trkpt>
      <trkpt lat="44.34296" lon="1.20897">
        <ele>220.90493</ele>
        <time>2022-05-12T11:31:56.073Z</time>
      </trkpt>
      <trkpt lat="44.34307" lon="1.20917">
        <ele>218.619656</ele>
        <time>2022-05-12T11:31:58.099Z</time>
      </trkpt>
      <trkpt lat="44.34316" lon="1.20935">
        <ele>216.580614</ele>
        <time>2022-05-12T11:32:00.076Z</time>
      </trkpt>
      <trkpt lat="44.34331" lon="1.20945">
        <ele>214.47439</ele>
        <time>2022-05-12T11:32:02.074Z</time>
      </trkpt>
      <trkpt lat="44.34346" lon="1.20944">
        <ele>212.611916</ele>
        <time>2022-05-12T11:32:04.076Z</time>
      </trkpt>
      <trkpt lat="44.34359" lon="1.20937">
        <ele>210.745481</ele>
        <time>2022-05-12T11:32:06.081Z</time>
      </trkpt>
      <trkpt lat="44.34369" lon="1.20926">
        <ele>209.108891</ele>
        <time>2022-05-12T11:32:08.056Z</time>
      </trkpt>
      <trkpt lat="44.34376" lon="1.20917">
        <ele>207.878867</ele>
        <time>2022-05-12T11:32:11.057Z</time>
      </trkpt>
      <trkpt lat="44.34384" lon="1.20905">
        <ele>206.455119</ele>
        <time>2022-05-12T11:32:15.055Z</time>
      </trkpt>
      <trkpt lat="44.34394" lon="1.20893">
        <ele>204.787498</ele>
        <time>2022-05-12T11:32:18.057Z</time>
      </trkpt>
      <trkpt lat="44.34402" lon="1.20883">
        <ele>203.35709</ele>
        <time>2022-05-12T11:32:20.053Z</time>
      </trkpt>
      <trkpt lat="44.34412" lon="1.20871">
        <ele>201.636391</ele>
        <time>2022-05-12T11:32:22.100Z</time>
      </trkpt>
      <trkpt lat="44.34422" lon="1.20859">
        <ele>200.370825</ele>
        <time>2022-05-12T11:32:24.049Z</time>
      </trkpt>
      <trkpt lat="44.34433" lon="1.20847">
        <ele>200.169309</ele>
        <time>2022-05-12T11:32:26.065Z</time>
      </trkpt>
      <trkpt lat="44.34445" lon="1.20836">
        <ele>199.957749</ele>
        <time>2022-05-12T11:32:28.041Z</time>
      </trkpt>
      <trkpt lat="44.34456" lon="1.20825">
        <ele>199.756066</ele>
        <time>2022-05-12T11:32:30.059Z</time>
      </trkpt>
      <trkpt lat="44.34468" lon="1.20814">
        <ele>199.537154</ele>
        <time>2022-05-12T11:32:32.062Z</time>
      </trkpt>
      <trkpt lat="44.3448" lon="1.20803">
        <ele>199.321721</ele>
        <time>2022-05-12T11:32:34.045Z</time>
      </trkpt>
      <trkpt lat="44.34491" lon="1.20791">
        <ele>199.105515</ele>
        <time>2022-05-12T11:32:36.050Z</time>
      </trkpt>
      <trkpt lat="44.34502" lon="1.20777">
        <ele>198.892467</ele>
        <time>2022-05-12T11:32:38.055Z</time>
      </trkpt>
      <trkpt lat="44.34512" lon="1.20766">
        <ele>198.69443</ele>
        <time>2022-05-12T11:32:40.055Z</time>
      </trkpt>
      <trkpt lat="44.34523" lon="1.20754">
        <ele>198.495126</ele>
        <time>2022-05-12T11:32:42.047Z</time>
      </trkpt>
      <trkpt lat="44.34535" lon="1.20743">
        <ele>198.276804</ele>
        <time>2022-05-12T11:32:44.038Z</time>
      </trkpt>
      <trkpt lat="44.34548" lon="1.20731">
        <ele>198.041395</ele>
        <time>2022-05-12T11:32:46.083Z</time>
      </trkpt>
      <trkpt lat="44.34559" lon="1.20719">
        <ele>197.829854</ele>
        <time>2022-05-12T11:32:48.071Z</time>
      </trkpt>
      <trkpt lat="44.34571" lon="1.20707">
        <ele>197.825181</ele>
        <time>2022-05-12T11:32:50.055Z</time>
      </trkpt>
      <trkpt lat="44.34583" lon="1.20695">
        <ele>197.979375</ele>
        <time>2022-05-12T11:32:52.067Z</time>
      </trkpt>
      <trkpt lat="44.34595" lon="1.20687">
        <ele>198.123976</ele>
        <time>2022-05-12T11:32:54.045Z</time>
      </trkpt>
      <trkpt lat="44.34608" lon="1.20678">
        <ele>198.275108</ele>
        <time>2022-05-12T11:32:56.047Z</time>
      </trkpt>
      <trkpt lat="44.34621" lon="1.20671">
        <ele>198.42418</ele>
        <time>2022-05-12T11:32:58.061Z</time>
      </trkpt>
      <trkpt lat="44.34635" lon="1.20666">
        <ele>198.570359</ele>
        <time>2022-05-12T11:33:00.053Z</time>
      </trkpt>
      <trkpt lat="44.34648" lon="1.20661">
        <ele>198.715084</ele>
        <time>2022-05-12T11:33:02.054Z</time>
      </trkpt>
      <trkpt lat="44.34664" lon="1.20659">
        <ele>198.882657</ele>
        <time>2022-05-12T11:33:04.051Z</time>
      </trkpt>
      <trkpt lat="44.34676" lon="1.20658">
        <ele>199.01108</ele>
        <time>2022-05-12T11:33:06.078Z</time>
      </trkpt>
      <trkpt lat="44.34688" lon="1.20659">
        <ele>199.137291</ele>
        <time>2022-05-12T11:33:08.068Z</time>
      </trkpt>
      <trkpt lat="44.34699" lon="1.20659">
        <ele>199.253938</ele>
        <time>2022-05-12T11:33:10.069Z</time>
      </trkpt>
      <trkpt lat="44.34709" lon="1.20659">
        <ele>199.357974</ele>
        <time>2022-05-12T11:33:12.060Z</time>
      </trkpt>
      <trkpt lat="44.34719" lon="1.2066">
        <ele>199.4627</ele>
        <time>2022-05-12T11:33:14.046Z</time>
      </trkpt>
      <trkpt lat="44.34731" lon="1.2066">
        <ele>199.590923</ele>
        <time>2022-05-12T11:33:17.055Z</time>
      </trkpt>
      <trkpt lat="44.34744" lon="1.2066">
        <ele>199.906299</ele>
        <time>2022-05-12T11:33:20.055Z</time>
      </trkpt>
      <trkpt lat="44.34755" lon="1.2066">
        <ele>200.238228</ele>
        <time>2022-05-12T11:33:23.061Z</time>
      </trkpt>
      <trkpt lat="44.34765" lon="1.20658">
        <ele>200.564896</ele>
        <time>2022-05-12T11:33:26.028Z</time>
      </trkpt>
      <trkpt lat="44.34775" lon="1.20655">
        <ele>200.880009</ele>
        <time>2022-05-12T11:33:29.041Z</time>
      </trkpt>
      <trkpt lat="44.34785" lon="1.20649">
        <ele>201.217088</ele>
        <time>2022-05-12T11:33:32.072Z</time>
      </trkpt>
      <trkpt lat="44.34796" lon="1.20641">
        <ele>201.581157</ele>
        <time>2022-05-12T11:33:35.042Z</time>
      </trkpt>
      <trkpt lat="44.34805" lon="1.20632">
        <ele>201.919824</ele>
        <time>2022-05-12T11:33:38.113Z</time>
      </trkpt>
      <trkpt lat="44.34812" lon="1.20621">
        <ele>202.258978</ele>
        <time>2022-05-12T11:33:41.054Z</time>
      </trkpt>
      <trkpt lat="44.34819" lon="1.20609">
        <ele>202.581419</ele>
        <time>2022-05-12T11:33:44.074Z</time>
      </trkpt>
      <trkpt lat="44.34826" lon="1.20599">
        <ele>202.890964</ele>
        <time>2022-05-12T11:33:47.063Z</time>
      </trkpt>
      <trkpt lat="44.34833" lon="1.20588">
        <ele>203.218526</ele>
        <time>2022-05-12T11:33:50.075Z</time>
      </trkpt>
      <trkpt lat="44.3484" lon="1.20576">
        <ele>203.556303</ele>
        <time>2022-05-12T11:33:53.064Z</time>
      </trkpt>
      <trkpt lat="44.34848" lon="1.20565">
        <ele>203.89657</ele>
        <time>2022-05-12T11:33:56.097Z</time>
      </trkpt>
      <trkpt lat="44.34855" lon="1.20555">
        <ele>204.216116</ele>
        <time>2022-05-12T11:33:59.069Z</time>
      </trkpt>
      <trkpt lat="44.34862" lon="1.20545">
        <ele>204.526956</ele>
        <time>2022-05-12T11:34:02.074Z</time>
      </trkpt>
      <trkpt lat="44.3487" lon="1.20536">
        <ele>204.839957</ele>
        <time>2022-05-12T11:34:05.066Z</time>
      </trkpt>
      <trkpt lat="44.34879" lon="1.20527">
        <ele>205.167529</ele>
        <time>2022-05-12T11:34:08.051Z</time>
      </trkpt>
      <trkpt lat="44.34888" lon="1.20518">
        <ele>205.489349</ele>
        <time>2022-05-12T11:34:11.071Z</time>
      </trkpt>
      <trkpt lat="44.34898" lon="1.2051">
        <ele>205.817613</ele>
        <time>2022-05-12T11:34:14.035Z</time>
      </trkpt>
      <trkpt lat="44.34908" lon="1.20502">
        <ele>206.160347</ele>
        <time>2022-05-12T11:34:17.072Z</time>
      </trkpt>
      <trkpt lat="44.3492" lon="1.20494">
        <ele>206.519511</ele>
        <time>2022-05-12T11:34:20.067Z</time>
      </trkpt>
      <trkpt lat="44.34931" lon="1.20486">
        <ele>206.889096</ele>
        <time>2022-05-12T11:34:23.076Z</time>
      </trkpt>
      <trkpt lat="44.34943" lon="1.20478">
        <ele>207.255006</ele>
        <time>2022-05-12T11:34:26.053Z</time>
      </trkpt>
      <trkpt lat="44.34954" lon="1.20469">
        <ele>207.616421</ele>
        <time>2022-05-12T11:34:29.075Z</time>
      </trkpt>
      <trkpt lat="44.34964" lon="1.2046">
        <ele>207.970926</ele>
        <time>2022-05-12T11:34:32.093Z</time>
      </trkpt>
      <trkpt lat="44.34975" lon="1.20453">
        <ele>208.307642</ele>
        <time>2022-05-12T11:34:35.064Z</time>
      </trkpt>
      <trkpt lat="44.34986" lon="1.20445">
        <ele>208.660597</ele>
        <time>2022-05-12T11:34:38.068Z</time>
      </trkpt>
      <trkpt lat="44.34996" lon="1.20436">
        <ele>209.002346</ele>
        <time>2022-05-12T11:34:41.052Z</time>
      </trkpt>
      <trkpt lat="44.35004" lon="1.20426">
        <ele>209.30481</ele>
        <time>2022-05-12T11:34:44.043Z</time>
      </trkpt>
      <trkpt lat="44.35012" lon="1.20416">
        <ele>209.604912</ele>
        <time>2022-05-12T11:34:47.053Z</time>
      </trkpt>
      <trkpt lat="44.3502" lon="1.20405">
        <ele>209.934305</ele>
        <time>2022-05-12T11:34:50.050Z</time>
      </trkpt>
      <trkpt lat="44.3503" lon="1.20395">
        <ele>210.280117</ele>
        <time>2022-05-12T11:34:53.056Z</time>
      </trkpt>
      <trkpt lat="44.35039" lon="1.20385">
        <ele>210.961198</ele>
        <time>2022-05-12T11:34:56.057Z</time>
      </trkpt>
      <trkpt lat="44.35049" lon="1.20374">
        <ele>211.689335</ele>
        <time>2022-05-12T11:34:59.069Z</time>
      </trkpt>
      <trkpt lat="44.35057" lon="1.20362">
        <ele>212.380174</ele>
        <time>2022-05-12T11:35:02.073Z</time>
      </trkpt>
      <trkpt lat="44.35065" lon="1.2035">
        <ele>213.05856</ele>
        <time>2022-05-12T11:35:05.071Z</time>
      </trkpt>
      <trkpt lat="44.35071" lon="1.20336">
        <ele>213.725284</ele>
        <time>2022-05-12T11:35:08.056Z</time>
      </trkpt>
      <trkpt lat="44.35077" lon="1.20322">
        <ele>214.424667</ele>
        <time>2022-05-12T11:35:11.063Z</time>
      </trkpt>
      <trkpt lat="44.35082" lon="1.20309">
        <ele>215.062187</ele>
        <time>2022-05-12T11:35:14.057Z</time>
      </trkpt>
      <trkpt lat="44.3509" lon="1.20295">
        <ele>215.770992</ele>
        <time>2022-05-12T11:35:17.054Z</time>
      </trkpt>
      <trkpt lat="44.35097" lon="1.2028">
        <ele>216.537786</ele>
        <time>2022-05-12T11:35:20.056Z</time>
      </trkpt>
      <trkpt lat="44.35103" lon="1.20265">
        <ele>217.242257</ele>
        <time>2022-05-12T11:35:23.079Z</time>
      </trkpt>
      <trkpt lat="44.3511" lon="1.20252">
        <ele>217.911034</ele>
        <time>2022-05-12T11:35:26.082Z</time>
      </trkpt>
      <trkpt lat="44.35118" lon="1.20239">
        <ele>218.628635</ele>
        <time>2022-05-12T11:35:29.113Z</time>
      </trkpt>
      <trkpt lat="44.35125" lon="1.20226">
        <ele>219.30469</ele>
        <time>2022-05-12T11:35:32.076Z</time>
      </trkpt>
      <trkpt lat="44.35133" lon="1.20214">
        <ele>219.997848</ele>
        <time>2022-05-12T11:35:35.098Z</time>
      </trkpt>
      <trkpt lat="44.35141" lon="1.20201">
        <ele>220.71668</ele>
        <time>2022-05-12T11:35:38.053Z</time>
      </trkpt>
      <trkpt lat="44.35147" lon="1.20189">
        <ele>220.881933</ele>
        <time>2022-05-12T11:35:41.099Z</time>
      </trkpt>
      <trkpt lat="44.35155" lon="1.20177">
        <ele>221.004606</ele>
        <time>2022-05-12T11:35:44.049Z</time>
      </trkpt>
      <trkpt lat="44.35163" lon="1.20165">
        <ele>221.129403</ele>
        <time>2022-05-12T11:35:47.106Z</time>
      </trkpt>
      <trkpt lat="44.35171" lon="1.20152">
        <ele>221.259641</ele>
        <time>2022-05-12T11:35:50.032Z</time>
      </trkpt>
      <trkpt lat="44.35178" lon="1.20139">
        <ele>221.384704</ele>
        <time>2022-05-12T11:35:53.102Z</time>
      </trkpt>
      <trkpt lat="44.35186" lon="1.20127">
        <ele>221.510653</ele>
        <time>2022-05-12T11:35:56.070Z</time>
      </trkpt>
      <trkpt lat="44.35194" lon="1.20115">
        <ele>221.637556</ele>
        <time>2022-05-12T11:35:59.099Z</time>
      </trkpt>
      <trkpt lat="44.35202" lon="1.20103">
        <ele>221.757097</ele>
        <time>2022-05-12T11:36:02.075Z</time>
      </trkpt>
      <trkpt lat="44.3521" lon="1.20092">
        <ele>221.878933</ele>
        <time>2022-05-12T11:36:05.111Z</time>
      </trkpt>
      <trkpt lat="44.35217" lon="1.20081">
        <ele>221.99607</ele>
        <time>2022-05-12T11:36:08.081Z</time>
      </trkpt>
      <trkpt lat="44.35224" lon="1.2007">
        <ele>222.106377</ele>
        <time>2022-05-12T11:36:11.092Z</time>
      </trkpt>
      <trkpt lat="44.35231" lon="1.20058">
        <ele>222.221667</ele>
        <time>2022-05-12T11:36:14.047Z</time>
      </trkpt>
      <trkpt lat="44.35237" lon="1.20045">
        <ele>222.340321</ele>
        <time>2022-05-12T11:36:17.096Z</time>
      </trkpt>
      <trkpt lat="44.35243" lon="1.20032">
        <ele>222.459896</ele>
        <time>2022-05-12T11:36:20.073Z</time>
      </trkpt>
      <trkpt lat="44.35248" lon="1.20017">
        <ele>222.585894</ele>
        <time>2022-05-12T11:36:23.106Z</time>
      </trkpt>
      <trkpt lat="44.35251" lon="1.20001">
        <ele>222.733757</ele>
        <time>2022-05-12T11:36:26.062Z</time>
      </trkpt>
      <trkpt lat="44.35253" lon="1.19986">
        <ele>223.119626</ele>
        <time>2022-05-12T11:36:29.097Z</time>
      </trkpt>
      <trkpt lat="44.35253" lon="1.1997">
        <ele>223.504277</ele>
        <time>2022-05-12T11:36:32.072Z</time>
      </trkpt>
      <trkpt lat="44.35252" lon="1.19955">
        <ele>223.887441</ele>
        <time>2022-05-12T11:36:35.092Z</time>
      </trkpt>
      <trkpt lat="44.3525" lon="1.1994">
        <ele>224.275139</ele>
        <time>2022-05-12T11:36:38.046Z</time>
      </trkpt>
      <trkpt lat="44.35249" lon="1.19924">
        <ele>224.665893</ele>
        <time>2022-05-12T11:36:41.091Z</time>
      </trkpt>
      <trkpt lat="44.35251" lon="1.19909">
        <ele>225.046304</ele>
        <time>2022-05-12T11:36:44.043Z</time>
      </trkpt>
      <trkpt lat="44.35256" lon="1.19895">
        <ele>225.414977</ele>
        <time>2022-05-12T11:36:47.090Z</time>
      </trkpt>
      <trkpt lat="44.35261" lon="1.19882">
        <ele>225.787754</ele>
        <time>2022-05-12T11:36:50.062Z</time>
      </trkpt>
      <trkpt lat="44.35265" lon="1.19869">
        <ele>226.130477</ele>
        <time>2022-05-12T11:36:53.101Z</time>
      </trkpt>
      <trkpt lat="44.35271" lon="1.19858">
        <ele>226.465543</ele>
        <time>2022-05-12T11:36:56.060Z</time>
      </trkpt>
      <trkpt lat="44.35277" lon="1.19847">
        <ele>226.809451</ele>
        <time>2022-05-12T11:36:59.096Z</time>
      </trkpt>
      <trkpt lat="44.35284" lon="1.19837">
        <ele>227.173473</ele>
        <time>2022-05-12T11:37:02.065Z</time>
      </trkpt>
      <trkpt lat="44.35293" lon="1.19827">
        <ele>227.549051</ele>
        <time>2022-05-12T11:37:05.103Z</time>
      </trkpt>
      <trkpt lat="44.353" lon="1.19817">
        <ele>227.90555</ele>
        <time>2022-05-12T11:37:08.065Z</time>
      </trkpt>
      <trkpt lat="44.35308" lon="1.19807">
        <ele>228.273211</ele>
        <time>2022-05-12T11:37:11.104Z</time>
      </trkpt>
      <trkpt lat="44.35317" lon="1.19798">
        <ele>228.661843</ele>
        <time>2022-05-12T11:37:14.036Z</time>
      </trkpt>
      <trkpt lat="44.35327" lon="1.1979">
        <ele>228.950372</ele>
        <time>2022-05-12T11:37:17.036Z</time>
      </trkpt>
      <trkpt lat="44.35337" lon="1.19782">
        <ele>229.075627</ele>
        <time>2022-05-12T11:37:20.066Z</time>
      </trkpt>
      <trkpt lat="44.35346" lon="1.19775">
        <ele>229.1982</ele>
        <time>2022-05-12T11:37:23.054Z</time>
      </trkpt>
      <trkpt lat="44.35356" lon="1.19767">
        <ele>229.3241</ele>
        <time>2022-05-12T11:37:26.071Z</time>
      </trkpt>
      <trkpt lat="44.35367" lon="1.19759">
        <ele>229.459363</ele>
        <time>2022-05-12T11:37:29.075Z</time>
      </trkpt>
      <trkpt lat="44.35376" lon="1.1975">
        <ele>229.586781</ele>
        <time>2022-05-12T11:37:32.074Z</time>
      </trkpt>
      <trkpt lat="44.35386" lon="1.19741">
        <ele>229.711517</ele>
        <time>2022-05-12T11:37:35.055Z</time>
      </trkpt>
      <trkpt lat="44.35395" lon="1.19737">
        <ele>229.826307</ele>
        <time>2022-05-12T11:37:38.061Z</time>
      </trkpt>
      <trkpt lat="44.35406" lon="1.19732">
        <ele>229.953166</ele>
        <time>2022-05-12T11:37:41.065Z</time>
      </trkpt>
      <trkpt lat="44.35417" lon="1.1973">
        <ele>230.077089</ele>
        <time>2022-05-12T11:37:44.047Z</time>
      </trkpt>
      <trkpt lat="44.35428" lon="1.19728">
        <ele>230.196073</ele>
        <time>2022-05-12T11:37:47.078Z</time>
      </trkpt>
      <trkpt lat="44.35438" lon="1.19727">
        <ele>230.315207</ele>
        <time>2022-05-12T11:37:50.042Z</time>
      </trkpt>
      <trkpt lat="44.35449" lon="1.19725">
        <ele>230.43768</ele>
        <time>2022-05-12T11:37:53.072Z</time>
      </trkpt>
      <trkpt lat="44.3546" lon="1.19722">
        <ele>230.559286</ele>
        <time>2022-05-12T11:37:56.064Z</time>
      </trkpt>
      <trkpt lat="44.35469" lon="1.19714">
        <ele>230.678633</ele>
        <time>2022-05-12T11:37:59.053Z</time>
      </trkpt>
      <trkpt lat="44.35477" lon="1.19702">
        <ele>230.810576</ele>
        <time>2022-05-12T11:38:02.060Z</time>
      </trkpt>
      <trkpt lat="44.35484" lon="1.19689">
        <ele>230.940166</ele>
        <time>2022-05-12T11:38:05.062Z</time>
      </trkpt>
      <trkpt lat="44.3549" lon="1.19676">
        <ele>231.065516</ele>
        <time>2022-05-12T11:38:08.056Z</time>
      </trkpt>
      <trkpt lat="44.35495" lon="1.19662">
        <ele>231.20096</ele>
        <time>2022-05-12T11:38:11.077Z</time>
      </trkpt>
      <trkpt lat="44.355" lon="1.19648">
        <ele>231.334273</ele>
        <time>2022-05-12T11:38:14.053Z</time>
      </trkpt>
      <trkpt lat="44.35505" lon="1.19635">
        <ele>231.457974</ele>
        <time>2022-05-12T11:38:17.065Z</time>
      </trkpt>
      <trkpt lat="44.35509" lon="1.19622">
        <ele>231.5827</ele>
        <time>2022-05-12T11:38:20.065Z</time>
      </trkpt>
      <trkpt lat="44.35514" lon="1.19608">
        <ele>231.706947</ele>
        <time>2022-05-12T11:38:23.064Z</time>
      </trkpt>
      <trkpt lat="44.35518" lon="1.19595">
        <ele>231.831195</ele>
        <time>2022-05-12T11:38:26.071Z</time>
      </trkpt>
      <trkpt lat="44.35523" lon="1.19581">
        <ele>231.957196</ele>
        <time>2022-05-12T11:38:29.056Z</time>
      </trkpt>
      <trkpt lat="44.35527" lon="1.19568">
        <ele>232.075406</ele>
        <time>2022-05-12T11:38:32.050Z</time>
      </trkpt>
      <trkpt lat="44.35531" lon="1.19554">
        <ele>232.203684</ele>
        <time>2022-05-12T11:38:35.072Z</time>
      </trkpt>
      <trkpt lat="44.35537" lon="1.19541">
        <ele>232.333732</ele>
        <time>2022-05-12T11:38:38.102Z</time>
      </trkpt>
      <trkpt lat="44.35543" lon="1.19528">
        <ele>232.464353</ele>
        <time>2022-05-12T11:38:41.056Z</time>
      </trkpt>
      <trkpt lat="44.3555" lon="1.19515">
        <ele>232.59979</ele>
        <time>2022-05-12T11:38:44.089Z</time>
      </trkpt>
      <trkpt lat="44.35556" lon="1.19502">
        <ele>232.731127</ele>
        <time>2022-05-12T11:38:47.059Z</time>
      </trkpt>
      <trkpt lat="44.35563" lon="1.19491">
        <ele>232.851098</ele>
        <time>2022-05-12T11:38:50.077Z</time>
      </trkpt>
      <trkpt lat="44.3557" lon="1.19481">
        <ele>232.969352</ele>
        <time>2022-05-12T11:38:53.071Z</time>
      </trkpt>
      <trkpt lat="44.35576" lon="1.19469">
        <ele>233.430388</ele>
        <time>2022-05-12T11:38:56.096Z</time>
      </trkpt>
      <trkpt lat="44.35584" lon="1.1946">
        <ele>234.083946</ele>
        <time>2022-05-12T11:38:59.060Z</time>
      </trkpt>
      <trkpt lat="44.35592" lon="1.19448">
        <ele>234.874214</ele>
        <time>2022-05-12T11:39:02.089Z</time>
      </trkpt>
      <trkpt lat="44.356" lon="1.19437">
        <ele>235.592771</ele>
        <time>2022-05-12T11:39:05.053Z</time>
      </trkpt>
      <trkpt lat="44.35606" lon="1.19427">
        <ele>236.240382</ele>
        <time>2022-05-12T11:39:08.108Z</time>
      </trkpt>
      <trkpt lat="44.35613" lon="1.19415">
        <ele>236.925378</ele>
        <time>2022-05-12T11:39:11.081Z</time>
      </trkpt>
      <trkpt lat="44.3562" lon="1.19404">
        <ele>237.655576</ele>
        <time>2022-05-12T11:39:14.066Z</time>
      </trkpt>
      <trkpt lat="44.35628" lon="1.19392">
        <ele>238.398143</ele>
        <time>2022-05-12T11:39:17.065Z</time>
      </trkpt>
      <trkpt lat="44.35636" lon="1.19382">
        <ele>239.140065</ele>
        <time>2022-05-12T11:39:20.064Z</time>
      </trkpt>
      <trkpt lat="44.35645" lon="1.19372">
        <ele>239.893644</ele>
        <time>2022-05-12T11:39:23.072Z</time>
      </trkpt>
      <trkpt lat="44.35653" lon="1.19363">
        <ele>240.578783</ele>
        <time>2022-05-12T11:39:26.058Z</time>
      </trkpt>
      <trkpt lat="44.35659" lon="1.19353">
        <ele>241.211367</ele>
        <time>2022-05-12T11:39:29.071Z</time>
      </trkpt>
      <trkpt lat="44.35665" lon="1.19341">
        <ele>241.894821</ele>
        <time>2022-05-12T11:39:32.074Z</time>
      </trkpt>
      <trkpt lat="44.3567" lon="1.19327">
        <ele>242.606403</ele>
        <time>2022-05-12T11:39:35.058Z</time>
      </trkpt>
      <trkpt lat="44.35676" lon="1.19313">
        <ele>243.371773</ele>
        <time>2022-05-12T11:39:38.061Z</time>
      </trkpt>
      <trkpt lat="44.35681" lon="1.193">
        <ele>244.094974</ele>
        <time>2022-05-12T11:39:41.049Z</time>
      </trkpt>
      <trkpt lat="44.35687" lon="1.19288">
        <ele>244.797721</ele>
        <time>2022-05-12T11:39:44.031Z</time>
      </trkpt>
      <trkpt lat="44.35695" lon="1.19277">
        <ele>245.235397</ele>
        <time>2022-05-12T11:39:47.066Z</time>
      </trkpt>
      <trkpt lat="44.35703" lon="1.19267">
        <ele>245.633026</ele>
        <time>2022-05-12T11:39:50.047Z</time>
      </trkpt>
      <trkpt lat="44.35712" lon="1.1926">
        <ele>246.032204</ele>
        <time>2022-05-12T11:39:53.039Z</time>
      </trkpt>
      <trkpt lat="44.35722" lon="1.19255">
        <ele>246.421346</ele>
        <time>2022-05-12T11:39:56.054Z</time>
      </trkpt>
      <trkpt lat="44.35733" lon="1.19249">
        <ele>246.857793</ele>
        <time>2022-05-12T11:40:00.072Z</time>
      </trkpt>
      <trkpt lat="44.35743" lon="1.19243">
        <ele>247.254267</ele>
        <time>2022-05-12T11:40:04.045Z</time>
      </trkpt>
      <trkpt lat="44.35753" lon="1.19239">
        <ele>247.645466</ele>
        <time>2022-05-12T11:40:07.092Z</time>
      </trkpt>
      <trkpt lat="44.35764" lon="1.19234">
        <ele>248.095839</ele>
        <time>2022-05-12T11:40:10.068Z</time>
      </trkpt>
      <trkpt lat="44.35775" lon="1.19227">
        <ele>248.544513</ele>
        <time>2022-05-12T11:40:13.104Z</time>
      </trkpt>
      <trkpt lat="44.35783" lon="1.19217">
        <ele>248.902052</ele>
        <time>2022-05-12T11:40:16.064Z</time>
      </trkpt>
      <trkpt lat="44.35788" lon="1.19204">
        <ele>249.317531</ele>
        <time>2022-05-12T11:40:19.102Z</time>
      </trkpt>
      <trkpt lat="44.35794" lon="1.19189">
        <ele>249.756916</ele>
        <time>2022-05-12T11:40:22.058Z</time>
      </trkpt>
      <trkpt lat="44.35797" lon="1.19174">
        <ele>250.189827</ele>
        <time>2022-05-12T11:40:25.104Z</time>
      </trkpt>
      <trkpt lat="44.35801" lon="1.19159">
        <ele>250.611028</ele>
        <time>2022-05-12T11:40:28.064Z</time>
      </trkpt>
      <trkpt lat="44.35804" lon="1.19144">
        <ele>251.015966</ele>
        <time>2022-05-12T11:40:31.102Z</time>
      </trkpt>
      <trkpt lat="44.35809" lon="1.1913">
        <ele>251.419482</ele>
        <time>2022-05-12T11:40:34.045Z</time>
      </trkpt>
      <trkpt lat="44.35815" lon="1.19117">
        <ele>250.839283</ele>
        <time>2022-05-12T11:40:37.102Z</time>
      </trkpt>
      <trkpt lat="44.35823" lon="1.19107">
        <ele>249.76965</ele>
        <time>2022-05-12T11:40:40.057Z</time>
      </trkpt>
      <trkpt lat="44.35831" lon="1.19098">
        <ele>248.716433</ele>
        <time>2022-05-12T11:40:43.104Z</time>
      </trkpt>
      <trkpt lat="44.35839" lon="1.1909">
        <ele>247.664597</ele>
        <time>2022-05-12T11:40:46.066Z</time>
      </trkpt>
      <trkpt lat="44.35848" lon="1.19081">
        <ele>246.617064</ele>
        <time>2022-05-12T11:40:49.107Z</time>
      </trkpt>
      <trkpt lat="44.35856" lon="1.19075">
        <ele>245.621007</ele>
        <time>2022-05-12T11:40:52.071Z</time>
      </trkpt>
      <trkpt lat="44.35866" lon="1.1907">
        <ele>244.59067</ele>
        <time>2022-05-12T11:40:55.098Z</time>
      </trkpt>
      <trkpt lat="44.35877" lon="1.19068">
        <ele>243.450429</ele>
        <time>2022-05-12T11:40:58.069Z</time>
      </trkpt>
      <trkpt lat="44.35887" lon="1.19071">
        <ele>242.325982</ele>
        <time>2022-05-12T11:41:01.075Z</time>
      </trkpt>
      <trkpt lat="44.35897" lon="1.1908">
        <ele>241.157076</ele>
        <time>2022-05-12T11:41:04.062Z</time>
      </trkpt>
      <trkpt lat="44.35904" lon="1.19093">
        <ele>239.974152</ele>
        <time>2022-05-12T11:41:07.063Z</time>
      </trkpt>
      <trkpt lat="44.35911" lon="1.19104">
        <ele>238.879384</ele>
        <time>2022-05-12T11:41:10.065Z</time>
      </trkpt>
      <trkpt lat="44.35917" lon="1.19117">
        <ele>237.76986</ele>
        <time>2022-05-12T11:41:13.061Z</time>
      </trkpt>
      <trkpt lat="44.35923" lon="1.1913">
        <ele>236.669684</ele>
        <time>2022-05-12T11:41:16.070Z</time>
      </trkpt>
      <trkpt lat="44.35929" lon="1.19142">
        <ele>235.586434</ele>
        <time>2022-05-12T11:41:19.048Z</time>
      </trkpt>
      <trkpt lat="44.35936" lon="1.19155">
        <ele>234.375717</ele>
        <time>2022-05-12T11:41:23.060Z</time>
      </trkpt>
      <trkpt lat="44.35943" lon="1.19166">
        <ele>233.280073</ele>
        <time>2022-05-12T11:41:26.061Z</time>
      </trkpt>
      <trkpt lat="44.35951" lon="1.19174">
        <ele>233.376893</ele>
        <time>2022-05-12T11:41:29.078Z</time>
      </trkpt>
      <trkpt lat="44.35959" lon="1.19182">
        <ele>233.595175</ele>
        <time>2022-05-12T11:41:32.050Z</time>
      </trkpt>
      <trkpt lat="44.35967" lon="1.19191">
        <ele>233.838868</ele>
        <time>2022-05-12T11:41:35.061Z</time>
      </trkpt>
      <trkpt lat="44.35974" lon="1.19204">
        <ele>234.105044</ele>
        <time>2022-05-12T11:41:38.064Z</time>
      </trkpt>
      <trkpt lat="44.35977" lon="1.19219">
        <ele>234.350303</ele>
        <time>2022-05-12T11:41:41.065Z</time>
      </trkpt>
      <trkpt lat="44.35975" lon="1.19236">
        <ele>234.621901</ele>
        <time>2022-05-12T11:41:44.068Z</time>
      </trkpt>
      <trkpt lat="44.35972" lon="1.19249">
        <ele>234.850714</ele>
        <time>2022-05-12T11:41:47.107Z</time>
      </trkpt>
      <trkpt lat="44.35967" lon="1.19261">
        <ele>235.080539</ele>
        <time>2022-05-12T11:41:50.042Z</time>
      </trkpt>
      <trkpt lat="44.3596" lon="1.19273">
        <ele>235.320358</ele>
        <time>2022-05-12T11:41:53.101Z</time>
      </trkpt>
      <trkpt lat="44.35954" lon="1.19286">
        <ele>235.576059</ele>
        <time>2022-05-12T11:41:56.072Z</time>
      </trkpt>
      <trkpt lat="44.3595" lon="1.19299">
        <ele>235.801218</ele>
        <time>2022-05-12T11:41:59.104Z</time>
      </trkpt>
      <trkpt lat="44.35948" lon="1.19313">
        <ele>236.036385</ele>
        <time>2022-05-12T11:42:02.058Z</time>
      </trkpt>
      <trkpt lat="44.35948" lon="1.19329">
        <ele>236.290825</ele>
        <time>2022-05-12T11:42:05.110Z</time>
      </trkpt>
      <trkpt lat="44.35948" lon="1.19344">
        <ele>236.535481</ele>
        <time>2022-05-12T11:42:08.061Z</time>
      </trkpt>
      <trkpt lat="44.35948" lon="1.19359">
        <ele>236.778802</ele>
        <time>2022-05-12T11:42:11.098Z</time>
      </trkpt>
      <trkpt lat="44.35949" lon="1.19374">
        <ele>237.02022</ele>
        <time>2022-05-12T11:42:14.042Z</time>
      </trkpt>
      <trkpt lat="44.35949" lon="1.19389">
        <ele>237.328239</ele>
        <time>2022-05-12T11:42:17.088Z</time>
      </trkpt>
      <trkpt lat="44.3595" lon="1.19403">
        <ele>238.480903</ele>
        <time>2022-05-12T11:42:20.067Z</time>
      </trkpt>
      <trkpt lat="44.35955" lon="1.19417">
        <ele>239.693648</ele>
        <time>2022-05-12T11:42:23.077Z</time>
      </trkpt>
      <trkpt lat="44.35962" lon="1.19428">
        <ele>240.884382</ele>
        <time>2022-05-12T11:42:26.070Z</time>
      </trkpt>
      <trkpt lat="44.35973" lon="1.19435">
        <ele>242.271582</ele>
        <time>2022-05-12T11:42:29.062Z</time>
      </trkpt>
      <trkpt lat="44.35983" lon="1.19438">
        <ele>243.495903</ele>
        <time>2022-05-12T11:42:32.081Z</time>
      </trkpt>
      <trkpt lat="44.35993" lon="1.19439">
        <ele>244.564177</ele>
        <time>2022-05-12T11:42:35.064Z</time>
      </trkpt>
      <trkpt lat="44.36002" lon="1.1944">
        <ele>245.609945</ele>
        <time>2022-05-12T11:42:38.065Z</time>
      </trkpt>
      <trkpt lat="44.36012" lon="1.19442">
        <ele>246.745046</ele>
        <time>2022-05-12T11:42:41.056Z</time>
      </trkpt>
      <trkpt lat="44.36022" lon="1.19442">
        <ele>247.888333</ele>
        <time>2022-05-12T11:42:44.042Z</time>
      </trkpt>
      <trkpt lat="44.36033" lon="1.19443">
        <ele>249.077175</ele>
        <time>2022-05-12T11:42:47.057Z</time>
      </trkpt>
      <trkpt lat="44.36043" lon="1.19442">
        <ele>250.287964</ele>
        <time>2022-05-12T11:42:50.053Z</time>
      </trkpt>
      <trkpt lat="44.36053" lon="1.19442">
        <ele>251.330444</ele>
        <time>2022-05-12T11:42:53.072Z</time>
      </trkpt>
      <trkpt lat="44.36062" lon="1.1944">
        <ele>252.401377</ele>
        <time>2022-05-12T11:42:56.058Z</time>
      </trkpt>
      <trkpt lat="44.36071" lon="1.19438">
        <ele>253.451978</ele>
        <time>2022-05-12T11:42:59.071Z</time>
      </trkpt>
      <trkpt lat="44.36081" lon="1.19436">
        <ele>254.614689</ele>
        <time>2022-05-12T11:43:02.052Z</time>
      </trkpt>
      <trkpt lat="44.36093" lon="1.19434">
        <ele>255.981427</ele>
        <time>2022-05-12T11:43:06.072Z</time>
      </trkpt>
      <trkpt lat="44.36104" lon="1.19433">
        <ele>257.218632</ele>
        <time>2022-05-12T11:43:09.095Z</time>
      </trkpt>
      <trkpt lat="44.36114" lon="1.19434">
        <ele>258.108683</ele>
        <time>2022-05-12T11:43:12.065Z</time>
      </trkpt>
      <trkpt lat="44.36125" lon="1.19436">
        <ele>258.953158</ele>
        <time>2022-05-12T11:43:15.095Z</time>
      </trkpt>
      <trkpt lat="44.36136" lon="1.19437">
        <ele>259.821009</ele>
        <time>2022-05-12T11:43:18.071Z</time>
      </trkpt>
      <trkpt lat="44.36147" lon="1.19434">
        <ele>260.701209</ele>
        <time>2022-05-12T11:43:21.082Z</time>
      </trkpt>
      <trkpt lat="44.36158" lon="1.19427">
        <ele>261.613726</ele>
        <time>2022-05-12T11:43:24.062Z</time>
      </trkpt>
      <trkpt lat="44.36167" lon="1.19418">
        <ele>262.471949</ele>
        <time>2022-05-12T11:43:27.106Z</time>
      </trkpt>
      <trkpt lat="44.36175" lon="1.19406">
        <ele>263.36303</ele>
        <time>2022-05-12T11:43:30.070Z</time>
      </trkpt>
      <trkpt lat="44.36182" lon="1.19394">
        <ele>264.244692</ele>
        <time>2022-05-12T11:43:33.112Z</time>
      </trkpt>
      <trkpt lat="44.36189" lon="1.19382">
        <ele>265.115717</ele>
        <time>2022-05-12T11:43:36.052Z</time>
      </trkpt>
      <trkpt lat="44.36197" lon="1.1937">
        <ele>265.970718</ele>
        <time>2022-05-12T11:43:39.093Z</time>
      </trkpt>
      <trkpt lat="44.36204" lon="1.1936">
        <ele>266.770951</ele>
        <time>2022-05-12T11:43:42.074Z</time>
      </trkpt>
      <trkpt lat="44.36211" lon="1.19349">
        <ele>267.574015</ele>
        <time>2022-05-12T11:43:45.086Z</time>
      </trkpt>
      <trkpt lat="44.36218" lon="1.1934">
        <ele>268.361376</ele>
        <time>2022-05-12T11:43:48.073Z</time>
      </trkpt>
      <trkpt lat="44.36227" lon="1.19331">
        <ele>269.161068</ele>
        <time>2022-05-12T11:43:51.110Z</time>
      </trkpt>
      <trkpt lat="44.36236" lon="1.19325">
        <ele>269.950669</ele>
        <time>2022-05-12T11:43:54.036Z</time>
      </trkpt>
      <trkpt lat="44.36245" lon="1.19319">
        <ele>270.732213</ele>
        <time>2022-05-12T11:43:57.094Z</time>
      </trkpt>
      <trkpt lat="44.36254" lon="1.19312">
        <ele>271.519227</ele>
        <time>2022-05-12T11:44:00.074Z</time>
      </trkpt>
      <trkpt lat="44.36263" lon="1.19304">
        <ele>270.957394</ele>
        <time>2022-05-12T11:44:03.097Z</time>
      </trkpt>
      <trkpt lat="44.36271" lon="1.19295">
        <ele>270.344955</ele>
        <time>2022-05-12T11:44:06.074Z</time>
      </trkpt>
      <trkpt lat="44.36279" lon="1.19285">
        <ele>269.735614</ele>
        <time>2022-05-12T11:44:09.109Z</time>
      </trkpt>
      <trkpt lat="44.36287" lon="1.19275">
        <ele>269.124707</ele>
        <time>2022-05-12T11:44:12.065Z</time>
      </trkpt>
      <trkpt lat="44.36296" lon="1.19265">
        <ele>268.469966</ele>
        <time>2022-05-12T11:44:15.106Z</time>
      </trkpt>
      <trkpt lat="44.36305" lon="1.19256">
        <ele>267.873524</ele>
        <time>2022-05-12T11:44:18.071Z</time>
      </trkpt>
      <trkpt lat="44.36313" lon="1.19247">
        <ele>267.244672</ele>
        <time>2022-05-12T11:44:21.120Z</time>
      </trkpt>
      <trkpt lat="44.36321" lon="1.19238">
        <ele>266.659941</ele>
        <time>2022-05-12T11:44:24.057Z</time>
      </trkpt>
      <trkpt lat="44.36328" lon="1.19228">
        <ele>266.103476</ele>
        <time>2022-05-12T11:44:27.106Z</time>
      </trkpt>
      <trkpt lat="44.36332" lon="1.19216">
        <ele>265.570774</ele>
        <time>2022-05-12T11:44:30.059Z</time>
      </trkpt>
      <trkpt lat="44.36334" lon="1.19202">
        <ele>264.97564</ele>
        <time>2022-05-12T11:44:33.096Z</time>
      </trkpt>
      <trkpt lat="44.36335" lon="1.19188">
        <ele>264.404906</ele>
        <time>2022-05-12T11:44:36.055Z</time>
      </trkpt>
      <trkpt lat="44.36338" lon="1.19173">
        <ele>263.807177</ele>
        <time>2022-05-12T11:44:39.103Z</time>
      </trkpt>
      <trkpt lat="44.36341" lon="1.19158">
        <ele>263.153173</ele>
        <time>2022-05-12T11:44:42.072Z</time>
      </trkpt>
      <trkpt lat="44.36347" lon="1.19143">
        <ele>262.466089</ele>
        <time>2022-05-12T11:44:45.104Z</time>
      </trkpt>
      <trkpt lat="44.36355" lon="1.19131">
        <ele>261.80227</ele>
        <time>2022-05-12T11:44:48.048Z</time>
      </trkpt>
      <trkpt lat="44.36363" lon="1.19119">
        <ele>261.632371</ele>
        <time>2022-05-12T11:44:51.087Z</time>
      </trkpt>
      <trkpt lat="44.36371" lon="1.19106">
        <ele>262.663903</ele>
        <time>2022-05-12T11:44:54.035Z</time>
      </trkpt>
      <trkpt lat="44.36377" lon="1.19094">
        <ele>263.597569</ele>
        <time>2022-05-12T11:44:57.100Z</time>
      </trkpt>
      <trkpt lat="44.36384" lon="1.19082">
        <ele>264.570357</ele>
        <time>2022-05-12T11:45:00.058Z</time>
      </trkpt>
      <trkpt lat="44.36392" lon="1.1907">
        <ele>265.539489</ele>
        <time>2022-05-12T11:45:03.092Z</time>
      </trkpt>
      <trkpt lat="44.36399" lon="1.19059">
        <ele>266.487005</ele>
        <time>2022-05-12T11:45:06.045Z</time>
      </trkpt>
      <trkpt lat="44.36407" lon="1.19048">
        <ele>267.433256</ele>
        <time>2022-05-12T11:45:09.097Z</time>
      </trkpt>
      <trkpt lat="44.36414" lon="1.19037">
        <ele>268.357272</ele>
        <time>2022-05-12T11:45:12.058Z</time>
      </trkpt>
      <trkpt lat="44.36421" lon="1.19027">
        <ele>269.232961</ele>
        <time>2022-05-12T11:45:15.103Z</time>
      </trkpt>
      <trkpt lat="44.36428" lon="1.19016">
        <ele>270.116151</ele>
        <time>2022-05-12T11:45:18.072Z</time>
      </trkpt>
      <trkpt lat="44.36435" lon="1.19006">
        <ele>270.985928</ele>
        <time>2022-05-12T11:45:21.093Z</time>
      </trkpt>
      <trkpt lat="44.36441" lon="1.18995">
        <ele>271.880878</ele>
        <time>2022-05-12T11:45:24.040Z</time>
      </trkpt>
      <trkpt lat="44.36448" lon="1.18984">
        <ele>272.776545</ele>
        <time>2022-05-12T11:45:27.093Z</time>
      </trkpt>
      <trkpt lat="44.36456" lon="1.18973">
        <ele>273.746557</ele>
        <time>2022-05-12T11:45:30.053Z</time>
      </trkpt>
      <trkpt lat="44.36464" lon="1.18962">
        <ele>274.692803</ele>
        <time>2022-05-12T11:45:33.082Z</time>
      </trkpt>
      <trkpt lat="44.36473" lon="1.18951">
        <ele>275.724414</ele>
        <time>2022-05-12T11:45:36.064Z</time>
      </trkpt>
      <trkpt lat="44.36483" lon="1.18941">
        <ele>276.809125</ele>
        <time>2022-05-12T11:45:39.099Z</time>
      </trkpt>
      <trkpt lat="44.36491" lon="1.18936">
        <ele>278.127842</ele>
        <time>2022-05-12T11:45:41.066Z</time>
      </trkpt>
      <trkpt lat="44.36502" lon="1.1893">
        <ele>279.798646</ele>
        <time>2022-05-12T11:45:43.074Z</time>
      </trkpt>
      <trkpt lat="44.36514" lon="1.18924">
        <ele>281.75103</ele>
        <time>2022-05-12T11:45:46.055Z</time>
      </trkpt>
      <trkpt lat="44.36524" lon="1.1892">
        <ele>283.278764</ele>
        <time>2022-05-12T11:45:48.071Z</time>
      </trkpt>
      <trkpt lat="44.36536" lon="1.18915">
        <ele>285.090251</ele>
        <time>2022-05-12T11:45:50.041Z</time>
      </trkpt>
      <trkpt lat="44.36548" lon="1.18911">
        <ele>286.899977</ele>
        <time>2022-05-12T11:45:52.064Z</time>
      </trkpt>
      <trkpt lat="44.3656" lon="1.18905">
        <ele>288.86275</ele>
        <time>2022-05-12T11:45:54.051Z</time>
      </trkpt>
      <trkpt lat="44.3657" lon="1.18899">
        <ele>290.564965</ele>
        <time>2022-05-12T11:45:56.071Z</time>
      </trkpt>
      <trkpt lat="44.36583" lon="1.18893">
        <ele>292.543449</ele>
        <time>2022-05-12T11:45:58.068Z</time>
      </trkpt>
      <trkpt lat="44.36596" lon="1.18888">
        <ele>294.495617</ele>
        <time>2022-05-12T11:46:00.059Z</time>
      </trkpt>
      <trkpt lat="44.36608" lon="1.18883">
        <ele>296.384615</ele>
        <time>2022-05-12T11:46:02.070Z</time>
      </trkpt>
      <trkpt lat="44.36621" lon="1.18878">
        <ele>298.345747</ele>
        <time>2022-05-12T11:46:04.031Z</time>
      </trkpt>
      <trkpt lat="44.36632" lon="1.18873">
        <ele>300.167983</ele>
        <time>2022-05-12T11:46:06.076Z</time>
      </trkpt>
      <trkpt lat="44.36644" lon="1.18867">
        <ele>302.02944</ele>
        <time>2022-05-12T11:46:08.047Z</time>
      </trkpt>
      <trkpt lat="44.36655" lon="1.18862">
        <ele>303.739573</ele>
        <time>2022-05-12T11:46:10.055Z</time>
      </trkpt>
      <trkpt lat="44.36666" lon="1.18857">
        <ele>304.076621</ele>
        <time>2022-05-12T11:46:12.058Z</time>
      </trkpt>
      <trkpt lat="44.36676" lon="1.18853">
        <ele>304.378307</ele>
        <time>2022-05-12T11:46:14.057Z</time>
      </trkpt>
      <trkpt lat="44.36687" lon="1.18847">
        <ele>304.703814</ele>
        <time>2022-05-12T11:46:16.058Z</time>
      </trkpt>
      <trkpt lat="44.36697" lon="1.18843">
        <ele>305.016094</ele>
        <time>2022-05-12T11:46:18.062Z</time>
      </trkpt>
      <trkpt lat="44.36707" lon="1.1884">
        <ele>305.300731</ele>
        <time>2022-05-12T11:46:20.049Z</time>
      </trkpt>
      <trkpt lat="44.36719" lon="1.18837">
        <ele>305.64721</ele>
        <time>2022-05-12T11:46:22.044Z</time>
      </trkpt>
      <trkpt lat="44.36731" lon="1.18837">
        <ele>306.015904</ele>
        <time>2022-05-12T11:46:24.054Z</time>
      </trkpt>
      <trkpt lat="44.36744" lon="1.18837">
        <ele>306.376193</ele>
        <time>2022-05-12T11:46:26.061Z</time>
      </trkpt>
      <trkpt lat="44.36757" lon="1.18839">
        <ele>306.749465</ele>
        <time>2022-05-12T11:46:28.060Z</time>
      </trkpt>
      <trkpt lat="44.36771" lon="1.18842">
        <ele>307.17038</ele>
        <time>2022-05-12T11:46:30.064Z</time>
      </trkpt>
      <trkpt lat="44.36786" lon="1.18843">
        <ele>307.580735</ele>
        <time>2022-05-12T11:46:32.052Z</time>
      </trkpt>
      <trkpt lat="44.368" lon="1.18846">
        <ele>307.987936</ele>
        <time>2022-05-12T11:46:34.034Z</time>
      </trkpt>
      <trkpt lat="44.36813" lon="1.1885">
        <ele>308.371561</ele>
        <time>2022-05-12T11:46:36.072Z</time>
      </trkpt>
      <trkpt lat="44.36827" lon="1.18852">
        <ele>308.797691</ele>
        <time>2022-05-12T11:46:38.097Z</time>
      </trkpt>
      <trkpt lat="44.36842" lon="1.18856">
        <ele>308.796637</ele>
        <time>2022-05-12T11:46:40.066Z</time>
      </trkpt>
      <trkpt lat="44.36856" lon="1.18859">
        <ele>308.643233</ele>
        <time>2022-05-12T11:46:42.061Z</time>
      </trkpt>
      <trkpt lat="44.3687" lon="1.18864">
        <ele>308.486593</ele>
        <time>2022-05-12T11:46:44.090Z</time>
      </trkpt>
      <trkpt lat="44.3688" lon="1.18876">
        <ele>308.344925</ele>
        <time>2022-05-12T11:46:46.052Z</time>
      </trkpt>
      <trkpt lat="44.36887" lon="1.18894">
        <ele>308.186858</ele>
        <time>2022-05-12T11:46:48.073Z</time>
      </trkpt>
      <trkpt lat="44.36889" lon="1.18916">
        <ele>308.016186</ele>
        <time>2022-05-12T11:46:50.074Z</time>
      </trkpt>
      <trkpt lat="44.3689" lon="1.18939">
        <ele>307.83812</ele>
        <time>2022-05-12T11:46:52.033Z</time>
      </trkpt>
      <trkpt lat="44.36893" lon="1.1896">
        <ele>307.673646</ele>
        <time>2022-05-12T11:46:54.048Z</time>
      </trkpt>
      <trkpt lat="44.36896" lon="1.18981">
        <ele>307.501679</ele>
        <time>2022-05-12T11:46:56.098Z</time>
      </trkpt>
      <trkpt lat="44.36901" lon="1.19003">
        <ele>307.326082</ele>
        <time>2022-05-12T11:46:58.073Z</time>
      </trkpt>
      <trkpt lat="44.36907" lon="1.19023">
        <ele>307.158804</ele>
        <time>2022-05-12T11:47:00.061Z</time>
      </trkpt>
      <trkpt lat="44.36912" lon="1.19043">
        <ele>306.995743</ele>
        <time>2022-05-12T11:47:02.052Z</time>
      </trkpt>
      <trkpt lat="44.36918" lon="1.19062">
        <ele>307.080513</ele>
        <time>2022-05-12T11:47:04.040Z</time>
      </trkpt>
      <trkpt lat="44.36925" lon="1.1908">
        <ele>307.226372</ele>
        <time>2022-05-12T11:47:06.056Z</time>
      </trkpt>
      <trkpt lat="44.36935" lon="1.19095">
        <ele>307.369244</ele>
        <time>2022-05-12T11:47:08.067Z</time>
      </trkpt>
      <trkpt lat="44.36947" lon="1.19111">
        <ele>307.525365</ele>
        <time>2022-05-12T11:47:10.072Z</time>
      </trkpt>
      <trkpt lat="44.36961" lon="1.19118">
        <ele>307.670011</ele>
        <time>2022-05-12T11:47:12.077Z</time>
      </trkpt>
      <trkpt lat="44.36974" lon="1.19119">
        <ele>307.794205</ele>
        <time>2022-05-12T11:47:14.046Z</time>
      </trkpt>
      <trkpt lat="44.36988" lon="1.19119">
        <ele>307.928821</ele>
        <time>2022-05-12T11:47:16.058Z</time>
      </trkpt>
      <trkpt lat="44.37001" lon="1.19118">
        <ele>308.05593</ele>
        <time>2022-05-12T11:47:18.086Z</time>
      </trkpt>
      <trkpt lat="44.37013" lon="1.19119">
        <ele>308.16845</ele>
        <time>2022-05-12T11:47:20.070Z</time>
      </trkpt>
      <trkpt lat="44.37025" lon="1.19118">
        <ele>308.2792</ele>
        <time>2022-05-12T11:47:22.070Z</time>
      </trkpt>
      <trkpt lat="44.37036" lon="1.19116">
        <ele>308.385773</ele>
        <time>2022-05-12T11:47:24.042Z</time>
      </trkpt>
      <trkpt lat="44.37047" lon="1.19115">
        <ele>308.494604</ele>
        <time>2022-05-12T11:47:26.071Z</time>
      </trkpt>
      <trkpt lat="44.37058" lon="1.19115">
        <ele>308.599421</ele>
        <time>2022-05-12T11:47:28.056Z</time>
      </trkpt>
      <trkpt lat="44.3707" lon="1.19117">
        <ele>308.716657</ele>
        <time>2022-05-12T11:47:30.072Z</time>
      </trkpt>
      <trkpt lat="44.37082" lon="1.19117">
        <ele>308.821457</ele>
        <time>2022-05-12T11:47:32.072Z</time>
      </trkpt>
      <trkpt lat="44.37094" lon="1.19119">
        <ele>308.920296</ele>
        <time>2022-05-12T11:47:34.050Z</time>
      </trkpt>
      <trkpt lat="44.37105" lon="1.19121">
        <ele>309.014883</ele>
        <time>2022-05-12T11:47:36.066Z</time>
      </trkpt>
      <trkpt lat="44.37117" lon="1.19124">
        <ele>309.120321</ele>
        <time>2022-05-12T11:47:38.056Z</time>
      </trkpt>
      <trkpt lat="44.37129" lon="1.19127">
        <ele>309.225657</ele>
        <time>2022-05-12T11:47:40.056Z</time>
      </trkpt>
      <trkpt lat="44.3714" lon="1.1913">
        <ele>309.322996</ele>
        <time>2022-05-12T11:47:42.055Z</time>
      </trkpt>
      <trkpt lat="44.37153" lon="1.19131">
        <ele>309.433961</ele>
        <time>2022-05-12T11:47:44.035Z</time>
      </trkpt>
      <trkpt lat="44.37165" lon="1.19129">
        <ele>309.538075</ele>
        <time>2022-05-12T11:47:46.063Z</time>
      </trkpt>
      <trkpt lat="44.37176" lon="1.19126">
        <ele>309.636976</ele>
        <time>2022-05-12T11:47:48.069Z</time>
      </trkpt>
      <trkpt lat="44.37186" lon="1.1912">
        <ele>309.728571</ele>
        <time>2022-05-12T11:47:50.048Z</time>
      </trkpt>
      <trkpt lat="44.37197" lon="1.19113">
        <ele>309.836358</ele>
        <time>2022-05-12T11:47:52.074Z</time>
      </trkpt>
      <trkpt lat="44.37209" lon="1.19106">
        <ele>309.942481</ele>
        <time>2022-05-12T11:47:54.055Z</time>
      </trkpt>
      <trkpt lat="44.37218" lon="1.19098">
        <ele>310.036919</ele>
        <time>2022-05-12T11:47:56.057Z</time>
      </trkpt>
      <trkpt lat="44.37229" lon="1.19091">
        <ele>310.137593</ele>
        <time>2022-05-12T11:47:58.050Z</time>
      </trkpt>
      <trkpt lat="44.37239" lon="1.19083">
        <ele>310.234934</ele>
        <time>2022-05-12T11:48:00.065Z</time>
      </trkpt>
      <trkpt lat="44.37248" lon="1.19076">
        <ele>309.420744</ele>
        <time>2022-05-12T11:48:02.064Z</time>
      </trkpt>
      <trkpt lat="44.37257" lon="1.19065">
        <ele>308.483699</ele>
        <time>2022-05-12T11:48:04.040Z</time>
      </trkpt>
      <trkpt lat="44.37265" lon="1.19051">
        <ele>307.443946</ele>
        <time>2022-05-12T11:48:06.069Z</time>
      </trkpt>
      <trkpt lat="44.37274" lon="1.19039">
        <ele>306.459188</ele>
        <time>2022-05-12T11:48:08.079Z</time>
      </trkpt>
      <trkpt lat="44.37281" lon="1.19026">
        <ele>305.533099</ele>
        <time>2022-05-12T11:48:10.062Z</time>
      </trkpt>
      <trkpt lat="44.37289" lon="1.19013">
        <ele>304.505398</ele>
        <time>2022-05-12T11:48:12.074Z</time>
      </trkpt>
      <trkpt lat="44.37296" lon="1.19">
        <ele>303.568046</ele>
        <time>2022-05-12T11:48:14.056Z</time>
      </trkpt>
      <trkpt lat="44.37303" lon="1.18987">
        <ele>302.625891</ele>
        <time>2022-05-12T11:48:16.053Z</time>
      </trkpt>
      <trkpt lat="44.3731" lon="1.18975">
        <ele>301.746191</ele>
        <time>2022-05-12T11:48:18.053Z</time>
      </trkpt>
      <trkpt lat="44.37318" lon="1.18962">
        <ele>300.807941</ele>
        <time>2022-05-12T11:48:20.067Z</time>
      </trkpt>
      <trkpt lat="44.37324" lon="1.18948">
        <ele>299.846304</ele>
        <time>2022-05-12T11:48:22.066Z</time>
      </trkpt>
      <trkpt lat="44.37332" lon="1.18934">
        <ele>298.785772</ele>
        <time>2022-05-12T11:48:24.032Z</time>
      </trkpt>
      <trkpt lat="44.37337" lon="1.18918">
        <ele>297.800697</ele>
        <time>2022-05-12T11:48:26.065Z</time>
      </trkpt>
      <trkpt lat="44.37342" lon="1.18903">
        <ele>296.850691</ele>
        <time>2022-05-12T11:48:28.049Z</time>
      </trkpt>
      <trkpt lat="44.37346" lon="1.18888">
        <ele>295.94464</ele>
        <time>2022-05-12T11:48:30.068Z</time>
      </trkpt>
      <trkpt lat="44.3735" lon="1.18874">
        <ele>294.311735</ele>
        <time>2022-05-12T11:48:32.068Z</time>
      </trkpt>
      <trkpt lat="44.37356" lon="1.18859">
        <ele>292.336773</ele>
        <time>2022-05-12T11:48:34.042Z</time>
      </trkpt>
      <trkpt lat="44.37365" lon="1.18846">
        <ele>290.310196</ele>
        <time>2022-05-12T11:48:36.059Z</time>
      </trkpt>
      <trkpt lat="44.37372" lon="1.18838">
        <ele>288.678934</ele>
        <time>2022-05-12T11:48:38.065Z</time>
      </trkpt>
      <trkpt lat="44.37386" lon="1.18833">
        <ele>286.473121</ele>
        <time>2022-05-12T11:48:40.065Z</time>
      </trkpt>
      <trkpt lat="44.374" lon="1.18835">
        <ele>284.031104</ele>
        <time>2022-05-12T11:48:42.056Z</time>
      </trkpt>
      <trkpt lat="44.37417" lon="1.18836">
        <ele>281.347225</ele>
        <time>2022-05-12T11:48:44.031Z</time>
      </trkpt>
      <trkpt lat="44.37433" lon="1.18839">
        <ele>278.693385</ele>
        <time>2022-05-12T11:48:46.073Z</time>
      </trkpt>
      <trkpt lat="44.37442" lon="1.18841">
        <ele>277.212587</ele>
        <time>2022-05-12T11:48:47.112Z</time>
      </trkpt>
      <trkpt lat="44.37459" lon="1.18842">
        <ele>274.431083</ele>
        <time>2022-05-12T11:48:49.068Z</time>
      </trkpt>
      <trkpt lat="44.37468" lon="1.18841">
        <ele>272.940755</ele>
        <time>2022-05-12T11:48:50.058Z</time>
      </trkpt>
      <trkpt lat="44.37477" lon="1.18839">
        <ele>271.367991</ele>
        <time>2022-05-12T11:48:51.071Z</time>
      </trkpt>
      <trkpt lat="44.37487" lon="1.18836">
        <ele>269.77795</ele>
        <time>2022-05-12T11:48:52.083Z</time>
      </trkpt>
      <trkpt lat="44.37496" lon="1.18834">
        <ele>268.211802</ele>
        <time>2022-05-12T11:48:53.091Z</time>
      </trkpt>
      <trkpt lat="44.37506" lon="1.18831">
        <ele>266.555361</ele>
        <time>2022-05-12T11:48:54.057Z</time>
      </trkpt>
      <trkpt lat="44.37516" lon="1.18828">
        <ele>266.554564</ele>
        <time>2022-05-12T11:48:55.056Z</time>
      </trkpt>
      <trkpt lat="44.37525" lon="1.18826">
        <ele>266.794226</ele>
        <time>2022-05-12T11:48:56.050Z</time>
      </trkpt>
      <trkpt lat="44.37534" lon="1.18822">
        <ele>267.04097</ele>
        <time>2022-05-12T11:48:57.057Z</time>
      </trkpt>
      <trkpt lat="44.37543" lon="1.18818">
        <ele>267.301422</ele>
        <time>2022-05-12T11:48:58.065Z</time>
      </trkpt>
      <trkpt lat="44.37552" lon="1.18813">
        <ele>267.56424</ele>
        <time>2022-05-12T11:48:59.104Z</time>
      </trkpt>
      <trkpt lat="44.37561" lon="1.18805">
        <ele>267.841691</ele>
        <time>2022-05-12T11:49:00.048Z</time>
      </trkpt>
      <trkpt lat="44.37571" lon="1.18797">
        <ele>268.122024</ele>
        <time>2022-05-12T11:49:01.059Z</time>
      </trkpt>
      <trkpt lat="44.37579" lon="1.1879">
        <ele>268.381227</ele>
        <time>2022-05-12T11:49:02.057Z</time>
      </trkpt>
      <trkpt lat="44.37587" lon="1.1878">
        <ele>268.670803</ele>
        <time>2022-05-12T11:49:03.073Z</time>
      </trkpt>
      <trkpt lat="44.37596" lon="1.18773">
        <ele>268.933319</ele>
        <time>2022-05-12T11:49:04.025Z</time>
      </trkpt>
      <trkpt lat="44.37603" lon="1.18764">
        <ele>269.186576</ele>
        <time>2022-05-12T11:49:05.103Z</time>
      </trkpt>
      <trkpt lat="44.3761" lon="1.18755">
        <ele>269.430901</ele>
        <time>2022-05-12T11:49:06.055Z</time>
      </trkpt>
      <trkpt lat="44.37617" lon="1.18746">
        <ele>269.679686</ele>
        <time>2022-05-12T11:49:07.055Z</time>
      </trkpt>
      <trkpt lat="44.37628" lon="1.18734">
        <ele>270.060924</ele>
        <time>2022-05-12T11:49:08.073Z</time>
      </trkpt>
      <trkpt lat="44.37643" lon="1.18722">
        <ele>270.51828</ele>
        <time>2022-05-12T11:49:10.050Z</time>
      </trkpt>
      <trkpt lat="44.37655" lon="1.18714">
        <ele>270.852368</ele>
        <time>2022-05-12T11:49:11.080Z</time>
      </trkpt>
      <trkpt lat="44.37663" lon="1.18708">
        <ele>271.136408</ele>
        <time>2022-05-12T11:49:12.065Z</time>
      </trkpt>
      <trkpt lat="44.37687" lon="1.18698">
        <ele>273.31072</ele>
        <time>2022-05-12T11:49:14.042Z</time>
      </trkpt>
      <trkpt lat="44.37699" lon="1.18691">
        <ele>274.489526</ele>
        <time>2022-05-12T11:49:15.066Z</time>
      </trkpt>
      <trkpt lat="44.3771" lon="1.18683">
        <ele>275.520436</ele>
        <time>2022-05-12T11:49:16.060Z</time>
      </trkpt>
      <trkpt lat="44.37717" lon="1.18674">
        <ele>276.405025</ele>
        <time>2022-05-12T11:49:17.061Z</time>
      </trkpt>
      <trkpt lat="44.37726" lon="1.18665">
        <ele>277.355583</ele>
        <time>2022-05-12T11:49:18.036Z</time>
      </trkpt>
      <trkpt lat="44.37734" lon="1.18655">
        <ele>278.2813</ele>
        <time>2022-05-12T11:49:19.065Z</time>
      </trkpt>
      <trkpt lat="44.37742" lon="1.18646">
        <ele>279.166938</ele>
        <time>2022-05-12T11:49:20.026Z</time>
      </trkpt>
      <trkpt lat="44.37751" lon="1.18635">
        <ele>280.200038</ele>
        <time>2022-05-12T11:49:21.054Z</time>
      </trkpt>
      <trkpt lat="44.37758" lon="1.18624">
        <ele>281.140252</ele>
        <time>2022-05-12T11:49:22.093Z</time>
      </trkpt>
      <trkpt lat="44.37768" lon="1.18612">
        <ele>282.258348</ele>
        <time>2022-05-12T11:49:23.050Z</time>
      </trkpt>
      <trkpt lat="44.37776" lon="1.186">
        <ele>283.276586</ele>
        <time>2022-05-12T11:49:24.045Z</time>
      </trkpt>
      <trkpt lat="44.37782" lon="1.18588">
        <ele>284.209605</ele>
        <time>2022-05-12T11:49:25.070Z</time>
      </trkpt>
      <trkpt lat="44.3779" lon="1.18575">
        <ele>285.30776</ele>
        <time>2022-05-12T11:49:26.071Z</time>
      </trkpt>
      <trkpt lat="44.37796" lon="1.18562">
        <ele>286.246244</ele>
        <time>2022-05-12T11:49:27.054Z</time>
      </trkpt>
      <trkpt lat="44.37803" lon="1.18547">
        <ele>286.53892</ele>
        <time>2022-05-12T11:49:28.111Z</time>
      </trkpt>
      <trkpt lat="44.37809" lon="1.18533">
        <ele>286.144566</ele>
        <time>2022-05-12T11:49:29.074Z</time>
      </trkpt>
      <trkpt lat="44.37812" lon="1.18517">
        <ele>285.745122</ele>
        <time>2022-05-12T11:49:30.059Z</time>
      </trkpt>
      <trkpt lat="44.37816" lon="1.18502">
        <ele>285.353148</ele>
        <time>2022-05-12T11:49:31.055Z</time>
      </trkpt>
      <trkpt lat="44.37819" lon="1.18486">
        <ele>284.957936</ele>
        <time>2022-05-12T11:49:32.076Z</time>
      </trkpt>
      <trkpt lat="44.37823" lon="1.1847">
        <ele>284.556464</ele>
        <time>2022-05-12T11:49:33.080Z</time>
      </trkpt>
      <trkpt lat="44.37827" lon="1.18455">
        <ele>284.164574</ele>
        <time>2022-05-12T11:49:34.081Z</time>
      </trkpt>
      <trkpt lat="44.37832" lon="1.1844">
        <ele>283.765125</ele>
        <time>2022-05-12T11:49:35.062Z</time>
      </trkpt>
      <trkpt lat="44.37836" lon="1.18424">
        <ele>283.365292</ele>
        <time>2022-05-12T11:49:36.067Z</time>
      </trkpt>
      <trkpt lat="44.37841" lon="1.18408">
        <ele>282.954402</ele>
        <time>2022-05-12T11:49:37.061Z</time>
      </trkpt>
      <trkpt lat="44.37845" lon="1.18393">
        <ele>282.554225</ele>
        <time>2022-05-12T11:49:38.056Z</time>
      </trkpt>
      <trkpt lat="44.37847" lon="1.18376">
        <ele>282.145246</ele>
        <time>2022-05-12T11:49:39.095Z</time>
      </trkpt>
      <trkpt lat="44.37849" lon="1.1836">
        <ele>281.744999</ele>
        <time>2022-05-12T11:49:40.091Z</time>
      </trkpt>
      <trkpt lat="44.3785" lon="1.18343">
        <ele>281.35122</ele>
        <time>2022-05-12T11:49:41.068Z</time>
      </trkpt>
      <trkpt lat="44.37852" lon="1.18327">
        <ele>280.953818</ele>
        <time>2022-05-12T11:49:42.075Z</time>
      </trkpt>
      <trkpt lat="44.37854" lon="1.18311">
        <ele>280.797245</ele>
        <time>2022-05-12T11:49:43.058Z</time>
      </trkpt>
      <trkpt lat="44.37858" lon="1.18296">
        <ele>281.002363</ele>
        <time>2022-05-12T11:49:44.038Z</time>
      </trkpt>
      <trkpt lat="44.37863" lon="1.18281">
        <ele>281.200944</ele>
        <time>2022-05-12T11:49:45.043Z</time>
      </trkpt>
      <trkpt lat="44.37869" lon="1.18268">
        <ele>281.398757</ele>
        <time>2022-05-12T11:49:46.090Z</time>
      </trkpt>
      <trkpt lat="44.37877" lon="1.18257">
        <ele>281.594411</ele>
        <time>2022-05-12T11:49:47.057Z</time>
      </trkpt>
      <trkpt lat="44.37885" lon="1.18245">
        <ele>281.804452</ele>
        <time>2022-05-12T11:49:48.054Z</time>
      </trkpt>
      <trkpt lat="44.37893" lon="1.18238">
        <ele>281.968369</ele>
        <time>2022-05-12T11:49:49.074Z</time>
      </trkpt>
      <trkpt lat="44.37904" lon="1.18233">
        <ele>282.167957</ele>
        <time>2022-05-12T11:49:50.061Z</time>
      </trkpt>
      <trkpt lat="44.37912" lon="1.18226">
        <ele>282.333106</ele>
        <time>2022-05-12T11:49:51.051Z</time>
      </trkpt>
      <trkpt lat="44.37924" lon="1.18223">
        <ele>282.549031</ele>
        <time>2022-05-12T11:49:52.033Z</time>
      </trkpt>
      <trkpt lat="44.37936" lon="1.18219">
        <ele>282.770048</ele>
        <time>2022-05-12T11:49:53.045Z</time>
      </trkpt>
      <trkpt lat="44.37949" lon="1.18216">
        <ele>283.003296</ele>
        <time>2022-05-12T11:49:54.035Z</time>
      </trkpt>
      <trkpt lat="44.3796" lon="1.18215">
        <ele>283.195503</ele>
        <time>2022-05-12T11:49:55.045Z</time>
      </trkpt>
      <trkpt lat="44.37973" lon="1.18215">
        <ele>283.41923</ele>
        <time>2022-05-12T11:49:56.063Z</time>
      </trkpt>
      <trkpt lat="44.37987" lon="1.18215">
        <ele>283.667616</ele>
        <time>2022-05-12T11:49:57.055Z</time>
      </trkpt>
      <trkpt lat="44.38003" lon="1.18215">
        <ele>283.796455</ele>
        <time>2022-05-12T11:49:58.050Z</time>
      </trkpt>
      <trkpt lat="44.38017" lon="1.18217">
        <ele>283.48161</ele>
        <time>2022-05-12T11:49:59.057Z</time>
      </trkpt>
      <trkpt lat="44.38031" lon="1.18219">
        <ele>283.169635</ele>
        <time>2022-05-12T11:50:00.055Z</time>
      </trkpt>
      <trkpt lat="44.38041" lon="1.1823">
        <ele>282.880738</ele>
        <time>2022-05-12T11:50:02.054Z</time>
      </trkpt>
      <trkpt lat="44.38048" lon="1.18239">
        <ele>282.661716</ele>
        <time>2022-05-12T11:50:03.107Z</time>
      </trkpt>
      <trkpt lat="44.38057" lon="1.18248">
        <ele>282.415292</ele>
        <time>2022-05-12T11:50:04.033Z</time>
      </trkpt>
      <trkpt lat="44.38066" lon="1.18255">
        <ele>282.19204</ele>
        <time>2022-05-12T11:50:05.063Z</time>
      </trkpt>
      <trkpt lat="44.38076" lon="1.18261">
        <ele>281.942006</ele>
        <time>2022-05-12T11:50:06.056Z</time>
      </trkpt>
      <trkpt lat="44.38087" lon="1.18262">
        <ele>281.695508</ele>
        <time>2022-05-12T11:50:07.068Z</time>
      </trkpt>
      <trkpt lat="44.38099" lon="1.1826">
        <ele>281.425596</ele>
        <time>2022-05-12T11:50:08.073Z</time>
      </trkpt>
      <trkpt lat="44.38109" lon="1.18258">
        <ele>281.198543</ele>
        <time>2022-05-12T11:50:09.086Z</time>
      </trkpt>
      <trkpt lat="44.38119" lon="1.18254">
        <ele>280.965761</ele>
        <time>2022-05-12T11:50:10.058Z</time>
      </trkpt>
      <trkpt lat="44.38129" lon="1.18249">
        <ele>280.715462</ele>
        <time>2022-05-12T11:50:11.061Z</time>
      </trkpt>
      <trkpt lat="44.38139" lon="1.18242">
        <ele>280.475986</ele>
        <time>2022-05-12T11:50:12.054Z</time>
      </trkpt>
      <trkpt lat="44.38148" lon="1.18237">
        <ele>280.245669</ele>
        <time>2022-05-12T11:50:13.067Z</time>
      </trkpt>
      <trkpt lat="44.38158" lon="1.18232">
        <ele>280.005978</ele>
        <time>2022-05-12T11:50:14.034Z</time>
      </trkpt>
      <trkpt lat="44.38167" lon="1.18227">
        <ele>279.84617</ele>
        <time>2022-05-12T11:50:15.074Z</time>
      </trkpt>
      <trkpt lat="44.38176" lon="1.18222">
        <ele>279.900902</ele>
        <time>2022-05-12T11:50:16.065Z</time>
      </trkpt>
      <trkpt lat="44.38184" lon="1.18217">
        <ele>279.956704</ele>
        <time>2022-05-12T11:50:17.077Z</time>
      </trkpt>
      <trkpt lat="44.38193" lon="1.18212">
        <ele>280.01</ele>
        <time>2022-05-12T11:50:18.079Z</time>
      </trkpt>
      <trkpt lat="44.38201" lon="1.18206">
        <ele>280.063153</ele>
        <time>2022-05-12T11:50:19.039Z</time>
      </trkpt>
      <trkpt lat="44.38216" lon="1.18193">
        <ele>280.164962</ele>
        <time>2022-05-12T11:50:21.100Z</time>
      </trkpt>
      <trkpt lat="44.38229" lon="1.18181">
        <ele>280.258125</ele>
        <time>2022-05-12T11:50:23.075Z</time>
      </trkpt>
      <trkpt lat="44.3824" lon="1.18167">
        <ele>280.344652</ele>
        <time>2022-05-12T11:50:25.055Z</time>
      </trkpt>
      <trkpt lat="44.3825" lon="1.18157">
        <ele>280.415893</ele>
        <time>2022-05-12T11:50:27.114Z</time>
      </trkpt>
      <trkpt lat="44.3826" lon="1.18147">
        <ele>280.489138</ele>
        <time>2022-05-12T11:50:29.048Z</time>
      </trkpt>
      <trkpt lat="44.38269" lon="1.18137">
        <ele>280.553743</ele>
        <time>2022-05-12T11:50:31.072Z</time>
      </trkpt>
      <trkpt lat="44.38277" lon="1.18129">
        <ele>280.614536</ele>
        <time>2022-05-12T11:50:33.092Z</time>
      </trkpt>
      <trkpt lat="44.38285" lon="1.18117">
        <ele>280.679063</ele>
        <time>2022-05-12T11:50:35.054Z</time>
      </trkpt>
      <trkpt lat="44.38293" lon="1.18108">
        <ele>280.740901</ele>
        <time>2022-05-12T11:50:38.065Z</time>
      </trkpt>
      <trkpt lat="44.38301" lon="1.18098">
        <ele>280.806546</ele>
        <time>2022-05-12T11:50:41.073Z</time>
      </trkpt>
      <trkpt lat="44.3831" lon="1.18087">
        <ele>280.873898</ele>
        <time>2022-05-12T11:50:44.047Z</time>
      </trkpt>
      <trkpt lat="44.38318" lon="1.18076">
        <ele>280.728261</ele>
        <time>2022-05-12T11:50:47.053Z</time>
      </trkpt>
      <trkpt lat="44.38325" lon="1.18067">
        <ele>280.554771</ele>
        <time>2022-05-12T11:50:50.058Z</time>
      </trkpt>
      <trkpt lat="44.38331" lon="1.18057">
        <ele>280.39371</ele>
        <time>2022-05-12T11:50:53.059Z</time>
      </trkpt>
      <trkpt lat="44.38337" lon="1.18047">
        <ele>280.220854</ele>
        <time>2022-05-12T11:50:56.056Z</time>
      </trkpt>
      <trkpt lat="44.38344" lon="1.18038">
        <ele>280.056489</ele>
        <time>2022-05-12T11:50:58.053Z</time>
      </trkpt>
      <trkpt lat="44.38353" lon="1.18026">
        <ele>279.837566</ele>
        <time>2022-05-12T11:51:01.059Z</time>
      </trkpt>
      <trkpt lat="44.38361" lon="1.18013">
        <ele>279.627898</ele>
        <time>2022-05-12T11:51:04.047Z</time>
      </trkpt>
      <trkpt lat="44.38367" lon="1.18003">
        <ele>279.453347</ele>
        <time>2022-05-12T11:51:07.058Z</time>
      </trkpt>
      <trkpt lat="44.38373" lon="1.17992">
        <ele>279.288878</ele>
        <time>2022-05-12T11:51:10.073Z</time>
      </trkpt>
      <trkpt lat="44.3838" lon="1.17984">
        <ele>279.125471</ele>
        <time>2022-05-12T11:51:13.064Z</time>
      </trkpt>
      <trkpt lat="44.38386" lon="1.17973">
        <ele>278.948934</ele>
        <time>2022-05-12T11:51:16.068Z</time>
      </trkpt>
      <trkpt lat="44.38394" lon="1.17963">
        <ele>278.753693</ele>
        <time>2022-05-12T11:51:19.065Z</time>
      </trkpt>
      <trkpt lat="44.38402" lon="1.17952">
        <ele>278.56878</ele>
        <time>2022-05-12T11:51:22.058Z</time>
      </trkpt>
      <trkpt lat="44.3841" lon="1.17943">
        <ele>278.38468</ele>
        <time>2022-05-12T11:51:25.053Z</time>
      </trkpt>
      <trkpt lat="44.38417" lon="1.17935">
        <ele>278.224948</ele>
        <time>2022-05-12T11:51:28.059Z</time>
      </trkpt>
      <trkpt lat="44.38425" lon="1.17927">
        <ele>278.051458</ele>
        <time>2022-05-12T11:51:31.070Z</time>
      </trkpt>
      <trkpt lat="44.38431" lon="1.17916">
        <ele>277.875538</ele>
        <time>2022-05-12T11:51:34.052Z</time>
      </trkpt>
      <trkpt lat="44.38437" lon="1.17907">
        <ele>277.716385</ele>
        <time>2022-05-12T11:51:37.067Z</time>
      </trkpt>
      <trkpt lat="44.38444" lon="1.17898">
        <ele>277.981761</ele>
        <time>2022-05-12T11:51:40.075Z</time>
      </trkpt>
      <trkpt lat="44.38452" lon="1.1789">
        <ele>278.280077</ele>
        <time>2022-05-12T11:51:43.045Z</time>
      </trkpt>
      <trkpt lat="44.38461" lon="1.17882">
        <ele>278.584346</ele>
        <time>2022-05-12T11:51:46.044Z</time>
      </trkpt>
      <trkpt lat="44.3847" lon="1.17875">
        <ele>278.891461</ele>
        <time>2022-05-12T11:51:49.070Z</time>
      </trkpt>
      <trkpt lat="44.38478" lon="1.17869">
        <ele>279.185324</ele>
        <time>2022-05-12T11:51:52.034Z</time>
      </trkpt>
      <trkpt lat="44.38488" lon="1.1786">
        <ele>279.529952</ele>
        <time>2022-05-12T11:51:56.046Z</time>
      </trkpt>
      <trkpt lat="44.38498" lon="1.17853">
        <ele>279.850104</ele>
        <time>2022-05-12T11:52:00.066Z</time>
      </trkpt>
      <trkpt lat="44.38506" lon="1.17846">
        <ele>280.150498</ele>
        <time>2022-05-12T11:52:03.055Z</time>
      </trkpt>
      <trkpt lat="44.38515" lon="1.17839">
        <ele>280.436794</ele>
        <time>2022-05-12T11:52:06.046Z</time>
      </trkpt>
      <trkpt lat="44.38525" lon="1.1783">
        <ele>280.798745</ele>
        <time>2022-05-12T11:52:10.069Z</time>
      </trkpt>
      <trkpt lat="44.38532" lon="1.17821">
        <ele>281.090998</ele>
        <time>2022-05-12T11:52:13.056Z</time>
      </trkpt>
      <trkpt lat="44.3854" lon="1.17809">
        <ele>281.437267</ele>
        <time>2022-05-12T11:52:17.043Z</time>
      </trkpt>
      <trkpt lat="44.3855" lon="1.17804">
        <ele>281.733207</ele>
        <time>2022-05-12T11:52:20.087Z</time>
      </trkpt>
      <trkpt lat="44.38561" lon="1.17803">
        <ele>282.062461</ele>
        <time>2022-05-12T11:52:23.071Z</time>
      </trkpt>
      <trkpt lat="44.38571" lon="1.17805">
        <ele>282.371693</ele>
        <time>2022-05-12T11:52:27.055Z</time>
      </trkpt>
      <trkpt lat="44.3858" lon="1.17808">
        <ele>282.646227</ele>
        <time>2022-05-12T11:52:30.063Z</time>
      </trkpt>
      <trkpt lat="44.38591" lon="1.17809">
        <ele>282.978282</ele>
        <time>2022-05-12T11:52:33.055Z</time>
      </trkpt>
      <trkpt lat="44.38602" lon="1.1781">
        <ele>283.543075</ele>
        <time>2022-05-12T11:52:37.054Z</time>
      </trkpt>
      <trkpt lat="44.38612" lon="1.17808">
        <ele>284.126352</ele>
        <time>2022-05-12T11:52:41.053Z</time>
      </trkpt>
      <trkpt lat="44.38624" lon="1.17804">
        <ele>284.782762</ele>
        <time>2022-05-12T11:52:45.045Z</time>
      </trkpt>
      <trkpt lat="44.38635" lon="1.17804">
        <ele>285.449213</ele>
        <time>2022-05-12T11:52:49.053Z</time>
      </trkpt>
      <trkpt lat="44.38645" lon="1.17806">
        <ele>285.987639</ele>
        <time>2022-05-12T11:52:52.066Z</time>
      </trkpt>
      <trkpt lat="44.38654" lon="1.17808">
        <ele>286.529607</ele>
        <time>2022-05-12T11:52:55.054Z</time>
      </trkpt>
      <trkpt lat="44.38664" lon="1.17809">
        <ele>287.116052</ele>
        <time>2022-05-12T11:52:58.052Z</time>
      </trkpt>
      <trkpt lat="44.38674" lon="1.17805">
        <ele>287.665905</ele>
        <time>2022-05-12T11:53:01.072Z</time>
      </trkpt>
      <trkpt lat="44.38682" lon="1.17799">
        <ele>288.189625</ele>
        <time>2022-05-12T11:53:04.063Z</time>
      </trkpt>
      <trkpt lat="44.3869" lon="1.17791">
        <ele>288.751765</ele>
        <time>2022-05-12T11:53:07.121Z</time>
      </trkpt>
      <trkpt lat="44.38699" lon="1.17784">
        <ele>289.337863</ele>
        <time>2022-05-12T11:53:10.056Z</time>
      </trkpt>
      <trkpt lat="44.38706" lon="1.17775">
        <ele>289.886754</ele>
        <time>2022-05-12T11:53:13.102Z</time>
      </trkpt>
      <trkpt lat="44.38714" lon="1.17767">
        <ele>290.459127</ele>
        <time>2022-05-12T11:53:16.074Z</time>
      </trkpt>
      <trkpt lat="44.38722" lon="1.17758">
        <ele>291.035331</ele>
        <time>2022-05-12T11:53:19.118Z</time>
      </trkpt>
      <trkpt lat="44.38731" lon="1.17751">
        <ele>291.628415</ele>
        <time>2022-05-12T11:53:22.047Z</time>
      </trkpt>
      <trkpt lat="44.3874" lon="1.17743">
        <ele>292.20015</ele>
        <time>2022-05-12T11:53:25.093Z</time>
      </trkpt>
      <trkpt lat="44.38748" lon="1.17735">
        <ele>292.790636</ele>
        <time>2022-05-12T11:53:28.023Z</time>
      </trkpt>
      <trkpt lat="44.38758" lon="1.17725">
        <ele>293.366504</ele>
        <time>2022-05-12T11:53:32.035Z</time>
      </trkpt>
      <trkpt lat="44.38766" lon="1.17716">
        <ele>293.56258</ele>
        <time>2022-05-12T11:53:35.052Z</time>
      </trkpt>
      <trkpt lat="44.38775" lon="1.17706">
        <ele>293.75975</ele>
        <time>2022-05-12T11:53:38.057Z</time>
      </trkpt>
      <trkpt lat="44.38781" lon="1.17697">
        <ele>293.923249</ele>
        <time>2022-05-12T11:53:41.053Z</time>
      </trkpt>
      <trkpt lat="44.38791" lon="1.17687">
        <ele>294.137393</ele>
        <time>2022-05-12T11:53:45.052Z</time>
      </trkpt>
      <trkpt lat="44.38799" lon="1.17679">
        <ele>294.325535</ele>
        <time>2022-05-12T11:53:48.033Z</time>
      </trkpt>
      <trkpt lat="44.38809" lon="1.1767">
        <ele>294.531479</ele>
        <time>2022-05-12T11:53:51.043Z</time>
      </trkpt>
      <trkpt lat="44.38818" lon="1.1766">
        <ele>294.738133</ele>
        <time>2022-05-12T11:53:54.037Z</time>
      </trkpt>
      <trkpt lat="44.38827" lon="1.17652">
        <ele>294.93515</ele>
        <time>2022-05-12T11:53:57.040Z</time>
      </trkpt>
      <trkpt lat="44.38835" lon="1.17643">
        <ele>295.114527</ele>
        <time>2022-05-12T11:54:00.055Z</time>
      </trkpt>
      <trkpt lat="44.38844" lon="1.17636">
        <ele>295.295645</ele>
        <time>2022-05-12T11:54:03.078Z</time>
      </trkpt>
      <trkpt lat="44.38852" lon="1.1763">
        <ele>295.470183</ele>
        <time>2022-05-12T11:54:06.055Z</time>
      </trkpt>
      <trkpt lat="44.38861" lon="1.17619">
        <ele>295.68541</ele>
        <time>2022-05-12T11:54:10.063Z</time>
      </trkpt>
      <trkpt lat="44.38869" lon="1.17611">
        <ele>295.866361</ele>
        <time>2022-05-12T11:54:13.058Z</time>
      </trkpt>
      <trkpt lat="44.38877" lon="1.17601">
        <ele>296.055015</ele>
        <time>2022-05-12T11:54:16.065Z</time>
      </trkpt>
      <trkpt lat="44.38884" lon="1.1759">
        <ele>296.240836</ele>
        <time>2022-05-12T11:54:19.057Z</time>
      </trkpt>
      <trkpt lat="44.3889" lon="1.17579">
        <ele>296.426</ele>
        <time>2022-05-12T11:54:22.042Z</time>
      </trkpt>
      <trkpt lat="44.38896" lon="1.17567">
        <ele>296.631129</ele>
        <time>2022-05-12T11:54:25.061Z</time>
      </trkpt>
      <trkpt lat="44.38902" lon="1.17554">
        <ele>296.885767</ele>
        <time>2022-05-12T11:54:28.058Z</time>
      </trkpt>
      <trkpt lat="44.38909" lon="1.17541">
        <ele>297.157642</ele>
        <time>2022-05-12T11:54:31.057Z</time>
      </trkpt>
      <trkpt lat="44.38916" lon="1.17527">
        <ele>297.445829</ele>
        <time>2022-05-12T11:54:34.032Z</time>
      </trkpt>
      <trkpt lat="44.38923" lon="1.17512">
        <ele>297.740963</ele>
        <time>2022-05-12T11:54:37.066Z</time>
      </trkpt>
      <trkpt lat="44.3893" lon="1.17497">
        <ele>298.038786</ele>
        <time>2022-05-12T11:54:40.065Z</time>
      </trkpt>
      <trkpt lat="44.38937" lon="1.17482">
        <ele>298.341945</ele>
        <time>2022-05-12T11:54:43.091Z</time>
      </trkpt>
      <trkpt lat="44.38945" lon="1.17468">
        <ele>298.641001</ele>
        <time>2022-05-12T11:54:46.051Z</time>
      </trkpt>
      <trkpt lat="44.3895" lon="1.17453">
        <ele>298.926319</ele>
        <time>2022-05-12T11:54:49.058Z</time>
      </trkpt>
      <trkpt lat="44.38956" lon="1.17438">
        <ele>299.197295</ele>
        <time>2022-05-12T11:54:52.060Z</time>
      </trkpt>
      <trkpt lat="44.38963" lon="1.17425">
        <ele>299.481559</ele>
        <time>2022-05-12T11:54:55.052Z</time>
      </trkpt>
      <trkpt lat="44.3897" lon="1.17411">
        <ele>299.761777</ele>
        <time>2022-05-12T11:54:58.062Z</time>
      </trkpt>
      <trkpt lat="44.38978" lon="1.17397">
        <ele>300.05411</ele>
        <time>2022-05-12T11:55:01.050Z</time>
      </trkpt>
      <trkpt lat="44.38985" lon="1.17382">
        <ele>300.359971</ele>
        <time>2022-05-12T11:55:04.034Z</time>
      </trkpt>
      <trkpt lat="44.38991" lon="1.17372">
        <ele>300.573386</ele>
        <time>2022-05-12T11:55:06.101Z</time>
      </trkpt>
      <trkpt lat="44.38996" lon="1.17361">
        <ele>300.790821</ele>
        <time>2022-05-12T11:55:08.063Z</time>
      </trkpt>
      <trkpt lat="44.39002" lon="1.17351">
        <ele>301.031443</ele>
        <time>2022-05-12T11:55:10.070Z</time>
      </trkpt>
      <trkpt lat="44.3901" lon="1.17335">
        <ele>301.384831</ele>
        <time>2022-05-12T11:55:13.060Z</time>
      </trkpt>
      <trkpt lat="44.39016" lon="1.1732">
        <ele>301.696925</ele>
        <time>2022-05-12T11:55:16.048Z</time>
      </trkpt>
      <trkpt lat="44.39023" lon="1.17308">
        <ele>301.995028</ele>
        <time>2022-05-12T11:55:19.040Z</time>
      </trkpt>
      <trkpt lat="44.3903" lon="1.17293">
        <ele>302.322092</ele>
        <time>2022-05-12T11:55:22.056Z</time>
      </trkpt>
      <trkpt lat="44.39037" lon="1.17277">
        <ele>302.651096</ele>
        <time>2022-05-12T11:55:25.066Z</time>
      </trkpt>
      <trkpt lat="44.39044" lon="1.17269">
        <ele>302.885863</ele>
        <time>2022-05-12T11:55:27.054Z</time>
      </trkpt>
      <trkpt lat="44.39057" lon="1.17261">
        <ele>303.236864</ele>
        <time>2022-05-12T11:55:30.055Z</time>
      </trkpt>
      <trkpt lat="44.39067" lon="1.17258">
        <ele>303.497615</ele>
        <time>2022-05-12T11:55:32.065Z</time>
      </trkpt>
      <trkpt lat="44.3908" lon="1.17255">
        <ele>303.832461</ele>
        <time>2022-05-12T11:55:34.083Z</time>
      </trkpt>
      <trkpt lat="44.39089" lon="1.17247">
        <ele>304.117782</ele>
        <time>2022-05-12T11:55:36.080Z</time>
      </trkpt>
      <trkpt lat="44.39099" lon="1.17241">
        <ele>304.403986</ele>
        <time>2022-05-12T11:55:38.077Z</time>
      </trkpt>
      <trkpt lat="44.39112" lon="1.17235">
        <ele>304.738437</ele>
        <time>2022-05-12T11:55:40.095Z</time>
      </trkpt>
      <trkpt lat="44.39123" lon="1.17227">
        <ele>305.051704</ele>
        <time>2022-05-12T11:55:42.057Z</time>
      </trkpt>
      <trkpt lat="44.39137" lon="1.17221">
        <ele>305.362814</ele>
        <time>2022-05-12T11:55:44.029Z</time>
      </trkpt>
      <trkpt lat="44.3915" lon="1.17214">
        <ele>305.325603</ele>
        <time>2022-05-12T11:55:46.054Z</time>
      </trkpt>
      <trkpt lat="44.39163" lon="1.17206">
        <ele>305.286508</ele>
        <time>2022-05-12T11:55:48.066Z</time>
      </trkpt>
      <trkpt lat="44.39177" lon="1.17199">
        <ele>305.248365</ele>
        <time>2022-05-12T11:55:50.049Z</time>
      </trkpt>
      <trkpt lat="44.39191" lon="1.17194">
        <ele>305.209394</ele>
        <time>2022-05-12T11:55:52.082Z</time>
      </trkpt>
      <trkpt lat="44.39205" lon="1.17187">
        <ele>305.171118</ele>
        <time>2022-05-12T11:55:54.034Z</time>
      </trkpt>
      <trkpt lat="44.39219" lon="1.1718">
        <ele>305.131656</ele>
        <time>2022-05-12T11:55:56.074Z</time>
      </trkpt>
      <trkpt lat="44.39232" lon="1.17173">
        <ele>305.094416</ele>
        <time>2022-05-12T11:55:58.041Z</time>
      </trkpt>
      <trkpt lat="44.39245" lon="1.17165">
        <ele>305.055711</ele>
        <time>2022-05-12T11:56:00.036Z</time>
      </trkpt>
      <trkpt lat="44.39258" lon="1.17159">
        <ele>305.018793</ele>
        <time>2022-05-12T11:56:02.038Z</time>
      </trkpt>
      <trkpt lat="44.39272" lon="1.17154">
        <ele>304.982698</ele>
        <time>2022-05-12T11:56:04.036Z</time>
      </trkpt>
      <trkpt lat="44.39284" lon="1.17148">
        <ele>304.94711</ele>
        <time>2022-05-12T11:56:06.058Z</time>
      </trkpt>
      <trkpt lat="44.39297" lon="1.17141">
        <ele>304.911523</ele>
        <time>2022-05-12T11:56:08.067Z</time>
      </trkpt>
      <trkpt lat="44.39308" lon="1.17135">
        <ele>304.915498</ele>
        <time>2022-05-12T11:56:10.057Z</time>
      </trkpt>
      <trkpt lat="44.39319" lon="1.17129">
        <ele>304.981901</ele>
        <time>2022-05-12T11:56:12.057Z</time>
      </trkpt>
      <trkpt lat="44.39331" lon="1.1712">
        <ele>305.055975</ele>
        <time>2022-05-12T11:56:14.036Z</time>
      </trkpt>
      <trkpt lat="44.39343" lon="1.17113">
        <ele>305.124293</ele>
        <time>2022-05-12T11:56:16.070Z</time>
      </trkpt>
      <trkpt lat="44.39354" lon="1.17106">
        <ele>305.189299</ele>
        <time>2022-05-12T11:56:18.055Z</time>
      </trkpt>
      <trkpt lat="44.39365" lon="1.171">
        <ele>305.255702</ele>
        <time>2022-05-12T11:56:20.063Z</time>
      </trkpt>
      <trkpt lat="44.39375" lon="1.17095">
        <ele>305.313898</ele>
        <time>2022-05-12T11:56:22.054Z</time>
      </trkpt>
      <trkpt lat="44.39384" lon="1.17088">
        <ele>305.367555</ele>
        <time>2022-05-12T11:56:24.046Z</time>
      </trkpt>
      <trkpt lat="44.39395" lon="1.17082">
        <ele>305.435243</ele>
        <time>2022-05-12T11:56:26.022Z</time>
      </trkpt>
      <trkpt lat="44.39407" lon="1.17076">
        <ele>305.500909</ele>
        <time>2022-05-12T11:56:28.046Z</time>
      </trkpt>
      <trkpt lat="44.39419" lon="1.17071">
        <ele>305.568919</ele>
        <time>2022-05-12T11:56:30.025Z</time>
      </trkpt>
      <trkpt lat="44.3943" lon="1.17065">
        <ele>305.633434</ele>
        <time>2022-05-12T11:56:32.031Z</time>
      </trkpt>
      <trkpt lat="44.39442" lon="1.17059">
        <ele>305.702711</ele>
        <time>2022-05-12T11:56:34.038Z</time>
      </trkpt>
      <trkpt lat="44.39452" lon="1.17053">
        <ele>305.763595</ele>
        <time>2022-05-12T11:56:36.035Z</time>
      </trkpt>
      <trkpt lat="44.39461" lon="1.17046">
        <ele>305.82055</ele>
        <time>2022-05-12T11:56:38.034Z</time>
      </trkpt>
      <trkpt lat="44.39472" lon="1.17038">
        <ele>305.910687</ele>
        <time>2022-05-12T11:56:40.056Z</time>
      </trkpt>
      <trkpt lat="44.39481" lon="1.17034">
        <ele>306.040462</ele>
        <time>2022-05-12T11:56:42.040Z</time>
      </trkpt>
      <trkpt lat="44.3949" lon="1.17029">
        <ele>306.167049</ele>
        <time>2022-05-12T11:56:44.037Z</time>
      </trkpt>
      <trkpt lat="44.39502" lon="1.17027">
        <ele>306.319601</ele>
        <time>2022-05-12T11:56:46.047Z</time>
      </trkpt>
      <trkpt lat="44.3951" lon="1.17022">
        <ele>306.440001</ele>
        <time>2022-05-12T11:56:48.056Z</time>
      </trkpt>
      <trkpt lat="44.3952" lon="1.17017">
        <ele>306.573376</ele>
        <time>2022-05-12T11:56:50.044Z</time>
      </trkpt>
      <trkpt lat="44.39532" lon="1.17009">
        <ele>306.746024</ele>
        <time>2022-05-12T11:56:53.033Z</time>
      </trkpt>
      <trkpt lat="44.39541" lon="1.17003">
        <ele>306.876331</ele>
        <time>2022-05-12T11:56:55.036Z</time>
      </trkpt>
      <trkpt lat="44.39552" lon="1.16995">
        <ele>307.035211</ele>
        <time>2022-05-12T11:56:57.020Z</time>
      </trkpt>
      <trkpt lat="44.39563" lon="1.16989">
        <ele>307.192079</ele>
        <time>2022-05-12T11:57:00.034Z</time>
      </trkpt>
      <trkpt lat="44.39572" lon="1.16986">
        <ele>307.311999</ele>
        <time>2022-05-12T11:57:02.059Z</time>
      </trkpt>
      <trkpt lat="44.39584" lon="1.16978">
        <ele>307.485042</ele>
        <time>2022-05-12T11:57:05.041Z</time>
      </trkpt>
      <trkpt lat="44.39597" lon="1.16974">
        <ele>307.664626</ele>
        <time>2022-05-12T11:57:07.054Z</time>
      </trkpt>
      <trkpt lat="44.39611" lon="1.16968">
        <ele>307.853227</ele>
        <time>2022-05-12T11:57:09.075Z</time>
      </trkpt>
      <trkpt lat="44.39621" lon="1.16966">
        <ele>307.991101</ele>
        <time>2022-05-12T11:57:11.058Z</time>
      </trkpt>
      <trkpt lat="44.39632" lon="1.16964">
        <ele>308.139624</ele>
        <time>2022-05-12T11:57:13.078Z</time>
      </trkpt>
      <trkpt lat="44.39643" lon="1.16963">
        <ele>308.276073</ele>
        <time>2022-05-12T11:57:15.066Z</time>
      </trkpt>
      <trkpt lat="44.39653" lon="1.16964">
        <ele>308.398775</ele>
        <time>2022-05-12T11:57:17.045Z</time>
      </trkpt>
      <trkpt lat="44.39665" lon="1.16964">
        <ele>308.538089</ele>
        <time>2022-05-12T11:57:19.065Z</time>
      </trkpt>
      <trkpt lat="44.39678" lon="1.16963">
        <ele>308.69332</ele>
        <time>2022-05-12T11:57:21.056Z</time>
      </trkpt>
      <trkpt lat="44.39689" lon="1.16963">
        <ele>308.833823</ele>
        <time>2022-05-12T11:57:23.080Z</time>
      </trkpt>
      <trkpt lat="44.397" lon="1.16967">
        <ele>308.970064</ele>
        <time>2022-05-12T11:57:25.060Z</time>
      </trkpt>
      <trkpt lat="44.39711" lon="1.16971">
        <ele>309.11208</ele>
        <time>2022-05-12T11:57:27.060Z</time>
      </trkpt>
      <trkpt lat="44.39723" lon="1.16971">
        <ele>309.253887</ele>
        <time>2022-05-12T11:57:29.068Z</time>
      </trkpt>
      <trkpt lat="44.39734" lon="1.16972">
        <ele>309.381358</ele>
        <time>2022-05-12T11:57:31.071Z</time>
      </trkpt>
      <trkpt lat="44.39744" lon="1.16975">
        <ele>309.504713</ele>
        <time>2022-05-12T11:57:33.072Z</time>
      </trkpt>
      <trkpt lat="44.39756" lon="1.16972">
        <ele>309.65818</ele>
        <time>2022-05-12T11:57:35.071Z</time>
      </trkpt>
      <trkpt lat="44.39769" lon="1.16973">
        <ele>309.809999</ele>
        <time>2022-05-12T11:57:38.111Z</time>
      </trkpt>
      <trkpt lat="44.39781" lon="1.16976">
        <ele>309.964262</ele>
        <time>2022-05-12T11:57:40.065Z</time>
      </trkpt>
      <trkpt lat="44.39792" lon="1.16979">
        <ele>310.099681</ele>
        <time>2022-05-12T11:57:42.071Z</time>
      </trkpt>
      <trkpt lat="44.39804" lon="1.16981">
        <ele>310.248459</ele>
        <time>2022-05-12T11:57:44.088Z</time>
      </trkpt>
      <trkpt lat="44.39817" lon="1.16982">
        <ele>310.406818</ele>
        <time>2022-05-12T11:57:46.037Z</time>
      </trkpt>
      <trkpt lat="44.39826" lon="1.16986">
        <ele>310.561052</ele>
        <time>2022-05-12T11:57:48.060Z</time>
      </trkpt>
      <trkpt lat="44.39837" lon="1.16987">
        <ele>310.749831</ele>
        <time>2022-05-12T11:57:50.094Z</time>
      </trkpt>
      <trkpt lat="44.39849" lon="1.16986">
        <ele>310.950927</ele>
        <time>2022-05-12T11:57:52.072Z</time>
      </trkpt>
      <trkpt lat="44.39858" lon="1.1699">
        <ele>311.104828</ele>
        <time>2022-05-12T11:57:54.047Z</time>
      </trkpt>
      <trkpt lat="44.39869" lon="1.16987">
        <ele>311.282212</ele>
        <time>2022-05-12T11:57:56.090Z</time>
      </trkpt>
      <trkpt lat="44.3988" lon="1.16987">
        <ele>311.46395</ele>
        <time>2022-05-12T11:57:58.069Z</time>
      </trkpt>
      <trkpt lat="44.3989" lon="1.16988">
        <ele>311.637756</ele>
        <time>2022-05-12T11:58:00.077Z</time>
      </trkpt>
      <trkpt lat="44.399" lon="1.1699">
        <ele>311.802124</ele>
        <time>2022-05-12T11:58:02.096Z</time>
      </trkpt>
      <trkpt lat="44.39912" lon="1.16991">
        <ele>312.004655</ele>
        <time>2022-05-12T11:58:04.051Z</time>
      </trkpt>
      <trkpt lat="44.39926" lon="1.16995">
        <ele>312.246157</ele>
        <time>2022-05-12T11:58:07.071Z</time>
      </trkpt>
      <trkpt lat="44.39935" lon="1.16997">
        <ele>312.398668</ele>
        <time>2022-05-12T11:58:09.058Z</time>
      </trkpt>
      <trkpt lat="44.39944" lon="1.17">
        <ele>312.552802</ele>
        <time>2022-05-12T11:58:11.056Z</time>
      </trkpt>
      <trkpt lat="44.39956" lon="1.17008">
        <ele>312.773399</ele>
        <time>2022-05-12T11:58:14.081Z</time>
      </trkpt>
      <trkpt lat="44.39966" lon="1.17008">
        <ele>312.93681</ele>
        <time>2022-05-12T11:58:17.045Z</time>
      </trkpt>
      <trkpt lat="44.39977" lon="1.17015">
        <ele>313.138355</ele>
        <time>2022-05-12T11:58:20.098Z</time>
      </trkpt>
      <trkpt lat="44.39987" lon="1.17008">
        <ele>313.339501</ele>
        <time>2022-05-12T11:58:23.074Z</time>
      </trkpt>
      <trkpt lat="44.39998" lon="1.17006">
        <ele>313.460916</ele>
        <time>2022-05-12T11:58:26.103Z</time>
      </trkpt>
      <trkpt lat="44.40008" lon="1.17004">
        <ele>313.540839</ele>
        <time>2022-05-12T11:58:29.071Z</time>
      </trkpt>
      <trkpt lat="44.4002" lon="1.16995">
        <ele>313.65391</ele>
        <time>2022-05-12T11:58:32.081Z</time>
      </trkpt>
      <trkpt lat="44.40034" lon="1.16986">
        <ele>313.781656</ele>
        <time>2022-05-12T11:58:34.046Z</time>
      </trkpt>
      <trkpt lat="44.40044" lon="1.16978">
        <ele>313.875474</ele>
        <time>2022-05-12T11:58:36.057Z</time>
      </trkpt>
      <trkpt lat="44.40051" lon="1.16969">
        <ele>313.951866</ele>
        <time>2022-05-12T11:58:38.060Z</time>
      </trkpt>
      <trkpt lat="44.4006" lon="1.16958">
        <ele>314.052236</ele>
        <time>2022-05-12T11:58:40.070Z</time>
      </trkpt>
      <trkpt lat="44.40068" lon="1.16949">
        <ele>314.141259</ele>
        <time>2022-05-12T11:58:42.066Z</time>
      </trkpt>
      <trkpt lat="44.40079" lon="1.16939">
        <ele>314.245016</ele>
        <time>2022-05-12T11:58:44.046Z</time>
      </trkpt>
      <trkpt lat="44.40088" lon="1.16932">
        <ele>314.3332</ele>
        <time>2022-05-12T11:58:46.057Z</time>
      </trkpt>
      <trkpt lat="44.40095" lon="1.16922">
        <ele>314.409402</ele>
        <time>2022-05-12T11:58:48.066Z</time>
      </trkpt>
      <trkpt lat="44.40104" lon="1.16915">
        <ele>314.494277</ele>
        <time>2022-05-12T11:58:50.095Z</time>
      </trkpt>
      <trkpt lat="44.40115" lon="1.16905">
        <ele>314.604747</ele>
        <time>2022-05-12T11:58:52.070Z</time>
      </trkpt>
      <trkpt lat="44.40123" lon="1.16896">
        <ele>314.69022</ele>
        <time>2022-05-12T11:58:54.030Z</time>
      </trkpt>
      <trkpt lat="44.40132" lon="1.16886">
        <ele>314.782555</ele>
        <time>2022-05-12T11:58:56.084Z</time>
      </trkpt>
      <trkpt lat="44.40141" lon="1.16876">
        <ele>314.883579</ele>
        <time>2022-05-12T11:58:58.079Z</time>
      </trkpt>
      <trkpt lat="44.4015" lon="1.16865">
        <ele>315.298299</ele>
        <time>2022-05-12T11:59:00.066Z</time>
      </trkpt>
      <trkpt lat="44.40158" lon="1.16856">
        <ele>315.681211</ele>
        <time>2022-05-12T11:59:02.061Z</time>
      </trkpt>
      <trkpt lat="44.40166" lon="1.16846">
        <ele>316.044843</ele>
        <time>2022-05-12T11:59:04.050Z</time>
      </trkpt>
      <trkpt lat="44.40174" lon="1.16832">
        <ele>316.543136</ele>
        <time>2022-05-12T11:59:07.093Z</time>
      </trkpt>
      <trkpt lat="44.40185" lon="1.16819">
        <ele>317.062274</ele>
        <time>2022-05-12T11:59:09.041Z</time>
      </trkpt>
      <trkpt lat="44.40194" lon="1.16806">
        <ele>317.527525</ele>
        <time>2022-05-12T11:59:11.067Z</time>
      </trkpt>
      <trkpt lat="44.40203" lon="1.16792">
        <ele>318.040188</ele>
        <time>2022-05-12T11:59:13.097Z</time>
      </trkpt>
      <trkpt lat="44.40209" lon="1.1678">
        <ele>318.411085</ele>
        <time>2022-05-12T11:59:15.067Z</time>
      </trkpt>
      <trkpt lat="44.40216" lon="1.16769">
        <ele>318.784957</ele>
        <time>2022-05-12T11:59:17.061Z</time>
      </trkpt>
      <trkpt lat="44.40224" lon="1.16756">
        <ele>319.231904</ele>
        <time>2022-05-12T11:59:19.094Z</time>
      </trkpt>
      <trkpt lat="44.4023" lon="1.16746">
        <ele>319.580664</ele>
        <time>2022-05-12T11:59:21.072Z</time>
      </trkpt>
      <trkpt lat="44.40237" lon="1.16734">
        <ele>319.983551</ele>
        <time>2022-05-12T11:59:23.051Z</time>
      </trkpt>
      <trkpt lat="44.40248" lon="1.16721">
        <ele>320.511958</ele>
        <time>2022-05-12T11:59:25.098Z</time>
      </trkpt>
      <trkpt lat="44.40255" lon="1.16711">
        <ele>320.888987</ele>
        <time>2022-05-12T11:59:27.082Z</time>
      </trkpt>
      <trkpt lat="44.40262" lon="1.16695">
        <ele>321.377004</ele>
        <time>2022-05-12T11:59:29.047Z</time>
      </trkpt>
      <trkpt lat="44.40272" lon="1.16682">
        <ele>321.517449</ele>
        <time>2022-05-12T11:59:31.094Z</time>
      </trkpt>
      <trkpt lat="44.40281" lon="1.16669">
        <ele>321.562334</ele>
        <time>2022-05-12T11:59:33.077Z</time>
      </trkpt>
      <trkpt lat="44.40287" lon="1.16658">
        <ele>321.599172</ele>
        <time>2022-05-12T11:59:35.057Z</time>
      </trkpt>
      <trkpt lat="44.40296" lon="1.16645">
        <ele>321.64184</ele>
        <time>2022-05-12T11:59:37.082Z</time>
      </trkpt>
      <trkpt lat="44.40304" lon="1.16631">
        <ele>321.686797</ele>
        <time>2022-05-12T11:59:39.069Z</time>
      </trkpt>
      <trkpt lat="44.40312" lon="1.16619">
        <ele>321.730595</ele>
        <time>2022-05-12T11:59:41.059Z</time>
      </trkpt>
      <trkpt lat="44.4032" lon="1.16602">
        <ele>321.779953</ele>
        <time>2022-05-12T11:59:43.100Z</time>
      </trkpt>
      <trkpt lat="44.40328" lon="1.16588">
        <ele>321.824469</ele>
        <time>2022-05-12T11:59:45.051Z</time>
      </trkpt>
      <trkpt lat="44.40335" lon="1.16576">
        <ele>321.865932</ele>
        <time>2022-05-12T11:59:47.074Z</time>
      </trkpt>
      <trkpt lat="44.40344" lon="1.16561">
        <ele>321.911915</ele>
        <time>2022-05-12T11:59:49.105Z</time>
      </trkpt>
      <trkpt lat="44.40352" lon="1.16548">
        <ele>321.955336</ele>
        <time>2022-05-12T11:59:51.078Z</time>
      </trkpt>
      <trkpt lat="44.40363" lon="1.16533">
        <ele>322.008784</ele>
        <time>2022-05-12T11:59:53.077Z</time>
      </trkpt>
      <trkpt lat="44.4037" lon="1.16519">
        <ele>322.05223</ele>
        <time>2022-05-12T11:59:55.083Z</time>
      </trkpt>
      <trkpt lat="44.40376" lon="1.16506">
        <ele>322.091441</ele>
        <time>2022-05-12T11:59:57.080Z</time>
      </trkpt>
      <trkpt lat="44.40383" lon="1.16492">
        <ele>321.94642</ele>
        <time>2022-05-12T11:59:59.060Z</time>
      </trkpt>
      <trkpt lat="44.4039" lon="1.16478">
        <ele>321.662608</ele>
        <time>2022-05-12T12:00:01.067Z</time>
      </trkpt>
      <trkpt lat="44.40397" lon="1.16464">
        <ele>321.353397</ele>
        <time>2022-05-12T12:00:03.071Z</time>
      </trkpt>
      <trkpt lat="44.40405" lon="1.16455">
        <ele>321.103454</ele>
        <time>2022-05-12T12:00:04.040Z</time>
      </trkpt>
      <trkpt lat="44.40413" lon="1.16439">
        <ele>320.758812</ele>
        <time>2022-05-12T12:00:06.103Z</time>
      </trkpt>
      <trkpt lat="44.40419" lon="1.16428">
        <ele>320.52251</ele>
        <time>2022-05-12T12:00:07.063Z</time>
      </trkpt>
      <trkpt lat="44.40431" lon="1.16414">
        <ele>320.153329</ele>
        <time>2022-05-12T12:00:09.071Z</time>
      </trkpt>
      <trkpt lat="44.4044" lon="1.16398">
        <ele>319.799004</ele>
        <time>2022-05-12T12:00:11.064Z</time>
      </trkpt>
      <trkpt lat="44.40448" lon="1.16383">
        <ele>319.47427</ele>
        <time>2022-05-12T12:00:13.039Z</time>
      </trkpt>
      <trkpt lat="44.40455" lon="1.16369">
        <ele>319.166395</ele>
        <time>2022-05-12T12:00:15.072Z</time>
      </trkpt>
      <trkpt lat="44.40464" lon="1.1635">
        <ele>318.776395</ele>
        <time>2022-05-12T12:00:17.056Z</time>
      </trkpt>
      <trkpt lat="44.40469" lon="1.16331">
        <ele>318.418554</ele>
        <time>2022-05-12T12:00:19.047Z</time>
      </trkpt>
      <trkpt lat="44.40476" lon="1.16312">
        <ele>318.038235</ele>
        <time>2022-05-12T12:00:21.056Z</time>
      </trkpt>
      <trkpt lat="44.40484" lon="1.16295">
        <ele>317.7037</ele>
        <time>2022-05-12T12:00:23.076Z</time>
      </trkpt>
      <trkpt lat="44.40493" lon="1.16275">
        <ele>317.463123</ele>
        <time>2022-05-12T12:00:25.032Z</time>
      </trkpt>
      <trkpt lat="44.40499" lon="1.16265">
        <ele>317.330856</ele>
        <time>2022-05-12T12:00:26.059Z</time>
      </trkpt>
      <trkpt lat="44.40507" lon="1.16246">
        <ele>317.109926</ele>
        <time>2022-05-12T12:00:28.054Z</time>
      </trkpt>
      <trkpt lat="44.40513" lon="1.16227">
        <ele>316.898636</ele>
        <time>2022-05-12T12:00:30.098Z</time>
      </trkpt>
      <trkpt lat="44.40521" lon="1.16209">
        <ele>316.679567</ele>
        <time>2022-05-12T12:00:32.066Z</time>
      </trkpt>
      <trkpt lat="44.40529" lon="1.16189">
        <ele>316.451422</ele>
        <time>2022-05-12T12:00:34.037Z</time>
      </trkpt>
      <trkpt lat="44.40537" lon="1.16171">
        <ele>316.238252</ele>
        <time>2022-05-12T12:00:36.093Z</time>
      </trkpt>
      <trkpt lat="44.40545" lon="1.16152">
        <ele>316.018708</ele>
        <time>2022-05-12T12:00:38.078Z</time>
      </trkpt>
      <trkpt lat="44.40552" lon="1.16134">
        <ele>315.81078</ele>
        <time>2022-05-12T12:00:40.036Z</time>
      </trkpt>
      <trkpt lat="44.4056" lon="1.16118">
        <ele>315.606822</ele>
        <time>2022-05-12T12:00:42.092Z</time>
      </trkpt>
      <trkpt lat="44.40572" lon="1.16103">
        <ele>315.382199</ele>
        <time>2022-05-12T12:00:44.034Z</time>
      </trkpt>
      <trkpt lat="44.40583" lon="1.16092">
        <ele>315.191964</ele>
        <time>2022-05-12T12:00:46.066Z</time>
      </trkpt>
      <trkpt lat="44.40596" lon="1.16083">
        <ele>314.836266</ele>
        <time>2022-05-12T12:00:48.111Z</time>
      </trkpt>
      <trkpt lat="44.40612" lon="1.16075">
        <ele>314.435008</ele>
        <time>2022-05-12T12:00:50.048Z</time>
      </trkpt>
      <trkpt lat="44.40627" lon="1.16068">
        <ele>314.027432</ele>
        <time>2022-05-12T12:00:52.070Z</time>
      </trkpt>
      <trkpt lat="44.40644" lon="1.16062">
        <ele>313.599907</ele>
        <time>2022-05-12T12:00:54.086Z</time>
      </trkpt>
      <trkpt lat="44.40659" lon="1.16058">
        <ele>313.240641</ele>
        <time>2022-05-12T12:00:56.054Z</time>
      </trkpt>
      <trkpt lat="44.40672" lon="1.16053">
        <ele>312.89675</ele>
        <time>2022-05-12T12:00:58.061Z</time>
      </trkpt>
      <trkpt lat="44.40681" lon="1.16047">
        <ele>312.667048</ele>
        <time>2022-05-12T12:00:59.056Z</time>
      </trkpt>
      <trkpt lat="44.40694" lon="1.1604">
        <ele>312.313082</ele>
        <time>2022-05-12T12:01:01.052Z</time>
      </trkpt>
      <trkpt lat="44.40707" lon="1.16038">
        <ele>311.982739</ele>
        <time>2022-05-12T12:01:03.071Z</time>
      </trkpt>
      <trkpt lat="44.40716" lon="1.1603">
        <ele>311.719793</ele>
        <time>2022-05-12T12:01:04.032Z</time>
      </trkpt>
      <trkpt lat="44.40727" lon="1.16017">
        <ele>311.367869</ele>
        <time>2022-05-12T12:01:06.104Z</time>
      </trkpt>
      <trkpt lat="44.40739" lon="1.16003">
        <ele>310.976346</ele>
        <time>2022-05-12T12:01:08.066Z</time>
      </trkpt>
      <trkpt lat="44.4075" lon="1.15992">
        <ele>311.015665</ele>
        <time>2022-05-12T12:01:10.061Z</time>
      </trkpt>
      <trkpt lat="44.4076" lon="1.1598">
        <ele>311.826795</ele>
        <time>2022-05-12T12:01:12.082Z</time>
      </trkpt>
      <trkpt lat="44.40771" lon="1.1597">
        <ele>312.65828</ele>
        <time>2022-05-12T12:01:14.039Z</time>
      </trkpt>
      <trkpt lat="44.40781" lon="1.15959">
        <ele>313.498531</ele>
        <time>2022-05-12T12:01:16.058Z</time>
      </trkpt>
      <trkpt lat="44.40787" lon="1.15948">
        <ele>314.127274</ele>
        <time>2022-05-12T12:01:18.104Z</time>
      </trkpt>
      <trkpt lat="44.40794" lon="1.15939">
        <ele>314.740815</ele>
        <time>2022-05-12T12:01:20.051Z</time>
      </trkpt>
      <trkpt lat="44.40802" lon="1.1593">
        <ele>315.421201</ele>
        <time>2022-05-12T12:01:22.042Z</time>
      </trkpt>
      <trkpt lat="44.40812" lon="1.1592">
        <ele>316.196714</ele>
        <time>2022-05-12T12:01:25.055Z</time>
      </trkpt>
      <trkpt lat="44.40822" lon="1.1591">
        <ele>317.003682</ele>
        <time>2022-05-12T12:01:27.064Z</time>
      </trkpt>
      <trkpt lat="44.40832" lon="1.15902">
        <ele>317.709496</ele>
        <time>2022-05-12T12:01:30.111Z</time>
      </trkpt>
      <trkpt lat="44.4084" lon="1.15894">
        <ele>318.392564</ele>
        <time>2022-05-12T12:01:32.064Z</time>
      </trkpt>
      <trkpt lat="44.4085" lon="1.15886">
        <ele>319.095263</ele>
        <time>2022-05-12T12:01:34.037Z</time>
      </trkpt>
      <trkpt lat="44.40858" lon="1.15878">
        <ele>319.762543</ele>
        <time>2022-05-12T12:01:36.103Z</time>
      </trkpt>
      <trkpt lat="44.40866" lon="1.15866">
        <ele>320.492947</ele>
        <time>2022-05-12T12:01:38.065Z</time>
      </trkpt>
      <trkpt lat="44.40876" lon="1.15853">
        <ele>321.367033</ele>
        <time>2022-05-12T12:01:40.029Z</time>
      </trkpt>
      <trkpt lat="44.40885" lon="1.15841">
        <ele>322.200381</ele>
        <time>2022-05-12T12:01:42.102Z</time>
      </trkpt>
      <trkpt lat="44.40895" lon="1.15831">
        <ele>322.392144</ele>
        <time>2022-05-12T12:01:44.044Z</time>
      </trkpt>
      <trkpt lat="44.40903" lon="1.1582">
        <ele>322.4671</ele>
        <time>2022-05-12T12:01:46.072Z</time>
      </trkpt>
      <trkpt lat="44.40914" lon="1.15809">
        <ele>322.557102</ele>
        <time>2022-05-12T12:01:49.051Z</time>
      </trkpt>
      <trkpt lat="44.40921" lon="1.158">
        <ele>322.622313</ele>
        <time>2022-05-12T12:01:51.067Z</time>
      </trkpt>
      <trkpt lat="44.4093" lon="1.15791">
        <ele>322.693503</ele>
        <time>2022-05-12T12:01:53.061Z</time>
      </trkpt>
      <trkpt lat="44.40943" lon="1.1578">
        <ele>322.795534</ele>
        <time>2022-05-12T12:01:55.082Z</time>
      </trkpt>
      <trkpt lat="44.40955" lon="1.1577">
        <ele>322.889792</ele>
        <time>2022-05-12T12:01:57.060Z</time>
      </trkpt>
      <trkpt lat="44.40966" lon="1.15759">
        <ele>322.979599</ele>
        <time>2022-05-12T12:01:59.054Z</time>
      </trkpt>
      <trkpt lat="44.40978" lon="1.15746">
        <ele>323.081462</ele>
        <time>2022-05-12T12:02:01.060Z</time>
      </trkpt>
      <trkpt lat="44.40986" lon="1.15737">
        <ele>323.149468</ele>
        <time>2022-05-12T12:02:03.042Z</time>
      </trkpt>
      <trkpt lat="44.40998" lon="1.15724">
        <ele>323.247558</ele>
        <time>2022-05-12T12:02:05.052Z</time>
      </trkpt>
      <trkpt lat="44.41005" lon="1.15716">
        <ele>323.310641</ele>
        <time>2022-05-12T12:02:06.114Z</time>
      </trkpt>
      <trkpt lat="44.41014" lon="1.15701">
        <ele>323.405277</ele>
        <time>2022-05-12T12:02:08.065Z</time>
      </trkpt>
      <trkpt lat="44.41017" lon="1.15683">
        <ele>323.495393</ele>
        <time>2022-05-12T12:02:10.062Z</time>
      </trkpt>
      <trkpt lat="44.41017" lon="1.15659">
        <ele>322.901698</ele>
        <time>2022-05-12T12:02:12.103Z</time>
      </trkpt>
      <trkpt lat="44.41015" lon="1.15641">
        <ele>322.213592</ele>
        <time>2022-05-12T12:02:14.057Z</time>
      </trkpt>
      <trkpt lat="44.40994" lon="1.15643">
        <ele>321.108496</ele>
        <time>2022-05-12T12:02:15.057Z</time>
      </trkpt>
      <trkpt lat="44.40987" lon="1.15634">
        <ele>320.624492</ele>
        <time>2022-05-12T12:02:16.044Z</time>
      </trkpt>
      <trkpt lat="44.40981" lon="1.15624">
        <ele>320.08978</ele>
        <time>2022-05-12T12:02:17.070Z</time>
      </trkpt>
      <trkpt lat="44.40972" lon="1.15621">
        <ele>319.60443</ele>
        <time>2022-05-12T12:02:18.103Z</time>
      </trkpt>
      <trkpt lat="44.40961" lon="1.15624">
        <ele>319.024328</ele>
        <time>2022-05-12T12:02:19.066Z</time>
      </trkpt>
      <trkpt lat="44.40951" lon="1.15621">
        <ele>318.486841</ele>
        <time>2022-05-12T12:02:20.053Z</time>
      </trkpt>
      <trkpt lat="44.40941" lon="1.15624">
        <ele>317.939073</ele>
        <time>2022-05-12T12:02:21.061Z</time>
      </trkpt>
      <trkpt lat="44.40932" lon="1.15629">
        <ele>317.451477</ele>
        <time>2022-05-12T12:02:22.055Z</time>
      </trkpt>
      <trkpt lat="44.40914" lon="1.15635">
        <ele>316.469089</ele>
        <time>2022-05-12T12:02:24.088Z</time>
      </trkpt>
      <trkpt lat="44.40901" lon="1.15645">
        <ele>315.699509</ele>
        <time>2022-05-12T12:02:26.063Z</time>
      </trkpt>
      <trkpt lat="44.40893" lon="1.15649">
        <ele>315.203391</ele>
        <time>2022-05-12T12:02:27.067Z</time>
      </trkpt>
      <trkpt lat="44.40876" lon="1.1565">
        <ele>314.320019</ele>
        <time>2022-05-12T12:02:29.050Z</time>
      </trkpt>
      <trkpt lat="44.40877" lon="1.15629">
        <ele>313.618812</ele>
        <time>2022-05-12T12:02:31.040Z</time>
      </trkpt>
      <trkpt lat="44.40877" lon="1.15604">
        <ele>312.835767</ele>
        <time>2022-05-12T12:02:33.060Z</time>
      </trkpt>
      <trkpt lat="44.40881" lon="1.15589">
        <ele>312.346841</ele>
        <time>2022-05-12T12:02:34.040Z</time>
      </trkpt>
      <trkpt lat="44.40885" lon="1.15563">
        <ele>311.543266</ele>
        <time>2022-05-12T12:02:36.080Z</time>
      </trkpt>
      <trkpt lat="44.40889" lon="1.15548">
        <ele>311.026715</ele>
        <time>2022-05-12T12:02:37.074Z</time>
      </trkpt>
      <trkpt lat="44.40893" lon="1.15534">
        <ele>310.570687</ele>
        <time>2022-05-12T12:02:38.074Z</time>
      </trkpt>
      <trkpt lat="44.40903" lon="1.15524">
        <ele>310.054127</ele>
        <time>2022-05-12T12:02:39.076Z</time>
      </trkpt>
      <trkpt lat="44.40909" lon="1.15508">
        <ele>309.492588</ele>
        <time>2022-05-12T12:02:40.072Z</time>
      </trkpt>
      <trkpt lat="44.40915" lon="1.15493">
        <ele>308.958409</ele>
        <time>2022-05-12T12:02:41.070Z</time>
      </trkpt>
      <trkpt lat="44.4092" lon="1.1548">
        <ele>308.517898</ele>
        <time>2022-05-12T12:02:42.072Z</time>
      </trkpt>
      <trkpt lat="44.40924" lon="1.15468">
        <ele>308.098912</ele>
        <time>2022-05-12T12:02:43.058Z</time>
      </trkpt>
      <trkpt lat="44.40929" lon="1.15455">
        <ele>307.646219</ele>
        <time>2022-05-12T12:02:44.039Z</time>
      </trkpt>
      <trkpt lat="44.40924" lon="1.15436">
        <ele>307.015386</ele>
        <time>2022-05-12T12:02:45.043Z</time>
      </trkpt>
      <trkpt lat="44.40927" lon="1.15422">
        <ele>306.568773</ele>
        <time>2022-05-12T12:02:46.049Z</time>
      </trkpt>
      <trkpt lat="44.4093" lon="1.15407">
        <ele>306.138538</ele>
        <time>2022-05-12T12:02:47.091Z</time>
      </trkpt>
      <trkpt lat="44.40933" lon="1.15391">
        <ele>305.719729</ele>
        <time>2022-05-12T12:02:48.045Z</time>
      </trkpt>
      <trkpt lat="44.40938" lon="1.15376">
        <ele>305.303185</ele>
        <time>2022-05-12T12:02:49.056Z</time>
      </trkpt>
      <trkpt lat="44.40945" lon="1.15363">
        <ele>304.902024</ele>
        <time>2022-05-12T12:02:50.056Z</time>
      </trkpt>
      <trkpt lat="44.40951" lon="1.15347">
        <ele>304.438751</ele>
        <time>2022-05-12T12:02:51.063Z</time>
      </trkpt>
      <trkpt lat="44.40965" lon="1.1534">
        <ele>303.933678</ele>
        <time>2022-05-12T12:02:52.043Z</time>
      </trkpt>
      <trkpt lat="44.40976" lon="1.15325">
        <ele>303.390659</ele>
        <time>2022-05-12T12:02:53.109Z</time>
      </trkpt>
      <trkpt lat="44.40988" lon="1.15314">
        <ele>302.884986</ele>
        <time>2022-05-12T12:02:54.034Z</time>
      </trkpt>
      <trkpt lat="44.40997" lon="1.15303">
        <ele>302.46168</ele>
        <time>2022-05-12T12:02:55.066Z</time>
      </trkpt>
      <trkpt lat="44.41008" lon="1.15292">
        <ele>302.015317</ele>
        <time>2022-05-12T12:02:56.049Z</time>
      </trkpt>
      <trkpt lat="44.4102" lon="1.15286">
        <ele>301.556491</ele>
        <time>2022-05-12T12:02:57.069Z</time>
      </trkpt>
      <trkpt lat="44.4103" lon="1.1527">
        <ele>301.030549</ele>
        <time>2022-05-12T12:02:58.048Z</time>
      </trkpt>
      <trkpt lat="44.4104" lon="1.15258">
        <ele>300.549715</ele>
        <time>2022-05-12T12:02:59.108Z</time>
      </trkpt>
      <trkpt lat="44.4105" lon="1.15243">
        <ele>300.058041</ele>
        <time>2022-05-12T12:03:00.055Z</time>
      </trkpt>
      <trkpt lat="44.41063" lon="1.15236">
        <ele>299.585373</ele>
        <time>2022-05-12T12:03:01.064Z</time>
      </trkpt>
      <trkpt lat="44.41075" lon="1.15224">
        <ele>299.131035</ele>
        <time>2022-05-12T12:03:02.058Z</time>
      </trkpt>
      <trkpt lat="44.4109" lon="1.15218">
        <ele>298.620952</ele>
        <time>2022-05-12T12:03:03.063Z</time>
      </trkpt>
      <trkpt lat="44.41094" lon="1.15199">
        <ele>298.159085</ele>
        <time>2022-05-12T12:03:04.047Z</time>
      </trkpt>
      <trkpt lat="44.41102" lon="1.15185">
        <ele>297.733395</ele>
        <time>2022-05-12T12:03:05.088Z</time>
      </trkpt>
      <trkpt lat="44.41113" lon="1.15171">
        <ele>297.27753</ele>
        <time>2022-05-12T12:03:06.056Z</time>
      </trkpt>
      <trkpt lat="44.41124" lon="1.15158">
        <ele>296.806954</ele>
        <time>2022-05-12T12:03:07.058Z</time>
      </trkpt>
      <trkpt lat="44.41133" lon="1.15146">
        <ele>296.394139</ele>
        <time>2022-05-12T12:03:08.049Z</time>
      </trkpt>
      <trkpt lat="44.41142" lon="1.15132">
        <ele>295.978831</ele>
        <time>2022-05-12T12:03:09.056Z</time>
      </trkpt>
      <trkpt lat="44.41152" lon="1.15115">
        <ele>295.47548</ele>
        <time>2022-05-12T12:03:10.077Z</time>
      </trkpt>
      <trkpt lat="44.41163" lon="1.15099">
        <ele>294.95297</ele>
        <time>2022-05-12T12:03:11.038Z</time>
      </trkpt>
      <trkpt lat="44.41173" lon="1.15086">
        <ele>294.513339</ele>
        <time>2022-05-12T12:03:12.055Z</time>
      </trkpt>
      <trkpt lat="44.41189" lon="1.15078">
        <ele>293.171927</ele>
        <time>2022-05-12T12:03:13.074Z</time>
      </trkpt>
      <trkpt lat="44.41207" lon="1.15071">
        <ele>290.392648</ele>
        <time>2022-05-12T12:03:14.052Z</time>
      </trkpt>
      <trkpt lat="44.41222" lon="1.15061">
        <ele>288.030474</ele>
        <time>2022-05-12T12:03:15.054Z</time>
      </trkpt>
      <trkpt lat="44.41235" lon="1.15046">
        <ele>285.479654</ele>
        <time>2022-05-12T12:03:16.113Z</time>
      </trkpt>
      <trkpt lat="44.41253" lon="1.15038">
        <ele>282.771065</ele>
        <time>2022-05-12T12:03:17.051Z</time>
      </trkpt>
      <trkpt lat="44.41267" lon="1.15033">
        <ele>280.581488</ele>
        <time>2022-05-12T12:03:18.084Z</time>
      </trkpt>
      <trkpt lat="44.4128" lon="1.15022">
        <ele>278.410387</ele>
        <time>2022-05-12T12:03:19.058Z</time>
      </trkpt>
      <trkpt lat="44.41296" lon="1.15018">
        <ele>275.999788</ele>
        <time>2022-05-12T12:03:20.056Z</time>
      </trkpt>
      <trkpt lat="44.41309" lon="1.15009">
        <ele>273.948387</ele>
        <time>2022-05-12T12:03:21.075Z</time>
      </trkpt>
      <trkpt lat="44.41322" lon="1.15001">
        <ele>271.810129</ele>
        <time>2022-05-12T12:03:22.105Z</time>
      </trkpt>
      <trkpt lat="44.41335" lon="1.14994">
        <ele>269.766951</ele>
        <time>2022-05-12T12:03:23.060Z</time>
      </trkpt>
      <trkpt lat="44.41349" lon="1.14989">
        <ele>267.595481</ele>
        <time>2022-05-12T12:03:24.029Z</time>
      </trkpt>
      <trkpt lat="44.41361" lon="1.14992">
        <ele>266.078923</ele>
        <time>2022-05-12T12:03:25.088Z</time>
      </trkpt>
      <trkpt lat="44.41376" lon="1.14994">
        <ele>264.241959</ele>
        <time>2022-05-12T12:03:26.092Z</time>
      </trkpt>
      <trkpt lat="44.4139" lon="1.14991">
        <ele>262.427625</ele>
        <time>2022-05-12T12:03:27.063Z</time>
      </trkpt>
      <trkpt lat="44.41403" lon="1.14993">
        <ele>260.685985</ele>
        <time>2022-05-12T12:03:28.085Z</time>
      </trkpt>
      <trkpt lat="44.41417" lon="1.14998">
        <ele>258.947422</ele>
        <time>2022-05-12T12:03:29.075Z</time>
      </trkpt>
      <trkpt lat="44.41429" lon="1.15">
        <ele>257.37108</ele>
        <time>2022-05-12T12:03:30.044Z</time>
      </trkpt>
      <trkpt lat="44.41442" lon="1.15">
        <ele>255.730003</ele>
        <time>2022-05-12T12:03:31.056Z</time>
      </trkpt>
      <trkpt lat="44.41451" lon="1.14999">
        <ele>254.543416</ele>
        <time>2022-05-12T12:03:32.047Z</time>
      </trkpt>
      <trkpt lat="44.41463" lon="1.14997">
        <ele>253.074919</ele>
        <time>2022-05-12T12:03:33.072Z</time>
      </trkpt>
      <trkpt lat="44.41472" lon="1.14998">
        <ele>251.865827</ele>
        <time>2022-05-12T12:03:34.083Z</time>
      </trkpt>
      <trkpt lat="44.41484" lon="1.14994">
        <ele>250.318918</ele>
        <time>2022-05-12T12:03:35.050Z</time>
      </trkpt>
      <trkpt lat="44.41494" lon="1.14994">
        <ele>249.045953</ele>
        <time>2022-05-12T12:03:36.065Z</time>
      </trkpt>
      <trkpt lat="44.41507" lon="1.14985">
        <ele>247.246466</ele>
        <time>2022-05-12T12:03:37.076Z</time>
      </trkpt>
      <trkpt lat="44.41522" lon="1.14981">
        <ele>245.230514</ele>
        <time>2022-05-12T12:03:38.042Z</time>
      </trkpt>
      <trkpt lat="44.41537" lon="1.14978">
        <ele>243.938244</ele>
        <time>2022-05-12T12:03:39.081Z</time>
      </trkpt>
      <trkpt lat="44.41551" lon="1.14969">
        <ele>242.669277</ele>
        <time>2022-05-12T12:03:40.086Z</time>
      </trkpt>
      <trkpt lat="44.41563" lon="1.14962">
        <ele>241.652582</ele>
        <time>2022-05-12T12:03:41.048Z</time>
      </trkpt>
      <trkpt lat="44.41577" lon="1.14955">
        <ele>240.50511</ele>
        <time>2022-05-12T12:03:42.075Z</time>
      </trkpt>
      <trkpt lat="44.41589" lon="1.14946">
        <ele>239.390371</ele>
        <time>2022-05-12T12:03:43.080Z</time>
      </trkpt>
      <trkpt lat="44.41602" lon="1.1494">
        <ele>238.368045</ele>
        <time>2022-05-12T12:03:44.038Z</time>
      </trkpt>
      <trkpt lat="44.41614" lon="1.14935">
        <ele>237.332107</ele>
        <time>2022-05-12T12:03:45.060Z</time>
      </trkpt>
      <trkpt lat="44.41626" lon="1.14931">
        <ele>236.347025</ele>
        <time>2022-05-12T12:03:46.080Z</time>
      </trkpt>
      <trkpt lat="44.4164" lon="1.14926">
        <ele>235.238226</ele>
        <time>2022-05-12T12:03:47.060Z</time>
      </trkpt>
      <trkpt lat="44.41652" lon="1.14922">
        <ele>234.258692</ele>
        <time>2022-05-12T12:03:48.052Z</time>
      </trkpt>
      <trkpt lat="44.41662" lon="1.14915">
        <ele>233.368201</ele>
        <time>2022-05-12T12:03:49.065Z</time>
      </trkpt>
      <trkpt lat="44.4167" lon="1.14908">
        <ele>232.633813</ele>
        <time>2022-05-12T12:03:50.070Z</time>
      </trkpt>
      <trkpt lat="44.41679" lon="1.14892">
        <ele>231.463992</ele>
        <time>2022-05-12T12:03:51.062Z</time>
      </trkpt>
      <trkpt lat="44.4169" lon="1.14878">
        <ele>230.228457</ele>
        <time>2022-05-12T12:03:52.044Z</time>
      </trkpt>
      <trkpt lat="44.41696" lon="1.14867">
        <ele>229.274026</ele>
        <time>2022-05-12T12:03:53.076Z</time>
      </trkpt>
      <trkpt lat="44.41704" lon="1.14854">
        <ele>228.167581</ele>
        <time>2022-05-12T12:03:54.053Z</time>
      </trkpt>
      <trkpt lat="44.41711" lon="1.14843">
        <ele>227.198192</ele>
        <time>2022-05-12T12:03:55.053Z</time>
      </trkpt>
      <trkpt lat="44.41719" lon="1.14833">
        <ele>226.226149</ele>
        <time>2022-05-12T12:03:56.034Z</time>
      </trkpt>
      <trkpt lat="44.41727" lon="1.14821">
        <ele>225.098874</ele>
        <time>2022-05-12T12:03:57.097Z</time>
      </trkpt>
      <trkpt lat="44.41736" lon="1.1481">
        <ele>224.005481</ele>
        <time>2022-05-12T12:03:58.056Z</time>
      </trkpt>
      <trkpt lat="44.41744" lon="1.14797">
        <ele>222.897363</ele>
        <time>2022-05-12T12:03:59.073Z</time>
      </trkpt>
      <trkpt lat="44.41755" lon="1.14784">
        <ele>221.547223</ele>
        <time>2022-05-12T12:04:00.071Z</time>
      </trkpt>
      <trkpt lat="44.41762" lon="1.14772">
        <ele>220.512415</ele>
        <time>2022-05-12T12:04:01.068Z</time>
      </trkpt>
      <trkpt lat="44.41771" lon="1.1476">
        <ele>219.366186</ele>
        <time>2022-05-12T12:04:02.066Z</time>
      </trkpt>
      <trkpt lat="44.4178" lon="1.14747">
        <ele>218.139292</ele>
        <time>2022-05-12T12:04:03.116Z</time>
      </trkpt>
      <trkpt lat="44.41787" lon="1.14735">
        <ele>217.12437</ele>
        <time>2022-05-12T12:04:04.042Z</time>
      </trkpt>
      <trkpt lat="44.41795" lon="1.14723">
        <ele>216.086632</ele>
        <time>2022-05-12T12:04:05.061Z</time>
      </trkpt>
      <trkpt lat="44.41802" lon="1.14711">
        <ele>215.060723</ele>
        <time>2022-05-12T12:04:06.046Z</time>
      </trkpt>
      <trkpt lat="44.41809" lon="1.14701">
        <ele>214.052993</ele>
        <time>2022-05-12T12:04:07.078Z</time>
      </trkpt>
      <trkpt lat="44.41818" lon="1.14692">
        <ele>213.564371</ele>
        <time>2022-05-12T12:04:08.064Z</time>
      </trkpt>
      <trkpt lat="44.41828" lon="1.14684">
        <ele>213.085199</ele>
        <time>2022-05-12T12:04:09.084Z</time>
      </trkpt>
      <trkpt lat="44.4184" lon="1.14678">
        <ele>212.548782</ele>
        <time>2022-05-12T12:04:10.058Z</time>
      </trkpt>
      <trkpt lat="44.4185" lon="1.14673">
        <ele>212.111397</ele>
        <time>2022-05-12T12:04:11.067Z</time>
      </trkpt>
      <trkpt lat="44.41861" lon="1.1467">
        <ele>211.657754</ele>
        <time>2022-05-12T12:04:12.069Z</time>
      </trkpt>
      <trkpt lat="44.41874" lon="1.14667">
        <ele>211.10979</ele>
        <time>2022-05-12T12:04:13.073Z</time>
      </trkpt>
      <trkpt lat="44.41888" lon="1.1467">
        <ele>210.535945</ele>
        <time>2022-05-12T12:04:14.043Z</time>
      </trkpt>
      <trkpt lat="44.41894" lon="1.14687">
        <ele>209.975946</ele>
        <time>2022-05-12T12:04:15.098Z</time>
      </trkpt>
      <trkpt lat="44.41903" lon="1.14688">
        <ele>209.594794</ele>
        <time>2022-05-12T12:04:16.047Z</time>
      </trkpt>
      <trkpt lat="44.41914" lon="1.14688">
        <ele>209.135809</ele>
        <time>2022-05-12T12:04:17.068Z</time>
      </trkpt>
      <trkpt lat="44.41929" lon="1.14694">
        <ele>208.504289</ele>
        <time>2022-05-12T12:04:19.067Z</time>
      </trkpt>
      <trkpt lat="44.41942" lon="1.14698">
        <ele>207.924998</ele>
        <time>2022-05-12T12:04:21.067Z</time>
      </trkpt>
      <trkpt lat="44.4195" lon="1.14707">
        <ele>207.507559</ele>
        <time>2022-05-12T12:04:22.071Z</time>
      </trkpt>
      <trkpt lat="44.41962" lon="1.14711">
        <ele>206.989108</ele>
        <time>2022-05-12T12:04:24.045Z</time>
      </trkpt>
      <trkpt lat="44.41975" lon="1.14717">
        <ele>206.518248</ele>
        <time>2022-05-12T12:04:26.115Z</time>
      </trkpt>
      <trkpt lat="44.41986" lon="1.14728">
        <ele>206.489375</ele>
        <time>2022-05-12T12:04:28.058Z</time>
      </trkpt>
      <trkpt lat="44.42" lon="1.14739">
        <ele>206.453824</ele>
        <time>2022-05-12T12:04:31.073Z</time>
      </trkpt>
      <trkpt lat="44.42015" lon="1.14737">
        <ele>206.420997</ele>
        <time>2022-05-12T12:04:33.035Z</time>
      </trkpt>
      <trkpt lat="44.4203" lon="1.14741">
        <ele>206.389852</ele>
        <time>2022-05-12T12:04:35.064Z</time>
      </trkpt>
      <trkpt lat="44.42031" lon="1.14764">
        <ele>206.354404</ele>
        <time>2022-05-12T12:04:36.050Z</time>
      </trkpt>
      <trkpt lat="44.42047" lon="1.14754">
        <ele>206.318015</ele>
        <time>2022-05-12T12:04:38.072Z</time>
      </trkpt>
      <trkpt lat="44.42055" lon="1.14747">
        <ele>206.297888</ele>
        <time>2022-05-12T12:04:39.063Z</time>
      </trkpt>
      <trkpt lat="44.42068" lon="1.14747">
        <ele>206.270311</ele>
        <time>2022-05-12T12:04:41.066Z</time>
      </trkpt>
      <trkpt lat="44.42078" lon="1.14744">
        <ele>206.24653</ele>
        <time>2022-05-12T12:04:42.068Z</time>
      </trkpt>
      <trkpt lat="44.42087" lon="1.14738">
        <ele>206.226597</ele>
        <time>2022-05-12T12:04:43.122Z</time>
      </trkpt>
      <trkpt lat="44.42107" lon="1.14737">
        <ele>206.182412</ele>
        <time>2022-05-12T12:04:45.071Z</time>
      </trkpt>
      <trkpt lat="44.42117" lon="1.1474">
        <ele>206.161318</ele>
        <time>2022-05-12T12:04:46.068Z</time>
      </trkpt>
      <trkpt lat="44.4213" lon="1.14737">
        <ele>206.117934</ele>
        <time>2022-05-12T12:04:47.064Z</time>
      </trkpt>
      <trkpt lat="44.42143" lon="1.14742">
        <ele>205.818277</ele>
        <time>2022-05-12T12:04:49.113Z</time>
      </trkpt>
      <trkpt lat="44.42153" lon="1.14741">
        <ele>205.616912</ele>
        <time>2022-05-12T12:04:50.068Z</time>
      </trkpt>
      <trkpt lat="44.42167" lon="1.14741">
        <ele>205.300257</ele>
        <time>2022-05-12T12:04:52.064Z</time>
      </trkpt>
      <trkpt lat="44.42184" lon="1.14735">
        <ele>204.935968</ele>
        <time>2022-05-12T12:04:54.041Z</time>
      </trkpt>
      <trkpt lat="44.42195" lon="1.14727">
        <ele>204.666815</ele>
        <time>2022-05-12T12:04:56.053Z</time>
      </trkpt>
      <trkpt lat="44.42205" lon="1.14713">
        <ele>204.360197</ele>
        <time>2022-05-12T12:04:58.051Z</time>
      </trkpt>
      <trkpt lat="44.42216" lon="1.14698">
        <ele>204.03738</ele>
        <time>2022-05-12T12:05:00.063Z</time>
      </trkpt>
      <trkpt lat="44.42225" lon="1.14683">
        <ele>203.741325</ele>
        <time>2022-05-12T12:05:02.046Z</time>
      </trkpt>
      <trkpt lat="44.42233" lon="1.14666">
        <ele>203.431644</ele>
        <time>2022-05-12T12:05:04.049Z</time>
      </trkpt>
      <trkpt lat="44.42242" lon="1.14651">
        <ele>203.125408</ele>
        <time>2022-05-12T12:05:06.075Z</time>
      </trkpt>
      <trkpt lat="44.42251" lon="1.14632">
        <ele>202.773541</ele>
        <time>2022-05-12T12:05:08.055Z</time>
      </trkpt>
      <trkpt lat="44.42259" lon="1.14614">
        <ele>202.452984</ele>
        <time>2022-05-12T12:05:10.072Z</time>
      </trkpt>
      <trkpt lat="44.42264" lon="1.14597">
        <ele>202.204176</ele>
        <time>2022-05-12T12:05:12.054Z</time>
      </trkpt>
      <trkpt lat="44.42269" lon="1.14578">
        <ele>201.950693</ele>
        <time>2022-05-12T12:05:14.041Z</time>
      </trkpt>
      <trkpt lat="44.42275" lon="1.14558">
        <ele>201.695964</ele>
        <time>2022-05-12T12:05:16.071Z</time>
      </trkpt>
      <trkpt lat="44.42282" lon="1.14539">
        <ele>201.432209</ele>
        <time>2022-05-12T12:05:18.058Z</time>
      </trkpt>
      <trkpt lat="44.42293" lon="1.14518">
        <ele>201.109557</ele>
        <time>2022-05-12T12:05:20.067Z</time>
      </trkpt>
      <trkpt lat="44.42301" lon="1.14502">
        <ele>200.874821</ele>
        <time>2022-05-12T12:05:22.062Z</time>
      </trkpt>
      <trkpt lat="44.42314" lon="1.14488">
        <ele>200.607522</ele>
        <time>2022-05-12T12:05:24.046Z</time>
      </trkpt>
      <trkpt lat="44.42323" lon="1.14481">
        <ele>200.426863</ele>
        <time>2022-05-12T12:05:25.099Z</time>
      </trkpt>
      <trkpt lat="44.42335" lon="1.14472">
        <ele>200.191349</ele>
        <time>2022-05-12T12:05:27.046Z</time>
      </trkpt>
      <trkpt lat="44.42347" lon="1.14463">
        <ele>199.964647</ele>
        <time>2022-05-12T12:05:29.046Z</time>
      </trkpt>
      <trkpt lat="44.42365" lon="1.14454">
        <ele>199.636282</ele>
        <time>2022-05-12T12:05:31.036Z</time>
      </trkpt>
      <trkpt lat="44.42377" lon="1.14441">
        <ele>199.385464</ele>
        <time>2022-05-12T12:05:33.064Z</time>
      </trkpt>
      <trkpt lat="44.42385" lon="1.14433">
        <ele>199.245021</ele>
        <time>2022-05-12T12:05:34.042Z</time>
      </trkpt>
      <trkpt lat="44.42399" lon="1.14417">
        <ele>199.376485</ele>
        <time>2022-05-12T12:05:36.088Z</time>
      </trkpt>
      <trkpt lat="44.42409" lon="1.14401">
        <ele>199.491511</ele>
        <time>2022-05-12T12:05:38.077Z</time>
      </trkpt>
      <trkpt lat="44.42417" lon="1.14394">
        <ele>199.562723</ele>
        <time>2022-05-12T12:05:39.064Z</time>
      </trkpt>
      <trkpt lat="44.42428" lon="1.14377">
        <ele>199.686415</ele>
        <time>2022-05-12T12:05:41.055Z</time>
      </trkpt>
      <trkpt lat="44.42441" lon="1.1436">
        <ele>199.81671</ele>
        <time>2022-05-12T12:05:43.059Z</time>
      </trkpt>
      <trkpt lat="44.42451" lon="1.14344">
        <ele>199.933227</ele>
        <time>2022-05-12T12:05:45.046Z</time>
      </trkpt>
      <trkpt lat="44.42459" lon="1.14336">
        <ele>200.00047</ele>
        <time>2022-05-12T12:05:46.053Z</time>
      </trkpt>
      <trkpt lat="44.42467" lon="1.14329">
        <ele>200.073284</ele>
        <time>2022-05-12T12:05:47.093Z</time>
      </trkpt>
      <trkpt lat="44.42477" lon="1.14315">
        <ele>200.181081</ele>
        <time>2022-05-12T12:05:49.063Z</time>
      </trkpt>
      <trkpt lat="44.42491" lon="1.14302">
        <ele>200.303365</ele>
        <time>2022-05-12T12:05:51.064Z</time>
      </trkpt>
      <trkpt lat="44.425" lon="1.14297">
        <ele>200.375491</ele>
        <time>2022-05-12T12:05:52.063Z</time>
      </trkpt>
      <trkpt lat="44.42511" lon="1.14286">
        <ele>200.47813</ele>
        <time>2022-05-12T12:05:54.042Z</time>
      </trkpt>
      <trkpt lat="44.4252" lon="1.1428">
        <ele>200.54955</ele>
        <time>2022-05-12T12:05:55.055Z</time>
      </trkpt>
      <trkpt lat="44.42534" lon="1.14271">
        <ele>201.328484</ele>
        <time>2022-05-12T12:05:57.057Z</time>
      </trkpt>
      <trkpt lat="44.42547" lon="1.14262">
        <ele>202.290835</ele>
        <time>2022-05-12T12:05:59.112Z</time>
      </trkpt>
      <trkpt lat="44.42559" lon="1.14255">
        <ele>203.14388</ele>
        <time>2022-05-12T12:06:01.050Z</time>
      </trkpt>
      <trkpt lat="44.42576" lon="1.1425">
        <ele>204.286092</ele>
        <time>2022-05-12T12:06:03.059Z</time>
      </trkpt>
      <trkpt lat="44.42591" lon="1.14246">
        <ele>205.27982</ele>
        <time>2022-05-12T12:06:05.103Z</time>
      </trkpt>
      <trkpt lat="44.42602" lon="1.14246">
        <ele>206.008073</ele>
        <time>2022-05-12T12:06:07.072Z</time>
      </trkpt>
      <trkpt lat="44.42616" lon="1.14246">
        <ele>206.918418</ele>
        <time>2022-05-12T12:06:09.057Z</time>
      </trkpt>
      <trkpt lat="44.42628" lon="1.14242">
        <ele>207.700426</ele>
        <time>2022-05-12T12:06:11.108Z</time>
      </trkpt>
      <trkpt lat="44.42647" lon="1.14249">
        <ele>208.939487</ele>
        <time>2022-05-12T12:06:13.055Z</time>
      </trkpt>
      <trkpt lat="44.42667" lon="1.14241">
        <ele>210.314536</ele>
        <time>2022-05-12T12:06:15.053Z</time>
      </trkpt>
      <trkpt lat="44.42676" lon="1.14247">
        <ele>210.941367</ele>
        <time>2022-05-12T12:06:16.052Z</time>
      </trkpt>
      <trkpt lat="44.42692" lon="1.14245">
        <ele>212.022966</ele>
        <time>2022-05-12T12:06:18.052Z</time>
      </trkpt>
      <trkpt lat="44.42701" lon="1.14236">
        <ele>212.51219</ele>
        <time>2022-05-12T12:06:19.056Z</time>
      </trkpt>
      <trkpt lat="44.42715" lon="1.14226">
        <ele>212.990193</ele>
        <time>2022-05-12T12:06:21.041Z</time>
      </trkpt>
      <trkpt lat="44.42726" lon="1.14224">
        <ele>213.332203</ele>
        <time>2022-05-12T12:06:22.055Z</time>
      </trkpt>
      <trkpt lat="44.4274" lon="1.14218">
        <ele>213.780827</ele>
        <time>2022-05-12T12:06:24.039Z</time>
      </trkpt>
      <trkpt lat="44.42762" lon="1.14207">
        <ele>214.520766</ele>
        <time>2022-05-12T12:06:26.046Z</time>
      </trkpt>
      <trkpt lat="44.42772" lon="1.142">
        <ele>214.861314</ele>
        <time>2022-05-12T12:06:27.052Z</time>
      </trkpt>
      <trkpt lat="44.42782" lon="1.14194">
        <ele>215.20746</ele>
        <time>2022-05-12T12:06:28.075Z</time>
      </trkpt>
      <trkpt lat="44.42795" lon="1.14185">
        <ele>215.64429</ele>
        <time>2022-05-12T12:06:30.063Z</time>
      </trkpt>
      <trkpt lat="44.42805" lon="1.1418">
        <ele>215.996224</ele>
        <time>2022-05-12T12:06:31.067Z</time>
      </trkpt>
      <trkpt lat="44.42812" lon="1.1417">
        <ele>216.287771</ele>
        <time>2022-05-12T12:06:32.065Z</time>
      </trkpt>
      <trkpt lat="44.42824" lon="1.14179">
        <ele>216.734014</ele>
        <time>2022-05-12T12:06:34.076Z</time>
      </trkpt>
      <trkpt lat="44.42838" lon="1.14174">
        <ele>217.173202</ele>
        <time>2022-05-12T12:06:36.073Z</time>
      </trkpt>
      <trkpt lat="44.4285" lon="1.14164">
        <ele>217.608521</ele>
        <time>2022-05-12T12:06:38.088Z</time>
      </trkpt>
      <trkpt lat="44.42863" lon="1.14152">
        <ele>217.969197</ele>
        <time>2022-05-12T12:06:40.103Z</time>
      </trkpt>
      <trkpt lat="44.42874" lon="1.14139">
        <ele>218.152469</ele>
        <time>2022-05-12T12:06:42.068Z</time>
      </trkpt>
      <trkpt lat="44.42883" lon="1.14131">
        <ele>218.281496</ele>
        <time>2022-05-12T12:06:43.050Z</time>
      </trkpt>
      <trkpt lat="44.42894" lon="1.14115">
        <ele>218.483277</ele>
        <time>2022-05-12T12:06:45.055Z</time>
      </trkpt>
      <trkpt lat="44.42905" lon="1.14101">
        <ele>218.677359</ele>
        <time>2022-05-12T12:06:47.061Z</time>
      </trkpt>
      <trkpt lat="44.42915" lon="1.14086">
        <ele>218.870301</ele>
        <time>2022-05-12T12:06:49.072Z</time>
      </trkpt>
      <trkpt lat="44.42923" lon="1.14066">
        <ele>219.070242</ele>
        <time>2022-05-12T12:06:51.074Z</time>
      </trkpt>
      <trkpt lat="44.42928" lon="1.14049">
        <ele>219.245296</ele>
        <time>2022-05-12T12:06:53.059Z</time>
      </trkpt>
      <trkpt lat="44.42937" lon="1.14031">
        <ele>219.442852</ele>
        <time>2022-05-12T12:06:55.082Z</time>
      </trkpt>
      <trkpt lat="44.42945" lon="1.14012">
        <ele>219.650102</ele>
        <time>2022-05-12T12:06:57.065Z</time>
      </trkpt>
      <trkpt lat="44.42952" lon="1.13995">
        <ele>219.822607</ele>
        <time>2022-05-12T12:06:59.062Z</time>
      </trkpt>
      <trkpt lat="44.42958" lon="1.13977">
        <ele>220.008009</ele>
        <time>2022-05-12T12:07:01.052Z</time>
      </trkpt>
      <trkpt lat="44.42968" lon="1.13961">
        <ele>220.127545</ele>
        <time>2022-05-12T12:07:03.061Z</time>
      </trkpt>
      <trkpt lat="44.42975" lon="1.13952">
        <ele>219.924412</ele>
        <time>2022-05-12T12:07:04.075Z</time>
      </trkpt>
      <trkpt lat="44.42987" lon="1.13936">
        <ele>219.58026</ele>
        <time>2022-05-12T12:07:06.067Z</time>
      </trkpt>
      <trkpt lat="44.43001" lon="1.13922">
        <ele>219.223117</ele>
        <time>2022-05-12T12:07:08.073Z</time>
      </trkpt>
      <trkpt lat="44.43009" lon="1.13915">
        <ele>219.008964</ele>
        <time>2022-05-12T12:07:09.054Z</time>
      </trkpt>
      <trkpt lat="44.43023" lon="1.13903">
        <ele>218.670921</ele>
        <time>2022-05-12T12:07:11.043Z</time>
      </trkpt>
      <trkpt lat="44.43035" lon="1.13893">
        <ele>218.3614</ele>
        <time>2022-05-12T12:07:13.055Z</time>
      </trkpt>
      <trkpt lat="44.4305" lon="1.13881">
        <ele>218.000696</ele>
        <time>2022-05-12T12:07:15.061Z</time>
      </trkpt>
      <trkpt lat="44.43061" lon="1.13875">
        <ele>217.739165</ele>
        <time>2022-05-12T12:07:16.113Z</time>
      </trkpt>
      <trkpt lat="44.43074" lon="1.13862">
        <ele>217.403789</ele>
        <time>2022-05-12T12:07:18.050Z</time>
      </trkpt>
      <trkpt lat="44.43089" lon="1.13851">
        <ele>217.05421</ele>
        <time>2022-05-12T12:07:20.059Z</time>
      </trkpt>
      <trkpt lat="44.43102" lon="1.13841">
        <ele>216.723929</ele>
        <time>2022-05-12T12:07:22.100Z</time>
      </trkpt>
      <trkpt lat="44.43116" lon="1.13832">
        <ele>216.409673</ele>
        <time>2022-05-12T12:07:24.027Z</time>
      </trkpt>
      <trkpt lat="44.43124" lon="1.13826">
        <ele>216.518251</ele>
        <time>2022-05-12T12:07:25.072Z</time>
      </trkpt>
      <trkpt lat="44.43137" lon="1.13815">
        <ele>216.936935</ele>
        <time>2022-05-12T12:07:27.068Z</time>
      </trkpt>
      <trkpt lat="44.4315" lon="1.138">
        <ele>217.378648</ele>
        <time>2022-05-12T12:07:29.053Z</time>
      </trkpt>
      <trkpt lat="44.43162" lon="1.1379">
        <ele>217.752719</ele>
        <time>2022-05-12T12:07:31.071Z</time>
      </trkpt>
      <trkpt lat="44.43176" lon="1.13778">
        <ele>218.20098</ele>
        <time>2022-05-12T12:07:33.056Z</time>
      </trkpt>
      <trkpt lat="44.4319" lon="1.13765">
        <ele>218.647476</ele>
        <time>2022-05-12T12:07:35.091Z</time>
      </trkpt>
      <trkpt lat="44.43202" lon="1.13753">
        <ele>219.037703</ele>
        <time>2022-05-12T12:07:37.064Z</time>
      </trkpt>
      <trkpt lat="44.43213" lon="1.13739">
        <ele>219.430123</ele>
        <time>2022-05-12T12:07:39.075Z</time>
      </trkpt>
      <trkpt lat="44.43224" lon="1.13724">
        <ele>219.862943</ele>
        <time>2022-05-12T12:07:41.081Z</time>
      </trkpt>
      <trkpt lat="44.43237" lon="1.13707">
        <ele>220.331832</ele>
        <time>2022-05-12T12:07:43.058Z</time>
      </trkpt>
      <trkpt lat="44.43249" lon="1.13693">
        <ele>220.741741</ele>
        <time>2022-05-12T12:07:45.049Z</time>
      </trkpt>
      <trkpt lat="44.43261" lon="1.13682">
        <ele>221.124451</ele>
        <time>2022-05-12T12:07:47.075Z</time>
      </trkpt>
      <trkpt lat="44.43269" lon="1.13677">
        <ele>220.558796</ele>
        <time>2022-05-12T12:07:48.060Z</time>
      </trkpt>
      <trkpt lat="44.43284" lon="1.13668">
        <ele>219.200075</ele>
        <time>2022-05-12T12:07:50.044Z</time>
      </trkpt>
      <trkpt lat="44.43293" lon="1.13664">
        <ele>218.366509</ele>
        <time>2022-05-12T12:07:51.060Z</time>
      </trkpt>
      <trkpt lat="44.43306" lon="1.13658">
        <ele>217.191362</ele>
        <time>2022-05-12T12:07:53.096Z</time>
      </trkpt>
      <trkpt lat="44.4332" lon="1.13653">
        <ele>215.957178</ele>
        <time>2022-05-12T12:07:55.063Z</time>
      </trkpt>
      <trkpt lat="44.43334" lon="1.13648">
        <ele>214.766131</ele>
        <time>2022-05-12T12:07:57.068Z</time>
      </trkpt>
      <trkpt lat="44.4335" lon="1.13645">
        <ele>213.376794</ele>
        <time>2022-05-12T12:07:59.102Z</time>
      </trkpt>
      <trkpt lat="44.43365" lon="1.13635">
        <ele>211.920548</ele>
        <time>2022-05-12T12:08:01.076Z</time>
      </trkpt>
      <trkpt lat="44.43381" lon="1.13632">
        <ele>210.535426</ele>
        <time>2022-05-12T12:08:03.056Z</time>
      </trkpt>
      <trkpt lat="44.43397" lon="1.13634">
        <ele>209.146003</ele>
        <time>2022-05-12T12:08:05.102Z</time>
      </trkpt>
      <trkpt lat="44.43407" lon="1.13628">
        <ele>208.215581</ele>
        <time>2022-05-12T12:08:06.050Z</time>
      </trkpt>
      <trkpt lat="44.43422" lon="1.13623">
        <ele>206.950868</ele>
        <time>2022-05-12T12:08:08.070Z</time>
      </trkpt>
      <trkpt lat="44.43433" lon="1.13618">
        <ele>205.97024</ele>
        <time>2022-05-12T12:08:10.055Z</time>
      </trkpt>
      <trkpt lat="44.43443" lon="1.13608">
        <ele>205.98632</ele>
        <time>2022-05-12T12:08:11.088Z</time>
      </trkpt>
      <trkpt lat="44.43455" lon="1.13618">
        <ele>206.201583</ele>
        <time>2022-05-12T12:08:13.079Z</time>
      </trkpt>
      <trkpt lat="44.43472" lon="1.13602">
        <ele>206.503594</ele>
        <time>2022-05-12T12:08:15.054Z</time>
      </trkpt>
      <trkpt lat="44.4348" lon="1.13598">
        <ele>206.638312</ele>
        <time>2022-05-12T12:08:16.059Z</time>
      </trkpt>
      <trkpt lat="44.43499" lon="1.13581">
        <ele>206.967259</ele>
        <time>2022-05-12T12:08:18.072Z</time>
      </trkpt>
      <trkpt lat="44.43514" lon="1.13587">
        <ele>207.204045</ele>
        <time>2022-05-12T12:08:20.052Z</time>
      </trkpt>
      <trkpt lat="44.43519" lon="1.13577">
        <ele>207.339677</ele>
        <time>2022-05-12T12:08:21.061Z</time>
      </trkpt>
      <trkpt lat="44.43531" lon="1.13562">
        <ele>207.569333</ele>
        <time>2022-05-12T12:08:23.112Z</time>
      </trkpt>
      <trkpt lat="44.43541" lon="1.13558">
        <ele>207.728522</ele>
        <time>2022-05-12T12:08:24.039Z</time>
      </trkpt>
      <trkpt lat="44.43549" lon="1.13568">
        <ele>207.883551</ele>
        <time>2022-05-12T12:08:26.080Z</time>
      </trkpt>
      <trkpt lat="44.4357" lon="1.13554">
        <ele>208.237834</ele>
        <time>2022-05-12T12:08:28.070Z</time>
      </trkpt>
      <trkpt lat="44.43584" lon="1.1355">
        <ele>208.450168</ele>
        <time>2022-05-12T12:08:30.073Z</time>
      </trkpt>
      <trkpt lat="44.43594" lon="1.13556">
        <ele>208.527225</ele>
        <time>2022-05-12T12:08:32.077Z</time>
      </trkpt>
      <trkpt lat="44.43606" lon="1.13551">
        <ele>208.567094</ele>
        <time>2022-05-12T12:08:34.039Z</time>
      </trkpt>
      <trkpt lat="44.43621" lon="1.13538">
        <ele>208.626571</ele>
        <time>2022-05-12T12:08:36.066Z</time>
      </trkpt>
      <trkpt lat="44.43635" lon="1.13536">
        <ele>208.673512</ele>
        <time>2022-05-12T12:08:38.060Z</time>
      </trkpt>
      <trkpt lat="44.43649" lon="1.13532">
        <ele>208.719264</ele>
        <time>2022-05-12T12:08:40.065Z</time>
      </trkpt>
      <trkpt lat="44.43661" lon="1.13528">
        <ele>208.760709</ele>
        <time>2022-05-12T12:08:41.095Z</time>
      </trkpt>
      <trkpt lat="44.43671" lon="1.1352">
        <ele>208.800953</ele>
        <time>2022-05-12T12:08:42.067Z</time>
      </trkpt>
      <trkpt lat="44.43685" lon="1.13527">
        <ele>208.850821</ele>
        <time>2022-05-12T12:08:44.041Z</time>
      </trkpt>
      <trkpt lat="44.43701" lon="1.13528">
        <ele>208.90155</ele>
        <time>2022-05-12T12:08:46.057Z</time>
      </trkpt>
      <trkpt lat="44.4371" lon="1.13525">
        <ele>208.932016</ele>
        <time>2022-05-12T12:08:47.092Z</time>
      </trkpt>
      <trkpt lat="44.43726" lon="1.13528">
        <ele>208.985595</ele>
        <time>2022-05-12T12:08:49.062Z</time>
      </trkpt>
      <trkpt lat="44.43729" lon="1.13544">
        <ele>209.026446</ele>
        <time>2022-05-12T12:08:50.068Z</time>
      </trkpt>
      <trkpt lat="44.43741" lon="1.13551">
        <ele>209.069002</ele>
        <time>2022-05-12T12:08:52.035Z</time>
      </trkpt>
      <trkpt lat="44.43751" lon="1.13561">
        <ele>208.616018</ele>
        <time>2022-05-12T12:08:54.044Z</time>
      </trkpt>
      <trkpt lat="44.43763" lon="1.13571">
        <ele>206.4642</ele>
        <time>2022-05-12T12:08:56.066Z</time>
      </trkpt>
      <trkpt lat="44.43773" lon="1.13588">
        <ele>203.863333</ele>
        <time>2022-05-12T12:08:58.057Z</time>
      </trkpt>
      <trkpt lat="44.43782" lon="1.13598">
        <ele>201.934942</ele>
        <time>2022-05-12T12:09:00.095Z</time>
      </trkpt>
      <trkpt lat="44.43797" lon="1.13611">
        <ele>199.148751</ele>
        <time>2022-05-12T12:09:02.061Z</time>
      </trkpt>
      <trkpt lat="44.43809" lon="1.13622">
        <ele>196.764181</ele>
        <time>2022-05-12T12:09:04.039Z</time>
      </trkpt>
      <trkpt lat="44.43817" lon="1.13629">
        <ele>195.264726</ele>
        <time>2022-05-12T12:09:05.026Z</time>
      </trkpt>
      <trkpt lat="44.43824" lon="1.13637">
        <ele>193.78099</ele>
        <time>2022-05-12T12:09:06.045Z</time>
      </trkpt>
      <trkpt lat="44.43837" lon="1.13652">
        <ele>191.110083</ele>
        <time>2022-05-12T12:09:08.057Z</time>
      </trkpt>
      <trkpt lat="44.43846" lon="1.13666">
        <ele>188.865228</ele>
        <time>2022-05-12T12:09:10.027Z</time>
      </trkpt>
      <trkpt lat="44.43855" lon="1.13681">
        <ele>186.522184</ele>
        <time>2022-05-12T12:09:12.079Z</time>
      </trkpt>
      <trkpt lat="44.43867" lon="1.137">
        <ele>183.602834</ele>
        <time>2022-05-12T12:09:14.038Z</time>
      </trkpt>
      <trkpt lat="44.43878" lon="1.13714">
        <ele>181.220599</ele>
        <time>2022-05-12T12:09:16.095Z</time>
      </trkpt>
      <trkpt lat="44.43886" lon="1.13726">
        <ele>179.867797</ele>
        <time>2022-05-12T12:09:17.053Z</time>
      </trkpt>
      <trkpt lat="44.43891" lon="1.13738">
        <ele>179.794913</ele>
        <time>2022-05-12T12:09:18.056Z</time>
      </trkpt>
      <trkpt lat="44.43901" lon="1.13754">
        <ele>179.669988</ele>
        <time>2022-05-12T12:09:20.054Z</time>
      </trkpt>
      <trkpt lat="44.43907" lon="1.13766">
        <ele>179.590575</ele>
        <time>2022-05-12T12:09:21.067Z</time>
      </trkpt>
      <trkpt lat="44.43912" lon="1.13776">
        <ele>179.516668</ele>
        <time>2022-05-12T12:09:22.095Z</time>
      </trkpt>
      <trkpt lat="44.43922" lon="1.13794">
        <ele>179.386834</ele>
        <time>2022-05-12T12:09:24.032Z</time>
      </trkpt>
      <trkpt lat="44.43928" lon="1.13812">
        <ele>179.275202</ele>
        <time>2022-05-12T12:09:26.045Z</time>
      </trkpt>
      <trkpt lat="44.43937" lon="1.1383">
        <ele>179.150989</ele>
        <time>2022-05-12T12:09:28.087Z</time>
      </trkpt>
      <trkpt lat="44.43946" lon="1.13848">
        <ele>179.025794</ele>
        <time>2022-05-12T12:09:30.064Z</time>
      </trkpt>
      <trkpt lat="44.43953" lon="1.13857">
        <ele>178.951663</ele>
        <time>2022-05-12T12:09:31.053Z</time>
      </trkpt>
      <trkpt lat="44.43965" lon="1.13866">
        <ele>178.843105</ele>
        <time>2022-05-12T12:09:33.072Z</time>
      </trkpt>
      <trkpt lat="44.43978" lon="1.13873">
        <ele>178.730381</ele>
        <time>2022-05-12T12:09:35.071Z</time>
      </trkpt>
      <trkpt lat="44.43987" lon="1.1388">
        <ele>178.651183</ele>
        <time>2022-05-12T12:09:36.092Z</time>
      </trkpt>
      <trkpt lat="44.44003" lon="1.13881">
        <ele>178.525638</ele>
        <time>2022-05-12T12:09:38.053Z</time>
      </trkpt>
      <trkpt lat="44.44011" lon="1.13905">
        <ele>178.142629</ele>
        <time>2022-05-12T12:09:40.047Z</time>
      </trkpt>
      <trkpt lat="44.44028" lon="1.13911">
        <ele>177.653073</ele>
        <time>2022-05-12T12:09:42.088Z</time>
      </trkpt>
      <trkpt lat="44.44037" lon="1.13913">
        <ele>177.38255</ele>
        <time>2022-05-12T12:09:43.059Z</time>
      </trkpt>
      <trkpt lat="44.44049" lon="1.13906">
        <ele>177.031396</ele>
        <time>2022-05-12T12:09:44.049Z</time>
      </trkpt>
      <trkpt lat="44.44062" lon="1.13911">
        <ele>176.670792</ele>
        <time>2022-05-12T12:09:46.068Z</time>
      </trkpt>
      <trkpt lat="44.44066" lon="1.13928">
        <ele>176.310196</ele>
        <time>2022-05-12T12:09:47.067Z</time>
      </trkpt>
      <trkpt lat="44.4408" lon="1.13945">
        <ele>175.781342</ele>
        <time>2022-05-12T12:09:49.064Z</time>
      </trkpt>
      <trkpt lat="44.44087" lon="1.13957">
        <ele>175.480345</ele>
        <time>2022-05-12T12:09:50.046Z</time>
      </trkpt>
      <trkpt lat="44.44103" lon="1.13969">
        <ele>174.979833</ele>
        <time>2022-05-12T12:09:52.062Z</time>
      </trkpt>
      <trkpt lat="44.44112" lon="1.13967">
        <ele>174.72848</ele>
        <time>2022-05-12T12:09:53.057Z</time>
      </trkpt>
      <trkpt lat="44.44119" lon="1.13977">
        <ele>174.462708</ele>
        <time>2022-05-12T12:09:55.061Z</time>
      </trkpt>
      <trkpt lat="44.44129" lon="1.13979">
        <ele>174.179859</ele>
        <time>2022-05-12T12:09:56.068Z</time>
      </trkpt>
      <trkpt lat="44.44146" lon="1.13993">
        <ele>173.643584</ele>
        <time>2022-05-12T12:09:58.061Z</time>
      </trkpt>
      <trkpt lat="44.44155" lon="1.14003">
        <ele>173.467524</ele>
        <time>2022-05-12T12:09:59.043Z</time>
      </trkpt>
      <trkpt lat="44.4416" lon="1.14021">
        <ele>173.455452</ele>
        <time>2022-05-12T12:10:00.066Z</time>
      </trkpt>
      <trkpt lat="44.44169" lon="1.14024">
        <ele>173.447138</ele>
        <time>2022-05-12T12:10:02.061Z</time>
      </trkpt>
      <trkpt lat="44.44182" lon="1.14041">
        <ele>173.431603</ele>
        <time>2022-05-12T12:10:04.054Z</time>
      </trkpt>
      <trkpt lat="44.44185" lon="1.14053">
        <ele>173.423471</ele>
        <time>2022-05-12T12:10:05.092Z</time>
      </trkpt>
      <trkpt lat="44.4419" lon="1.14071">
        <ele>173.411319</ele>
        <time>2022-05-12T12:10:07.066Z</time>
      </trkpt>
      <trkpt lat="44.44193" lon="1.14095">
        <ele>173.395941</ele>
        <time>2022-05-12T12:10:09.045Z</time>
      </trkpt>
      <trkpt lat="44.44199" lon="1.14109">
        <ele>173.385518</ele>
        <time>2022-05-12T12:10:11.081Z</time>
      </trkpt>
      <trkpt lat="44.44201" lon="1.14127">
        <ele>173.373864</ele>
        <time>2022-05-12T12:10:13.055Z</time>
      </trkpt>
      <trkpt lat="44.44202" lon="1.14149">
        <ele>173.360102</ele>
        <time>2022-05-12T12:10:15.074Z</time>
      </trkpt>
      <trkpt lat="44.44206" lon="1.14168">
        <ele>173.347363</ele>
        <time>2022-05-12T12:10:17.097Z</time>
      </trkpt>
      <trkpt lat="44.4421" lon="1.14192">
        <ele>173.33205</ele>
        <time>2022-05-12T12:10:19.066Z</time>
      </trkpt>
      <trkpt lat="44.44212" lon="1.14213">
        <ele>173.318283</ele>
        <time>2022-05-12T12:10:21.057Z</time>
      </trkpt>
      <trkpt lat="44.44214" lon="1.14233">
        <ele>173.377659</ele>
        <time>2022-05-12T12:10:23.099Z</time>
      </trkpt>
      <trkpt lat="44.44216" lon="1.14256">
        <ele>173.502953</ele>
        <time>2022-05-12T12:10:25.055Z</time>
      </trkpt>
      <trkpt lat="44.44218" lon="1.1427">
        <ele>173.586795</ele>
        <time>2022-05-12T12:10:27.051Z</time>
      </trkpt>
      <trkpt lat="44.44216" lon="1.14291">
        <ele>173.706031</ele>
        <time>2022-05-12T12:10:29.096Z</time>
      </trkpt>
      <trkpt lat="44.44218" lon="1.14305">
        <ele>173.784103</ele>
        <time>2022-05-12T12:10:30.046Z</time>
      </trkpt>
      <trkpt lat="44.4422" lon="1.14324">
        <ele>173.894962</ele>
        <time>2022-05-12T12:10:32.063Z</time>
      </trkpt>
      <trkpt lat="44.44224" lon="1.14347">
        <ele>174.028306</ele>
        <time>2022-05-12T12:10:34.050Z</time>
      </trkpt>
      <trkpt lat="44.44228" lon="1.14366">
        <ele>174.138907</ele>
        <time>2022-05-12T12:10:36.067Z</time>
      </trkpt>
      <trkpt lat="44.44234" lon="1.14386">
        <ele>174.260177</ele>
        <time>2022-05-12T12:10:38.069Z</time>
      </trkpt>
      <trkpt lat="44.44239" lon="1.14407">
        <ele>174.385646</ele>
        <time>2022-05-12T12:10:40.068Z</time>
      </trkpt>
      <trkpt lat="44.44245" lon="1.14426">
        <ele>174.50241</ele>
        <time>2022-05-12T12:10:42.065Z</time>
      </trkpt>
      <trkpt lat="44.44251" lon="1.14447">
        <ele>174.628191</ele>
        <time>2022-05-12T12:10:44.046Z</time>
      </trkpt>
      <trkpt lat="44.44254" lon="1.14466">
        <ele>174.689841</ele>
        <time>2022-05-12T12:10:46.051Z</time>
      </trkpt>
      <trkpt lat="44.44259" lon="1.14484">
        <ele>174.195654</ele>
        <time>2022-05-12T12:10:48.068Z</time>
      </trkpt>
      <trkpt lat="44.44264" lon="1.14499">
        <ele>173.786528</ele>
        <time>2022-05-12T12:10:50.067Z</time>
      </trkpt>
      <trkpt lat="44.44269" lon="1.14515">
        <ele>173.311985</ele>
        <time>2022-05-12T12:10:52.055Z</time>
      </trkpt>
      <trkpt lat="44.44278" lon="1.14531">
        <ele>172.8131</ele>
        <time>2022-05-12T12:10:54.036Z</time>
      </trkpt>
      <trkpt lat="44.44283" lon="1.14547">
        <ele>172.352577</ele>
        <time>2022-05-12T12:10:56.072Z</time>
      </trkpt>
      <trkpt lat="44.44284" lon="1.14562">
        <ele>171.973887</ele>
        <time>2022-05-12T12:10:57.059Z</time>
      </trkpt>
      <trkpt lat="44.44292" lon="1.14571">
        <ele>171.594441</ele>
        <time>2022-05-12T12:10:59.103Z</time>
      </trkpt>
      <trkpt lat="44.44298" lon="1.14586">
        <ele>171.165735</ele>
        <time>2022-05-12T12:11:01.070Z</time>
      </trkpt>
      <trkpt lat="44.44302" lon="1.146">
        <ele>170.769975</ele>
        <time>2022-05-12T12:11:03.065Z</time>
      </trkpt>
      <trkpt lat="44.44312" lon="1.14612">
        <ele>170.314396</ele>
        <time>2022-05-12T12:11:04.039Z</time>
      </trkpt>
      <trkpt lat="44.44322" lon="1.14627">
        <ele>169.772398</ele>
        <time>2022-05-12T12:11:06.051Z</time>
      </trkpt>
      <trkpt lat="44.44332" lon="1.14639">
        <ele>169.319097</ele>
        <time>2022-05-12T12:11:08.064Z</time>
      </trkpt>
      <trkpt lat="44.44343" lon="1.14652">
        <ele>168.786522</ele>
        <time>2022-05-12T12:11:10.066Z</time>
      </trkpt>
      <trkpt lat="44.44354" lon="1.14663">
        <ele>168.319517</ele>
        <time>2022-05-12T12:11:12.058Z</time>
      </trkpt>
      <trkpt lat="44.44363" lon="1.1467">
        <ele>168.004809</ele>
        <time>2022-05-12T12:11:14.034Z</time>
      </trkpt>
      <trkpt lat="44.44375" lon="1.14682">
        <ele>167.545009</ele>
        <time>2022-05-12T12:11:16.074Z</time>
      </trkpt>
      <trkpt lat="44.44387" lon="1.14692">
        <ele>167.145441</ele>
        <time>2022-05-12T12:11:18.068Z</time>
      </trkpt>
      <trkpt lat="44.44399" lon="1.14704">
        <ele>166.690724</ele>
        <time>2022-05-12T12:11:20.067Z</time>
      </trkpt>
      <trkpt lat="44.44408" lon="1.14712">
        <ele>166.369129</ele>
        <time>2022-05-12T12:11:22.061Z</time>
      </trkpt>
      <trkpt lat="44.44417" lon="1.14722">
        <ele>166.00134</ele>
        <time>2022-05-12T12:11:24.058Z</time>
      </trkpt>
      <trkpt lat="44.44424" lon="1.14732">
        <ele>165.710626</ele>
        <time>2022-05-12T12:11:25.065Z</time>
      </trkpt>
      <trkpt lat="44.44437" lon="1.1474">
        <ele>165.283942</ele>
        <time>2022-05-12T12:11:27.059Z</time>
      </trkpt>
      <trkpt lat="44.44448" lon="1.14752">
        <ele>164.878104</ele>
        <time>2022-05-12T12:11:29.066Z</time>
      </trkpt>
      <trkpt lat="44.44458" lon="1.14762">
        <ele>164.488867</ele>
        <time>2022-05-12T12:11:31.025Z</time>
      </trkpt>
      <trkpt lat="44.44471" lon="1.14775">
        <ele>164.017998</ele>
        <time>2022-05-12T12:11:33.105Z</time>
      </trkpt>
      <trkpt lat="44.44484" lon="1.14787">
        <ele>163.532266</ele>
        <time>2022-05-12T12:11:35.069Z</time>
      </trkpt>
      <trkpt lat="44.44493" lon="1.14797">
        <ele>163.204186</ele>
        <time>2022-05-12T12:11:36.044Z</time>
      </trkpt>
      <trkpt lat="44.44506" lon="1.14804">
        <ele>162.764511</ele>
        <time>2022-05-12T12:11:38.054Z</time>
      </trkpt>
      <trkpt lat="44.44517" lon="1.14811">
        <ele>162.400801</ele>
        <time>2022-05-12T12:11:40.065Z</time>
      </trkpt>
      <trkpt lat="44.44533" lon="1.14823">
        <ele>161.871753</ele>
        <time>2022-05-12T12:11:42.067Z</time>
      </trkpt>
      <trkpt lat="44.44548" lon="1.14831">
        <ele>161.369162</ele>
        <time>2022-05-12T12:11:44.059Z</time>
      </trkpt>
      <trkpt lat="44.44564" lon="1.14834">
        <ele>160.89604</ele>
        <time>2022-05-12T12:11:46.046Z</time>
      </trkpt>
      <trkpt lat="44.44582" lon="1.14836">
        <ele>160.338113</ele>
        <time>2022-05-12T12:11:48.066Z</time>
      </trkpt>
      <trkpt lat="44.44595" lon="1.14856">
        <ele>159.759942</ele>
        <time>2022-05-12T12:11:50.055Z</time>
      </trkpt>
      <trkpt lat="44.44602" lon="1.14867">
        <ele>159.441223</ele>
        <time>2022-05-12T12:11:51.098Z</time>
      </trkpt>
      <trkpt lat="44.44609" lon="1.14878">
        <ele>159.128551</ele>
        <time>2022-05-12T12:11:52.062Z</time>
      </trkpt>
      <trkpt lat="44.44614" lon="1.14888">
        <ele>158.849027</ele>
        <time>2022-05-12T12:11:53.071Z</time>
      </trkpt>
      <trkpt lat="44.44627" lon="1.14889">
        <ele>158.455315</ele>
        <time>2022-05-12T12:11:55.064Z</time>
      </trkpt>
      <trkpt lat="44.44633" lon="1.14902">
        <ele>158.124684</ele>
        <time>2022-05-12T12:11:57.093Z</time>
      </trkpt>
      <trkpt lat="44.44644" lon="1.14916">
        <ele>157.686073</ele>
        <time>2022-05-12T12:11:59.053Z</time>
      </trkpt>
      <trkpt lat="44.44655" lon="1.14933">
        <ele>157.558136</ele>
        <time>2022-05-12T12:12:01.052Z</time>
      </trkpt>
      <trkpt lat="44.44664" lon="1.14948">
        <ele>157.836574</ele>
        <time>2022-05-12T12:12:03.098Z</time>
      </trkpt>
      <trkpt lat="44.44679" lon="1.14963">
        <ele>158.187984</ele>
        <time>2022-05-12T12:12:05.053Z</time>
      </trkpt>
      <trkpt lat="44.44692" lon="1.14977">
        <ele>158.520411</ele>
        <time>2022-05-12T12:12:07.059Z</time>
      </trkpt>
      <trkpt lat="44.44707" lon="1.14989">
        <ele>158.853875</ele>
        <time>2022-05-12T12:12:09.089Z</time>
      </trkpt>
      <trkpt lat="44.44715" lon="1.14995">
        <ele>159.040066</ele>
        <time>2022-05-12T12:12:10.064Z</time>
      </trkpt>
      <trkpt lat="44.4473" lon="1.15001">
        <ele>159.332548</ele>
        <time>2022-05-12T12:12:12.068Z</time>
      </trkpt>
      <trkpt lat="44.44746" lon="1.15006">
        <ele>159.663976</ele>
        <time>2022-05-12T12:12:14.034Z</time>
      </trkpt>
      <trkpt lat="44.44761" lon="1.15015">
        <ele>159.985085</ele>
        <time>2022-05-12T12:12:16.058Z</time>
      </trkpt>
      <trkpt lat="44.44774" lon="1.15027">
        <ele>160.286149</ele>
        <time>2022-05-12T12:12:18.051Z</time>
      </trkpt>
      <trkpt lat="44.44788" lon="1.15038">
        <ele>160.600849</ele>
        <time>2022-05-12T12:12:20.043Z</time>
      </trkpt>
      <trkpt lat="44.44797" lon="1.15037">
        <ele>160.77974</ele>
        <time>2022-05-12T12:12:21.060Z</time>
      </trkpt>
      <trkpt lat="44.44808" lon="1.15032">
        <ele>160.80943</ele>
        <time>2022-05-12T12:12:22.067Z</time>
      </trkpt>
      <trkpt lat="44.44819" lon="1.15038">
        <ele>160.382502</ele>
        <time>2022-05-12T12:12:24.054Z</time>
      </trkpt>
      <trkpt lat="44.44828" lon="1.15044">
        <ele>160.05317</ele>
        <time>2022-05-12T12:12:25.069Z</time>
      </trkpt>
      <trkpt lat="44.4484" lon="1.15037">
        <ele>159.610548</ele>
        <time>2022-05-12T12:12:26.082Z</time>
      </trkpt>
      <trkpt lat="44.44852" lon="1.15035">
        <ele>159.172147</ele>
        <time>2022-05-12T12:12:28.072Z</time>
      </trkpt>
      <trkpt lat="44.44862" lon="1.15032">
        <ele>158.825637</ele>
        <time>2022-05-12T12:12:29.070Z</time>
      </trkpt>
      <trkpt lat="44.44873" lon="1.15029">
        <ele>158.440949</ele>
        <time>2022-05-12T12:12:30.077Z</time>
      </trkpt>
      <trkpt lat="44.44889" lon="1.15028">
        <ele>157.884449</ele>
        <time>2022-05-12T12:12:32.110Z</time>
      </trkpt>
      <trkpt lat="44.44902" lon="1.1504">
        <ele>157.325585</ele>
        <time>2022-05-12T12:12:34.025Z</time>
      </trkpt>
      <trkpt lat="44.44912" lon="1.15039">
        <ele>156.9668</ele>
        <time>2022-05-12T12:12:35.058Z</time>
      </trkpt>
      <trkpt lat="44.44927" lon="1.15039">
        <ele>156.463301</ele>
        <time>2022-05-12T12:12:37.058Z</time>
      </trkpt>
      <trkpt lat="44.44937" lon="1.15036">
        <ele>156.103408</ele>
        <time>2022-05-12T12:12:38.109Z</time>
      </trkpt>
      <trkpt lat="44.44953" lon="1.15038">
        <ele>155.565789</ele>
        <time>2022-05-12T12:12:40.035Z</time>
      </trkpt>
      <trkpt lat="44.44967" lon="1.15046">
        <ele>155.025968</ele>
        <time>2022-05-12T12:12:42.066Z</time>
      </trkpt>
      <trkpt lat="44.44976" lon="1.15043">
        <ele>154.701444</ele>
        <time>2022-05-12T12:12:43.062Z</time>
      </trkpt>
      <trkpt lat="44.44992" lon="1.15042">
        <ele>155.400541</ele>
        <time>2022-05-12T12:12:45.053Z</time>
      </trkpt>
      <trkpt lat="44.45005" lon="1.15048">
        <ele>156.064839</ele>
        <time>2022-05-12T12:12:47.079Z</time>
      </trkpt>
      <trkpt lat="44.45019" lon="1.15055">
        <ele>156.778524</ele>
        <time>2022-05-12T12:12:49.039Z</time>
      </trkpt>
      <trkpt lat="44.45032" lon="1.15058">
        <ele>157.420997</ele>
        <time>2022-05-12T12:12:51.039Z</time>
      </trkpt>
      <trkpt lat="44.45044" lon="1.15051">
        <ele>158.057509</ele>
        <time>2022-05-12T12:12:53.048Z</time>
      </trkpt>
      <trkpt lat="44.45062" lon="1.15045">
        <ele>158.9401</ele>
        <time>2022-05-12T12:12:55.069Z</time>
      </trkpt>
      <trkpt lat="44.45077" lon="1.15037">
        <ele>159.680944</ele>
        <time>2022-05-12T12:12:57.036Z</time>
      </trkpt>
      <trkpt lat="44.45088" lon="1.15038">
        <ele>160.216558</ele>
        <time>2022-05-12T12:12:59.063Z</time>
      </trkpt>
      <trkpt lat="44.45104" lon="1.15038">
        <ele>160.971475</ele>
        <time>2022-05-12T12:13:01.052Z</time>
      </trkpt>
      <trkpt lat="44.45116" lon="1.15037">
        <ele>161.574832</ele>
        <time>2022-05-12T12:13:03.060Z</time>
      </trkpt>
      <trkpt lat="44.45132" lon="1.15033">
        <ele>162.309663</ele>
        <time>2022-05-12T12:13:05.041Z</time>
      </trkpt>
      <trkpt lat="44.45145" lon="1.1503">
        <ele>162.935255</ele>
        <time>2022-05-12T12:13:07.065Z</time>
      </trkpt>
      <trkpt lat="44.45161" lon="1.15026">
        <ele>163.102133</ele>
        <time>2022-05-12T12:13:09.055Z</time>
      </trkpt>
      <trkpt lat="44.45172" lon="1.15021">
        <ele>162.888901</ele>
        <time>2022-05-12T12:13:10.063Z</time>
      </trkpt>
      <trkpt lat="44.45187" lon="1.1502">
        <ele>162.605053</ele>
        <time>2022-05-12T12:13:12.042Z</time>
      </trkpt>
      <trkpt lat="44.45205" lon="1.15019">
        <ele>162.284228</ele>
        <time>2022-05-12T12:13:14.026Z</time>
      </trkpt>
      <trkpt lat="44.45219" lon="1.15023">
        <ele>162.00832</ele>
        <time>2022-05-12T12:13:16.056Z</time>
      </trkpt>
      <trkpt lat="44.45229" lon="1.15027">
        <ele>161.820367</ele>
        <time>2022-05-12T12:13:17.059Z</time>
      </trkpt>
      <trkpt lat="44.45239" lon="1.15029">
        <ele>161.635968</ele>
        <time>2022-05-12T12:13:18.021Z</time>
      </trkpt>
      <trkpt lat="44.45252" lon="1.15029">
        <ele>161.384034</ele>
        <time>2022-05-12T12:13:20.053Z</time>
      </trkpt>
      <trkpt lat="44.45269" lon="1.15032">
        <ele>161.078089</ele>
        <time>2022-05-12T12:13:22.067Z</time>
      </trkpt>
      <trkpt lat="44.45281" lon="1.15023">
        <ele>160.83116</ele>
        <time>2022-05-12T12:13:23.054Z</time>
      </trkpt>
      <trkpt lat="44.45296" lon="1.15024">
        <ele>160.543614</ele>
        <time>2022-05-12T12:13:25.053Z</time>
      </trkpt>
      <trkpt lat="44.45304" lon="1.15032">
        <ele>160.369087</ele>
        <time>2022-05-12T12:13:26.053Z</time>
      </trkpt>
      <trkpt lat="44.45318" lon="1.15047">
        <ele>160.043587</ele>
        <time>2022-05-12T12:13:28.052Z</time>
      </trkpt>
      <trkpt lat="44.45329" lon="1.15044">
        <ele>159.8352</ele>
        <time>2022-05-12T12:13:29.078Z</time>
      </trkpt>
      <trkpt lat="44.45338" lon="1.1505">
        <ele>159.676444</ele>
        <time>2022-05-12T12:13:30.103Z</time>
      </trkpt>
      <trkpt lat="44.45355" lon="1.1505">
        <ele>159.39718</ele>
        <time>2022-05-12T12:13:32.053Z</time>
      </trkpt>
      <trkpt lat="44.45364" lon="1.15043">
        <ele>159.222274</ele>
        <time>2022-05-12T12:13:33.077Z</time>
      </trkpt>
      <trkpt lat="44.45377" lon="1.15039">
        <ele>159.004706</ele>
        <time>2022-05-12T12:13:35.069Z</time>
      </trkpt>
      <trkpt lat="44.45389" lon="1.15036">
        <ele>158.798807</ele>
        <time>2022-05-12T12:13:37.054Z</time>
      </trkpt>
      <trkpt lat="44.45398" lon="1.15033">
        <ele>158.642251</ele>
        <time>2022-05-12T12:13:38.063Z</time>
      </trkpt>
      <trkpt lat="44.4541" lon="1.15028">
        <ele>158.438915</ele>
        <time>2022-05-12T12:13:39.055Z</time>
      </trkpt>
      <trkpt lat="44.45418" lon="1.15023">
        <ele>158.280611</ele>
        <time>2022-05-12T12:13:40.061Z</time>
      </trkpt>
      <trkpt lat="44.45435" lon="1.15021">
        <ele>157.995645</ele>
        <time>2022-05-12T12:13:42.053Z</time>
      </trkpt>
      <trkpt lat="44.45448" lon="1.15022">
        <ele>157.789244</ele>
        <time>2022-05-12T12:13:43.059Z</time>
      </trkpt>
      <trkpt lat="44.45462" lon="1.15024">
        <ele>157.560619</ele>
        <time>2022-05-12T12:13:45.040Z</time>
      </trkpt>
      <trkpt lat="44.45472" lon="1.15024">
        <ele>157.381092</ele>
        <time>2022-05-12T12:13:46.066Z</time>
      </trkpt>
      <trkpt lat="44.45481" lon="1.15025">
        <ele>157.228637</ele>
        <time>2022-05-12T12:13:47.063Z</time>
      </trkpt>
      <trkpt lat="44.45498" lon="1.15025">
        <ele>156.95651</ele>
        <time>2022-05-12T12:13:49.070Z</time>
      </trkpt>
      <trkpt lat="44.45514" lon="1.15027">
        <ele>156.742556</ele>
        <time>2022-05-12T12:13:51.060Z</time>
      </trkpt>
      <trkpt lat="44.45529" lon="1.15029">
        <ele>156.543184</ele>
        <time>2022-05-12T12:13:53.060Z</time>
      </trkpt>
      <trkpt lat="44.45539" lon="1.15034">
        <ele>156.413305</ele>
        <time>2022-05-12T12:13:54.082Z</time>
      </trkpt>
      <trkpt lat="44.45551" lon="1.15027">
        <ele>156.244783</ele>
        <time>2022-05-12T12:13:56.071Z</time>
      </trkpt>
      <trkpt lat="44.45566" lon="1.15032">
        <ele>156.039357</ele>
        <time>2022-05-12T12:13:58.055Z</time>
      </trkpt>
      <trkpt lat="44.45579" lon="1.15035">
        <ele>155.864043</ele>
        <time>2022-05-12T12:14:00.100Z</time>
      </trkpt>
      <trkpt lat="44.45588" lon="1.15036">
        <ele>155.745729</ele>
        <time>2022-05-12T12:14:01.053Z</time>
      </trkpt>
      <trkpt lat="44.45601" lon="1.15038">
        <ele>155.577612</ele>
        <time>2022-05-12T12:14:03.043Z</time>
      </trkpt>
      <trkpt lat="44.45615" lon="1.15032">
        <ele>155.382518</ele>
        <time>2022-05-12T12:14:05.057Z</time>
      </trkpt>
      <trkpt lat="44.45631" lon="1.15026">
        <ele>155.164432</ele>
        <time>2022-05-12T12:14:07.063Z</time>
      </trkpt>
      <trkpt lat="44.45648" lon="1.15019">
        <ele>154.939562</ele>
        <time>2022-05-12T12:14:09.058Z</time>
      </trkpt>
      <trkpt lat="44.45657" lon="1.15017">
        <ele>154.81657</ele>
        <time>2022-05-12T12:14:10.065Z</time>
      </trkpt>
      <trkpt lat="44.45677" lon="1.15013">
        <ele>154.558821</ele>
        <time>2022-05-12T12:14:12.102Z</time>
      </trkpt>
      <trkpt lat="44.45694" lon="1.1502">
        <ele>154.367339</ele>
        <time>2022-05-12T12:14:14.037Z</time>
      </trkpt>
      <trkpt lat="44.45702" lon="1.15027">
        <ele>154.260652</ele>
        <time>2022-05-12T12:14:15.052Z</time>
      </trkpt>
      <trkpt lat="44.45717" lon="1.15028">
        <ele>154.093509</ele>
        <time>2022-05-12T12:14:17.049Z</time>
      </trkpt>
      <trkpt lat="44.45732" lon="1.15027">
        <ele>153.928534</ele>
        <time>2022-05-12T12:14:19.065Z</time>
      </trkpt>
      <trkpt lat="44.45744" lon="1.15024">
        <ele>153.791519</ele>
        <time>2022-05-12T12:14:21.051Z</time>
      </trkpt>
      <trkpt lat="44.45755" lon="1.15022">
        <ele>153.670255</ele>
        <time>2022-05-12T12:14:22.043Z</time>
      </trkpt>
      <trkpt lat="44.45771" lon="1.15017">
        <ele>153.487187</ele>
        <time>2022-05-12T12:14:24.076Z</time>
      </trkpt>
      <trkpt lat="44.45781" lon="1.1502">
        <ele>153.375952</ele>
        <time>2022-05-12T12:14:25.072Z</time>
      </trkpt>
      <trkpt lat="44.45796" lon="1.1502">
        <ele>153.210192</ele>
        <time>2022-05-12T12:14:27.039Z</time>
      </trkpt>
      <trkpt lat="44.45804" lon="1.15014">
        <ele>153.103377</ele>
        <time>2022-05-12T12:14:28.043Z</time>
      </trkpt>
      <trkpt lat="44.45813" lon="1.15016">
        <ele>153.000172</ele>
        <time>2022-05-12T12:14:29.052Z</time>
      </trkpt>
      <trkpt lat="44.45826" lon="1.15004">
        <ele>152.832539</ele>
        <time>2022-05-12T12:14:31.048Z</time>
      </trkpt>
      <trkpt lat="44.45839" lon="1.15011">
        <ele>152.675617</ele>
        <time>2022-05-12T12:14:33.076Z</time>
      </trkpt>
      <trkpt lat="44.45853" lon="1.15011">
        <ele>152.55315</ele>
        <time>2022-05-12T12:14:35.068Z</time>
      </trkpt>
      <trkpt lat="44.45871" lon="1.15012">
        <ele>152.425359</ele>
        <time>2022-05-12T12:14:37.058Z</time>
      </trkpt>
      <trkpt lat="44.45888" lon="1.15008">
        <ele>152.30943</ele>
        <time>2022-05-12T12:14:39.068Z</time>
      </trkpt>
      <trkpt lat="44.45897" lon="1.15001">
        <ele>152.23797</ele>
        <time>2022-05-12T12:14:40.054Z</time>
      </trkpt>
      <trkpt lat="44.45913" lon="1.15004">
        <ele>152.124398</ele>
        <time>2022-05-12T12:14:42.072Z</time>
      </trkpt>
      <trkpt lat="44.45925" lon="1.15002">
        <ele>152.036798</ele>
        <time>2022-05-12T12:14:44.028Z</time>
      </trkpt>
      <trkpt lat="44.45941" lon="1.14998">
        <ele>151.922924</ele>
        <time>2022-05-12T12:14:45.052Z</time>
      </trkpt>
      <trkpt lat="44.45949" lon="1.14992">
        <ele>151.860432</ele>
        <time>2022-05-12T12:14:47.061Z</time>
      </trkpt>
      <trkpt lat="44.4596" lon="1.14987">
        <ele>151.784608</ele>
        <time>2022-05-12T12:14:48.094Z</time>
      </trkpt>
      <trkpt lat="44.45975" lon="1.14978">
        <ele>151.671978</ele>
        <time>2022-05-12T12:14:50.031Z</time>
      </trkpt>
      <trkpt lat="44.45983" lon="1.14974">
        <ele>151.607794</ele>
        <time>2022-05-12T12:14:51.047Z</time>
      </trkpt>
      <trkpt lat="44.45997" lon="1.1497">
        <ele>151.515273</ele>
        <time>2022-05-12T12:14:53.064Z</time>
      </trkpt>
      <trkpt lat="44.46015" lon="1.14964">
        <ele>151.380605</ele>
        <time>2022-05-12T12:14:55.057Z</time>
      </trkpt>
      <trkpt lat="44.46028" lon="1.14955">
        <ele>151.274698</ele>
        <time>2022-05-12T12:14:56.042Z</time>
      </trkpt>
      <trkpt lat="44.4604" lon="1.14959">
        <ele>151.179365</ele>
        <time>2022-05-12T12:14:58.059Z</time>
      </trkpt>
      <trkpt lat="44.4605" lon="1.14956">
        <ele>151.098952</ele>
        <time>2022-05-12T12:15:00.062Z</time>
      </trkpt>
      <trkpt lat="44.4606" lon="1.1495">
        <ele>151.013158</ele>
        <time>2022-05-12T12:15:02.054Z</time>
      </trkpt>
      <trkpt lat="44.46074" lon="1.14945">
        <ele>150.900644</ele>
        <time>2022-05-12T12:15:04.039Z</time>
      </trkpt>
      <trkpt lat="44.46087" lon="1.14942">
        <ele>150.798984</ele>
        <time>2022-05-12T12:15:06.057Z</time>
      </trkpt>
      <trkpt lat="44.46101" lon="1.14936">
        <ele>150.682951</ele>
        <time>2022-05-12T12:15:08.054Z</time>
      </trkpt>
      <trkpt lat="44.46114" lon="1.14929">
        <ele>150.571561</ele>
        <time>2022-05-12T12:15:10.059Z</time>
      </trkpt>
      <trkpt lat="44.46128" lon="1.14925">
        <ele>150.456778</ele>
        <time>2022-05-12T12:15:12.055Z</time>
      </trkpt>
      <trkpt lat="44.46144" lon="1.14913">
        <ele>150.31656</ele>
        <time>2022-05-12T12:15:14.033Z</time>
      </trkpt>
      <trkpt lat="44.4616" lon="1.14907">
        <ele>150.188643</ele>
        <time>2022-05-12T12:15:16.072Z</time>
      </trkpt>
      <trkpt lat="44.46173" lon="1.14901">
        <ele>150.080235</ele>
        <time>2022-05-12T12:15:18.061Z</time>
      </trkpt>
      <trkpt lat="44.46182" lon="1.14897">
        <ele>150.006954</ele>
        <time>2022-05-12T12:15:19.053Z</time>
      </trkpt>
      <trkpt lat="44.4619" lon="1.1489">
        <ele>149.944663</ele>
        <time>2022-05-12T12:15:20.047Z</time>
      </trkpt>
      <trkpt lat="44.46205" lon="1.14883">
        <ele>149.965925</ele>
        <time>2022-05-12T12:15:22.070Z</time>
      </trkpt>
      <trkpt lat="44.46214" lon="1.14873">
        <ele>149.981475</ele>
        <time>2022-05-12T12:15:23.087Z</time>
      </trkpt>
      <trkpt lat="44.46228" lon="1.14865">
        <ele>150.002134</ele>
        <time>2022-05-12T12:15:25.067Z</time>
      </trkpt>
      <trkpt lat="44.46237" lon="1.14849">
        <ele>150.022291</ele>
        <time>2022-05-12T12:15:27.055Z</time>
      </trkpt>
      <trkpt lat="44.46245" lon="1.14831">
        <ele>150.043405</ele>
        <time>2022-05-12T12:15:29.086Z</time>
      </trkpt>
      <trkpt lat="44.46246" lon="1.14811">
        <ele>150.062428</ele>
        <time>2022-05-12T12:15:31.074Z</time>
      </trkpt>
      <trkpt lat="44.46251" lon="1.14793">
        <ele>150.081478</ele>
        <time>2022-05-12T12:15:33.074Z</time>
      </trkpt>
      <trkpt lat="44.46249" lon="1.14772">
        <ele>150.10137</ele>
        <time>2022-05-12T12:15:35.105Z</time>
      </trkpt>
      <trkpt lat="44.4626" lon="1.1477">
        <ele>150.116381</ele>
        <time>2022-05-12T12:15:36.038Z</time>
      </trkpt>
      <trkpt lat="44.46266" lon="1.14754">
        <ele>150.133465</ele>
        <time>2022-05-12T12:15:38.074Z</time>
      </trkpt>
      <trkpt lat="44.46278" lon="1.14745">
        <ele>150.151983</ele>
        <time>2022-05-12T12:15:40.044Z</time>
      </trkpt>
      <trkpt lat="44.4629" lon="1.14737">
        <ele>150.169633</ele>
        <time>2022-05-12T12:15:41.049Z</time>
      </trkpt>
      <trkpt lat="44.46299" lon="1.14748">
        <ele>150.185675</ele>
        <time>2022-05-12T12:15:44.032Z</time>
      </trkpt>
      <trkpt lat="44.46311" lon="1.14754">
        <ele>150.448117</ele>
        <time>2022-05-12T12:15:46.102Z</time>
      </trkpt>
      <trkpt lat="44.46324" lon="1.14765">
        <ele>150.809246</ele>
        <time>2022-05-12T12:15:48.056Z</time>
      </trkpt>
      <trkpt lat="44.46337" lon="1.14768">
        <ele>151.092759</ele>
        <time>2022-05-12T12:15:50.064Z</time>
      </trkpt>
      <trkpt lat="44.46346" lon="1.14782">
        <ele>151.397901</ele>
        <time>2022-05-12T12:15:52.106Z</time>
      </trkpt>
      <trkpt lat="44.46356" lon="1.1479">
        <ele>151.66917</ele>
        <time>2022-05-12T12:15:54.048Z</time>
      </trkpt>
      <trkpt lat="44.4637" lon="1.14791">
        <ele>151.991661</ele>
        <time>2022-05-12T12:15:56.081Z</time>
      </trkpt>
      <trkpt lat="44.46384" lon="1.14796">
        <ele>152.323126</ele>
        <time>2022-05-12T12:15:58.099Z</time>
      </trkpt>
      <trkpt lat="44.46396" lon="1.14797">
        <ele>152.596245</ele>
        <time>2022-05-12T12:16:00.048Z</time>
      </trkpt>
      <trkpt lat="44.46407" lon="1.14809">
        <ele>152.92454</ele>
        <time>2022-05-12T12:16:02.049Z</time>
      </trkpt>
      <trkpt lat="44.46415" lon="1.14816">
        <ele>153.139074</ele>
        <time>2022-05-12T12:16:03.043Z</time>
      </trkpt>
      <trkpt lat="44.46425" lon="1.1482">
        <ele>153.381407</ele>
        <time>2022-05-12T12:16:05.065Z</time>
      </trkpt>
      <trkpt lat="44.46436" lon="1.14824">
        <ele>153.634771</ele>
        <time>2022-05-12T12:16:07.043Z</time>
      </trkpt>
      <trkpt lat="44.46452" lon="1.14834">
        <ele>154.038817</ele>
        <time>2022-05-12T12:16:09.057Z</time>
      </trkpt>
      <trkpt lat="44.46464" lon="1.14854">
        <ele>154.340463</ele>
        <time>2022-05-12T12:16:11.067Z</time>
      </trkpt>
      <trkpt lat="44.46471" lon="1.14863">
        <ele>154.358663</ele>
        <time>2022-05-12T12:16:12.067Z</time>
      </trkpt>
      <trkpt lat="44.46478" lon="1.1487">
        <ele>154.377402</ele>
        <time>2022-05-12T12:16:13.073Z</time>
      </trkpt>
      <trkpt lat="44.46491" lon="1.14881">
        <ele>154.40627</ele>
        <time>2022-05-12T12:16:15.062Z</time>
      </trkpt>
      <trkpt lat="44.46503" lon="1.14886">
        <ele>154.431868</ele>
        <time>2022-05-12T12:16:17.077Z</time>
      </trkpt>
      <trkpt lat="44.46516" lon="1.14899">
        <ele>154.463836</ele>
        <time>2022-05-12T12:16:19.052Z</time>
      </trkpt>
      <trkpt lat="44.46527" lon="1.14911">
        <ele>154.490498</ele>
        <time>2022-05-12T12:16:21.088Z</time>
      </trkpt>
      <trkpt lat="44.46541" lon="1.14918">
        <ele>154.520508</ele>
        <time>2022-05-12T12:16:23.049Z</time>
      </trkpt>
      <trkpt lat="44.4655" lon="1.14924">
        <ele>154.539425</ele>
        <time>2022-05-12T12:16:24.043Z</time>
      </trkpt>
      <trkpt lat="44.46564" lon="1.14926">
        <ele>154.568724</ele>
        <time>2022-05-12T12:16:27.075Z</time>
      </trkpt>
      <trkpt lat="44.46573" lon="1.14932">
        <ele>154.587508</ele>
        <time>2022-05-12T12:16:28.075Z</time>
      </trkpt>
      <trkpt lat="44.46586" lon="1.14942">
        <ele>154.617402</ele>
        <time>2022-05-12T12:16:30.049Z</time>
      </trkpt>
      <trkpt lat="44.46598" lon="1.14946">
        <ele>154.6411</ele>
        <time>2022-05-12T12:16:32.060Z</time>
      </trkpt>
      <trkpt lat="44.46606" lon="1.14957">
        <ele>154.662378</ele>
        <time>2022-05-12T12:16:33.080Z</time>
      </trkpt>
      <trkpt lat="44.46621" lon="1.14965">
        <ele>154.575941</ele>
        <time>2022-05-12T12:16:35.068Z</time>
      </trkpt>
      <trkpt lat="44.46636" lon="1.14977">
        <ele>154.18212</ele>
        <time>2022-05-12T12:16:37.073Z</time>
      </trkpt>
      <trkpt lat="44.46652" lon="1.14986">
        <ele>153.792439</ele>
        <time>2022-05-12T12:16:39.095Z</time>
      </trkpt>
      <trkpt lat="44.46668" lon="1.14997">
        <ele>153.394924</ele>
        <time>2022-05-12T12:16:41.066Z</time>
      </trkpt>
      <trkpt lat="44.46677" lon="1.15001">
        <ele>153.191399</ele>
        <time>2022-05-12T12:16:42.057Z</time>
      </trkpt>
      <trkpt lat="44.46685" lon="1.15007">
        <ele>152.98449</ele>
        <time>2022-05-12T12:16:43.065Z</time>
      </trkpt>
      <trkpt lat="44.467" lon="1.15016">
        <ele>152.611788</ele>
        <time>2022-05-12T12:16:45.082Z</time>
      </trkpt>
      <trkpt lat="44.46711" lon="1.15016">
        <ele>152.366835</ele>
        <time>2022-05-12T12:16:46.048Z</time>
      </trkpt>
      <trkpt lat="44.4672" lon="1.15019">
        <ele>152.141037</ele>
        <time>2022-05-12T12:16:47.071Z</time>
      </trkpt>
      <trkpt lat="44.46733" lon="1.15025">
        <ele>151.83723</ele>
        <time>2022-05-12T12:16:49.048Z</time>
      </trkpt>
      <trkpt lat="44.46742" lon="1.15022">
        <ele>151.628677</ele>
        <time>2022-05-12T12:16:50.054Z</time>
      </trkpt>
      <trkpt lat="44.46754" lon="1.15026">
        <ele>151.355223</ele>
        <time>2022-05-12T12:16:52.054Z</time>
      </trkpt>
      <trkpt lat="44.46765" lon="1.15037">
        <ele>151.050684</ele>
        <time>2022-05-12T12:16:53.068Z</time>
      </trkpt>
      <trkpt lat="44.46775" lon="1.15039">
        <ele>150.82253</ele>
        <time>2022-05-12T12:16:55.069Z</time>
      </trkpt>
      <trkpt lat="44.46788" lon="1.15041">
        <ele>150.595142</ele>
        <time>2022-05-12T12:16:56.043Z</time>
      </trkpt>
      <trkpt lat="44.46798" lon="1.15044">
        <ele>150.474257</ele>
        <time>2022-05-12T12:16:57.094Z</time>
      </trkpt>
      <trkpt lat="44.46801" lon="1.15056">
        <ele>150.369589</ele>
        <time>2022-05-12T12:16:58.046Z</time>
      </trkpt>
      <trkpt lat="44.46814" lon="1.15068">
        <ele>150.192095</ele>
        <time>2022-05-12T12:17:00.037Z</time>
      </trkpt>
      <trkpt lat="44.46824" lon="1.15078">
        <ele>150.04749</ele>
        <time>2022-05-12T12:17:02.065Z</time>
      </trkpt>
      <trkpt lat="44.46837" lon="1.15082">
        <ele>149.894168</ele>
        <time>2022-05-12T12:17:04.033Z</time>
      </trkpt>
      <trkpt lat="44.46855" lon="1.15084">
        <ele>149.693151</ele>
        <time>2022-05-12T12:17:06.047Z</time>
      </trkpt>
      <trkpt lat="44.46864" lon="1.15085">
        <ele>149.588454</ele>
        <time>2022-05-12T12:17:07.049Z</time>
      </trkpt>
      <trkpt lat="44.46878" lon="1.15088">
        <ele>149.426825</ele>
        <time>2022-05-12T12:17:09.099Z</time>
      </trkpt>
      <trkpt lat="44.46891" lon="1.15078">
        <ele>149.255634</ele>
        <time>2022-05-12T12:17:11.055Z</time>
      </trkpt>
      <trkpt lat="44.46903" lon="1.15083">
        <ele>149.11598</ele>
        <time>2022-05-12T12:17:12.058Z</time>
      </trkpt>
      <trkpt lat="44.46915" lon="1.15084">
        <ele>148.973237</ele>
        <time>2022-05-12T12:17:14.053Z</time>
      </trkpt>
      <trkpt lat="44.46933" lon="1.15087">
        <ele>148.768238</ele>
        <time>2022-05-12T12:17:16.052Z</time>
      </trkpt>
      <trkpt lat="44.46949" lon="1.15088">
        <ele>148.58659</ele>
        <time>2022-05-12T12:17:18.063Z</time>
      </trkpt>
      <trkpt lat="44.4696" lon="1.15084">
        <ele>148.555107</ele>
        <time>2022-05-12T12:17:20.104Z</time>
      </trkpt>
      <trkpt lat="44.46974" lon="1.15083">
        <ele>148.525271</ele>
        <time>2022-05-12T12:17:22.060Z</time>
      </trkpt>
      <trkpt lat="44.46988" lon="1.15085">
        <ele>148.495549</ele>
        <time>2022-05-12T12:17:24.043Z</time>
      </trkpt>
      <trkpt lat="44.47002" lon="1.15086">
        <ele>148.467071</ele>
        <time>2022-05-12T12:17:26.101Z</time>
      </trkpt>
      <trkpt lat="44.4701" lon="1.15091">
        <ele>148.447794</ele>
        <time>2022-05-12T12:17:27.071Z</time>
      </trkpt>
      <trkpt lat="44.47024" lon="1.15098">
        <ele>148.416886</ele>
        <time>2022-05-12T12:17:29.053Z</time>
      </trkpt>
      <trkpt lat="44.47037" lon="1.15105">
        <ele>148.387992</ele>
        <time>2022-05-12T12:17:31.079Z</time>
      </trkpt>
      <trkpt lat="44.47049" lon="1.15103">
        <ele>148.362768</ele>
        <time>2022-05-12T12:17:33.061Z</time>
      </trkpt>
      <trkpt lat="44.47061" lon="1.151">
        <ele>148.337286</ele>
        <time>2022-05-12T12:17:35.057Z</time>
      </trkpt>
      <trkpt lat="44.47075" lon="1.15101">
        <ele>148.308997</ele>
        <time>2022-05-12T12:17:37.069Z</time>
      </trkpt>
      <trkpt lat="44.47087" lon="1.151">
        <ele>148.2838</ele>
        <time>2022-05-12T12:17:39.049Z</time>
      </trkpt>
      <trkpt lat="44.47097" lon="1.15097">
        <ele>148.261844</ele>
        <time>2022-05-12T12:17:41.073Z</time>
      </trkpt>
      <trkpt lat="44.47111" lon="1.15094">
        <ele>148.23273</ele>
        <time>2022-05-12T12:17:43.079Z</time>
      </trkpt>
      <trkpt lat="44.47122" lon="1.15089">
        <ele>148.208022</ele>
        <time>2022-05-12T12:17:45.056Z</time>
      </trkpt>
      <trkpt lat="44.47134" lon="1.15083">
        <ele>147.931041</ele>
        <time>2022-05-12T12:17:47.073Z</time>
      </trkpt>
      <trkpt lat="44.47143" lon="1.15071">
        <ele>147.561004</ele>
        <time>2022-05-12T12:17:49.070Z</time>
      </trkpt>
      <trkpt lat="44.47156" lon="1.15064">
        <ele>147.166641</ele>
        <time>2022-05-12T12:17:51.049Z</time>
      </trkpt>
      <trkpt lat="44.47165" lon="1.15056">
        <ele>146.860311</ele>
        <time>2022-05-12T12:17:53.050Z</time>
      </trkpt>
      <trkpt lat="44.47177" lon="1.15046">
        <ele>146.471345</ele>
        <time>2022-05-12T12:17:55.067Z</time>
      </trkpt>
      <trkpt lat="44.47187" lon="1.1504">
        <ele>146.144145</ele>
        <time>2022-05-12T12:17:57.064Z</time>
      </trkpt>
      <trkpt lat="44.47195" lon="1.15027">
        <ele>145.808368</ele>
        <time>2022-05-12T12:17:59.059Z</time>
      </trkpt>
      <trkpt lat="44.47208" lon="1.15026">
        <ele>145.419309</ele>
        <time>2022-05-12T12:18:01.059Z</time>
      </trkpt>
      <trkpt lat="44.47223" lon="1.15022">
        <ele>144.996432</ele>
        <time>2022-05-12T12:18:03.065Z</time>
      </trkpt>
      <trkpt lat="44.47239" lon="1.15022">
        <ele>144.516858</ele>
        <time>2022-05-12T12:18:05.062Z</time>
      </trkpt>
      <trkpt lat="44.47256" lon="1.15021">
        <ele>144.051196</ele>
        <time>2022-05-12T12:18:07.052Z</time>
      </trkpt>
      <trkpt lat="44.47276" lon="1.15027">
        <ele>143.461039</ele>
        <time>2022-05-12T12:18:09.066Z</time>
      </trkpt>
      <trkpt lat="44.47289" lon="1.15032">
        <ele>143.076574</ele>
        <time>2022-05-12T12:18:10.054Z</time>
      </trkpt>
      <trkpt lat="44.473" lon="1.15034">
        <ele>142.852138</ele>
        <time>2022-05-12T12:18:11.055Z</time>
      </trkpt>
      <trkpt lat="44.4731" lon="1.15039">
        <ele>142.655097</ele>
        <time>2022-05-12T12:18:12.060Z</time>
      </trkpt>
      <trkpt lat="44.47321" lon="1.15034">
        <ele>142.464</ele>
        <time>2022-05-12T12:18:13.075Z</time>
      </trkpt>
      <trkpt lat="44.47331" lon="1.15037">
        <ele>142.263301</ele>
        <time>2022-05-12T12:18:14.051Z</time>
      </trkpt>
      <trkpt lat="44.47347" lon="1.15031">
        <ele>141.975181</ele>
        <time>2022-05-12T12:18:16.060Z</time>
      </trkpt>
      <trkpt lat="44.4736" lon="1.15034">
        <ele>141.732923</ele>
        <time>2022-05-12T12:18:17.058Z</time>
      </trkpt>
      <trkpt lat="44.47378" lon="1.15025">
        <ele>141.391027</ele>
        <time>2022-05-12T12:18:19.078Z</time>
      </trkpt>
      <trkpt lat="44.47389" lon="1.15025">
        <ele>141.181189</ele>
        <time>2022-05-12T12:18:20.050Z</time>
      </trkpt>
      <trkpt lat="44.47406" lon="1.15024">
        <ele>140.877555</ele>
        <time>2022-05-12T12:18:22.046Z</time>
      </trkpt>
      <trkpt lat="44.47419" lon="1.1502">
        <ele>140.643847</ele>
        <time>2022-05-12T12:18:24.031Z</time>
      </trkpt>
      <trkpt lat="44.47429" lon="1.1502">
        <ele>140.455904</ele>
        <time>2022-05-12T12:18:26.051Z</time>
      </trkpt>
      <trkpt lat="44.47433" lon="1.15002">
        <ele>140.215642</ele>
        <time>2022-05-12T12:18:28.056Z</time>
      </trkpt>
      <trkpt lat="44.47441" lon="1.14998">
        <ele>140.053225</ele>
        <time>2022-05-12T12:18:31.092Z</time>
      </trkpt>
      <trkpt lat="44.47442" lon="1.14977">
        <ele>139.788709</ele>
        <time>2022-05-12T12:18:34.042Z</time>
      </trkpt>
      <trkpt lat="44.47444" lon="1.14961">
        <ele>140.041809</ele>
        <time>2022-05-12T12:18:36.061Z</time>
      </trkpt>
      <trkpt lat="44.47442" lon="1.14943">
        <ele>140.317053</ele>
        <time>2022-05-12T12:18:38.046Z</time>
      </trkpt>
      <trkpt lat="44.47444" lon="1.14928">
        <ele>140.550486</ele>
        <time>2022-05-12T12:18:40.066Z</time>
      </trkpt>
      <trkpt lat="44.47442" lon="1.14908">
        <ele>140.855625</ele>
        <time>2022-05-12T12:18:43.081Z</time>
      </trkpt>
      <trkpt lat="44.47442" lon="1.1489">
        <ele>141.131501</ele>
        <time>2022-05-12T12:18:45.043Z</time>
      </trkpt>
      <trkpt lat="44.47445" lon="1.14874">
        <ele>141.38689</ele>
        <time>2022-05-12T12:18:47.056Z</time>
      </trkpt>
      <trkpt lat="44.47443" lon="1.14856">
        <ele>141.67207</ele>
        <time>2022-05-12T12:18:49.064Z</time>
      </trkpt>
      <trkpt lat="44.4744" lon="1.14842">
        <ele>141.89674</ele>
        <time>2022-05-12T12:18:51.039Z</time>
      </trkpt>
      <trkpt lat="44.4744" lon="1.14823">
        <ele>142.18841</ele>
        <time>2022-05-12T12:18:53.054Z</time>
      </trkpt>
      <trkpt lat="44.47435" lon="1.14811">
        <ele>142.401066</ele>
        <time>2022-05-12T12:18:55.069Z</time>
      </trkpt>
      <trkpt lat="44.47436" lon="1.14791">
        <ele>142.711208</ele>
        <time>2022-05-12T12:18:57.065Z</time>
      </trkpt>
      <trkpt lat="44.47434" lon="1.14772">
        <ele>142.996879</ele>
        <time>2022-05-12T12:18:58.067Z</time>
      </trkpt>
      <trkpt lat="44.47437" lon="1.14755">
        <ele>143.274256</ele>
        <time>2022-05-12T12:19:00.093Z</time>
      </trkpt>
      <trkpt lat="44.47439" lon="1.14735">
        <ele>143.584605</ele>
        <time>2022-05-12T12:19:02.071Z</time>
      </trkpt>
      <trkpt lat="44.47441" lon="1.14718">
        <ele>143.633651</ele>
        <time>2022-05-12T12:19:03.052Z</time>
      </trkpt>
      <trkpt lat="44.47438" lon="1.14698">
        <ele>143.563083</ele>
        <time>2022-05-12T12:19:06.078Z</time>
      </trkpt>
      <trkpt lat="44.47433" lon="1.14679">
        <ele>143.495154</ele>
        <time>2022-05-12T12:19:08.042Z</time>
      </trkpt>
      <trkpt lat="44.47434" lon="1.14659">
        <ele>143.426232</ele>
        <time>2022-05-12T12:19:10.059Z</time>
      </trkpt>
      <trkpt lat="44.47437" lon="1.14643">
        <ele>143.371737</ele>
        <time>2022-05-12T12:19:12.097Z</time>
      </trkpt>
      <trkpt lat="44.47438" lon="1.14627">
        <ele>143.315298</ele>
        <time>2022-05-12T12:19:14.033Z</time>
      </trkpt>
      <trkpt lat="44.47442" lon="1.1461">
        <ele>143.254526</ele>
        <time>2022-05-12T12:19:16.062Z</time>
      </trkpt>
      <trkpt lat="44.47453" lon="1.14598">
        <ele>143.189989</ele>
        <time>2022-05-12T12:19:18.105Z</time>
      </trkpt>
      <trkpt lat="44.47454" lon="1.14585">
        <ele>143.144362</ele>
        <time>2022-05-12T12:19:19.071Z</time>
      </trkpt>
      <trkpt lat="44.47463" lon="1.14562">
        <ele>143.054669</ele>
        <time>2022-05-12T12:19:21.054Z</time>
      </trkpt>
      <trkpt lat="44.47468" lon="1.14536">
        <ele>142.964981</ele>
        <time>2022-05-12T12:19:23.052Z</time>
      </trkpt>
      <trkpt lat="44.47474" lon="1.1451">
        <ele>142.872906</ele>
        <time>2022-05-12T12:19:26.065Z</time>
      </trkpt>
      <trkpt lat="44.47481" lon="1.14488">
        <ele>145.775472</ele>
        <time>2022-05-12T12:19:28.063Z</time>
      </trkpt>
      <trkpt lat="44.47484" lon="1.14471">
        <ele>152.590279</ele>
        <time>2022-05-12T12:19:30.088Z</time>
      </trkpt>
      <trkpt lat="44.47488" lon="1.14455">
        <ele>159.34574</ele>
        <time>2022-05-12T12:19:32.058Z</time>
      </trkpt>
      <trkpt lat="44.47492" lon="1.14435">
        <ele>167.118585</ele>
        <time>2022-05-12T12:19:34.027Z</time>
      </trkpt>
      <trkpt lat="44.47494" lon="1.14419">
        <ele>173.626022</ele>
        <time>2022-05-12T12:19:36.064Z</time>
      </trkpt>
      <trkpt lat="44.47502" lon="1.14399">
        <ele>182.210699</ele>
        <time>2022-05-12T12:19:38.063Z</time>
      </trkpt>
      <trkpt lat="44.47506" lon="1.14387">
        <ele>187.393311</ele>
        <time>2022-05-12T12:19:40.065Z</time>
      </trkpt>
      <trkpt lat="44.4751" lon="1.14374">
        <ele>192.992141</ele>
        <time>2022-05-12T12:19:42.086Z</time>
      </trkpt>
      <trkpt lat="44.47517" lon="1.14354">
        <ele>201.51727</ele>
        <time>2022-05-12T12:19:44.030Z</time>
      </trkpt>
      <trkpt lat="44.47521" lon="1.14339">
        <ele>207.753484</ele>
        <time>2022-05-12T12:19:46.052Z</time>
      </trkpt>
      <trkpt lat="44.47527" lon="1.14321">
        <ele>215.538084</ele>
        <time>2022-05-12T12:19:48.096Z</time>
      </trkpt>
      <trkpt lat="44.47532" lon="1.14308">
        <ele>220.859674</ele>
        <time>2022-05-12T12:19:50.053Z</time>
      </trkpt>
      <trkpt lat="44.47534" lon="1.14291">
        <ele>227.586612</ele>
        <time>2022-05-12T12:19:52.069Z</time>
      </trkpt>
      <trkpt lat="44.47536" lon="1.14272">
        <ele>235.186571</ele>
        <time>2022-05-12T12:19:54.025Z</time>
      </trkpt>
      <trkpt lat="44.47539" lon="1.14255">
        <ele>240.085871</ele>
        <time>2022-05-12T12:19:56.054Z</time>
      </trkpt>
      <trkpt lat="44.47543" lon="1.14233">
        <ele>239.959287</ele>
        <time>2022-05-12T12:19:58.069Z</time>
      </trkpt>
      <trkpt lat="44.4755" lon="1.14213">
        <ele>239.828865</ele>
        <time>2022-05-12T12:20:00.067Z</time>
      </trkpt>
      <trkpt lat="44.47552" lon="1.14194">
        <ele>239.721179</ele>
        <time>2022-05-12T12:20:02.064Z</time>
      </trkpt>
      <trkpt lat="44.47552" lon="1.14174">
        <ele>239.607601</ele>
        <time>2022-05-12T12:20:04.038Z</time>
      </trkpt>
      <trkpt lat="44.47556" lon="1.14155">
        <ele>239.490985</ele>
        <time>2022-05-12T12:20:06.059Z</time>
      </trkpt>
      <trkpt lat="44.47561" lon="1.14133">
        <ele>239.362247</ele>
        <time>2022-05-12T12:20:08.076Z</time>
      </trkpt>
      <trkpt lat="44.47564" lon="1.1411">
        <ele>239.228587</ele>
        <time>2022-05-12T12:20:10.075Z</time>
      </trkpt>
      <trkpt lat="44.47569" lon="1.1409">
        <ele>239.104333</ele>
        <time>2022-05-12T12:20:12.077Z</time>
      </trkpt>
      <trkpt lat="44.47571" lon="1.1407">
        <ele>238.989929</ele>
        <time>2022-05-12T12:20:14.038Z</time>
      </trkpt>
      <trkpt lat="44.47573" lon="1.14055">
        <ele>238.902</ele>
        <time>2022-05-12T12:20:15.070Z</time>
      </trkpt>
      <trkpt lat="44.47581" lon="1.14032">
        <ele>238.757254</ele>
        <time>2022-05-12T12:20:17.107Z</time>
      </trkpt>
      <trkpt lat="44.47587" lon="1.14009">
        <ele>239.487595</ele>
        <time>2022-05-12T12:20:19.070Z</time>
      </trkpt>
      <trkpt lat="44.47591" lon="1.13991">
        <ele>241.185347</ele>
        <time>2022-05-12T12:20:21.058Z</time>
      </trkpt>
      <trkpt lat="44.47594" lon="1.13978">
        <ele>242.341197</ele>
        <time>2022-05-12T12:20:22.057Z</time>
      </trkpt>
      <trkpt lat="44.47599" lon="1.13955">
        <ele>244.571917</ele>
        <time>2022-05-12T12:20:24.037Z</time>
      </trkpt>
      <trkpt lat="44.47601" lon="1.13934">
        <ele>246.386945</ele>
        <time>2022-05-12T12:20:26.039Z</time>
      </trkpt>
      <trkpt lat="44.47605" lon="1.13914">
        <ele>248.246668</ele>
        <time>2022-05-12T12:20:28.082Z</time>
      </trkpt>
      <trkpt lat="44.47609" lon="1.13903">
        <ele>249.38914</ele>
        <time>2022-05-12T12:20:29.092Z</time>
      </trkpt>
      <trkpt lat="44.47613" lon="1.13891">
        <ele>250.511594</ele>
        <time>2022-05-12T12:20:30.056Z</time>
      </trkpt>
      <trkpt lat="44.47616" lon="1.13877">
        <ele>251.794138</ele>
        <time>2022-05-12T12:20:31.066Z</time>
      </trkpt>
      <trkpt lat="44.4762" lon="1.13862">
        <ele>253.238229</ele>
        <time>2022-05-12T12:20:33.067Z</time>
      </trkpt>
      <trkpt lat="44.47629" lon="1.13842">
        <ele>255.373425</ele>
        <time>2022-05-12T12:20:35.104Z</time>
      </trkpt>
      <trkpt lat="44.47638" lon="1.13827">
        <ele>257.092327</ele>
        <time>2022-05-12T12:20:37.072Z</time>
      </trkpt>
      <trkpt lat="44.47641" lon="1.13815">
        <ele>258.222318</ele>
        <time>2022-05-12T12:20:38.063Z</time>
      </trkpt>
      <trkpt lat="44.47654" lon="1.13802">
        <ele>260.257339</ele>
        <time>2022-05-12T12:20:40.085Z</time>
      </trkpt>
      <trkpt lat="44.47657" lon="1.13784">
        <ele>259.777068</ele>
        <time>2022-05-12T12:20:42.066Z</time>
      </trkpt>
      <trkpt lat="44.47664" lon="1.13777">
        <ele>258.002093</ele>
        <time>2022-05-12T12:20:43.055Z</time>
      </trkpt>
      <trkpt lat="44.47669" lon="1.13765">
        <ele>256.04611</ele>
        <time>2022-05-12T12:20:45.061Z</time>
      </trkpt>
      <trkpt lat="44.47679" lon="1.13752">
        <ele>253.540115</ele>
        <time>2022-05-12T12:20:47.099Z</time>
      </trkpt>
      <trkpt lat="44.47682" lon="1.1374">
        <ele>251.765652</ele>
        <time>2022-05-12T12:20:49.075Z</time>
      </trkpt>
      <trkpt lat="44.47692" lon="1.13735">
        <ele>249.702898</ele>
        <time>2022-05-12T12:20:50.076Z</time>
      </trkpt>
      <trkpt lat="44.47689" lon="1.13721">
        <ele>247.730974</ele>
        <time>2022-05-12T12:20:52.063Z</time>
      </trkpt>
      <trkpt lat="44.47687" lon="1.13708">
        <ele>245.859267</ele>
        <time>2022-05-12T12:20:54.038Z</time>
      </trkpt>
      <trkpt lat="44.47685" lon="1.13694">
        <ele>243.991252</ele>
        <time>2022-05-12T12:20:57.066Z</time>
      </trkpt>
      <trkpt lat="44.4768" lon="1.13683">
        <ele>242.147367</ele>
        <time>2022-05-12T12:20:59.093Z</time>
      </trkpt>
      <trkpt lat="44.47672" lon="1.13673">
        <ele>240.018759</ele>
        <time>2022-05-12T12:21:02.076Z</time>
      </trkpt>
      <trkpt lat="44.47662" lon="1.13665">
        <ele>237.839038</ele>
        <time>2022-05-12T12:21:04.030Z</time>
      </trkpt>
      <trkpt lat="44.47651" lon="1.13654">
        <ele>235.256847</ele>
        <time>2022-05-12T12:21:07.070Z</time>
      </trkpt>
      <trkpt lat="44.47646" lon="1.13642">
        <ele>233.327351</ele>
        <time>2022-05-12T12:21:09.066Z</time>
      </trkpt>
      <trkpt lat="44.47639" lon="1.13631">
        <ele>231.207909</ele>
        <time>2022-05-12T12:21:11.101Z</time>
      </trkpt>
      <trkpt lat="44.47633" lon="1.13618">
        <ele>229.117564</ele>
        <time>2022-05-12T12:21:13.065Z</time>
      </trkpt>
      <trkpt lat="44.47626" lon="1.13606">
        <ele>226.972859</ele>
        <time>2022-05-12T12:21:15.074Z</time>
      </trkpt>
      <trkpt lat="44.47617" lon="1.13591">
        <ele>224.899004</ele>
        <time>2022-05-12T12:21:18.069Z</time>
      </trkpt>
      <trkpt lat="44.47611" lon="1.13576">
        <ele>223.248959</ele>
        <time>2022-05-12T12:21:20.080Z</time>
      </trkpt>
      <trkpt lat="44.47605" lon="1.13564">
        <ele>221.843293</ele>
        <time>2022-05-12T12:21:22.072Z</time>
      </trkpt>
      <trkpt lat="44.47599" lon="1.13549">
        <ele>220.225232</ele>
        <time>2022-05-12T12:21:24.045Z</time>
      </trkpt>
      <trkpt lat="44.47592" lon="1.13539">
        <ele>218.895848</ele>
        <time>2022-05-12T12:21:26.083Z</time>
      </trkpt>
      <trkpt lat="44.47582" lon="1.13532">
        <ele>217.484919</ele>
        <time>2022-05-12T12:21:29.112Z</time>
      </trkpt>
      <trkpt lat="44.47573" lon="1.13519">
        <ele>215.686437</ele>
        <time>2022-05-12T12:21:32.045Z</time>
      </trkpt>
      <trkpt lat="44.47564" lon="1.13507">
        <ele>214.023649</ele>
        <time>2022-05-12T12:21:34.033Z</time>
      </trkpt>
      <trkpt lat="44.47557" lon="1.13492">
        <ele>212.371561</ele>
        <time>2022-05-12T12:21:36.064Z</time>
      </trkpt>
      <trkpt lat="44.47548" lon="1.13482">
        <ele>210.89778</ele>
        <time>2022-05-12T12:21:38.056Z</time>
      </trkpt>
      <trkpt lat="44.4754" lon="1.13475">
        <ele>209.666605</ele>
        <time>2022-05-12T12:21:40.054Z</time>
      </trkpt>
      <trkpt lat="44.47533" lon="1.13463">
        <ele>208.163717</ele>
        <time>2022-05-12T12:21:42.063Z</time>
      </trkpt>
      <trkpt lat="44.47529" lon="1.13446">
        <ele>206.468906</ele>
        <time>2022-05-12T12:21:44.042Z</time>
      </trkpt>
      <trkpt lat="44.47525" lon="1.13432">
        <ele>205.048695</ele>
        <time>2022-05-12T12:21:46.060Z</time>
      </trkpt>
      <trkpt lat="44.47521" lon="1.13421">
        <ele>203.820553</ele>
        <time>2022-05-12T12:21:48.074Z</time>
      </trkpt>
      <trkpt lat="44.47522" lon="1.13406">
        <ele>202.433015</ele>
        <time>2022-05-12T12:21:50.071Z</time>
      </trkpt>
      <trkpt lat="44.47522" lon="1.13391">
        <ele>199.926427</ele>
        <time>2022-05-12T12:21:52.056Z</time>
      </trkpt>
      <trkpt lat="44.47523" lon="1.13371">
        <ele>196.645508</ele>
        <time>2022-05-12T12:21:55.059Z</time>
      </trkpt>
      <trkpt lat="44.47516" lon="1.13355">
        <ele>193.402339</ele>
        <time>2022-05-12T12:21:57.058Z</time>
      </trkpt>
      <trkpt lat="44.47507" lon="1.13347">
        <ele>190.973412</ele>
        <time>2022-05-12T12:21:58.049Z</time>
      </trkpt>
      <trkpt lat="44.47496" lon="1.13339">
        <ele>188.170979</ele>
        <time>2022-05-12T12:22:00.048Z</time>
      </trkpt>
      <trkpt lat="44.47495" lon="1.13326">
        <ele>185.905011</ele>
        <time>2022-05-12T12:22:03.063Z</time>
      </trkpt>
      <trkpt lat="44.47495" lon="1.1331">
        <ele>183.306222</ele>
        <time>2022-05-12T12:22:06.045Z</time>
      </trkpt>
      <trkpt lat="44.47495" lon="1.13297">
        <ele>181.083089</ele>
        <time>2022-05-12T12:22:09.068Z</time>
      </trkpt>
      <trkpt lat="44.47498" lon="1.13278">
        <ele>177.760421</ele>
        <time>2022-05-12T12:22:11.053Z</time>
      </trkpt>
      <trkpt lat="44.47495" lon="1.13265">
        <ele>175.514562</ele>
        <time>2022-05-12T12:22:13.085Z</time>
      </trkpt>
      <trkpt lat="44.47491" lon="1.13252">
        <ele>173.182566</ele>
        <time>2022-05-12T12:22:15.044Z</time>
      </trkpt>
      <trkpt lat="44.47492" lon="1.13237">
        <ele>170.59962</ele>
        <time>2022-05-12T12:22:17.036Z</time>
      </trkpt>
      <trkpt lat="44.47486" lon="1.13222">
        <ele>167.735407</ele>
        <time>2022-05-12T12:22:19.067Z</time>
      </trkpt>
      <trkpt lat="44.47478" lon="1.13203">
        <ele>163.984163</ele>
        <time>2022-05-12T12:22:21.055Z</time>
      </trkpt>
      <trkpt lat="44.47472" lon="1.13189">
        <ele>161.294445</ele>
        <time>2022-05-12T12:22:23.065Z</time>
      </trkpt>
      <trkpt lat="44.47463" lon="1.13173">
        <ele>160.346789</ele>
        <time>2022-05-12T12:22:25.064Z</time>
      </trkpt>
      <trkpt lat="44.47456" lon="1.13163">
        <ele>160.286233</ele>
        <time>2022-05-12T12:22:27.071Z</time>
      </trkpt>
      <trkpt lat="44.47447" lon="1.13154">
        <ele>160.211535</ele>
        <time>2022-05-12T12:22:29.056Z</time>
      </trkpt>
      <trkpt lat="44.47436" lon="1.13152">
        <ele>160.141174</ele>
        <time>2022-05-12T12:22:31.066Z</time>
      </trkpt>
      <trkpt lat="44.47426" lon="1.13151">
        <ele>160.080307</ele>
        <time>2022-05-12T12:22:33.058Z</time>
      </trkpt>
      <trkpt lat="44.47419" lon="1.13137">
        <ele>159.998875</ele>
        <time>2022-05-12T12:22:35.049Z</time>
      </trkpt>
      <trkpt lat="44.47411" lon="1.13126">
        <ele>159.928094</ele>
        <time>2022-05-12T12:22:37.052Z</time>
      </trkpt>
      <trkpt lat="44.47402" lon="1.13116">
        <ele>159.855982</ele>
        <time>2022-05-12T12:22:39.050Z</time>
      </trkpt>
      <trkpt lat="44.47394" lon="1.13105">
        <ele>159.785669</ele>
        <time>2022-05-12T12:22:41.036Z</time>
      </trkpt>
      <trkpt lat="44.47388" lon="1.13093">
        <ele>159.716438</ele>
        <time>2022-05-12T12:22:43.074Z</time>
      </trkpt>
      <trkpt lat="44.47381" lon="1.13083">
        <ele>159.651337</ele>
        <time>2022-05-12T12:22:45.053Z</time>
      </trkpt>
      <trkpt lat="44.47373" lon="1.13074">
        <ele>159.588139</ele>
        <time>2022-05-12T12:22:47.047Z</time>
      </trkpt>
      <trkpt lat="44.47364" lon="1.13062">
        <ele>159.510184</ele>
        <time>2022-05-12T12:22:49.058Z</time>
      </trkpt>
      <trkpt lat="44.47356" lon="1.13052">
        <ele>159.44003</ele>
        <time>2022-05-12T12:22:51.060Z</time>
      </trkpt>
      <trkpt lat="44.47346" lon="1.13044">
        <ele>159.364958</ele>
        <time>2022-05-12T12:22:53.072Z</time>
      </trkpt>
      <trkpt lat="44.47336" lon="1.13037">
        <ele>159.295391</ele>
        <time>2022-05-12T12:22:55.071Z</time>
      </trkpt>
      <trkpt lat="44.4733" lon="1.13027">
        <ele>159.861854</ele>
        <time>2022-05-12T12:22:57.073Z</time>
      </trkpt>
      <trkpt lat="44.47321" lon="1.13019">
        <ele>161.136892</ele>
        <time>2022-05-12T12:22:59.075Z</time>
      </trkpt>
      <trkpt lat="44.47314" lon="1.1301">
        <ele>162.239395</ele>
        <time>2022-05-12T12:23:01.052Z</time>
      </trkpt>
      <trkpt lat="44.47305" lon="1.13005">
        <ele>163.367369</ele>
        <time>2022-05-12T12:23:03.072Z</time>
      </trkpt>
      <trkpt lat="44.47297" lon="1.12996">
        <ele>164.621091</ele>
        <time>2022-05-12T12:23:05.076Z</time>
      </trkpt>
      <trkpt lat="44.47291" lon="1.12984">
        <ele>165.911767</ele>
        <time>2022-05-12T12:23:07.081Z</time>
      </trkpt>
      <trkpt lat="44.47285" lon="1.12973">
        <ele>167.035271</ele>
        <time>2022-05-12T12:23:09.050Z</time>
      </trkpt>
      <trkpt lat="44.47277" lon="1.12964">
        <ele>168.330009</ele>
        <time>2022-05-12T12:23:11.041Z</time>
      </trkpt>
      <trkpt lat="44.47268" lon="1.12954">
        <ele>169.620432</ele>
        <time>2022-05-12T12:23:13.073Z</time>
      </trkpt>
      <trkpt lat="44.47261" lon="1.12945">
        <ele>170.848883</ele>
        <time>2022-05-12T12:23:15.052Z</time>
      </trkpt>
      <trkpt lat="44.47254" lon="1.12932">
        <ele>172.181948</ele>
        <time>2022-05-12T12:23:17.044Z</time>
      </trkpt>
      <trkpt lat="44.47251" lon="1.1292">
        <ele>173.340364</ele>
        <time>2022-05-12T12:23:19.065Z</time>
      </trkpt>
      <trkpt lat="44.4724" lon="1.12906">
        <ele>175.086911</ele>
        <time>2022-05-12T12:23:22.103Z</time>
      </trkpt>
      <trkpt lat="44.47234" lon="1.12887">
        <ele>176.814378</ele>
        <time>2022-05-12T12:23:25.056Z</time>
      </trkpt>
      <trkpt lat="44.47227" lon="1.12874">
        <ele>178.239119</ele>
        <time>2022-05-12T12:23:27.066Z</time>
      </trkpt>
      <trkpt lat="44.47223" lon="1.12859">
        <ele>179.680733</ele>
        <time>2022-05-12T12:23:29.054Z</time>
      </trkpt>
      <trkpt lat="44.47216" lon="1.12845">
        <ele>180.7069</ele>
        <time>2022-05-12T12:23:31.059Z</time>
      </trkpt>
      <trkpt lat="44.47208" lon="1.12832">
        <ele>179.786521</ele>
        <time>2022-05-12T12:23:33.066Z</time>
      </trkpt>
      <trkpt lat="44.47201" lon="1.12822">
        <ele>179.056773</ele>
        <time>2022-05-12T12:23:35.053Z</time>
      </trkpt>
      <trkpt lat="44.47189" lon="1.1282">
        <ele>178.128719</ele>
        <time>2022-05-12T12:23:37.080Z</time>
      </trkpt>
      <trkpt lat="44.47177" lon="1.12811">
        <ele>177.152423</ele>
        <time>2022-05-12T12:23:40.094Z</time>
      </trkpt>
      <trkpt lat="44.47169" lon="1.12803">
        <ele>176.435837</ele>
        <time>2022-05-12T12:23:42.053Z</time>
      </trkpt>
      <trkpt lat="44.4716" lon="1.12797">
        <ele>175.71163</ele>
        <time>2022-05-12T12:23:44.032Z</time>
      </trkpt>
      <trkpt lat="44.47149" lon="1.1279">
        <ele>174.766899</ele>
        <time>2022-05-12T12:23:47.054Z</time>
      </trkpt>
      <trkpt lat="44.47135" lon="1.12779">
        <ele>173.580354</ele>
        <time>2022-05-12T12:23:49.031Z</time>
      </trkpt>
      <trkpt lat="44.4713" lon="1.12766">
        <ele>172.847019</ele>
        <time>2022-05-12T12:23:50.028Z</time>
      </trkpt>
      <trkpt lat="44.47123" lon="1.12758">
        <ele>172.156838</ele>
        <time>2022-05-12T12:23:52.054Z</time>
      </trkpt>
      <trkpt lat="44.47114" lon="1.1275">
        <ele>171.387113</ele>
        <time>2022-05-12T12:23:54.046Z</time>
      </trkpt>
      <trkpt lat="44.47103" lon="1.12748">
        <ele>170.573209</ele>
        <time>2022-05-12T12:23:56.090Z</time>
      </trkpt>
      <trkpt lat="44.47092" lon="1.12752">
        <ele>169.745916</ele>
        <time>2022-05-12T12:23:58.064Z</time>
      </trkpt>
      <trkpt lat="44.47082" lon="1.1275">
        <ele>168.978876</ele>
        <time>2022-05-12T12:24:00.066Z</time>
      </trkpt>
      <trkpt lat="44.47068" lon="1.12746">
        <ele>167.931656</ele>
        <time>2022-05-12T12:24:02.103Z</time>
      </trkpt>
      <trkpt lat="44.47053" lon="1.12743">
        <ele>168.185629</ele>
        <time>2022-05-12T12:24:05.058Z</time>
      </trkpt>
      <trkpt lat="44.47042" lon="1.12738">
        <ele>168.82753</ele>
        <time>2022-05-12T12:24:07.042Z</time>
      </trkpt>
      <trkpt lat="44.47034" lon="1.12731">
        <ele>169.382365</ele>
        <time>2022-05-12T12:24:09.041Z</time>
      </trkpt>
      <trkpt lat="44.47024" lon="1.1272">
        <ele>170.086888</ele>
        <time>2022-05-12T12:24:11.034Z</time>
      </trkpt>
      <trkpt lat="44.47013" lon="1.12713">
        <ele>170.823788</ele>
        <time>2022-05-12T12:24:14.069Z</time>
      </trkpt>
      <trkpt lat="44.47002" lon="1.12708">
        <ele>171.460568</ele>
        <time>2022-05-12T12:24:16.064Z</time>
      </trkpt>
      <trkpt lat="44.4699" lon="1.12703">
        <ele>172.173117</ele>
        <time>2022-05-12T12:24:19.054Z</time>
      </trkpt>
      <trkpt lat="44.4698" lon="1.12705">
        <ele>172.754027</ele>
        <time>2022-05-12T12:24:22.051Z</time>
      </trkpt>
      <trkpt lat="44.46968" lon="1.12707">
        <ele>173.44262</ele>
        <time>2022-05-12T12:24:24.033Z</time>
      </trkpt>
      <trkpt lat="44.46958" lon="1.12704">
        <ele>174.01715</ele>
        <time>2022-05-12T12:24:27.045Z</time>
      </trkpt>
      <trkpt lat="44.46948" lon="1.12705">
        <ele>174.595986</ele>
        <time>2022-05-12T12:24:29.062Z</time>
      </trkpt>
      <trkpt lat="44.46935" lon="1.12703">
        <ele>175.365034</ele>
        <time>2022-05-12T12:24:32.052Z</time>
      </trkpt>
      <trkpt lat="44.46922" lon="1.12705">
        <ele>176.076933</ele>
        <time>2022-05-12T12:24:34.037Z</time>
      </trkpt>
      <trkpt lat="44.46907" lon="1.12706">
        <ele>176.926018</ele>
        <time>2022-05-12T12:24:36.073Z</time>
      </trkpt>
      <trkpt lat="44.46894" lon="1.12704">
        <ele>177.690935</ele>
        <time>2022-05-12T12:24:39.057Z</time>
      </trkpt>
      <trkpt lat="44.46879" lon="1.12704">
        <ele>178.07707</ele>
        <time>2022-05-12T12:24:41.030Z</time>
      </trkpt>
      <trkpt lat="44.46867" lon="1.12704">
        <ele>178.274488</ele>
        <time>2022-05-12T12:24:43.066Z</time>
      </trkpt>
      <trkpt lat="44.46858" lon="1.12694">
        <ele>178.458771</ele>
        <time>2022-05-12T12:24:45.056Z</time>
      </trkpt>
      <trkpt lat="44.46847" lon="1.12688">
        <ele>178.635078</ele>
        <time>2022-05-12T12:24:47.055Z</time>
      </trkpt>
      <trkpt lat="44.46838" lon="1.12686">
        <ele>178.78802</ele>
        <time>2022-05-12T12:24:49.091Z</time>
      </trkpt>
      <trkpt lat="44.46835" lon="1.1267">
        <ele>178.973098</ele>
        <time>2022-05-12T12:24:51.067Z</time>
      </trkpt>
      <trkpt lat="44.46825" lon="1.12665">
        <ele>179.138852</ele>
        <time>2022-05-12T12:24:53.081Z</time>
      </trkpt>
      <trkpt lat="44.46818" lon="1.12652">
        <ele>179.32117</ele>
        <time>2022-05-12T12:24:56.055Z</time>
      </trkpt>
      <trkpt lat="44.46814" lon="1.12637">
        <ele>179.501484</ele>
        <time>2022-05-12T12:24:59.045Z</time>
      </trkpt>
      <trkpt lat="44.46807" lon="1.12625">
        <ele>179.682718</ele>
        <time>2022-05-12T12:25:02.052Z</time>
      </trkpt>
      <trkpt lat="44.468" lon="1.12612">
        <ele>179.875085</ele>
        <time>2022-05-12T12:25:05.052Z</time>
      </trkpt>
      <trkpt lat="44.46791" lon="1.12601">
        <ele>180.049225</ele>
        <time>2022-05-12T12:25:08.062Z</time>
      </trkpt>
      <trkpt lat="44.46783" lon="1.12591">
        <ele>180.221845</ele>
        <time>2022-05-12T12:25:11.074Z</time>
      </trkpt>
      <trkpt lat="44.46776" lon="1.1258">
        <ele>180.399091</ele>
        <time>2022-05-12T12:25:14.035Z</time>
      </trkpt>
      <trkpt lat="44.46767" lon="1.12569">
        <ele>180.579418</ele>
        <time>2022-05-12T12:25:17.081Z</time>
      </trkpt>
      <trkpt lat="44.46762" lon="1.12559">
        <ele>180.725091</ele>
        <time>2022-05-12T12:25:20.061Z</time>
      </trkpt>
      <trkpt lat="44.46755" lon="1.12549">
        <ele>181.272293</ele>
        <time>2022-05-12T12:25:23.072Z</time>
      </trkpt>
      <trkpt lat="44.4675" lon="1.12535">
        <ele>181.957578</ele>
        <time>2022-05-12T12:25:26.063Z</time>
      </trkpt>
      <trkpt lat="44.46746" lon="1.12518">
        <ele>182.737168</ele>
        <time>2022-05-12T12:25:29.085Z</time>
      </trkpt>
      <trkpt lat="44.46741" lon="1.12502">
        <ele>183.511748</ele>
        <time>2022-05-12T12:25:32.059Z</time>
      </trkpt>
      <trkpt lat="44.46736" lon="1.12487">
        <ele>184.255566</ele>
        <time>2022-05-12T12:25:35.098Z</time>
      </trkpt>
      <trkpt lat="44.4673" lon="1.12474">
        <ele>184.932831</ele>
        <time>2022-05-12T12:25:38.047Z</time>
      </trkpt>
      <trkpt lat="44.46726" lon="1.1246">
        <ele>185.580704</ele>
        <time>2022-05-12T12:25:41.087Z</time>
      </trkpt>
      <trkpt lat="44.46724" lon="1.12442">
        <ele>186.379224</ele>
        <time>2022-05-12T12:25:44.041Z</time>
      </trkpt>
      <trkpt lat="44.46722" lon="1.12427">
        <ele>187.063579</ele>
        <time>2022-05-12T12:25:47.098Z</time>
      </trkpt>
      <trkpt lat="44.46723" lon="1.12409">
        <ele>187.865586</ele>
        <time>2022-05-12T12:25:50.064Z</time>
      </trkpt>
      <trkpt lat="44.46724" lon="1.12393">
        <ele>188.576252</ele>
        <time>2022-05-12T12:25:53.102Z</time>
      </trkpt>
      <trkpt lat="44.46724" lon="1.12375">
        <ele>189.394001</ele>
        <time>2022-05-12T12:25:56.053Z</time>
      </trkpt>
      <trkpt lat="44.46723" lon="1.12357">
        <ele>190.16733</ele>
        <time>2022-05-12T12:25:59.084Z</time>
      </trkpt>
      <trkpt lat="44.46719" lon="1.1234">
        <ele>190.986834</ele>
        <time>2022-05-12T12:26:02.064Z</time>
      </trkpt>
      <trkpt lat="44.46711" lon="1.12327">
        <ele>191.755473</ele>
        <time>2022-05-12T12:26:05.077Z</time>
      </trkpt>
      <trkpt lat="44.46699" lon="1.1232">
        <ele>193.245511</ele>
        <time>2022-05-12T12:26:08.064Z</time>
      </trkpt>
      <trkpt lat="44.46687" lon="1.12315">
        <ele>194.769187</ele>
        <time>2022-05-12T12:26:11.076Z</time>
      </trkpt>
      <trkpt lat="44.46677" lon="1.1231">
        <ele>196.078795</ele>
        <time>2022-05-12T12:26:14.042Z</time>
      </trkpt>
      <trkpt lat="44.46667" lon="1.12304">
        <ele>197.493284</ele>
        <time>2022-05-12T12:26:17.063Z</time>
      </trkpt>
      <trkpt lat="44.46658" lon="1.12295">
        <ele>198.905473</ele>
        <time>2022-05-12T12:26:20.052Z</time>
      </trkpt>
      <trkpt lat="44.46649" lon="1.12283">
        <ele>200.4478</ele>
        <time>2022-05-12T12:26:23.050Z</time>
      </trkpt>
      <trkpt lat="44.46644" lon="1.12265">
        <ele>202.183002</ele>
        <time>2022-05-12T12:26:24.036Z</time>
      </trkpt>
      <trkpt lat="44.46637" lon="1.12256">
        <ele>203.443377</ele>
        <time>2022-05-12T12:26:27.055Z</time>
      </trkpt>
      <trkpt lat="44.46629" lon="1.12247">
        <ele>204.687031</ele>
        <time>2022-05-12T12:26:30.052Z</time>
      </trkpt>
      <trkpt lat="44.46621" lon="1.12236">
        <ele>206.149838</ele>
        <time>2022-05-12T12:26:33.065Z</time>
      </trkpt>
      <trkpt lat="44.4661" lon="1.12229">
        <ele>207.588504</ele>
        <time>2022-05-12T12:26:36.062Z</time>
      </trkpt>
      <trkpt lat="44.46602" lon="1.12222">
        <ele>208.846726</ele>
        <time>2022-05-12T12:26:39.050Z</time>
      </trkpt>
      <trkpt lat="44.46595" lon="1.12207">
        <ele>210.41868</ele>
        <time>2022-05-12T12:26:43.093Z</time>
      </trkpt>
      <trkpt lat="44.46591" lon="1.12192">
        <ele>211.899287</ele>
        <time>2022-05-12T12:26:46.066Z</time>
      </trkpt>
      <trkpt lat="44.46586" lon="1.12175">
        <ele>213.525984</ele>
        <time>2022-05-12T12:26:49.062Z</time>
      </trkpt>
      <trkpt lat="44.46582" lon="1.12159">
        <ele>214.702324</ele>
        <time>2022-05-12T12:26:52.077Z</time>
      </trkpt>
      <trkpt lat="44.46574" lon="1.12151">
        <ele>215.117116</ele>
        <time>2022-05-12T12:26:55.048Z</time>
      </trkpt>
      <trkpt lat="44.46566" lon="1.12145">
        <ele>215.513047</ele>
        <time>2022-05-12T12:26:58.056Z</time>
      </trkpt>
      <trkpt lat="44.46557" lon="1.1214">
        <ele>215.949796</ele>
        <time>2022-05-12T12:27:01.068Z</time>
      </trkpt>
      <trkpt lat="44.46548" lon="1.12134">
        <ele>216.369522</ele>
        <time>2022-05-12T12:27:04.032Z</time>
      </trkpt>
      <trkpt lat="44.46541" lon="1.12125">
        <ele>216.775212</ele>
        <time>2022-05-12T12:27:07.068Z</time>
      </trkpt>
      <trkpt lat="44.46535" lon="1.12115">
        <ele>217.179051</ele>
        <time>2022-05-12T12:27:10.074Z</time>
      </trkpt>
      <trkpt lat="44.46527" lon="1.12103">
        <ele>217.676757</ele>
        <time>2022-05-12T12:27:13.071Z</time>
      </trkpt>
      <trkpt lat="44.4652" lon="1.12092">
        <ele>218.144461</ele>
        <time>2022-05-12T12:27:16.055Z</time>
      </trkpt>
      <trkpt lat="44.46512" lon="1.12081">
        <ele>218.619744</ele>
        <time>2022-05-12T12:27:20.075Z</time>
      </trkpt>
      <trkpt lat="44.46505" lon="1.12071">
        <ele>219.056265</ele>
        <time>2022-05-12T12:27:23.066Z</time>
      </trkpt>
      <trkpt lat="44.46501" lon="1.12058">
        <ele>219.492857</ele>
        <time>2022-05-12T12:27:26.063Z</time>
      </trkpt>
      <trkpt lat="44.46498" lon="1.12044">
        <ele>219.941725</ele>
        <time>2022-05-12T12:27:29.068Z</time>
      </trkpt>
      <trkpt lat="44.46493" lon="1.12031">
        <ele>220.391272</ele>
        <time>2022-05-12T12:27:32.069Z</time>
      </trkpt>
      <trkpt lat="44.46489" lon="1.12019">
        <ele>220.789248</ele>
        <time>2022-05-12T12:27:34.064Z</time>
      </trkpt>
      <trkpt lat="44.46485" lon="1.12003">
        <ele>221.315603</ele>
        <time>2022-05-12T12:27:37.064Z</time>
      </trkpt>
      <trkpt lat="44.46482" lon="1.11991">
        <ele>221.707435</ele>
        <time>2022-05-12T12:27:39.052Z</time>
      </trkpt>
      <trkpt lat="44.46476" lon="1.11976">
        <ele>222.258822</ele>
        <time>2022-05-12T12:27:42.043Z</time>
      </trkpt>
      <trkpt lat="44.46467" lon="1.11962">
        <ele>222.173846</ele>
        <time>2022-05-12T12:27:45.042Z</time>
      </trkpt>
      <trkpt lat="44.46457" lon="1.11952">
        <ele>222.044043</ele>
        <time>2022-05-12T12:27:48.046Z</time>
      </trkpt>
      <trkpt lat="44.46448" lon="1.11944">
        <ele>221.933112</ele>
        <time>2022-05-12T12:27:51.061Z</time>
      </trkpt>
      <trkpt lat="44.46438" lon="1.1194">
        <ele>221.826403</ele>
        <time>2022-05-12T12:27:54.035Z</time>
      </trkpt>
      <trkpt lat="44.46429" lon="1.11935">
        <ele>221.729508</ele>
        <time>2022-05-12T12:27:57.040Z</time>
      </trkpt>
      <trkpt lat="44.46421" lon="1.11929">
        <ele>221.629474</ele>
        <time>2022-05-12T12:28:00.044Z</time>
      </trkpt>
      <trkpt lat="44.46413" lon="1.1192">
        <ele>221.524094</ele>
        <time>2022-05-12T12:28:03.057Z</time>
      </trkpt>
      <trkpt lat="44.46404" lon="1.11912">
        <ele>221.415475</ele>
        <time>2022-05-12T12:28:06.075Z</time>
      </trkpt>
      <trkpt lat="44.46395" lon="1.11904">
        <ele>221.30645</ele>
        <time>2022-05-12T12:28:09.095Z</time>
      </trkpt>
      <trkpt lat="44.46386" lon="1.11899">
        <ele>221.205341</ele>
        <time>2022-05-12T12:28:12.058Z</time>
      </trkpt>
      <trkpt lat="44.46375" lon="1.11898">
        <ele>221.090431</ele>
        <time>2022-05-12T12:28:16.055Z</time>
      </trkpt>
      <trkpt lat="44.46363" lon="1.11897">
        <ele>220.97058</ele>
        <time>2022-05-12T12:28:20.062Z</time>
      </trkpt>
      <trkpt lat="44.46353" lon="1.11897">
        <ele>220.865354</ele>
        <time>2022-05-12T12:28:23.052Z</time>
      </trkpt>
      <trkpt lat="44.46343" lon="1.11896">
        <ele>220.758842</ele>
        <time>2022-05-12T12:28:26.076Z</time>
      </trkpt>
      <trkpt lat="44.46332" lon="1.11896">
        <ele>220.648419</ele>
        <time>2022-05-12T12:28:29.069Z</time>
      </trkpt>
      <trkpt lat="44.46321" lon="1.11898">
        <ele>220.539291</ele>
        <time>2022-05-12T12:28:32.068Z</time>
      </trkpt>
      <trkpt lat="44.46312" lon="1.11901">
        <ele>220.465407</ele>
        <time>2022-05-12T12:28:35.065Z</time>
      </trkpt>
      <trkpt lat="44.46303" lon="1.11904">
        <ele>222.132757</ele>
        <time>2022-05-12T12:28:38.108Z</time>
      </trkpt>
      <trkpt lat="44.46292" lon="1.11904">
        <ele>224.020045</ele>
        <time>2022-05-12T12:28:41.050Z</time>
      </trkpt>
      <trkpt lat="44.46282" lon="1.119">
        <ele>225.727122</ele>
        <time>2022-05-12T12:28:44.079Z</time>
      </trkpt>
      <trkpt lat="44.46261" lon="1.11898">
        <ele>229.47432</ele>
        <time>2022-05-12T12:28:47.067Z</time>
      </trkpt>
      <trkpt lat="44.46246" lon="1.11899">
        <ele>232.008784</ele>
        <time>2022-05-12T12:28:49.033Z</time>
      </trkpt>
      <trkpt lat="44.46238" lon="1.11889">
        <ele>233.959026</ele>
        <time>2022-05-12T12:28:52.050Z</time>
      </trkpt>
      <trkpt lat="44.46233" lon="1.11877">
        <ele>235.717436</ele>
        <time>2022-05-12T12:28:55.065Z</time>
      </trkpt>
      <trkpt lat="44.46235" lon="1.11862">
        <ele>237.623516</ele>
        <time>2022-05-12T12:28:57.057Z</time>
      </trkpt>
      <trkpt lat="44.46223" lon="1.11862">
        <ele>239.652083</ele>
        <time>2022-05-12T12:29:00.062Z</time>
      </trkpt>
      <trkpt lat="44.4621" lon="1.11865">
        <ele>241.879082</ele>
        <time>2022-05-12T12:29:02.093Z</time>
      </trkpt>
      <trkpt lat="44.46201" lon="1.11864">
        <ele>243.477226</ele>
        <time>2022-05-12T12:29:04.042Z</time>
      </trkpt>
      <trkpt lat="44.46192" lon="1.1187">
        <ele>245.335911</ele>
        <time>2022-05-12T12:29:05.055Z</time>
      </trkpt>
      <trkpt lat="44.46183" lon="1.11874">
        <ele>246.919097</ele>
        <time>2022-05-12T12:29:07.071Z</time>
      </trkpt>
      <trkpt lat="44.46175" lon="1.11867">
        <ele>248.586491</ele>
        <time>2022-05-12T12:29:09.056Z</time>
      </trkpt>
      <trkpt lat="44.46165" lon="1.11861">
        <ele>250.524126</ele>
        <time>2022-05-12T12:29:15.063Z</time>
      </trkpt>
      <trkpt lat="44.46155" lon="1.11862">
        <ele>252.111215</ele>
        <time>2022-05-12T12:29:18.076Z</time>
      </trkpt>
      <trkpt lat="44.46145" lon="1.11864">
        <ele>253.983752</ele>
        <time>2022-05-12T12:29:21.029Z</time>
      </trkpt>
      <trkpt lat="44.46134" lon="1.11865">
        <ele>255.811283</ele>
        <time>2022-05-12T12:29:24.038Z</time>
      </trkpt>
      <trkpt lat="44.46125" lon="1.11865">
        <ele>257.347558</ele>
        <time>2022-05-12T12:29:26.064Z</time>
      </trkpt>
      <trkpt lat="44.46114" lon="1.11866">
        <ele>259.260888</ele>
        <time>2022-05-12T12:29:29.083Z</time>
      </trkpt>
      <trkpt lat="44.46103" lon="1.11866">
        <ele>261.103532</ele>
        <time>2022-05-12T12:29:32.053Z</time>
      </trkpt>
      <trkpt lat="44.46092" lon="1.11867">
        <ele>262.900902</ele>
        <time>2022-05-12T12:29:35.064Z</time>
      </trkpt>
      <trkpt lat="44.46083" lon="1.11868">
        <ele>264.491368</ele>
        <time>2022-05-12T12:29:38.072Z</time>
      </trkpt>
      <trkpt lat="44.46072" lon="1.11871">
        <ele>266.468489</ele>
        <time>2022-05-12T12:29:41.073Z</time>
      </trkpt>
      <trkpt lat="44.4606" lon="1.11873">
        <ele>268.547203</ele>
        <time>2022-05-12T12:29:45.049Z</time>
      </trkpt>
      <trkpt lat="44.4605" lon="1.11873">
        <ele>270.202851</ele>
        <time>2022-05-12T12:29:48.068Z</time>
      </trkpt>
      <trkpt lat="44.46039" lon="1.11871">
        <ele>272.068487</ele>
        <time>2022-05-12T12:29:51.064Z</time>
      </trkpt>
      <trkpt lat="44.46031" lon="1.11866">
        <ele>273.630512</ele>
        <time>2022-05-12T12:29:54.027Z</time>
      </trkpt>
      <trkpt lat="44.46022" lon="1.1186">
        <ele>275.354261</ele>
        <time>2022-05-12T12:29:57.071Z</time>
      </trkpt>
      <trkpt lat="44.46012" lon="1.11855">
        <ele>277.106326</ele>
        <time>2022-05-12T12:30:00.053Z</time>
      </trkpt>
      <trkpt lat="44.46003" lon="1.11848">
        <ele>278.901752</ele>
        <time>2022-05-12T12:30:03.062Z</time>
      </trkpt>
      <trkpt lat="44.45993" lon="1.11844">
        <ele>280.656301</ele>
        <time>2022-05-12T12:30:06.063Z</time>
      </trkpt>
      <trkpt lat="44.45984" lon="1.11843">
        <ele>282.222606</ele>
        <time>2022-05-12T12:30:09.059Z</time>
      </trkpt>
      <trkpt lat="44.45975" lon="1.1184">
        <ele>282.68963</ele>
        <time>2022-05-12T12:30:12.077Z</time>
      </trkpt>
      <trkpt lat="44.45965" lon="1.11834">
        <ele>282.898411</ele>
        <time>2022-05-12T12:30:15.059Z</time>
      </trkpt>
      <trkpt lat="44.45954" lon="1.11829">
        <ele>283.127184</ele>
        <time>2022-05-12T12:30:18.065Z</time>
      </trkpt>
      <trkpt lat="44.45942" lon="1.11825">
        <ele>283.363999</ele>
        <time>2022-05-12T12:30:21.073Z</time>
      </trkpt>
      <trkpt lat="44.45933" lon="1.11817">
        <ele>283.566158</ele>
        <time>2022-05-12T12:30:24.042Z</time>
      </trkpt>
      <trkpt lat="44.45927" lon="1.11806">
        <ele>283.769007</ele>
        <time>2022-05-12T12:30:27.061Z</time>
      </trkpt>
      <trkpt lat="44.4592" lon="1.11796">
        <ele>283.961068</ele>
        <time>2022-05-12T12:30:30.073Z</time>
      </trkpt>
      <trkpt lat="44.45911" lon="1.11788">
        <ele>284.165661</ele>
        <time>2022-05-12T12:30:33.068Z</time>
      </trkpt>
      <trkpt lat="44.45902" lon="1.11781">
        <ele>284.37741</ele>
        <time>2022-05-12T12:30:36.072Z</time>
      </trkpt>
      <trkpt lat="44.45891" lon="1.11774">
        <ele>284.594291</ele>
        <time>2022-05-12T12:30:39.075Z</time>
      </trkpt>
      <trkpt lat="44.45881" lon="1.11771">
        <ele>284.795015</ele>
        <time>2022-05-12T12:30:42.071Z</time>
      </trkpt>
      <trkpt lat="44.45872" lon="1.11769">
        <ele>284.981658</ele>
        <time>2022-05-12T12:30:45.038Z</time>
      </trkpt>
      <trkpt lat="44.45862" lon="1.11768">
        <ele>285.168653</ele>
        <time>2022-05-12T12:30:48.052Z</time>
      </trkpt>
      <trkpt lat="44.45853" lon="1.11766">
        <ele>285.35198</ele>
        <time>2022-05-12T12:30:51.054Z</time>
      </trkpt>
      <trkpt lat="44.45843" lon="1.11761">
        <ele>285.568754</ele>
        <time>2022-05-12T12:30:55.104Z</time>
      </trkpt>
      <trkpt lat="44.45832" lon="1.11755">
        <ele>285.794741</ele>
        <time>2022-05-12T12:30:59.082Z</time>
      </trkpt>
      <trkpt lat="44.45822" lon="1.1175">
        <ele>286.000933</ele>
        <time>2022-05-12T12:31:02.073Z</time>
      </trkpt>
      <trkpt lat="44.45813" lon="1.11745">
        <ele>286.362529</ele>
        <time>2022-05-12T12:31:04.057Z</time>
      </trkpt>
      <trkpt lat="44.45804" lon="1.11738">
        <ele>286.920293</ele>
        <time>2022-05-12T12:31:07.090Z</time>
      </trkpt>
      <trkpt lat="44.45794" lon="1.11731">
        <ele>287.466337</ele>
        <time>2022-05-12T12:31:10.082Z</time>
      </trkpt>
      <trkpt lat="44.45784" lon="1.11723">
        <ele>288.058932</ele>
        <time>2022-05-12T12:31:14.045Z</time>
      </trkpt>
      <trkpt lat="44.45772" lon="1.11721">
        <ele>288.629731</ele>
        <time>2022-05-12T12:31:18.100Z</time>
      </trkpt>
      <trkpt lat="44.45761" lon="1.11719">
        <ele>289.222016</ele>
        <time>2022-05-12T12:31:23.060Z</time>
      </trkpt>
      <trkpt lat="44.4575" lon="1.11722">
        <ele>289.800942</ele>
        <time>2022-05-12T12:31:27.049Z</time>
      </trkpt>
      <trkpt lat="44.45739" lon="1.11725">
        <ele>290.367938</ele>
        <time>2022-05-12T12:31:31.075Z</time>
      </trkpt>
      <trkpt lat="44.45729" lon="1.1173">
        <ele>290.865522</ele>
        <time>2022-05-12T12:31:34.077Z</time>
      </trkpt>
      <trkpt lat="44.45721" lon="1.11735">
        <ele>291.325955</ele>
        <time>2022-05-12T12:31:37.067Z</time>
      </trkpt>
      <trkpt lat="44.4571" lon="1.11741">
        <ele>291.906296</ele>
        <time>2022-05-12T12:31:41.059Z</time>
      </trkpt>
      <trkpt lat="44.45701" lon="1.11744">
        <ele>292.37015</ele>
        <time>2022-05-12T12:31:44.047Z</time>
      </trkpt>
      <trkpt lat="44.45691" lon="1.11745">
        <ele>292.907249</ele>
        <time>2022-05-12T12:31:48.073Z</time>
      </trkpt>
      <trkpt lat="44.4568" lon="1.11745">
        <ele>293.443911</ele>
        <time>2022-05-12T12:31:51.066Z</time>
      </trkpt>
      <trkpt lat="44.45671" lon="1.11747">
        <ele>293.919582</ele>
        <time>2022-05-12T12:31:54.036Z</time>
      </trkpt>
      <trkpt lat="44.45659" lon="1.1175">
        <ele>294.504701</ele>
        <time>2022-05-12T12:31:57.077Z</time>
      </trkpt>
      <trkpt lat="44.4565" lon="1.11753">
        <ele>294.983929</ele>
        <time>2022-05-12T12:31:59.072Z</time>
      </trkpt>
      <trkpt lat="44.4564" lon="1.11756">
        <ele>295.331458</ele>
        <time>2022-05-12T12:32:02.074Z</time>
      </trkpt>
      <trkpt lat="44.45627" lon="1.11761">
        <ele>295.657999</ele>
        <time>2022-05-12T12:32:05.075Z</time>
      </trkpt>
      <trkpt lat="44.45617" lon="1.11762">
        <ele>295.920613</ele>
        <time>2022-05-12T12:32:08.066Z</time>
      </trkpt>
      <trkpt lat="44.45607" lon="1.11762">
        <ele>296.164862</ele>
        <time>2022-05-12T12:32:11.068Z</time>
      </trkpt>
      <trkpt lat="44.45598" lon="1.11766">
        <ele>296.419465</ele>
        <time>2022-05-12T12:32:15.063Z</time>
      </trkpt>
      <trkpt lat="44.45588" lon="1.11769">
        <ele>296.659043</ele>
        <time>2022-05-12T12:32:19.057Z</time>
      </trkpt>
      <trkpt lat="44.4558" lon="1.11772">
        <ele>296.889964</ele>
        <time>2022-05-12T12:32:23.064Z</time>
      </trkpt>
      <trkpt lat="44.45569" lon="1.11778">
        <ele>297.176334</ele>
        <time>2022-05-12T12:32:27.045Z</time>
      </trkpt>
      <trkpt lat="44.45559" lon="1.11781">
        <ele>297.421708</ele>
        <time>2022-05-12T12:32:30.048Z</time>
      </trkpt>
      <trkpt lat="44.4555" lon="1.11784">
        <ele>297.657342</ele>
        <time>2022-05-12T12:32:32.062Z</time>
      </trkpt>
      <trkpt lat="44.45538" lon="1.11789">
        <ele>297.971218</ele>
        <time>2022-05-12T12:32:35.073Z</time>
      </trkpt>
      <trkpt lat="44.45528" lon="1.11795">
        <ele>298.246068</ele>
        <time>2022-05-12T12:32:38.048Z</time>
      </trkpt>
      <trkpt lat="44.4552" lon="1.11803">
        <ele>298.511101</ele>
        <time>2022-05-12T12:32:42.048Z</time>
      </trkpt>
      <trkpt lat="44.45513" lon="1.11811">
        <ele>298.738193</ele>
        <time>2022-05-12T12:32:45.052Z</time>
      </trkpt>
      <trkpt lat="44.45504" lon="1.11822">
        <ele>299.020003</ele>
        <time>2022-05-12T12:32:48.076Z</time>
      </trkpt>
      <trkpt lat="44.45496" lon="1.1183">
        <ele>299.281921</ele>
        <time>2022-05-12T12:32:51.040Z</time>
      </trkpt>
      <trkpt lat="44.45486" lon="1.1184">
        <ele>299.596479</ele>
        <time>2022-05-12T12:32:54.035Z</time>
      </trkpt>
      <trkpt lat="44.45475" lon="1.1185">
        <ele>299.447061</ele>
        <time>2022-05-12T12:32:57.053Z</time>
      </trkpt>
      <trkpt lat="44.45464" lon="1.11861">
        <ele>299.093364</ele>
        <time>2022-05-12T12:33:00.070Z</time>
      </trkpt>
      <trkpt lat="44.45458" lon="1.1187">
        <ele>298.85907</ele>
        <time>2022-05-12T12:33:02.072Z</time>
      </trkpt>
      <trkpt lat="44.45448" lon="1.11881">
        <ele>298.538717</ele>
        <time>2022-05-12T12:33:05.071Z</time>
      </trkpt>
      <trkpt lat="44.45439" lon="1.1189">
        <ele>298.252721</ele>
        <time>2022-05-12T12:33:08.062Z</time>
      </trkpt>
      <trkpt lat="44.45431" lon="1.11898">
        <ele>297.97206</ele>
        <time>2022-05-12T12:33:11.064Z</time>
      </trkpt>
      <trkpt lat="44.45422" lon="1.11907">
        <ele>297.698306</ele>
        <time>2022-05-12T12:33:15.058Z</time>
      </trkpt>
      <trkpt lat="44.45413" lon="1.11916">
        <ele>297.403363</ele>
        <time>2022-05-12T12:33:19.057Z</time>
      </trkpt>
      <trkpt lat="44.45402" lon="1.11924">
        <ele>297.091906</ele>
        <time>2022-05-12T12:33:23.054Z</time>
      </trkpt>
      <trkpt lat="44.45392" lon="1.11929">
        <ele>296.796784</ele>
        <time>2022-05-12T12:33:26.065Z</time>
      </trkpt>
      <trkpt lat="44.45382" lon="1.11931">
        <ele>296.53872</ele>
        <time>2022-05-12T12:33:29.055Z</time>
      </trkpt>
      <trkpt lat="44.45372" lon="1.11927">
        <ele>296.282176</ele>
        <time>2022-05-12T12:33:32.061Z</time>
      </trkpt>
      <trkpt lat="44.45364" lon="1.1192">
        <ele>296.027112</ele>
        <time>2022-05-12T12:33:35.061Z</time>
      </trkpt>
      <trkpt lat="44.45355" lon="1.11914">
        <ele>295.763258</ele>
        <time>2022-05-12T12:33:38.066Z</time>
      </trkpt>
      <trkpt lat="44.45346" lon="1.11908">
        <ele>295.519175</ele>
        <time>2022-05-12T12:33:40.108Z</time>
      </trkpt>
      <trkpt lat="44.45335" lon="1.11903">
        <ele>295.215999</ele>
        <time>2022-05-12T12:33:43.075Z</time>
      </trkpt>
      <trkpt lat="44.45325" lon="1.11898">
        <ele>294.99548</ele>
        <time>2022-05-12T12:33:46.080Z</time>
      </trkpt>
      <trkpt lat="44.45314" lon="1.11889">
        <ele>294.999287</ele>
        <time>2022-05-12T12:33:49.060Z</time>
      </trkpt>
      <trkpt lat="44.45303" lon="1.11879">
        <ele>295.003428</ele>
        <time>2022-05-12T12:33:52.051Z</time>
      </trkpt>
      <trkpt lat="44.45292" lon="1.11873">
        <ele>295.007227</ele>
        <time>2022-05-12T12:33:55.087Z</time>
      </trkpt>
      <trkpt lat="44.45281" lon="1.11868">
        <ele>295.010755</ele>
        <time>2022-05-12T12:33:58.046Z</time>
      </trkpt>
      <trkpt lat="44.45271" lon="1.11862">
        <ele>295.014087</ele>
        <time>2022-05-12T12:34:01.061Z</time>
      </trkpt>
      <trkpt lat="44.45262" lon="1.11858">
        <ele>295.016952</ele>
        <time>2022-05-12T12:34:04.038Z</time>
      </trkpt>
      <trkpt lat="44.45251" lon="1.11854">
        <ele>295.020593</ele>
        <time>2022-05-12T12:34:08.072Z</time>
      </trkpt>
      <trkpt lat="44.45242" lon="1.11851">
        <ele>295.023381</ele>
        <time>2022-05-12T12:34:11.064Z</time>
      </trkpt>
      <trkpt lat="44.45233" lon="1.11847">
        <ele>295.026262</ele>
        <time>2022-05-12T12:34:14.037Z</time>
      </trkpt>
      <trkpt lat="44.45224" lon="1.11842">
        <ele>295.029108</ele>
        <time>2022-05-12T12:34:17.074Z</time>
      </trkpt>
      <trkpt lat="44.45215" lon="1.11838">
        <ele>295.032059</ele>
        <time>2022-05-12T12:34:20.054Z</time>
      </trkpt>
      <trkpt lat="44.45204" lon="1.11833">
        <ele>295.035851</ele>
        <time>2022-05-12T12:34:24.039Z</time>
      </trkpt>
      <trkpt lat="44.45194" lon="1.1183">
        <ele>295.03882</ele>
        <time>2022-05-12T12:34:27.112Z</time>
      </trkpt>
      <trkpt lat="44.45185" lon="1.11826">
        <ele>295.041654</ele>
        <time>2022-05-12T12:34:30.057Z</time>
      </trkpt>
      <trkpt lat="44.45175" lon="1.11822">
        <ele>295.044869</ele>
        <time>2022-05-12T12:34:33.055Z</time>
      </trkpt>
      <trkpt lat="44.45166" lon="1.11818">
        <ele>295.048071</ele>
        <time>2022-05-12T12:34:36.056Z</time>
      </trkpt>
      <trkpt lat="44.45154" lon="1.11814">
        <ele>295.090286</ele>
        <time>2022-05-12T12:34:39.102Z</time>
      </trkpt>
      <trkpt lat="44.45144" lon="1.11813">
        <ele>295.179491</ele>
        <time>2022-05-12T12:34:41.067Z</time>
      </trkpt>
      <trkpt lat="44.45132" lon="1.1181">
        <ele>295.288882</ele>
        <time>2022-05-12T12:34:43.079Z</time>
      </trkpt>
      <trkpt lat="44.45123" lon="1.11808">
        <ele>295.37377</ele>
        <time>2022-05-12T12:34:45.079Z</time>
      </trkpt>
      <trkpt lat="44.45111" lon="1.11805">
        <ele>295.478721</ele>
        <time>2022-05-12T12:34:47.080Z</time>
      </trkpt>
      <trkpt lat="44.45098" lon="1.11801">
        <ele>295.599516</ele>
        <time>2022-05-12T12:34:49.055Z</time>
      </trkpt>
      <trkpt lat="44.45086" lon="1.118">
        <ele>295.708369</ele>
        <time>2022-05-12T12:34:51.066Z</time>
      </trkpt>
      <trkpt lat="44.45075" lon="1.11798">
        <ele>295.804626</ele>
        <time>2022-05-12T12:34:53.074Z</time>
      </trkpt>
      <trkpt lat="44.45063" lon="1.11803">
        <ele>295.921508</ele>
        <time>2022-05-12T12:34:55.066Z</time>
      </trkpt>
      <trkpt lat="44.45052" lon="1.11809">
        <ele>296.023446</ele>
        <time>2022-05-12T12:34:57.047Z</time>
      </trkpt>
      <trkpt lat="44.45044" lon="1.11816">
        <ele>296.109515</ele>
        <time>2022-05-12T12:34:59.067Z</time>
      </trkpt>
      <trkpt lat="44.45035" lon="1.11824">
        <ele>296.202485</ele>
        <time>2022-05-12T12:35:01.068Z</time>
      </trkpt>
      <trkpt lat="44.45027" lon="1.11832">
        <ele>296.291199</ele>
        <time>2022-05-12T12:35:03.072Z</time>
      </trkpt>
      <trkpt lat="44.45019" lon="1.11838">
        <ele>296.372002</ele>
        <time>2022-05-12T12:35:05.061Z</time>
      </trkpt>
      <trkpt lat="44.4501" lon="1.11846">
        <ele>296.467284</ele>
        <time>2022-05-12T12:35:07.092Z</time>
      </trkpt>
      <trkpt lat="44.45" lon="1.11857">
        <ele>296.582833</ele>
        <time>2022-05-12T12:35:10.084Z</time>
      </trkpt>
      <trkpt lat="44.44992" lon="1.11865">
        <ele>296.689329</ele>
        <time>2022-05-12T12:35:12.059Z</time>
      </trkpt>
      <trkpt lat="44.44983" lon="1.11873">
        <ele>296.905445</ele>
        <time>2022-05-12T12:35:14.086Z</time>
      </trkpt>
      <trkpt lat="44.44976" lon="1.11882">
        <ele>297.106905</ele>
        <time>2022-05-12T12:35:16.072Z</time>
      </trkpt>
      <trkpt lat="44.44967" lon="1.11893">
        <ele>297.357898</ele>
        <time>2022-05-12T12:35:19.058Z</time>
      </trkpt>
      <trkpt lat="44.4496" lon="1.11901">
        <ele>297.550856</ele>
        <time>2022-05-12T12:35:21.077Z</time>
      </trkpt>
      <trkpt lat="44.44951" lon="1.11912">
        <ele>297.800316</ele>
        <time>2022-05-12T12:35:24.033Z</time>
      </trkpt>
      <trkpt lat="44.44939" lon="1.11923">
        <ele>298.092825</ele>
        <time>2022-05-12T12:35:27.062Z</time>
      </trkpt>
      <trkpt lat="44.44929" lon="1.11935">
        <ele>298.365991</ele>
        <time>2022-05-12T12:35:30.089Z</time>
      </trkpt>
      <trkpt lat="44.44922" lon="1.11943">
        <ele>298.560946</ele>
        <time>2022-05-12T12:35:32.101Z</time>
      </trkpt>
      <trkpt lat="44.44913" lon="1.11954">
        <ele>298.804742</ele>
        <time>2022-05-12T12:35:35.075Z</time>
      </trkpt>
      <trkpt lat="44.44905" lon="1.11964">
        <ele>299.031363</ele>
        <time>2022-05-12T12:35:38.110Z</time>
      </trkpt>
      <trkpt lat="44.44895" lon="1.11975">
        <ele>299.298463</ele>
        <time>2022-05-12T12:35:41.081Z</time>
      </trkpt>
      <trkpt lat="44.44885" lon="1.11986">
        <ele>299.565562</ele>
        <time>2022-05-12T12:35:44.085Z</time>
      </trkpt>
      <trkpt lat="44.44872" lon="1.11994">
        <ele>299.865267</ele>
        <time>2022-05-12T12:35:47.081Z</time>
      </trkpt>
      <trkpt lat="44.44858" lon="1.12">
        <ele>300.165758</ele>
        <time>2022-05-12T12:35:50.104Z</time>
      </trkpt>
      <trkpt lat="44.44847" lon="1.12003">
        <ele>300.411503</ele>
        <time>2022-05-12T12:35:53.070Z</time>
      </trkpt>
      <trkpt lat="44.44834" lon="1.12001">
        <ele>300.309423</ele>
        <time>2022-05-12T12:35:56.115Z</time>
      </trkpt>
      <trkpt lat="44.44822" lon="1.11998">
        <ele>300.180665</ele>
        <time>2022-05-12T12:35:59.060Z</time>
      </trkpt>
      <trkpt lat="44.44809" lon="1.11996">
        <ele>300.04829</ele>
        <time>2022-05-12T12:36:02.118Z</time>
      </trkpt>
      <trkpt lat="44.44799" lon="1.11994">
        <ele>299.955215</ele>
        <time>2022-05-12T12:36:04.034Z</time>
      </trkpt>
      <trkpt lat="44.44787" lon="1.1199">
        <ele>299.826083</ele>
        <time>2022-05-12T12:36:07.077Z</time>
      </trkpt>
      <trkpt lat="44.44775" lon="1.11986">
        <ele>299.709205</ele>
        <time>2022-05-12T12:36:10.070Z</time>
      </trkpt>
      <trkpt lat="44.44766" lon="1.11981">
        <ele>299.604236</ele>
        <time>2022-05-12T12:36:13.055Z</time>
      </trkpt>
      <trkpt lat="44.44757" lon="1.11973">
        <ele>299.495319</ele>
        <time>2022-05-12T12:36:17.062Z</time>
      </trkpt>
      <trkpt lat="44.44744" lon="1.11967">
        <ele>299.365572</ele>
        <time>2022-05-12T12:36:20.110Z</time>
      </trkpt>
      <trkpt lat="44.44734" lon="1.11966">
        <ele>299.261249</ele>
        <time>2022-05-12T12:36:22.036Z</time>
      </trkpt>
      <trkpt lat="44.44722" lon="1.11965">
        <ele>299.143065</ele>
        <time>2022-05-12T12:36:24.034Z</time>
      </trkpt>
      <trkpt lat="44.4471" lon="1.11963">
        <ele>299.018507</ele>
        <time>2022-05-12T12:36:26.091Z</time>
      </trkpt>
      <trkpt lat="44.44696" lon="1.11964">
        <ele>298.879323</ele>
        <time>2022-05-12T12:36:27.066Z</time>
      </trkpt>
      <trkpt lat="44.44685" lon="1.11961">
        <ele>298.771861</ele>
        <time>2022-05-12T12:36:29.055Z</time>
      </trkpt>
      <trkpt lat="44.44676" lon="1.11959">
        <ele>298.680668</ele>
        <time>2022-05-12T12:36:31.049Z</time>
      </trkpt>
      <trkpt lat="44.44667" lon="1.11955">
        <ele>298.7892</ele>
        <time>2022-05-12T12:36:33.068Z</time>
      </trkpt>
      <trkpt lat="44.44658" lon="1.11951">
        <ele>299.116156</ele>
        <time>2022-05-12T12:36:35.067Z</time>
      </trkpt>
      <trkpt lat="44.44647" lon="1.11947">
        <ele>299.529505</ele>
        <time>2022-05-12T12:36:37.085Z</time>
      </trkpt>
      <trkpt lat="44.44634" lon="1.11942">
        <ele>299.984481</ele>
        <time>2022-05-12T12:36:40.062Z</time>
      </trkpt>
      <trkpt lat="44.44625" lon="1.11939">
        <ele>300.328312</ele>
        <time>2022-05-12T12:36:42.054Z</time>
      </trkpt>
      <trkpt lat="44.44615" lon="1.11933">
        <ele>300.713616</ele>
        <time>2022-05-12T12:36:44.074Z</time>
      </trkpt>
      <trkpt lat="44.44603" lon="1.11932">
        <ele>301.149322</ele>
        <time>2022-05-12T12:36:47.073Z</time>
      </trkpt>
      <trkpt lat="44.44589" lon="1.11928">
        <ele>301.640236</ele>
        <time>2022-05-12T12:36:50.085Z</time>
      </trkpt>
      <trkpt lat="44.44579" lon="1.11928">
        <ele>302.00866</ele>
        <time>2022-05-12T12:36:52.063Z</time>
      </trkpt>
      <trkpt lat="44.44569" lon="1.11931">
        <ele>302.355322</ele>
        <time>2022-05-12T12:36:54.045Z</time>
      </trkpt>
      <trkpt lat="44.44558" lon="1.11937">
        <ele>302.779018</ele>
        <time>2022-05-12T12:36:56.097Z</time>
      </trkpt>
      <trkpt lat="44.44548" lon="1.11945">
        <ele>303.191342</ele>
        <time>2022-05-12T12:36:58.068Z</time>
      </trkpt>
      <trkpt lat="44.44537" lon="1.11953">
        <ele>303.62168</ele>
        <time>2022-05-12T12:37:00.060Z</time>
      </trkpt>
      <trkpt lat="44.44527" lon="1.11961">
        <ele>304.040032</ele>
        <time>2022-05-12T12:37:02.104Z</time>
      </trkpt>
      <trkpt lat="44.4452" lon="1.11972">
        <ele>304.422559</ele>
        <time>2022-05-12T12:37:04.034Z</time>
      </trkpt>
      <trkpt lat="44.44515" lon="1.11984">
        <ele>304.759175</ele>
        <time>2022-05-12T12:37:06.068Z</time>
      </trkpt>
      <trkpt lat="44.4451" lon="1.12">
        <ele>303.595105</ele>
        <time>2022-05-12T12:37:09.052Z</time>
      </trkpt>
      <trkpt lat="44.44504" lon="1.12015">
        <ele>300.768214</ele>
        <time>2022-05-12T12:37:12.057Z</time>
      </trkpt>
      <trkpt lat="44.44503" lon="1.12029">
        <ele>298.448749</ele>
        <time>2022-05-12T12:37:14.091Z</time>
      </trkpt>
      <trkpt lat="44.44498" lon="1.12045">
        <ele>295.692669</ele>
        <time>2022-05-12T12:37:16.078Z</time>
      </trkpt>
      <trkpt lat="44.44491" lon="1.12063">
        <ele>292.177123</ele>
        <time>2022-05-12T12:37:19.066Z</time>
      </trkpt>
      <trkpt lat="44.44487" lon="1.12077">
        <ele>289.751483</ele>
        <time>2022-05-12T12:37:21.050Z</time>
      </trkpt>
      <trkpt lat="44.44478" lon="1.12089">
        <ele>286.795406</ele>
        <time>2022-05-12T12:37:24.027Z</time>
      </trkpt>
      <trkpt lat="44.44471" lon="1.12098">
        <ele>284.590987</ele>
        <time>2022-05-12T12:37:26.056Z</time>
      </trkpt>
      <trkpt lat="44.44462" lon="1.12106">
        <ele>282.019347</ele>
        <time>2022-05-12T12:37:29.081Z</time>
      </trkpt>
      <trkpt lat="44.4445" lon="1.12113">
        <ele>279.178968</ele>
        <time>2022-05-12T12:37:32.065Z</time>
      </trkpt>
      <trkpt lat="44.44439" lon="1.12116">
        <ele>276.490421</ele>
        <time>2022-05-12T12:37:35.063Z</time>
      </trkpt>
      <trkpt lat="44.44427" lon="1.12118">
        <ele>273.778918</ele>
        <time>2022-05-12T12:37:38.065Z</time>
      </trkpt>
      <trkpt lat="44.44415" lon="1.121">
        <ele>269.607879</ele>
        <time>2022-05-12T12:37:40.095Z</time>
      </trkpt>
      <trkpt lat="44.44406" lon="1.12094">
        <ele>267.253466</ele>
        <time>2022-05-12T12:37:43.103Z</time>
      </trkpt>
      <trkpt lat="44.44389" lon="1.12095">
        <ele>263.330964</ele>
        <time>2022-05-12T12:37:46.075Z</time>
      </trkpt>
      <trkpt lat="44.44376" lon="1.12096">
        <ele>265.91587</ele>
        <time>2022-05-12T12:37:48.092Z</time>
      </trkpt>
      <trkpt lat="44.44363" lon="1.12092">
        <ele>268.657352</ele>
        <time>2022-05-12T12:37:50.047Z</time>
      </trkpt>
      <trkpt lat="44.44354" lon="1.12084">
        <ele>270.722691</ele>
        <time>2022-05-12T12:37:53.055Z</time>
      </trkpt>
      <trkpt lat="44.44342" lon="1.12083">
        <ele>273.227648</ele>
        <time>2022-05-12T12:37:55.113Z</time>
      </trkpt>
      <trkpt lat="44.44331" lon="1.12071">
        <ele>276.051581</ele>
        <time>2022-05-12T12:37:58.072Z</time>
      </trkpt>
      <trkpt lat="44.44324" lon="1.12062">
        <ele>278.133776</ele>
        <time>2022-05-12T12:38:00.072Z</time>
      </trkpt>
      <trkpt lat="44.44319" lon="1.12047">
        <ele>280.583418</ele>
        <time>2022-05-12T12:38:02.070Z</time>
      </trkpt>
      <trkpt lat="44.44312" lon="1.12037">
        <ele>282.553466</ele>
        <time>2022-05-12T12:38:04.033Z</time>
      </trkpt>
      <trkpt lat="44.44309" lon="1.12024">
        <ele>284.636413</ele>
        <time>2022-05-12T12:38:06.050Z</time>
      </trkpt>
      <trkpt lat="44.44303" lon="1.12011">
        <ele>286.875614</ele>
        <time>2022-05-12T12:38:08.077Z</time>
      </trkpt>
      <trkpt lat="44.44298" lon="1.11994">
        <ele>289.521965</ele>
        <time>2022-05-12T12:38:11.065Z</time>
      </trkpt>
      <trkpt lat="44.44293" lon="1.11978">
        <ele>292.151128</ele>
        <time>2022-05-12T12:38:13.098Z</time>
      </trkpt>
      <trkpt lat="44.44289" lon="1.11964">
        <ele>294.282589</ele>
        <time>2022-05-12T12:38:15.032Z</time>
      </trkpt>
      <trkpt lat="44.44287" lon="1.11952">
        <ele>296.157335</ele>
        <time>2022-05-12T12:38:17.068Z</time>
      </trkpt>
      <trkpt lat="44.4428" lon="1.11942">
        <ele>298.127291</ele>
        <time>2022-05-12T12:38:19.098Z</time>
      </trkpt>
      <trkpt lat="44.44274" lon="1.11927">
        <ele>300.130705</ele>
        <time>2022-05-12T12:38:21.062Z</time>
      </trkpt>
      <trkpt lat="44.44266" lon="1.11918">
        <ele>299.44562</ele>
        <time>2022-05-12T12:38:23.056Z</time>
      </trkpt>
      <trkpt lat="44.44259" lon="1.11911">
        <ele>298.822846</ele>
        <time>2022-05-12T12:38:25.088Z</time>
      </trkpt>
      <trkpt lat="44.44252" lon="1.11901">
        <ele>298.13424</ele>
        <time>2022-05-12T12:38:27.065Z</time>
      </trkpt>
      <trkpt lat="44.44244" lon="1.11891">
        <ele>297.424427</ele>
        <time>2022-05-12T12:38:29.045Z</time>
      </trkpt>
      <trkpt lat="44.44235" lon="1.11883">
        <ele>296.720825</ele>
        <time>2022-05-12T12:38:31.087Z</time>
      </trkpt>
      <trkpt lat="44.44226" lon="1.11873">
        <ele>295.92155</ele>
        <time>2022-05-12T12:38:33.057Z</time>
      </trkpt>
      <trkpt lat="44.44217" lon="1.11865">
        <ele>295.195325</ele>
        <time>2022-05-12T12:38:35.061Z</time>
      </trkpt>
      <trkpt lat="44.44208" lon="1.11858">
        <ele>294.488435</ele>
        <time>2022-05-12T12:38:37.113Z</time>
      </trkpt>
      <trkpt lat="44.442" lon="1.1185">
        <ele>293.790435</ele>
        <time>2022-05-12T12:38:39.053Z</time>
      </trkpt>
      <trkpt lat="44.44189" lon="1.11843">
        <ele>293.017854</ele>
        <time>2022-05-12T12:38:41.083Z</time>
      </trkpt>
      <trkpt lat="44.44181" lon="1.11831">
        <ele>292.235528</ele>
        <time>2022-05-12T12:38:43.043Z</time>
      </trkpt>
      <trkpt lat="44.44171" lon="1.11822">
        <ele>291.381027</ele>
        <time>2022-05-12T12:38:45.040Z</time>
      </trkpt>
      <trkpt lat="44.44163" lon="1.11808">
        <ele>290.538295</ele>
        <time>2022-05-12T12:38:47.083Z</time>
      </trkpt>
      <trkpt lat="44.44154" lon="1.11796">
        <ele>289.701621</ele>
        <time>2022-05-12T12:38:49.082Z</time>
      </trkpt>
      <trkpt lat="44.44146" lon="1.11783">
        <ele>288.859</ele>
        <time>2022-05-12T12:38:51.071Z</time>
      </trkpt>
      <trkpt lat="44.44139" lon="1.11771">
        <ele>288.08611</ele>
        <time>2022-05-12T12:38:53.063Z</time>
      </trkpt>
      <trkpt lat="44.4413" lon="1.11758">
        <ele>286.781699</ele>
        <time>2022-05-12T12:38:55.051Z</time>
      </trkpt>
      <trkpt lat="44.4412" lon="1.11747">
        <ele>285.476469</ele>
        <time>2022-05-12T12:38:57.063Z</time>
      </trkpt>
      <trkpt lat="44.44111" lon="1.11734">
        <ele>284.126549</ele>
        <time>2022-05-12T12:38:59.054Z</time>
      </trkpt>
      <trkpt lat="44.441" lon="1.11719">
        <ele>282.529997</ele>
        <time>2022-05-12T12:39:01.038Z</time>
      </trkpt>
      <trkpt lat="44.44089" lon="1.11705">
        <ele>280.963672</ele>
        <time>2022-05-12T12:39:03.076Z</time>
      </trkpt>
      <trkpt lat="44.4408" lon="1.11693">
        <ele>279.629636</ele>
        <time>2022-05-12T12:39:05.076Z</time>
      </trkpt>
      <trkpt lat="44.44071" lon="1.11682">
        <ele>278.334138</ele>
        <time>2022-05-12T12:39:07.058Z</time>
      </trkpt>
      <trkpt lat="44.44061" lon="1.11668">
        <ele>276.900596</ele>
        <time>2022-05-12T12:39:09.058Z</time>
      </trkpt>
      <trkpt lat="44.4405" lon="1.11654">
        <ele>275.334766</ele>
        <time>2022-05-12T12:39:11.071Z</time>
      </trkpt>
      <trkpt lat="44.44041" lon="1.11637">
        <ele>273.777113</ele>
        <time>2022-05-12T12:39:13.065Z</time>
      </trkpt>
      <trkpt lat="44.44033" lon="1.11622">
        <ele>272.383004</ele>
        <time>2022-05-12T12:39:15.063Z</time>
      </trkpt>
      <trkpt lat="44.44026" lon="1.11606">
        <ele>270.959548</ele>
        <time>2022-05-12T12:39:17.042Z</time>
      </trkpt>
      <trkpt lat="44.44019" lon="1.11592">
        <ele>269.668136</ele>
        <time>2022-05-12T12:39:19.051Z</time>
      </trkpt>
      <trkpt lat="44.44019" lon="1.11574">
        <ele>269.054232</ele>
        <time>2022-05-12T12:39:21.062Z</time>
      </trkpt>
      <trkpt lat="44.44014" lon="1.11557">
        <ele>268.840807</ele>
        <time>2022-05-12T12:39:24.067Z</time>
      </trkpt>
      <trkpt lat="44.44008" lon="1.11545">
        <ele>268.66992</ele>
        <time>2022-05-12T12:39:26.059Z</time>
      </trkpt>
      <trkpt lat="44.44005" lon="1.11533">
        <ele>268.519507</ele>
        <time>2022-05-12T12:39:28.059Z</time>
      </trkpt>
      <trkpt lat="44.44" lon="1.11518">
        <ele>268.330117</ele>
        <time>2022-05-12T12:39:30.097Z</time>
      </trkpt>
      <trkpt lat="44.43995" lon="1.11505">
        <ele>268.158318</ele>
        <time>2022-05-12T12:39:32.046Z</time>
      </trkpt>
      <trkpt lat="44.43992" lon="1.11491">
        <ele>267.984434</ele>
        <time>2022-05-12T12:39:34.024Z</time>
      </trkpt>
      <trkpt lat="44.43987" lon="1.11479">
        <ele>267.821225</ele>
        <time>2022-05-12T12:39:36.091Z</time>
      </trkpt>
      <trkpt lat="44.43982" lon="1.11462">
        <ele>267.604236</ele>
        <time>2022-05-12T12:39:38.053Z</time>
      </trkpt>
      <trkpt lat="44.43973" lon="1.11453">
        <ele>267.428431</ele>
        <time>2022-05-12T12:39:40.045Z</time>
      </trkpt>
      <trkpt lat="44.43966" lon="1.11436">
        <ele>267.196753</ele>
        <time>2022-05-12T12:39:42.104Z</time>
      </trkpt>
      <trkpt lat="44.43959" lon="1.11418">
        <ele>266.962242</ele>
        <time>2022-05-12T12:39:44.038Z</time>
      </trkpt>
      <trkpt lat="44.43951" lon="1.11403">
        <ele>266.73748</ele>
        <time>2022-05-12T12:39:46.048Z</time>
      </trkpt>
      <trkpt lat="44.43944" lon="1.11389">
        <ele>266.538356</ele>
        <time>2022-05-12T12:39:48.100Z</time>
      </trkpt>
      <trkpt lat="44.43936" lon="1.11371">
        <ele>266.299094</ele>
        <time>2022-05-12T12:39:50.062Z</time>
      </trkpt>
      <trkpt lat="44.43927" lon="1.11356">
        <ele>266.551718</ele>
        <time>2022-05-12T12:39:52.056Z</time>
      </trkpt>
      <trkpt lat="44.43918" lon="1.11342">
        <ele>266.905241</ele>
        <time>2022-05-12T12:39:54.093Z</time>
      </trkpt>
      <trkpt lat="44.43912" lon="1.1133">
        <ele>267.205492</ele>
        <time>2022-05-12T12:39:56.054Z</time>
      </trkpt>
      <trkpt lat="44.43904" lon="1.11315">
        <ele>267.557844</ele>
        <time>2022-05-12T12:39:58.031Z</time>
      </trkpt>
      <trkpt lat="44.43897" lon="1.113">
        <ele>267.913474</ele>
        <time>2022-05-12T12:40:00.080Z</time>
      </trkpt>
      <trkpt lat="44.43889" lon="1.11285">
        <ele>268.272617</ele>
        <time>2022-05-12T12:40:02.055Z</time>
      </trkpt>
      <trkpt lat="44.43881" lon="1.1127">
        <ele>268.630606</ele>
        <time>2022-05-12T12:40:04.034Z</time>
      </trkpt>
      <trkpt lat="44.43874" lon="1.11257">
        <ele>268.948347</ele>
        <time>2022-05-12T12:40:06.102Z</time>
      </trkpt>
      <trkpt lat="44.43866" lon="1.11243">
        <ele>269.307289</ele>
        <time>2022-05-12T12:40:08.048Z</time>
      </trkpt>
      <trkpt lat="44.43858" lon="1.11225">
        <ele>269.709662</ele>
        <time>2022-05-12T12:40:10.066Z</time>
      </trkpt>
      <trkpt lat="44.43849" lon="1.11208">
        <ele>270.117299</ele>
        <time>2022-05-12T12:40:12.094Z</time>
      </trkpt>
      <trkpt lat="44.4384" lon="1.11193">
        <ele>270.504753</ele>
        <time>2022-05-12T12:40:14.063Z</time>
      </trkpt>
      <trkpt lat="44.43832" lon="1.11181">
        <ele>270.824963</ele>
        <time>2022-05-12T12:40:16.060Z</time>
      </trkpt>
      <trkpt lat="44.43824" lon="1.11164">
        <ele>271.255808</ele>
        <time>2022-05-12T12:40:18.098Z</time>
      </trkpt>
      <trkpt lat="44.43815" lon="1.11149">
        <ele>271.75075</ele>
        <time>2022-05-12T12:40:20.067Z</time>
      </trkpt>
      <trkpt lat="44.43808" lon="1.11134">
        <ele>272.207675</ele>
        <time>2022-05-12T12:40:22.057Z</time>
      </trkpt>
      <trkpt lat="44.438" lon="1.11121">
        <ele>272.637723</ele>
        <time>2022-05-12T12:40:24.094Z</time>
      </trkpt>
      <trkpt lat="44.43792" lon="1.11106">
        <ele>273.111429</ele>
        <time>2022-05-12T12:40:26.051Z</time>
      </trkpt>
      <trkpt lat="44.43785" lon="1.11093">
        <ele>273.547731</ele>
        <time>2022-05-12T12:40:28.055Z</time>
      </trkpt>
      <trkpt lat="44.43779" lon="1.11078">
        <ele>273.982299</ele>
        <time>2022-05-12T12:40:30.088Z</time>
      </trkpt>
      <trkpt lat="44.43771" lon="1.11065">
        <ele>274.412348</ele>
        <time>2022-05-12T12:40:32.056Z</time>
      </trkpt>
      <trkpt lat="44.43764" lon="1.1105">
        <ele>274.879959</ele>
        <time>2022-05-12T12:40:34.048Z</time>
      </trkpt>
      <trkpt lat="44.43758" lon="1.11037">
        <ele>275.286873</ele>
        <time>2022-05-12T12:40:36.051Z</time>
      </trkpt>
      <trkpt lat="44.43752" lon="1.11025">
        <ele>275.635343</ele>
        <time>2022-05-12T12:40:38.035Z</time>
      </trkpt>
      <trkpt lat="44.43745" lon="1.11011">
        <ele>276.080261</ele>
        <time>2022-05-12T12:40:40.027Z</time>
      </trkpt>
      <trkpt lat="44.43738" lon="1.10999">
        <ele>276.491467</ele>
        <time>2022-05-12T12:40:42.084Z</time>
      </trkpt>
      <trkpt lat="44.43736" lon="1.10987">
        <ele>276.814859</ele>
        <time>2022-05-12T12:40:44.030Z</time>
      </trkpt>
      <trkpt lat="44.43733" lon="1.10975">
        <ele>277.142003</ele>
        <time>2022-05-12T12:40:46.030Z</time>
      </trkpt>
      <trkpt lat="44.43729" lon="1.1096">
        <ele>277.524686</ele>
        <time>2022-05-12T12:40:48.086Z</time>
      </trkpt>
      <trkpt lat="44.43726" lon="1.10945">
        <ele>277.998403</ele>
        <time>2022-05-12T12:40:50.054Z</time>
      </trkpt>
      <trkpt lat="44.43724" lon="1.10928">
        <ele>278.511321</ele>
        <time>2022-05-12T12:40:53.063Z</time>
      </trkpt>
      <trkpt lat="44.4372" lon="1.10914">
        <ele>278.958621</ele>
        <time>2022-05-12T12:40:55.042Z</time>
      </trkpt>
      <trkpt lat="44.4372" lon="1.10896">
        <ele>279.515513</ele>
        <time>2022-05-12T12:40:58.078Z</time>
      </trkpt>
      <trkpt lat="44.43718" lon="1.10883">
        <ele>279.896744</ele>
        <time>2022-05-12T12:41:00.090Z</time>
      </trkpt>
      <trkpt lat="44.43713" lon="1.10866">
        <ele>280.447392</ele>
        <time>2022-05-12T12:41:03.070Z</time>
      </trkpt>
      <trkpt lat="44.43711" lon="1.1085">
        <ele>280.935755</ele>
        <time>2022-05-12T12:41:06.088Z</time>
      </trkpt>
      <trkpt lat="44.43707" lon="1.10837">
        <ele>281.356167</ele>
        <time>2022-05-12T12:41:09.025Z</time>
      </trkpt>
      <trkpt lat="44.43705" lon="1.10821">
        <ele>281.831859</ele>
        <time>2022-05-12T12:41:12.053Z</time>
      </trkpt>
      <trkpt lat="44.43701" lon="1.10804">
        <ele>282.381054</ele>
        <time>2022-05-12T12:41:15.039Z</time>
      </trkpt>
      <trkpt lat="44.43698" lon="1.10791">
        <ele>282.793374</ele>
        <time>2022-05-12T12:41:17.060Z</time>
      </trkpt>
      <trkpt lat="44.43692" lon="1.10778">
        <ele>283.25912</ele>
        <time>2022-05-12T12:41:19.051Z</time>
      </trkpt>
      <trkpt lat="44.43688" lon="1.10755">
        <ele>283.965093</ele>
        <time>2022-05-12T12:41:21.036Z</time>
      </trkpt>
      <trkpt lat="44.43684" lon="1.10734">
        <ele>284.606919</ele>
        <time>2022-05-12T12:41:23.057Z</time>
      </trkpt>
      <trkpt lat="44.43678" lon="1.10715">
        <ele>285.231091</ele>
        <time>2022-05-12T12:41:25.051Z</time>
      </trkpt>
      <trkpt lat="44.43669" lon="1.10699">
        <ele>285.709927</ele>
        <time>2022-05-12T12:41:27.044Z</time>
      </trkpt>
      <trkpt lat="44.43663" lon="1.1068">
        <ele>286.229284</ele>
        <time>2022-05-12T12:41:29.080Z</time>
      </trkpt>
      <trkpt lat="44.43662" lon="1.10656">
        <ele>286.801126</ele>
        <time>2022-05-12T12:41:31.073Z</time>
      </trkpt>
      <trkpt lat="44.43653" lon="1.10635">
        <ele>287.380601</ele>
        <time>2022-05-12T12:41:33.056Z</time>
      </trkpt>
      <trkpt lat="44.43648" lon="1.10612">
        <ele>287.986176</ele>
        <time>2022-05-12T12:41:35.066Z</time>
      </trkpt>
      <trkpt lat="44.43638" lon="1.10591">
        <ele>288.585154</ele>
        <time>2022-05-12T12:41:37.071Z</time>
      </trkpt>
      <trkpt lat="44.43635" lon="1.10578">
        <ele>288.911048</ele>
        <time>2022-05-12T12:41:38.100Z</time>
      </trkpt>
      <trkpt lat="44.4363" lon="1.10567">
        <ele>289.233716</ele>
        <time>2022-05-12T12:41:39.055Z</time>
      </trkpt>
      <trkpt lat="44.43627" lon="1.10553">
        <ele>289.579908</ele>
        <time>2022-05-12T12:41:40.044Z</time>
      </trkpt>
      <trkpt lat="44.4362" lon="1.10531">
        <ele>290.160377</ele>
        <time>2022-05-12T12:41:42.078Z</time>
      </trkpt>
      <trkpt lat="44.43616" lon="1.10519">
        <ele>290.47825</ele>
        <time>2022-05-12T12:41:43.072Z</time>
      </trkpt>
      <trkpt lat="44.4361" lon="1.10503">
        <ele>290.931595</ele>
        <time>2022-05-12T12:41:45.060Z</time>
      </trkpt>
      <trkpt lat="44.43603" lon="1.10488">
        <ele>291.088011</ele>
        <time>2022-05-12T12:41:47.079Z</time>
      </trkpt>
      <trkpt lat="44.43595" lon="1.10475">
        <ele>290.144825</ele>
        <time>2022-05-12T12:41:49.075Z</time>
      </trkpt>
      <trkpt lat="44.43587" lon="1.10465">
        <ele>289.33036</ele>
        <time>2022-05-12T12:41:51.073Z</time>
      </trkpt>
      <trkpt lat="44.43577" lon="1.10455">
        <ele>288.411514</ele>
        <time>2022-05-12T12:41:53.068Z</time>
      </trkpt>
      <trkpt lat="44.43568" lon="1.10447">
        <ele>287.585744</ele>
        <time>2022-05-12T12:41:55.062Z</time>
      </trkpt>
      <trkpt lat="44.43558" lon="1.10439">
        <ele>286.693607</ele>
        <time>2022-05-12T12:41:57.070Z</time>
      </trkpt>
      <trkpt lat="44.43547" lon="1.10432">
        <ele>285.733038</ele>
        <time>2022-05-12T12:41:59.059Z</time>
      </trkpt>
      <trkpt lat="44.43536" lon="1.10425">
        <ele>284.859829</ele>
        <time>2022-05-12T12:42:01.065Z</time>
      </trkpt>
      <trkpt lat="44.43524" lon="1.10417">
        <ele>283.847952</ele>
        <time>2022-05-12T12:42:03.036Z</time>
      </trkpt>
      <trkpt lat="44.43513" lon="1.10412">
        <ele>282.933009</ele>
        <time>2022-05-12T12:42:05.064Z</time>
      </trkpt>
      <trkpt lat="44.435" lon="1.10405">
        <ele>281.871503</ele>
        <time>2022-05-12T12:42:07.071Z</time>
      </trkpt>
      <trkpt lat="44.43488" lon="1.10398">
        <ele>280.904932</ele>
        <time>2022-05-12T12:42:09.047Z</time>
      </trkpt>
      <trkpt lat="44.43477" lon="1.10388">
        <ele>279.890571</ele>
        <time>2022-05-12T12:42:11.059Z</time>
      </trkpt>
      <trkpt lat="44.43464" lon="1.10382">
        <ele>278.827161</ele>
        <time>2022-05-12T12:42:13.078Z</time>
      </trkpt>
      <trkpt lat="44.43452" lon="1.10375">
        <ele>277.828067</ele>
        <time>2022-05-12T12:42:15.034Z</time>
      </trkpt>
      <trkpt lat="44.43438" lon="1.10367">
        <ele>278.100601</ele>
        <time>2022-05-12T12:42:17.054Z</time>
      </trkpt>
      <trkpt lat="44.43423" lon="1.10364">
        <ele>278.952064</ele>
        <time>2022-05-12T12:42:19.054Z</time>
      </trkpt>
      <trkpt lat="44.4341" lon="1.10359">
        <ele>279.732039</ele>
        <time>2022-05-12T12:42:21.063Z</time>
      </trkpt>
      <trkpt lat="44.43397" lon="1.10352">
        <ele>280.534589</ele>
        <time>2022-05-12T12:42:23.069Z</time>
      </trkpt>
      <trkpt lat="44.43383" lon="1.1035">
        <ele>281.292048</ele>
        <time>2022-05-12T12:42:25.075Z</time>
      </trkpt>
      <trkpt lat="44.43371" lon="1.10349">
        <ele>282.009813</ele>
        <time>2022-05-12T12:42:27.050Z</time>
      </trkpt>
      <trkpt lat="44.4336" lon="1.10355">
        <ele>282.671351</ele>
        <time>2022-05-12T12:42:29.036Z</time>
      </trkpt>
      <trkpt lat="44.43346" lon="1.10364">
        <ele>283.509058</ele>
        <time>2022-05-12T12:42:31.065Z</time>
      </trkpt>
      <trkpt lat="44.43333" lon="1.10376">
        <ele>284.385903</ele>
        <time>2022-05-12T12:42:33.060Z</time>
      </trkpt>
      <trkpt lat="44.43321" lon="1.10383">
        <ele>285.146321</ele>
        <time>2022-05-12T12:42:35.068Z</time>
      </trkpt>
      <trkpt lat="44.43307" lon="1.10389">
        <ele>285.989529</ele>
        <time>2022-05-12T12:42:37.068Z</time>
      </trkpt>
      <trkpt lat="44.4329" lon="1.10394">
        <ele>286.966892</ele>
        <time>2022-05-12T12:42:39.053Z</time>
      </trkpt>
      <trkpt lat="44.4328" lon="1.10392">
        <ele>287.498358</ele>
        <time>2022-05-12T12:42:40.069Z</time>
      </trkpt>
      <trkpt lat="44.43267" lon="1.10395">
        <ele>286.104543</ele>
        <time>2022-05-12T12:42:42.087Z</time>
      </trkpt>
      <trkpt lat="44.43254" lon="1.10397">
        <ele>284.297008</ele>
        <time>2022-05-12T12:42:44.073Z</time>
      </trkpt>
      <trkpt lat="44.43236" lon="1.10396">
        <ele>281.882604</ele>
        <time>2022-05-12T12:42:46.075Z</time>
      </trkpt>
      <trkpt lat="44.43227" lon="1.10396">
        <ele>280.571278</ele>
        <time>2022-05-12T12:42:47.066Z</time>
      </trkpt>
      <trkpt lat="44.43217" lon="1.10398">
        <ele>279.145359</ele>
        <time>2022-05-12T12:42:48.063Z</time>
      </trkpt>
      <trkpt lat="44.43206" lon="1.10401">
        <ele>277.644145</ele>
        <time>2022-05-12T12:42:49.056Z</time>
      </trkpt>
      <trkpt lat="44.43192" lon="1.10399">
        <ele>275.607276</ele>
        <time>2022-05-12T12:42:51.048Z</time>
      </trkpt>
      <trkpt lat="44.43179" lon="1.10398">
        <ele>273.846722</ele>
        <time>2022-05-12T12:42:53.053Z</time>
      </trkpt>
      <trkpt lat="44.43163" lon="1.10398">
        <ele>271.628428</ele>
        <time>2022-05-12T12:42:55.059Z</time>
      </trkpt>
      <trkpt lat="44.43149" lon="1.10402">
        <ele>269.582365</ele>
        <time>2022-05-12T12:42:57.058Z</time>
      </trkpt>
      <trkpt lat="44.43132" lon="1.10401">
        <ele>267.19479</ele>
        <time>2022-05-12T12:42:59.060Z</time>
      </trkpt>
      <trkpt lat="44.43123" lon="1.10402">
        <ele>265.877085</ele>
        <time>2022-05-12T12:43:00.058Z</time>
      </trkpt>
      <trkpt lat="44.43107" lon="1.10402">
        <ele>263.67292</ele>
        <time>2022-05-12T12:43:02.056Z</time>
      </trkpt>
      <trkpt lat="44.43091" lon="1.10403">
        <ele>263.618151</ele>
        <time>2022-05-12T12:43:04.030Z</time>
      </trkpt>
      <trkpt lat="44.43081" lon="1.10403">
        <ele>264.845689</ele>
        <time>2022-05-12T12:43:05.053Z</time>
      </trkpt>
      <trkpt lat="44.43072" lon="1.10403">
        <ele>266.033292</ele>
        <time>2022-05-12T12:43:06.044Z</time>
      </trkpt>
      <trkpt lat="44.43062" lon="1.10404">
        <ele>267.259305</ele>
        <time>2022-05-12T12:43:07.095Z</time>
      </trkpt>
      <trkpt lat="44.43045" lon="1.10401">
        <ele>269.390318</ele>
        <time>2022-05-12T12:43:09.060Z</time>
      </trkpt>
      <trkpt lat="44.43036" lon="1.10402">
        <ele>270.541891</ele>
        <time>2022-05-12T12:43:10.050Z</time>
      </trkpt>
      <trkpt lat="44.43022" lon="1.10402">
        <ele>272.355259</ele>
        <time>2022-05-12T12:43:12.048Z</time>
      </trkpt>
      <trkpt lat="44.43009" lon="1.10403">
        <ele>274.080692</ele>
        <time>2022-05-12T12:43:14.048Z</time>
      </trkpt>
      <trkpt lat="44.42993" lon="1.10405">
        <ele>276.080262</ele>
        <time>2022-05-12T12:43:16.052Z</time>
      </trkpt>
      <trkpt lat="44.42981" lon="1.10402">
        <ele>277.657483</ele>
        <time>2022-05-12T12:43:18.057Z</time>
      </trkpt>
      <trkpt lat="44.42967" lon="1.10401">
        <ele>279.435283</ele>
        <time>2022-05-12T12:43:20.067Z</time>
      </trkpt>
      <trkpt lat="44.42954" lon="1.10399">
        <ele>281.093649</ele>
        <time>2022-05-12T12:43:22.057Z</time>
      </trkpt>
      <trkpt lat="44.42944" lon="1.10394">
        <ele>282.413547</ele>
        <time>2022-05-12T12:43:24.063Z</time>
      </trkpt>
      <trkpt lat="44.42935" lon="1.10387">
        <ele>283.802166</ele>
        <time>2022-05-12T12:43:26.071Z</time>
      </trkpt>
      <trkpt lat="44.42926" lon="1.10378">
        <ele>285.251574</ele>
        <time>2022-05-12T12:43:28.072Z</time>
      </trkpt>
      <trkpt lat="44.42918" lon="1.10365">
        <ele>286.544275</ele>
        <time>2022-05-12T12:43:30.059Z</time>
      </trkpt>
      <trkpt lat="44.42911" lon="1.10356">
        <ele>287.472573</ele>
        <time>2022-05-12T12:43:32.064Z</time>
      </trkpt>
      <trkpt lat="44.42904" lon="1.10347">
        <ele>288.463157</ele>
        <time>2022-05-12T12:43:34.038Z</time>
      </trkpt>
      <trkpt lat="44.42897" lon="1.10338">
        <ele>289.433622</ele>
        <time>2022-05-12T12:43:36.096Z</time>
      </trkpt>
      <trkpt lat="44.42888" lon="1.1033">
        <ele>290.484057</ele>
        <time>2022-05-12T12:43:38.040Z</time>
      </trkpt>
      <trkpt lat="44.42876" lon="1.10319">
        <ele>291.906747</ele>
        <time>2022-05-12T12:43:41.067Z</time>
      </trkpt>
      <trkpt lat="44.42868" lon="1.10313">
        <ele>292.891262</ele>
        <time>2022-05-12T12:43:43.055Z</time>
      </trkpt>
      <trkpt lat="44.42858" lon="1.10308">
        <ele>293.966355</ele>
        <time>2022-05-12T12:43:45.055Z</time>
      </trkpt>
      <trkpt lat="44.42844" lon="1.10309">
        <ele>295.423584</ele>
        <time>2022-05-12T12:43:48.101Z</time>
      </trkpt>
      <trkpt lat="44.42833" lon="1.10311">
        <ele>296.513859</ele>
        <time>2022-05-12T12:43:50.052Z</time>
      </trkpt>
      <trkpt lat="44.42824" lon="1.10316">
        <ele>297.486595</ele>
        <time>2022-05-12T12:43:52.055Z</time>
      </trkpt>
      <trkpt lat="44.42814" lon="1.1032">
        <ele>298.5948</ele>
        <time>2022-05-12T12:43:54.044Z</time>
      </trkpt>
      <trkpt lat="44.42805" lon="1.10325">
        <ele>299.568352</ele>
        <time>2022-05-12T12:43:56.066Z</time>
      </trkpt>
      <trkpt lat="44.42792" lon="1.10328">
        <ele>300.909389</ele>
        <time>2022-05-12T12:43:59.102Z</time>
      </trkpt>
      <trkpt lat="44.42783" lon="1.10331">
        <ele>301.836809</ele>
        <time>2022-05-12T12:44:01.053Z</time>
      </trkpt>
      <trkpt lat="44.42774" lon="1.10338">
        <ele>302.848524</ele>
        <time>2022-05-12T12:44:03.041Z</time>
      </trkpt>
      <trkpt lat="44.42763" lon="1.10344">
        <ele>303.847493</ele>
        <time>2022-05-12T12:44:05.094Z</time>
      </trkpt>
      <trkpt lat="44.42752" lon="1.10347">
        <ele>303.835267</ele>
        <time>2022-05-12T12:44:07.058Z</time>
      </trkpt>
      <trkpt lat="44.4274" lon="1.10353">
        <ele>303.820834</ele>
        <time>2022-05-12T12:44:10.038Z</time>
      </trkpt>
      <trkpt lat="44.42728" lon="1.10357">
        <ele>303.80739</ele>
        <time>2022-05-12T12:44:12.057Z</time>
      </trkpt>
      <trkpt lat="44.4272" lon="1.1036">
        <ele>303.797302</ele>
        <time>2022-05-12T12:44:14.031Z</time>
      </trkpt>
      <trkpt lat="44.42709" lon="1.10365">
        <ele>303.785106</ele>
        <time>2022-05-12T12:44:16.067Z</time>
      </trkpt>
      <trkpt lat="44.42698" lon="1.10368">
        <ele>303.771709</ele>
        <time>2022-05-12T12:44:18.053Z</time>
      </trkpt>
      <trkpt lat="44.42685" lon="1.10372">
        <ele>303.757343</ele>
        <time>2022-05-12T12:44:21.058Z</time>
      </trkpt>
      <trkpt lat="44.42676" lon="1.10375">
        <ele>303.746693</ele>
        <time>2022-05-12T12:44:23.094Z</time>
      </trkpt>
      <trkpt lat="44.42666" lon="1.10374">
        <ele>303.736264</ele>
        <time>2022-05-12T12:44:25.056Z</time>
      </trkpt>
      <trkpt lat="44.42657" lon="1.10372">
        <ele>303.725666</ele>
        <time>2022-05-12T12:44:27.062Z</time>
      </trkpt>
      <trkpt lat="44.42645" lon="1.10371">
        <ele>303.711818</ele>
        <time>2022-05-12T12:44:29.091Z</time>
      </trkpt>
      <trkpt lat="44.42634" lon="1.1037">
        <ele>303.699951</ele>
        <time>2022-05-12T12:44:31.058Z</time>
      </trkpt>
      <trkpt lat="44.42622" lon="1.10369">
        <ele>303.686309</ele>
        <time>2022-05-12T12:44:33.085Z</time>
      </trkpt>
      <trkpt lat="44.42611" lon="1.10367">
        <ele>303.67402</ele>
        <time>2022-05-12T12:44:35.097Z</time>
      </trkpt>
      <trkpt lat="44.426" lon="1.10363">
        <ele>303.661374</ele>
        <time>2022-05-12T12:44:37.067Z</time>
      </trkpt>
      <trkpt lat="44.42589" lon="1.10362">
        <ele>303.649977</ele>
        <time>2022-05-12T12:44:39.059Z</time>
      </trkpt>
      <trkpt lat="44.42579" lon="1.10361">
        <ele>304.213368</ele>
        <time>2022-05-12T12:44:41.104Z</time>
      </trkpt>
      <trkpt lat="44.42568" lon="1.1036">
        <ele>304.821459</ele>
        <time>2022-05-12T12:44:43.080Z</time>
      </trkpt>
      <trkpt lat="44.42559" lon="1.10356">
        <ele>305.351162</ele>
        <time>2022-05-12T12:44:45.042Z</time>
      </trkpt>
      <trkpt lat="44.42549" lon="1.10354">
        <ele>305.900069</ele>
        <time>2022-05-12T12:44:47.094Z</time>
      </trkpt>
      <trkpt lat="44.42534" lon="1.10354">
        <ele>306.786416</ele>
        <time>2022-05-12T12:44:50.043Z</time>
      </trkpt>
      <trkpt lat="44.42521" lon="1.10352">
        <ele>307.476985</ele>
        <time>2022-05-12T12:44:52.078Z</time>
      </trkpt>
      <trkpt lat="44.42512" lon="1.10349">
        <ele>307.993324</ele>
        <time>2022-05-12T12:44:54.038Z</time>
      </trkpt>
      <trkpt lat="44.42503" lon="1.10344">
        <ele>308.529802</ele>
        <time>2022-05-12T12:44:56.065Z</time>
      </trkpt>
      <trkpt lat="44.42493" lon="1.10342">
        <ele>309.104492</ele>
        <time>2022-05-12T12:44:58.058Z</time>
      </trkpt>
      <trkpt lat="44.42485" lon="1.10337">
        <ele>309.632053</ele>
        <time>2022-05-12T12:45:00.066Z</time>
      </trkpt>
      <trkpt lat="44.42473" lon="1.10332">
        <ele>310.307301</ele>
        <time>2022-05-12T12:45:03.057Z</time>
      </trkpt>
      <trkpt lat="44.42461" lon="1.10325">
        <ele>311.05637</ele>
        <time>2022-05-12T12:45:06.059Z</time>
      </trkpt>
      <trkpt lat="44.42449" lon="1.10317">
        <ele>311.813839</ele>
        <time>2022-05-12T12:45:09.063Z</time>
      </trkpt>
      <trkpt lat="44.42439" lon="1.10312">
        <ele>312.384596</ele>
        <time>2022-05-12T12:45:11.088Z</time>
      </trkpt>
      <trkpt lat="44.42431" lon="1.10306">
        <ele>312.916801</ele>
        <time>2022-05-12T12:45:13.081Z</time>
      </trkpt>
      <trkpt lat="44.42422" lon="1.10299">
        <ele>313.47085</ele>
        <time>2022-05-12T12:45:15.070Z</time>
      </trkpt>
      <trkpt lat="44.42411" lon="1.1029">
        <ele>313.932424</ele>
        <time>2022-05-12T12:45:18.052Z</time>
      </trkpt>
      <trkpt lat="44.424" lon="1.10277">
        <ele>314.304848</ele>
        <time>2022-05-12T12:45:21.071Z</time>
      </trkpt>
      <trkpt lat="44.4239" lon="1.10266">
        <ele>314.642658</ele>
        <time>2022-05-12T12:45:24.041Z</time>
      </trkpt>
      <trkpt lat="44.4238" lon="1.10254">
        <ele>314.980469</ele>
        <time>2022-05-12T12:45:27.069Z</time>
      </trkpt>
      <trkpt lat="44.42372" lon="1.10241">
        <ele>315.285868</ele>
        <time>2022-05-12T12:45:30.045Z</time>
      </trkpt>
      <trkpt lat="44.42362" lon="1.10232">
        <ele>315.601934</ele>
        <time>2022-05-12T12:45:33.054Z</time>
      </trkpt>
      <trkpt lat="44.42353" lon="1.1022">
        <ele>315.921627</ele>
        <time>2022-05-12T12:45:36.039Z</time>
      </trkpt>
      <trkpt lat="44.42344" lon="1.10208">
        <ele>316.23635</ele>
        <time>2022-05-12T12:45:39.073Z</time>
      </trkpt>
      <trkpt lat="44.42335" lon="1.102">
        <ele>316.519867</ele>
        <time>2022-05-12T12:45:42.085Z</time>
      </trkpt>
      <trkpt lat="44.42324" lon="1.10188">
        <ele>316.879752</ele>
        <time>2022-05-12T12:45:45.030Z</time>
      </trkpt>
      <trkpt lat="44.42316" lon="1.10176">
        <ele>317.179397</ele>
        <time>2022-05-12T12:45:47.104Z</time>
      </trkpt>
      <trkpt lat="44.42308" lon="1.10163">
        <ele>317.501267</ele>
        <time>2022-05-12T12:45:49.057Z</time>
      </trkpt>
      <trkpt lat="44.423" lon="1.1015">
        <ele>317.810804</ele>
        <time>2022-05-12T12:45:51.058Z</time>
      </trkpt>
      <trkpt lat="44.4229" lon="1.10133">
        <ele>318.207269</ele>
        <time>2022-05-12T12:45:53.086Z</time>
      </trkpt>
      <trkpt lat="44.42279" lon="1.10128">
        <ele>317.494261</ele>
        <time>2022-05-12T12:45:55.046Z</time>
      </trkpt>
      <trkpt lat="44.42267" lon="1.10121">
        <ele>315.539251</ele>
        <time>2022-05-12T12:45:57.068Z</time>
      </trkpt>
      <trkpt lat="44.42252" lon="1.10114">
        <ele>313.157718</ele>
        <time>2022-05-12T12:45:59.086Z</time>
      </trkpt>
      <trkpt lat="44.42237" lon="1.10107">
        <ele>310.763938</ele>
        <time>2022-05-12T12:46:01.063Z</time>
      </trkpt>
      <trkpt lat="44.42229" lon="1.10103">
        <ele>309.341373</ele>
        <time>2022-05-12T12:46:02.056Z</time>
      </trkpt>
      <trkpt lat="44.42214" lon="1.10096">
        <ele>306.994555</ele>
        <time>2022-05-12T12:46:04.050Z</time>
      </trkpt>
      <trkpt lat="44.42206" lon="1.10091">
        <ele>305.583853</ele>
        <time>2022-05-12T12:46:05.111Z</time>
      </trkpt>
      <trkpt lat="44.42192" lon="1.10081">
        <ele>303.21129</ele>
        <time>2022-05-12T12:46:07.061Z</time>
      </trkpt>
      <trkpt lat="44.42178" lon="1.10072">
        <ele>300.853494</ele>
        <time>2022-05-12T12:46:09.051Z</time>
      </trkpt>
      <trkpt lat="44.42164" lon="1.10062">
        <ele>298.41768</ele>
        <time>2022-05-12T12:46:11.054Z</time>
      </trkpt>
      <trkpt lat="44.4215" lon="1.10057">
        <ele>296.263296</ele>
        <time>2022-05-12T12:46:13.097Z</time>
      </trkpt>
      <trkpt lat="44.42138" lon="1.10051">
        <ele>294.353346</ele>
        <time>2022-05-12T12:46:15.054Z</time>
      </trkpt>
      <trkpt lat="44.42126" lon="1.10042">
        <ele>292.289041</ele>
        <time>2022-05-12T12:46:17.058Z</time>
      </trkpt>
      <trkpt lat="44.42113" lon="1.10035">
        <ele>291.415834</ele>
        <time>2022-05-12T12:46:19.091Z</time>
      </trkpt>
      <trkpt lat="44.42099" lon="1.10024">
        <ele>293.396292</ele>
        <time>2022-05-12T12:46:21.072Z</time>
      </trkpt>
      <trkpt lat="44.42085" lon="1.10013">
        <ele>295.372279</ele>
        <time>2022-05-12T12:46:23.066Z</time>
      </trkpt>
      <trkpt lat="44.42072" lon="1.10006">
        <ele>297.092786</ele>
        <time>2022-05-12T12:46:25.050Z</time>
      </trkpt>
      <trkpt lat="44.42056" lon="1.10002">
        <ele>298.971857</ele>
        <time>2022-05-12T12:46:27.074Z</time>
      </trkpt>
      <trkpt lat="44.42042" lon="1.09997">
        <ele>300.739788</ele>
        <time>2022-05-12T12:46:29.062Z</time>
      </trkpt>
      <trkpt lat="44.42033" lon="1.09992">
        <ele>302.005307</ele>
        <time>2022-05-12T12:46:31.050Z</time>
      </trkpt>
      <trkpt lat="44.42019" lon="1.09986">
        <ele>303.691645</ele>
        <time>2022-05-12T12:46:33.044Z</time>
      </trkpt>
      <trkpt lat="44.42007" lon="1.09985">
        <ele>305.217302</ele>
        <time>2022-05-12T12:46:35.083Z</time>
      </trkpt>
      <trkpt lat="44.41995" lon="1.09983">
        <ele>306.732282</ele>
        <time>2022-05-12T12:46:37.036Z</time>
      </trkpt>
      <trkpt lat="44.4198" lon="1.0998">
        <ele>308.494788</ele>
        <time>2022-05-12T12:46:39.055Z</time>
      </trkpt>
      <trkpt lat="44.41965" lon="1.09975">
        <ele>310.41416</ele>
        <time>2022-05-12T12:46:41.108Z</time>
      </trkpt>
      <trkpt lat="44.41951" lon="1.0997">
        <ele>312.220491</ele>
        <time>2022-05-12T12:46:43.053Z</time>
      </trkpt>
      <trkpt lat="44.41938" lon="1.09966">
        <ele>312.850781</ele>
        <time>2022-05-12T12:46:45.048Z</time>
      </trkpt>
      <trkpt lat="44.41923" lon="1.09961">
        <ele>313.01867</ele>
        <time>2022-05-12T12:46:47.080Z</time>
      </trkpt>
      <trkpt lat="44.41908" lon="1.09957">
        <ele>313.184893</ele>
        <time>2022-05-12T12:46:49.057Z</time>
      </trkpt>
      <trkpt lat="44.41894" lon="1.09951">
        <ele>313.332611</ele>
        <time>2022-05-12T12:46:51.058Z</time>
      </trkpt>
      <trkpt lat="44.41883" lon="1.0995">
        <ele>313.453446</ele>
        <time>2022-05-12T12:46:53.107Z</time>
      </trkpt>
      <trkpt lat="44.41874" lon="1.0995">
        <ele>313.551446</ele>
        <time>2022-05-12T12:46:54.028Z</time>
      </trkpt>
      <trkpt lat="44.41862" lon="1.09946">
        <ele>313.684801</ele>
        <time>2022-05-12T12:46:56.058Z</time>
      </trkpt>
      <trkpt lat="44.41848" lon="1.09945">
        <ele>313.833097</ele>
        <time>2022-05-12T12:46:58.066Z</time>
      </trkpt>
      <trkpt lat="44.41832" lon="1.09943">
        <ele>314.005938</ele>
        <time>2022-05-12T12:47:00.054Z</time>
      </trkpt>
      <trkpt lat="44.41816" lon="1.09937">
        <ele>314.178262</ele>
        <time>2022-05-12T12:47:02.052Z</time>
      </trkpt>
      <trkpt lat="44.41797" lon="1.09934">
        <ele>314.388632</ele>
        <time>2022-05-12T12:47:04.085Z</time>
      </trkpt>
      <trkpt lat="44.41778" lon="1.09926">
        <ele>314.596856</ele>
        <time>2022-05-12T12:47:06.061Z</time>
      </trkpt>
      <trkpt lat="44.4176" lon="1.09914">
        <ele>313.335061</ele>
        <time>2022-05-12T12:47:08.070Z</time>
      </trkpt>
      <trkpt lat="44.4175" lon="1.09912">
        <ele>312.0796</ele>
        <time>2022-05-12T12:47:09.073Z</time>
      </trkpt>
      <trkpt lat="44.41737" lon="1.09912">
        <ele>310.658625</ele>
        <time>2022-05-12T12:47:10.081Z</time>
      </trkpt>
      <trkpt lat="44.41727" lon="1.09906">
        <ele>309.362349</ele>
        <time>2022-05-12T12:47:11.054Z</time>
      </trkpt>
      <trkpt lat="44.41716" lon="1.099">
        <ele>308.069148</ele>
        <time>2022-05-12T12:47:12.053Z</time>
      </trkpt>
      <trkpt lat="44.41705" lon="1.09898">
        <ele>306.77169</ele>
        <time>2022-05-12T12:47:13.062Z</time>
      </trkpt>
      <trkpt lat="44.41696" lon="1.09892">
        <ele>305.602729</ele>
        <time>2022-05-12T12:47:14.026Z</time>
      </trkpt>
      <trkpt lat="44.41686" lon="1.09887">
        <ele>304.378335</ele>
        <time>2022-05-12T12:47:15.031Z</time>
      </trkpt>
      <trkpt lat="44.41667" lon="1.0988">
        <ele>302.14011</ele>
        <time>2022-05-12T12:47:17.039Z</time>
      </trkpt>
      <trkpt lat="44.41657" lon="1.09876">
        <ele>300.889733</ele>
        <time>2022-05-12T12:47:18.063Z</time>
      </trkpt>
      <trkpt lat="44.41647" lon="1.09871">
        <ele>299.695718</ele>
        <time>2022-05-12T12:47:19.053Z</time>
      </trkpt>
      <trkpt lat="44.41636" lon="1.0987">
        <ele>298.45744</ele>
        <time>2022-05-12T12:47:20.042Z</time>
      </trkpt>
      <trkpt lat="44.41625" lon="1.09871">
        <ele>297.093097</ele>
        <time>2022-05-12T12:47:21.071Z</time>
      </trkpt>
      <trkpt lat="44.41615" lon="1.09872">
        <ele>295.922165</ele>
        <time>2022-05-12T12:47:22.094Z</time>
      </trkpt>
      <trkpt lat="44.41605" lon="1.09877">
        <ele>294.725223</ele>
        <time>2022-05-12T12:47:23.061Z</time>
      </trkpt>
      <trkpt lat="44.41593" lon="1.09883">
        <ele>292.923215</ele>
        <time>2022-05-12T12:47:24.035Z</time>
      </trkpt>
      <trkpt lat="44.41585" lon="1.09891">
        <ele>290.910587</ele>
        <time>2022-05-12T12:47:25.068Z</time>
      </trkpt>
      <trkpt lat="44.41574" lon="1.0991">
        <ele>287.558473</ele>
        <time>2022-05-12T12:47:27.056Z</time>
      </trkpt>
      <trkpt lat="44.41565" lon="1.09929">
        <ele>284.365577</ele>
        <time>2022-05-12T12:47:29.067Z</time>
      </trkpt>
      <trkpt lat="44.41555" lon="1.09944">
        <ele>281.48575</ele>
        <time>2022-05-12T12:47:31.055Z</time>
      </trkpt>
      <trkpt lat="44.41546" lon="1.09957">
        <ele>278.935879</ele>
        <time>2022-05-12T12:47:33.075Z</time>
      </trkpt>
      <trkpt lat="44.41539" lon="1.09971">
        <ele>276.585427</ele>
        <time>2022-05-12T12:47:35.039Z</time>
      </trkpt>
      <trkpt lat="44.4153" lon="1.09983">
        <ele>274.156867</ele>
        <time>2022-05-12T12:47:37.043Z</time>
      </trkpt>
      <trkpt lat="44.41522" lon="1.09995">
        <ele>271.916866</ele>
        <time>2022-05-12T12:47:39.082Z</time>
      </trkpt>
      <trkpt lat="44.41517" lon="1.10014">
        <ele>269.054109</ele>
        <time>2022-05-12T12:47:41.054Z</time>
      </trkpt>
      <trkpt lat="44.41513" lon="1.10026">
        <ele>267.125108</ele>
        <time>2022-05-12T12:47:42.069Z</time>
      </trkpt>
      <trkpt lat="44.41508" lon="1.10039">
        <ele>265.19672</ele>
        <time>2022-05-12T12:47:43.038Z</time>
      </trkpt>
      <trkpt lat="44.41501" lon="1.10047">
        <ele>263.330737</ele>
        <time>2022-05-12T12:47:44.046Z</time>
      </trkpt>
      <trkpt lat="44.41491" lon="1.10061">
        <ele>260.504602</ele>
        <time>2022-05-12T12:47:46.080Z</time>
      </trkpt>
      <trkpt lat="44.41478" lon="1.10075">
        <ele>260.148392</ele>
        <time>2022-05-12T12:47:48.064Z</time>
      </trkpt>
      <trkpt lat="44.41469" lon="1.10083">
        <ele>262.341005</ele>
        <time>2022-05-12T12:47:49.054Z</time>
      </trkpt>
      <trkpt lat="44.41452" lon="1.10091">
        <ele>265.733834</ele>
        <time>2022-05-12T12:47:51.063Z</time>
      </trkpt>
      <trkpt lat="44.41436" lon="1.101">
        <ele>269.136969</ele>
        <time>2022-05-12T12:47:53.068Z</time>
      </trkpt>
      <trkpt lat="44.41426" lon="1.1012">
        <ele>272.667076</ele>
        <time>2022-05-12T12:47:55.054Z</time>
      </trkpt>
      <trkpt lat="44.41415" lon="1.10138">
        <ele>276.040968</ele>
        <time>2022-05-12T12:47:57.045Z</time>
      </trkpt>
      <trkpt lat="44.41411" lon="1.10151">
        <ele>277.964046</ele>
        <time>2022-05-12T12:47:58.103Z</time>
      </trkpt>
      <trkpt lat="44.41407" lon="1.10163">
        <ele>279.915579</ele>
        <time>2022-05-12T12:47:59.036Z</time>
      </trkpt>
      <trkpt lat="44.41401" lon="1.1019">
        <ele>283.889282</ele>
        <time>2022-05-12T12:48:01.050Z</time>
      </trkpt>
      <trkpt lat="44.41394" lon="1.10211">
        <ele>287.215084</ele>
        <time>2022-05-12T12:48:03.068Z</time>
      </trkpt>
      <trkpt lat="44.41383" lon="1.10222">
        <ele>289.856175</ele>
        <time>2022-05-12T12:48:04.070Z</time>
      </trkpt>
      <trkpt lat="44.41375" lon="1.10233">
        <ele>291.970404</ele>
        <time>2022-05-12T12:48:05.048Z</time>
      </trkpt>
      <trkpt lat="44.41366" lon="1.10248">
        <ele>294.340106</ele>
        <time>2022-05-12T12:48:06.056Z</time>
      </trkpt>
      <trkpt lat="44.4136" lon="1.10261">
        <ele>294.342183</ele>
        <time>2022-05-12T12:48:07.060Z</time>
      </trkpt>
      <trkpt lat="44.41349" lon="1.10273">
        <ele>294.344541</ele>
        <time>2022-05-12T12:48:08.061Z</time>
      </trkpt>
      <trkpt lat="44.41339" lon="1.10287">
        <ele>294.347025</ele>
        <time>2022-05-12T12:48:09.130Z</time>
      </trkpt>
      <trkpt lat="44.41333" lon="1.10301">
        <ele>294.349074</ele>
        <time>2022-05-12T12:48:10.088Z</time>
      </trkpt>
      <trkpt lat="44.41325" lon="1.10312">
        <ele>294.350998</ele>
        <time>2022-05-12T12:48:11.054Z</time>
      </trkpt>
      <trkpt lat="44.41321" lon="1.10323">
        <ele>294.352615</ele>
        <time>2022-05-12T12:48:12.077Z</time>
      </trkpt>
      <trkpt lat="44.41313" lon="1.10335">
        <ele>294.354614</ele>
        <time>2022-05-12T12:48:13.081Z</time>
      </trkpt>
      <trkpt lat="44.41307" lon="1.10346">
        <ele>294.356477</ele>
        <time>2022-05-12T12:48:14.031Z</time>
      </trkpt>
      <trkpt lat="44.41299" lon="1.10359">
        <ele>294.358488</ele>
        <time>2022-05-12T12:48:15.040Z</time>
      </trkpt>
      <trkpt lat="44.41294" lon="1.10371">
        <ele>294.360324</ele>
        <time>2022-05-12T12:48:16.064Z</time>
      </trkpt>
      <trkpt lat="44.41288" lon="1.10383">
        <ele>294.362154</ele>
        <time>2022-05-12T12:48:17.064Z</time>
      </trkpt>
      <trkpt lat="44.41281" lon="1.10397">
        <ele>294.364251</ele>
        <time>2022-05-12T12:48:18.063Z</time>
      </trkpt>
      <trkpt lat="44.41275" lon="1.10411">
        <ele>294.366383</ele>
        <time>2022-05-12T12:48:19.062Z</time>
      </trkpt>
      <trkpt lat="44.41273" lon="1.10424">
        <ele>294.368057</ele>
        <time>2022-05-12T12:48:20.047Z</time>
      </trkpt>
      <trkpt lat="44.41267" lon="1.10439">
        <ele>294.370188</ele>
        <time>2022-05-12T12:48:21.090Z</time>
      </trkpt>
      <trkpt lat="44.4126" lon="1.10453">
        <ele>294.233052</ele>
        <time>2022-05-12T12:48:22.055Z</time>
      </trkpt>
      <trkpt lat="44.41259" lon="1.10466">
        <ele>293.99768</ele>
        <time>2022-05-12T12:48:23.035Z</time>
      </trkpt>
      <trkpt lat="44.41251" lon="1.10481">
        <ele>293.657667</ele>
        <time>2022-05-12T12:48:24.046Z</time>
      </trkpt>
      <trkpt lat="44.4124" lon="1.1049">
        <ele>293.359825</ele>
        <time>2022-05-12T12:48:25.055Z</time>
      </trkpt>
      <trkpt lat="44.41231" lon="1.10496">
        <ele>293.101126</ele>
        <time>2022-05-12T12:48:26.022Z</time>
      </trkpt>
      <trkpt lat="44.41218" lon="1.10502">
        <ele>292.759765</ele>
        <time>2022-05-12T12:48:28.043Z</time>
      </trkpt>
      <trkpt lat="44.41208" lon="1.10509">
        <ele>292.473197</ele>
        <time>2022-05-12T12:48:29.042Z</time>
      </trkpt>
      <trkpt lat="44.41192" lon="1.10519">
        <ele>292.028275</ele>
        <time>2022-05-12T12:48:31.053Z</time>
      </trkpt>
      <trkpt lat="44.41179" lon="1.10527">
        <ele>291.670982</ele>
        <time>2022-05-12T12:48:33.060Z</time>
      </trkpt>
      <trkpt lat="44.41168" lon="1.10536">
        <ele>291.351942</ele>
        <time>2022-05-12T12:48:35.069Z</time>
      </trkpt>
      <trkpt lat="44.41152" lon="1.10544">
        <ele>290.927112</ele>
        <time>2022-05-12T12:48:37.082Z</time>
      </trkpt>
      <trkpt lat="44.41141" lon="1.10554">
        <ele>290.585208</ele>
        <time>2022-05-12T12:48:39.054Z</time>
      </trkpt>
      <trkpt lat="44.41128" lon="1.10557">
        <ele>290.2617</ele>
        <time>2022-05-12T12:48:41.043Z</time>
      </trkpt>
      <trkpt lat="44.41114" lon="1.10558">
        <ele>289.900169</ele>
        <time>2022-05-12T12:48:43.088Z</time>
      </trkpt>
      <trkpt lat="44.41102" lon="1.1056">
        <ele>290.206123</ele>
        <time>2022-05-12T12:48:45.049Z</time>
      </trkpt>
      <trkpt lat="44.41086" lon="1.10561">
        <ele>290.792502</ele>
        <time>2022-05-12T12:48:47.061Z</time>
      </trkpt>
      <trkpt lat="44.41076" lon="1.10563">
        <ele>291.188216</ele>
        <time>2022-05-12T12:48:49.099Z</time>
      </trkpt>
      <trkpt lat="44.41065" lon="1.10565">
        <ele>291.597932</ele>
        <time>2022-05-12T12:48:51.041Z</time>
      </trkpt>
      <trkpt lat="44.41052" lon="1.10567">
        <ele>292.087889</ele>
        <time>2022-05-12T12:48:53.043Z</time>
      </trkpt>
      <trkpt lat="44.41041" lon="1.10571">
        <ele>292.533408</ele>
        <time>2022-05-12T12:48:55.092Z</time>
      </trkpt>
      <trkpt lat="44.4103" lon="1.10575">
        <ele>292.983258</ele>
        <time>2022-05-12T12:48:57.053Z</time>
      </trkpt>
      <trkpt lat="44.41018" lon="1.10579">
        <ele>293.435095</ele>
        <time>2022-05-12T12:48:59.050Z</time>
      </trkpt>
      <trkpt lat="44.41009" lon="1.10584">
        <ele>293.809318</ele>
        <time>2022-05-12T12:49:01.083Z</time>
      </trkpt>
      <trkpt lat="44.40999" lon="1.10587">
        <ele>294.210428</ele>
        <time>2022-05-12T12:49:03.062Z</time>
      </trkpt>
      <trkpt lat="44.40989" lon="1.10591">
        <ele>294.590851</ele>
        <time>2022-05-12T12:49:05.065Z</time>
      </trkpt>
      <trkpt lat="44.40981" lon="1.10598">
        <ele>294.9584</ele>
        <time>2022-05-12T12:49:07.036Z</time>
      </trkpt>
      <trkpt lat="44.4097" lon="1.10599">
        <ele>295.374294</ele>
        <time>2022-05-12T12:49:10.066Z</time>
      </trkpt>
      <trkpt lat="44.40961" lon="1.10604">
        <ele>295.745698</ele>
        <time>2022-05-12T12:49:12.060Z</time>
      </trkpt>
      <trkpt lat="44.4095" lon="1.10609">
        <ele>296.155769</ele>
        <time>2022-05-12T12:49:14.022Z</time>
      </trkpt>
      <trkpt lat="44.40941" lon="1.10617">
        <ele>296.578287</ele>
        <time>2022-05-12T12:49:16.069Z</time>
      </trkpt>
      <trkpt lat="44.40932" lon="1.10624">
        <ele>296.518468</ele>
        <time>2022-05-12T12:49:18.059Z</time>
      </trkpt>
      <trkpt lat="44.40922" lon="1.10631">
        <ele>296.318681</ele>
        <time>2022-05-12T12:49:20.042Z</time>
      </trkpt>
      <trkpt lat="44.40914" lon="1.10636">
        <ele>296.144281</ele>
        <time>2022-05-12T12:49:22.063Z</time>
      </trkpt>
      <trkpt lat="44.40905" lon="1.10646">
        <ele>295.929335</ele>
        <time>2022-05-12T12:49:24.037Z</time>
      </trkpt>
      <trkpt lat="44.40898" lon="1.10662">
        <ele>295.662314</ele>
        <time>2022-05-12T12:49:26.054Z</time>
      </trkpt>
      <trkpt lat="44.40896" lon="1.10674">
        <ele>295.488146</ele>
        <time>2022-05-12T12:49:27.066Z</time>
      </trkpt>
      <trkpt lat="44.40887" lon="1.10687">
        <ele>295.244819</ele>
        <time>2022-05-12T12:49:29.070Z</time>
      </trkpt>
      <trkpt lat="44.4088" lon="1.10702">
        <ele>294.995753</ele>
        <time>2022-05-12T12:49:31.076Z</time>
      </trkpt>
      <trkpt lat="44.40869" lon="1.10719">
        <ele>294.683714</ele>
        <time>2022-05-12T12:49:34.035Z</time>
      </trkpt>
      <trkpt lat="44.40862" lon="1.10731">
        <ele>294.472866</ele>
        <time>2022-05-12T12:49:36.045Z</time>
      </trkpt>
      <trkpt lat="44.40854" lon="1.10746">
        <ele>294.216209</ele>
        <time>2022-05-12T12:49:38.055Z</time>
      </trkpt>
      <trkpt lat="44.40848" lon="1.10757">
        <ele>294.01544</ele>
        <time>2022-05-12T12:49:40.058Z</time>
      </trkpt>
      <trkpt lat="44.40841" lon="1.1077">
        <ele>293.80362</ele>
        <time>2022-05-12T12:49:42.092Z</time>
      </trkpt>
      <trkpt lat="44.40834" lon="1.10782">
        <ele>293.572103</ele>
        <time>2022-05-12T12:49:44.033Z</time>
      </trkpt>
      <trkpt lat="44.40827" lon="1.10792">
        <ele>293.387265</ele>
        <time>2022-05-12T12:49:46.053Z</time>
      </trkpt>
      <trkpt lat="44.40819" lon="1.10802">
        <ele>293.227251</ele>
        <time>2022-05-12T12:49:48.106Z</time>
      </trkpt>
      <trkpt lat="44.4081" lon="1.10811">
        <ele>293.376625</ele>
        <time>2022-05-12T12:49:50.060Z</time>
      </trkpt>
      <trkpt lat="44.40802" lon="1.10819">
        <ele>293.509465</ele>
        <time>2022-05-12T12:49:52.071Z</time>
      </trkpt>
      <trkpt lat="44.40795" lon="1.1083">
        <ele>293.650534</ele>
        <time>2022-05-12T12:49:54.049Z</time>
      </trkpt>
      <trkpt lat="44.40787" lon="1.1084">
        <ele>293.796125</ele>
        <time>2022-05-12T12:49:56.056Z</time>
      </trkpt>
      <trkpt lat="44.40779" lon="1.1085">
        <ele>293.929247</ele>
        <time>2022-05-12T12:49:58.077Z</time>
      </trkpt>
      <trkpt lat="44.40773" lon="1.10859">
        <ele>294.059186</ele>
        <time>2022-05-12T12:50:00.069Z</time>
      </trkpt>
      <trkpt lat="44.40764" lon="1.1087">
        <ele>294.212092</ele>
        <time>2022-05-12T12:50:02.051Z</time>
      </trkpt>
      <trkpt lat="44.40757" lon="1.1088">
        <ele>294.356861</ele>
        <time>2022-05-12T12:50:05.105Z</time>
      </trkpt>
      <trkpt lat="44.40748" lon="1.10891">
        <ele>294.507106</ele>
        <time>2022-05-12T12:50:07.051Z</time>
      </trkpt>
      <trkpt lat="44.40736" lon="1.10898">
        <ele>294.689494</ele>
        <time>2022-05-12T12:50:10.063Z</time>
      </trkpt>
      <trkpt lat="44.40728" lon="1.10906">
        <ele>294.820547</ele>
        <time>2022-05-12T12:50:12.035Z</time>
      </trkpt>
      <trkpt lat="44.40721" lon="1.10917">
        <ele>294.956494</ele>
        <time>2022-05-12T12:50:14.038Z</time>
      </trkpt>
      <trkpt lat="44.40714" lon="1.10925">
        <ele>295.086112</ele>
        <time>2022-05-12T12:50:16.063Z</time>
      </trkpt>
      <trkpt lat="44.40707" lon="1.10934">
        <ele>295.20877</ele>
        <time>2022-05-12T12:50:18.055Z</time>
      </trkpt>
      <trkpt lat="44.40698" lon="1.10941">
        <ele>295.345471</ele>
        <time>2022-05-12T12:50:20.068Z</time>
      </trkpt>
      <trkpt lat="44.40688" lon="1.1095">
        <ele>295.505349</ele>
        <time>2022-05-12T12:50:23.097Z</time>
      </trkpt>
      <trkpt lat="44.40679" lon="1.10959">
        <ele>295.688449</ele>
        <time>2022-05-12T12:50:25.061Z</time>
      </trkpt>
      <trkpt lat="44.4067" lon="1.10969">
        <ele>296.091428</ele>
        <time>2022-05-12T12:50:28.073Z</time>
      </trkpt>
      <trkpt lat="44.40659" lon="1.1098">
        <ele>296.525485</ele>
        <time>2022-05-12T12:50:31.059Z</time>
      </trkpt>
      <trkpt lat="44.4065" lon="1.10987">
        <ele>296.859941</ele>
        <time>2022-05-12T12:50:33.040Z</time>
      </trkpt>
      <trkpt lat="44.40641" lon="1.10996">
        <ele>297.215695</ele>
        <time>2022-05-12T12:50:36.074Z</time>
      </trkpt>
      <trkpt lat="44.40632" lon="1.11007">
        <ele>297.617939</ele>
        <time>2022-05-12T12:50:39.052Z</time>
      </trkpt>
      <trkpt lat="44.40625" lon="1.11021">
        <ele>298.02088</ele>
        <time>2022-05-12T12:50:42.047Z</time>
      </trkpt>
      <trkpt lat="44.40617" lon="1.11035">
        <ele>298.446121</ele>
        <time>2022-05-12T12:50:45.032Z</time>
      </trkpt>
      <trkpt lat="44.40609" lon="1.11048">
        <ele>298.844648</ele>
        <time>2022-05-12T12:50:48.038Z</time>
      </trkpt>
      <trkpt lat="44.40601" lon="1.11062">
        <ele>299.270921</ele>
        <time>2022-05-12T12:50:51.059Z</time>
      </trkpt>
      <trkpt lat="44.40596" lon="1.11072">
        <ele>299.572198</ele>
        <time>2022-05-12T12:50:53.038Z</time>
      </trkpt>
      <trkpt lat="44.4059" lon="1.11084">
        <ele>299.908402</ele>
        <time>2022-05-12T12:50:55.050Z</time>
      </trkpt>
      <trkpt lat="44.40585" lon="1.11096">
        <ele>300.227876</ele>
        <time>2022-05-12T12:50:57.048Z</time>
      </trkpt>
      <trkpt lat="44.4058" lon="1.11107">
        <ele>300.523821</ele>
        <time>2022-05-12T12:50:59.032Z</time>
      </trkpt>
      <trkpt lat="44.40574" lon="1.11118">
        <ele>300.853939</ele>
        <time>2022-05-12T12:51:01.050Z</time>
      </trkpt>
      <trkpt lat="44.40568" lon="1.11133">
        <ele>301.282602</ele>
        <time>2022-05-12T12:51:04.038Z</time>
      </trkpt>
      <trkpt lat="44.40558" lon="1.11145">
        <ele>301.564196</ele>
        <time>2022-05-12T12:51:07.043Z</time>
      </trkpt>
      <trkpt lat="44.40553" lon="1.1116">
        <ele>301.564196</ele>
        <time>2022-05-12T12:51:09.053Z</time>
      </trkpt>
      <trkpt lat="44.40546" lon="1.11177">
        <ele>301.564196</ele>
        <time>2022-05-12T12:51:12.061Z</time>
      </trkpt>
      <trkpt lat="44.4054" lon="1.11192">
        <ele>301.564196</ele>
        <time>2022-05-12T12:51:15.054Z</time>
      </trkpt>
      <trkpt lat="44.40532" lon="1.11209">
        <ele>301.564196</ele>
        <time>2022-05-12T12:51:18.056Z</time>
      </trkpt>
      <trkpt lat="44.40526" lon="1.11219">
        <ele>301.564196</ele>
        <time>2022-05-12T12:51:20.092Z</time>
      </trkpt>
      <trkpt lat="44.40519" lon="1.11232">
        <ele>301.564196</ele>
        <time>2022-05-12T12:51:22.071Z</time>
      </trkpt>
      <trkpt lat="44.40513" lon="1.11245">
        <ele>301.564196</ele>
        <time>2022-05-12T12:51:25.060Z</time>
      </trkpt>
      <trkpt lat="44.40506" lon="1.11256">
        <ele>301.564196</ele>
        <time>2022-05-12T12:51:27.040Z</time>
      </trkpt>
      <trkpt lat="44.40498" lon="1.11272">
        <ele>301.564196</ele>
        <time>2022-05-12T12:51:30.057Z</time>
      </trkpt>
      <trkpt lat="44.40488" lon="1.11282">
        <ele>301.564196</ele>
        <time>2022-05-12T12:51:32.107Z</time>
      </trkpt>
      <trkpt lat="44.40479" lon="1.11299">
        <ele>301.564196</ele>
        <time>2022-05-12T12:51:34.023Z</time>
      </trkpt>
      <trkpt lat="44.40468" lon="1.11311">
        <ele>301.564196</ele>
        <time>2022-05-12T12:51:37.055Z</time>
      </trkpt>
      <trkpt lat="44.4047" lon="1.11309">
        <ele>301.564196</ele>
        <time>2022-05-12T12:51:54.668Z</time>
      </trkpt>
    </trkseg>
  </trk>
</gpx>